<?xml version='1.0' encoding='UTF-8'?><gpx version="1.1" creator="JPX - https://github.com/jenetics/jpx" xmlns="http://www.topografix.com/GPX/1/1"><trk><trkseg><trkpt lat="43.74726223180385" lon="11.181456654780071"><ele>51.0</ele><time>2026-04-03T08:52:44.023Z</time></trkpt><trkpt lat="43.74718692953601" lon="11.181461397068555"><ele>51.0</ele><time>2026-04-03T08:52:49.993Z</time></trkpt><trkpt lat="43.74711323653447" lon="11.181354883465495"><ele>51.0</ele><time>2026-04-03T08:52:51.994Z</time></trkpt><trkpt lat="43.74701810886819" lon="11.181232632768099"><ele>51.0</ele><time>2026-04-03T08:52:52.994Z</time></trkpt><trkpt lat="43.74698125094718" lon="11.18115717875418"><ele>51.0</ele><time>2026-04-03T08:52:53.994Z</time></trkpt><trkpt lat="43.74683955290888" lon="11.181017199090272"><ele>51.0</ele><time>2026-04-03T08:52:54.995Z</time></trkpt><trkpt lat="43.74676385225699" lon="11.180900022115024"><ele>51.0</ele><time>2026-04-03T08:52:55.995Z</time></trkpt><trkpt lat="43.74667006737347" lon="11.180757366627867"><ele>51.0</ele><time>2026-04-03T08:52:56.996Z</time></trkpt><trkpt lat="43.74658127758697" lon="11.18061771012551"><ele>51.0</ele><time>2026-04-03T08:52:57.996Z</time></trkpt><trkpt lat="43.7464968152944" lon="11.180472416559867"><ele>51.0</ele><time>2026-04-03T08:52:58.996Z</time></trkpt><trkpt lat="43.74641342427187" lon="11.180327956873848"><ele>51.0</ele><time>2026-04-03T08:52:59.997Z</time></trkpt><trkpt lat="43.746356977810144" lon="11.18021063524766"><ele>51.0</ele><time>2026-04-03T08:53:00.997Z</time></trkpt><trkpt lat="43.74629631968497" lon="11.180088597999509"><ele>51.0</ele><time>2026-04-03T08:53:01.997Z</time></trkpt><trkpt lat="43.746240644144955" lon="11.17997997696441"><ele>51.0</ele><time>2026-04-03T08:53:02.997Z</time></trkpt><trkpt lat="43.74618460826342" lon="11.179887085240118"><ele>51.25</ele><time>2026-04-03T08:53:03.998Z</time></trkpt><trkpt lat="43.74610846129137" lon="11.179776356293619"><ele>51.5</ele><time>2026-04-03T08:53:04.998Z</time></trkpt><trkpt lat="43.74602383995711" lon="11.17963369085731"><ele>51.75</ele><time>2026-04-03T08:53:05.998Z</time></trkpt><trkpt lat="43.745889397936786" lon="11.179435025462181"><ele>52.0</ele><time>2026-04-03T08:53:06.998Z</time></trkpt><trkpt lat="43.7457748459663" lon="11.179286611592069"><ele>52.0</ele><time>2026-04-03T08:53:07.998Z</time></trkpt><trkpt lat="43.745647221581564" lon="11.179147939670841"><ele>52.0</ele><time>2026-04-03T08:53:08.998Z</time></trkpt><trkpt lat="43.74550419420413" lon="11.179020340368501"><ele>52.0</ele><time>2026-04-03T08:53:09.999Z</time></trkpt><trkpt lat="43.745355220641564" lon="11.178889075786605"><ele>53.0</ele><time>2026-04-03T08:53:10.999Z</time></trkpt><trkpt lat="43.745208096270794" lon="11.178756453639059"><ele>54.0</ele><time>2026-04-03T08:53:11.999Z</time></trkpt><trkpt lat="43.74505079036537" lon="11.178615028100031"><ele>55.0</ele><time>2026-04-03T08:53:12.999Z</time></trkpt><trkpt lat="43.744897546840996" lon="11.178471805183799"><ele>55.0</ele><time>2026-04-03T08:53:13.999Z</time></trkpt><trkpt lat="43.744749857177695" lon="11.178304549027908"><ele>55.0</ele><time>2026-04-03T08:53:14.999Z</time></trkpt><trkpt lat="43.74463685181017" lon="11.178077929970692"><ele>55.0</ele><time>2026-04-03T08:53:15.999Z</time></trkpt><trkpt lat="43.74450948494339" lon="11.177866420894075"><ele>56.0</ele><time>2026-04-03T08:53:16.999Z</time></trkpt><trkpt lat="43.74440655938272" lon="11.177636798786297"><ele>57.0</ele><time>2026-04-03T08:53:18Z</time></trkpt><trkpt lat="43.74429562310478" lon="11.177403700918791"><ele>58.0</ele><time>2026-04-03T08:53:19Z</time></trkpt><trkpt lat="43.74418604326875" lon="11.177179384545592"><ele>59.0</ele><time>2026-04-03T08:53:20Z</time></trkpt><trkpt lat="43.74407738273075" lon="11.176961877913522"><ele>60.0</ele><time>2026-04-03T08:53:21Z</time></trkpt><trkpt lat="43.743960923482405" lon="11.176739964455995"><ele>61.0</ele><time>2026-04-03T08:53:22Z</time></trkpt><trkpt lat="43.74384463110138" lon="11.176523723280612"><ele>60.33333333333333</ele><time>2026-04-03T08:53:23Z</time></trkpt><trkpt lat="43.74371644912139" lon="11.176330958708204"><ele>59.66666666666667</ele><time>2026-04-03T08:53:24Z</time></trkpt><trkpt lat="43.74356077680748" lon="11.176170654742734"><ele>59.0</ele><time>2026-04-03T08:53:25Z</time></trkpt><trkpt lat="43.74338347137922" lon="11.176049238604556"><ele>61.0</ele><time>2026-04-03T08:53:26Z</time></trkpt><trkpt lat="43.743191723803875" lon="11.175954374089248"><ele>63.0</ele><time>2026-04-03T08:53:27Z</time></trkpt><trkpt lat="43.74297390848023" lon="11.175903301950376"><ele>65.0</ele><time>2026-04-03T08:53:28Z</time></trkpt><trkpt lat="43.742764625357786" lon="11.175841775744995"><ele>65.0</ele><time>2026-04-03T08:53:29Z</time></trkpt><trkpt lat="43.74255107830727" lon="11.175770061511736"><ele>65.0</ele><time>2026-04-03T08:53:30Z</time></trkpt><trkpt lat="43.74234577432168" lon="11.175674588354584"><ele>65.0</ele><time>2026-04-03T08:53:31Z</time></trkpt><trkpt lat="43.742146845480434" lon="11.175556069136965"><ele>65.0</ele><time>2026-04-03T08:53:32Z</time></trkpt><trkpt lat="43.741950758661964" lon="11.175429547252962"><ele>65.0</ele><time>2026-04-03T08:53:33.001Z</time></trkpt><trkpt lat="43.74175042362221" lon="11.175299789616467"><ele>65.0</ele><time>2026-04-03T08:53:34.001Z</time></trkpt><trkpt lat="43.74156694816585" lon="11.175147945784083"><ele>66.66666666666667</ele><time>2026-04-03T08:53:35.001Z</time></trkpt><trkpt lat="43.74139218298602" lon="11.174992576342323"><ele>68.33333333333333</ele><time>2026-04-03T08:53:36.001Z</time></trkpt><trkpt lat="43.74121066657978" lon="11.174834932623764"><ele>70.0</ele><time>2026-04-03T08:53:37.001Z</time></trkpt><trkpt lat="43.74103129445627" lon="11.174672711493312"><ele>70.33333333333333</ele><time>2026-04-03T08:53:38.001Z</time></trkpt><trkpt lat="43.740849683235" lon="11.174512492264872"><ele>70.66666666666667</ele><time>2026-04-03T08:53:39.001Z</time></trkpt><trkpt lat="43.7406803273268" lon="11.174376381686901"><ele>71.0</ele><time>2026-04-03T08:53:40.001Z</time></trkpt><trkpt lat="43.74051497759685" lon="11.174248622733453"><ele>71.0</ele><time>2026-04-03T08:53:41.001Z</time></trkpt><trkpt lat="43.7403596210999" lon="11.174129819337779"><ele>71.0</ele><time>2026-04-03T08:53:42.001Z</time></trkpt><trkpt lat="43.74019709054285" lon="11.174036385303815"><ele>71.0</ele><time>2026-04-03T08:53:43.001Z</time></trkpt><trkpt lat="43.74001827052197" lon="11.173947220204774"><ele>70.33333333333334</ele><time>2026-04-03T08:53:44.001Z</time></trkpt><trkpt lat="43.73984241971412" lon="11.17382675001456"><ele>69.66666666666667</ele><time>2026-04-03T08:53:45.001Z</time></trkpt><trkpt lat="43.739675290078814" lon="11.173694806139888"><ele>69.0</ele><time>2026-04-03T08:53:46.001Z</time></trkpt><trkpt lat="43.73952444499132" lon="11.173571586133376"><ele>69.0</ele><time>2026-04-03T08:53:47.001Z</time></trkpt><trkpt lat="43.73939364596247" lon="11.173469158017935"><ele>69.0</ele><time>2026-04-03T08:53:48.001Z</time></trkpt><trkpt lat="43.739287464874224" lon="11.173386636679657"><ele>69.0</ele><time>2026-04-03T08:53:49.001Z</time></trkpt><trkpt lat="43.7392046567575" lon="11.173329580073027"><ele>69.0</ele><time>2026-04-03T08:53:50.001Z</time></trkpt><trkpt lat="43.73914670338445" lon="11.173266883096948"><ele>69.0</ele><time>2026-04-03T08:53:51.001Z</time></trkpt><trkpt lat="43.73900831820709" lon="11.173230453146157"><ele>69.66666666666667</ele><time>2026-04-03T08:53:53.001Z</time></trkpt><trkpt lat="43.738872627635416" lon="11.173233601086144"><ele>70.33333333333334</ele><time>2026-04-03T08:53:54.001Z</time></trkpt><trkpt lat="43.73871252726758" lon="11.17320885582877"><ele>71.0</ele><time>2026-04-03T08:53:55.001Z</time></trkpt><trkpt lat="43.73854317501015" lon="11.173132687170186"><ele>72.33333333333334</ele><time>2026-04-03T08:53:56.001Z</time></trkpt><trkpt lat="43.73837691896605" lon="11.173072588743757"><ele>73.66666666666667</ele><time>2026-04-03T08:53:57.001Z</time></trkpt><trkpt lat="43.73820191568224" lon="11.173022255755303"><ele>75.0</ele><time>2026-04-03T08:53:58.001Z</time></trkpt><trkpt lat="43.73802288439068" lon="11.172977368254626"><ele>75.0</ele><time>2026-04-03T08:53:59.001Z</time></trkpt><trkpt lat="43.73786058669621" lon="11.172937546690893"><ele>75.0</ele><time>2026-04-03T08:54:00.001Z</time></trkpt><trkpt lat="43.7376935456282" lon="11.17290473913962"><ele>75.0</ele><time>2026-04-03T08:54:01.001Z</time></trkpt><trkpt lat="43.73753267802239" lon="11.172879288149488"><ele>75.66666666666667</ele><time>2026-04-03T08:54:02.001Z</time></trkpt><trkpt lat="43.737372976186165" lon="11.172823842285"><ele>76.33333333333334</ele><time>2026-04-03T08:54:03.001Z</time></trkpt><trkpt lat="43.737221275020694" lon="11.172747042305687"><ele>77.0</ele><time>2026-04-03T08:54:04.001Z</time></trkpt><trkpt lat="43.73707901434662" lon="11.172672253977677"><ele>77.0</ele><time>2026-04-03T08:54:05.001Z</time></trkpt><trkpt lat="43.73692450575302" lon="11.172635463719521"><ele>77.0</ele><time>2026-04-03T08:54:06.001Z</time></trkpt><trkpt lat="43.73675184976724" lon="11.172650270321059"><ele>77.0</ele><time>2026-04-03T08:54:07.001Z</time></trkpt><trkpt lat="43.736582077070985" lon="11.172633926931693"><ele>78.66666666666667</ele><time>2026-04-03T08:54:08.001Z</time></trkpt><trkpt lat="43.73639727985487" lon="11.172656151351427"><ele>80.33333333333333</ele><time>2026-04-03T08:54:09.001Z</time></trkpt><trkpt lat="43.73622219880353" lon="11.172602005173307"><ele>82.0</ele><time>2026-04-03T08:54:10.001Z</time></trkpt><trkpt lat="43.73605046493976" lon="11.172516023929798"><ele>83.66666666666666</ele><time>2026-04-03T08:54:11.001Z</time></trkpt><trkpt lat="43.735881407422255" lon="11.172426061068121"><ele>85.33333333333333</ele><time>2026-04-03T08:54:12.001Z</time></trkpt><trkpt lat="43.73572948287074" lon="11.172320213641031"><ele>87.0</ele><time>2026-04-03T08:54:13.001Z</time></trkpt><trkpt lat="43.735591469907824" lon="11.172177968673141"><ele>87.0</ele><time>2026-04-03T08:54:14.001Z</time></trkpt><trkpt lat="43.73545586004976" lon="11.172044257858781"><ele>87.0</ele><time>2026-04-03T08:54:15.001Z</time></trkpt><trkpt lat="43.73532195854005" lon="11.171924677341472"><ele>87.0</ele><time>2026-04-03T08:54:16.001Z</time></trkpt><trkpt lat="43.73517204516723" lon="11.17185347111458"><ele>89.66666666666667</ele><time>2026-04-03T08:54:17.001Z</time></trkpt><trkpt lat="43.735022085566186" lon="11.171798592404194"><ele>92.33333333333334</ele><time>2026-04-03T08:54:18.001Z</time></trkpt><trkpt lat="43.73485501722121" lon="11.171783932274838"><ele>95.0</ele><time>2026-04-03T08:54:19.001Z</time></trkpt><trkpt lat="43.734677131661996" lon="11.171765255527232"><ele>95.0</ele><time>2026-04-03T08:54:20.001Z</time></trkpt><trkpt lat="43.734511743795686" lon="11.171733939895635"><ele>95.0</ele><time>2026-04-03T08:54:21.001Z</time></trkpt><trkpt lat="43.73436671552602" lon="11.171679704939681"><ele>95.0</ele><time>2026-04-03T08:54:22.001Z</time></trkpt><trkpt lat="43.734248347360236" lon="11.171567202203077"><ele>96.0</ele><time>2026-04-03T08:54:23.001Z</time></trkpt><trkpt lat="43.73412592901299" lon="11.17146626017528"><ele>97.0</ele><time>2026-04-03T08:54:24.001Z</time></trkpt><trkpt lat="43.73399617703768" lon="11.171357855782569"><ele>98.0</ele><time>2026-04-03T08:54:25.001Z</time></trkpt><trkpt lat="43.733867405693765" lon="11.171251007139492"><ele>99.0</ele><time>2026-04-03T08:54:26.001Z</time></trkpt><trkpt lat="43.733738360620244" lon="11.171144452206605"><ele>99.0</ele><time>2026-04-03T08:54:27.001Z</time></trkpt><trkpt lat="43.73360299085393" lon="11.171059169418703"><ele>99.0</ele><time>2026-04-03T08:54:28.001Z</time></trkpt><trkpt lat="43.73348279245333" lon="11.170963061112007"><ele>99.0</ele><time>2026-04-03T08:54:29.001Z</time></trkpt><trkpt lat="43.733374124820074" lon="11.17088935293138"><ele>99.0</ele><time>2026-04-03T08:54:30.001Z</time></trkpt><trkpt lat="43.7332901121517" lon="11.17079969351274"><ele>101.2</ele><time>2026-04-03T08:54:31.001Z</time></trkpt><trkpt lat="43.73321131343175" lon="11.170715028548589"><ele>103.4</ele><time>2026-04-03T08:54:32.001Z</time></trkpt><trkpt lat="43.733132898974105" lon="11.170610975200606"><ele>105.6</ele><time>2026-04-03T08:54:33.001Z</time></trkpt><trkpt lat="43.7330665387026" lon="11.170489559050369"><ele>107.8</ele><time>2026-04-03T08:54:34.001Z</time></trkpt><trkpt lat="43.73300109432399" lon="11.170360381733405"><ele>110.0</ele><time>2026-04-03T08:54:35.001Z</time></trkpt><trkpt lat="43.73293527095611" lon="11.170225222401433"><ele>110.0</ele><time>2026-04-03T08:54:36.002Z</time></trkpt><trkpt lat="43.732873466595734" lon="11.170092094760241"><ele>110.0</ele><time>2026-04-03T08:54:37.002Z</time></trkpt><trkpt lat="43.73280676013986" lon="11.1699476810993"><ele>110.0</ele><time>2026-04-03T08:54:38.002Z</time></trkpt><trkpt lat="43.73272589837664" lon="11.169817848860285"><ele>110.0</ele><time>2026-04-03T08:54:39.002Z</time></trkpt><trkpt lat="43.732668649155414" lon="11.169663992416062"><ele>113.75</ele><time>2026-04-03T08:54:40.002Z</time></trkpt><trkpt lat="43.73258774893406" lon="11.16952209974671"><ele>117.5</ele><time>2026-04-03T08:54:41.002Z</time></trkpt><trkpt lat="43.73250299562713" lon="11.169387654065682"><ele>121.25</ele><time>2026-04-03T08:54:42.002Z</time></trkpt><trkpt lat="43.73241792940531" lon="11.169250811280381"><ele>125.0</ele><time>2026-04-03T08:54:43.002Z</time></trkpt><trkpt lat="43.732327497969315" lon="11.169092931907795"><ele>126.0</ele><time>2026-04-03T08:54:44.002Z</time></trkpt><trkpt lat="43.73223263863665" lon="11.16892001951587"><ele>127.0</ele><time>2026-04-03T08:54:45.002Z</time></trkpt><trkpt lat="43.73212523911692" lon="11.168739639500128"><ele>128.0</ele><time>2026-04-03T08:54:46Z</time></trkpt><trkpt lat="43.732017300520205" lon="11.168559749604569"><ele>128.0</ele><time>2026-04-03T08:54:47Z</time></trkpt><trkpt lat="43.731912172620156" lon="11.168393884046264"><ele>128.0</ele><time>2026-04-03T08:54:48Z</time></trkpt><trkpt lat="43.731808415324736" lon="11.168242610821334"><ele>128.0</ele><time>2026-04-03T08:54:49Z</time></trkpt><trkpt lat="43.73170579088736" lon="11.16810274073253"><ele>132.5</ele><time>2026-04-03T08:54:50Z</time></trkpt><trkpt lat="43.731588987869635" lon="11.167979572943397"><ele>137.0</ele><time>2026-04-03T08:54:51Z</time></trkpt><trkpt lat="43.731459569758925" lon="11.16787073155929"><ele>141.5</ele><time>2026-04-03T08:54:52Z</time></trkpt><trkpt lat="43.73134762613095" lon="11.167766177227586"><ele>146.0</ele><time>2026-04-03T08:54:53Z</time></trkpt><trkpt lat="43.731284760419655" lon="11.167671186702444"><ele>146.0</ele><time>2026-04-03T08:54:54Z</time></trkpt><trkpt lat="43.73122589027916" lon="11.167580760603675"><ele>146.0</ele><time>2026-04-03T08:54:55Z</time></trkpt><trkpt lat="43.73118357492852" lon="11.167443760214173"><ele>146.0</ele><time>2026-04-03T08:54:56Z</time></trkpt><trkpt lat="43.731119885828576" lon="11.167334540266205"><ele>146.0</ele><time>2026-04-03T08:54:57Z</time></trkpt><trkpt lat="43.73103781645342" lon="11.167212394377284"><ele>146.0</ele><time>2026-04-03T08:54:58Z</time></trkpt><trkpt lat="43.73092652479018" lon="11.16707726291425"><ele>148.66666666666666</ele><time>2026-04-03T08:54:59Z</time></trkpt><trkpt lat="43.73079635297461" lon="11.166901030991028"><ele>151.33333333333334</ele><time>2026-04-03T08:55:00Z</time></trkpt><trkpt lat="43.73067840061658" lon="11.16669214897858"><ele>154.0</ele><time>2026-04-03T08:55:01Z</time></trkpt><trkpt lat="43.730546265224866" lon="11.16650164556944"><ele>154.0</ele><time>2026-04-03T08:55:02Z</time></trkpt><trkpt lat="43.73041877958259" lon="11.166326186523941"><ele>154.0</ele><time>2026-04-03T08:55:03Z</time></trkpt><trkpt lat="43.73030782790034" lon="11.166169273209002"><ele>154.0</ele><time>2026-04-03T08:55:04Z</time></trkpt><trkpt lat="43.73020138417569" lon="11.166035840831281"><ele>157.25</ele><time>2026-04-03T08:55:05Z</time></trkpt><trkpt lat="43.73008730933813" lon="11.165917405404286"><ele>160.5</ele><time>2026-04-03T08:55:06Z</time></trkpt><trkpt lat="43.72996302904378" lon="11.165832591071199"><ele>163.75</ele><time>2026-04-03T08:55:07Z</time></trkpt><trkpt lat="43.729823968031816" lon="11.165757121699999"><ele>167.0</ele><time>2026-04-03T08:55:08Z</time></trkpt><trkpt lat="43.72968637578822" lon="11.165667960687141"><ele>167.0</ele><time>2026-04-03T08:55:09Z</time></trkpt><trkpt lat="43.729573266491684" lon="11.165569530282129"><ele>167.0</ele><time>2026-04-03T08:55:10Z</time></trkpt><trkpt lat="43.72947664901569" lon="11.165478499870947"><ele>167.0</ele><time>2026-04-03T08:55:11Z</time></trkpt><trkpt lat="43.72937871081448" lon="11.165409336230406"><ele>167.0</ele><time>2026-04-03T08:55:12Z</time></trkpt><trkpt lat="43.72927183479083" lon="11.16538839533656"><ele>171.5</ele><time>2026-04-03T08:55:13Z</time></trkpt><trkpt lat="43.729149895922134" lon="11.165397570229638"><ele>176.0</ele><time>2026-04-03T08:55:14Z</time></trkpt><trkpt lat="43.72901905888533" lon="11.165423901489667"><ele>180.5</ele><time>2026-04-03T08:55:15Z</time></trkpt><trkpt lat="43.72888922204267" lon="11.165447961394403"><ele>185.0</ele><time>2026-04-03T08:55:16Z</time></trkpt><trkpt lat="43.72876806105103" lon="11.165456750775709"><ele>185.0</ele><time>2026-04-03T08:55:17Z</time></trkpt><trkpt lat="43.72865125098431" lon="11.165411651885002"><ele>185.0</ele><time>2026-04-03T08:55:18Z</time></trkpt><trkpt lat="43.728536293229226" lon="11.165389494166707"><ele>185.0</ele><time>2026-04-03T08:55:19Z</time></trkpt><trkpt lat="43.72842529511118" lon="11.165354418194557"><ele>185.0</ele><time>2026-04-03T08:55:20Z</time></trkpt><trkpt lat="43.7283241130623" lon="11.165317195586502"><ele>187.5</ele><time>2026-04-03T08:55:21Z</time></trkpt><trkpt lat="43.72822518744279" lon="11.165226956415516"><ele>190.0</ele><time>2026-04-03T08:55:22Z</time></trkpt><trkpt lat="43.72811533558719" lon="11.165124538195226"><ele>192.5</ele><time>2026-04-03T08:55:23Z</time></trkpt><trkpt lat="43.728004168440314" lon="11.164990099693378"><ele>195.0</ele><time>2026-04-03T08:55:24Z</time></trkpt><trkpt lat="43.72789586166134" lon="11.164874851120448"><ele>196.0</ele><time>2026-04-03T08:55:25Z</time></trkpt><trkpt lat="43.727779444054086" lon="11.164793812181545"><ele>197.0</ele><time>2026-04-03T08:55:26Z</time></trkpt><trkpt lat="43.72765876234628" lon="11.164711646801122"><ele>198.0</ele><time>2026-04-03T08:55:27Z</time></trkpt><trkpt lat="43.72754164258567" lon="11.164668378740917"><ele>199.0</ele><time>2026-04-03T08:55:28Z</time></trkpt><trkpt lat="43.72744946487476" lon="11.164634013988334"><ele>201.39999999999998</ele><time>2026-04-03T08:55:29Z</time></trkpt><trkpt lat="43.72735199914759" lon="11.164557219679022"><ele>203.8</ele><time>2026-04-03T08:55:31Z</time></trkpt><trkpt lat="43.727375155110636" lon="11.164410613036495"><ele>206.2</ele><time>2026-04-03T08:55:33Z</time></trkpt><trkpt lat="43.72743285899689" lon="11.164357410261271"><ele>208.60000000000002</ele><time>2026-04-03T08:55:34Z</time></trkpt><trkpt lat="43.72753779428927" lon="11.164398568869686"><ele>211.0</ele><time>2026-04-03T08:55:35Z</time></trkpt><trkpt lat="43.72764743290508" lon="11.164334710386147"><ele>210.4</ele><time>2026-04-03T08:55:36Z</time></trkpt><trkpt lat="43.727732221680924" lon="11.164248565815416"><ele>209.8</ele><time>2026-04-03T08:55:37Z</time></trkpt><trkpt lat="43.72778022795093" lon="11.164125031918855"><ele>209.20000000000002</ele><time>2026-04-03T08:55:38Z</time></trkpt><trkpt lat="43.72784562311346" lon="11.163994500666597"><ele>208.60000000000002</ele><time>2026-04-03T08:55:39Z</time></trkpt><trkpt lat="43.72788614884104" lon="11.16386751834467"><ele>208.0</ele><time>2026-04-03T08:55:40Z</time></trkpt><trkpt lat="43.72791755287235" lon="11.16376420351944"><ele>208.0</ele><time>2026-04-03T08:55:41Z</time></trkpt><trkpt lat="43.727904301757725" lon="11.163655802080505"><ele>208.0</ele><time>2026-04-03T08:55:42Z</time></trkpt><trkpt lat="43.727829744410165" lon="11.163554296606323"><ele>208.0</ele><time>2026-04-03T08:55:43Z</time></trkpt><trkpt lat="43.727753114201214" lon="11.163381295438189"><ele>208.0</ele><time>2026-04-03T08:55:44Z</time></trkpt><trkpt lat="43.72768820653151" lon="11.163191341509357"><ele>217.33333333333331</ele><time>2026-04-03T08:55:45Z</time></trkpt><trkpt lat="43.72762199153646" lon="11.162999988883197"><ele>226.66666666666669</ele><time>2026-04-03T08:55:46Z</time></trkpt><trkpt lat="43.72758811792877" lon="11.162795946347202"><ele>236.0</ele><time>2026-04-03T08:55:47Z</time></trkpt><trkpt lat="43.72755409925263" lon="11.162587792406107"><ele>236.0</ele><time>2026-04-03T08:55:48Z</time></trkpt><trkpt lat="43.72750101497095" lon="11.162385239132648"><ele>236.0</ele><time>2026-04-03T08:55:49Z</time></trkpt><trkpt lat="43.727478059461305" lon="11.162199353652708"><ele>236.0</ele><time>2026-04-03T08:55:50Z</time></trkpt><trkpt lat="43.72747134264628" lon="11.162076001911293"><ele>236.0</ele><time>2026-04-03T08:55:51Z</time></trkpt><trkpt lat="43.72758828659635" lon="11.161945949231841"><ele>236.33333333333334</ele><time>2026-04-03T08:55:53Z</time></trkpt><trkpt lat="43.72759227984545" lon="11.161849310899388"><ele>236.66666666666669</ele><time>2026-04-03T08:55:54Z</time></trkpt><trkpt lat="43.72755882297013" lon="11.161705494699651"><ele>237.0</ele><time>2026-04-03T08:55:56Z</time></trkpt><trkpt lat="43.72748580862026" lon="11.16167283166765"><ele>237.33333333333331</ele><time>2026-04-03T08:55:57Z</time></trkpt><trkpt lat="43.727394238958055" lon="11.16165422322207"><ele>237.66666666666666</ele><time>2026-04-03T08:55:58Z</time></trkpt><trkpt lat="43.72729907367424" lon="11.161652657162042"><ele>238.0</ele><time>2026-04-03T08:55:59.001Z</time></trkpt><trkpt lat="43.72720788908304" lon="11.16175903057343"><ele>238.0</ele><time>2026-04-03T08:56:00.001Z</time></trkpt><trkpt lat="43.727170853118615" lon="11.161900937224027"><ele>238.0</ele><time>2026-04-03T08:56:01.001Z</time></trkpt><trkpt lat="43.72711223471283" lon="11.162054293288422"><ele>238.0</ele><time>2026-04-03T08:56:02.001Z</time></trkpt><trkpt lat="43.727058206219375" lon="11.162190508917076"><ele>238.0</ele><time>2026-04-03T08:56:03.001Z</time></trkpt><trkpt lat="43.72699631360457" lon="11.162318658615344"><ele>237.60000000000002</ele><time>2026-04-03T08:56:04.001Z</time></trkpt><trkpt lat="43.726924446120236" lon="11.16239511924053"><ele>237.20000000000002</ele><time>2026-04-03T08:56:05.001Z</time></trkpt><trkpt lat="43.72687607950997" lon="11.162473937436946"><ele>236.8</ele><time>2026-04-03T08:56:06.001Z</time></trkpt><trkpt lat="43.726768284181134" lon="11.162484946245064"><ele>236.4</ele><time>2026-04-03T08:56:08.001Z</time></trkpt><trkpt lat="43.72671153910931" lon="11.162263099070126"><ele>236.0</ele><time>2026-04-03T08:56:10.001Z</time></trkpt><trkpt lat="43.72666678990403" lon="11.162158903815591"><ele>243.66666666666669</ele><time>2026-04-03T08:56:11.001Z</time></trkpt><trkpt lat="43.72661680458053" lon="11.1620060174745"><ele>251.33333333333331</ele><time>2026-04-03T08:56:12.001Z</time></trkpt><trkpt lat="43.72652947724249" lon="11.161748245888745"><ele>259.0</ele><time>2026-04-03T08:56:13.001Z</time></trkpt><trkpt lat="43.72645549432109" lon="11.161553518719883"><ele>258.0</ele><time>2026-04-03T08:56:14.001Z</time></trkpt><trkpt lat="43.72636858230993" lon="11.161379059625583"><ele>257.0</ele><time>2026-04-03T08:56:15.001Z</time></trkpt><trkpt lat="43.72628891552738" lon="11.161203142266107"><ele>256.0</ele><time>2026-04-03T08:56:16.001Z</time></trkpt><trkpt lat="43.72621174195916" lon="11.16104311942575"><ele>255.0</ele><time>2026-04-03T08:56:17.001Z</time></trkpt><trkpt lat="43.72611944380695" lon="11.160892971877768"><ele>259.75</ele><time>2026-04-03T08:56:18.001Z</time></trkpt><trkpt lat="43.72603754632008" lon="11.160744367560554"><ele>264.5</ele><time>2026-04-03T08:56:19.001Z</time></trkpt><trkpt lat="43.725957340126996" lon="11.16059083840418"><ele>269.25</ele><time>2026-04-03T08:56:20.001Z</time></trkpt><trkpt lat="43.72587205770394" lon="11.160443497111531"><ele>274.0</ele><time>2026-04-03T08:56:21.001Z</time></trkpt><trkpt lat="43.72578531054446" lon="11.160295879624766"><ele>274.75</ele><time>2026-04-03T08:56:22.001Z</time></trkpt><trkpt lat="43.725704794525555" lon="11.160155531466609"><ele>275.5</ele><time>2026-04-03T08:56:23.001Z</time></trkpt><trkpt lat="43.72560759729426" lon="11.159999647570357"><ele>276.25</ele><time>2026-04-03T08:56:24.001Z</time></trkpt><trkpt lat="43.72550568289211" lon="11.159841245384333"><ele>277.0</ele><time>2026-04-03T08:56:25.001Z</time></trkpt><trkpt lat="43.72541577916581" lon="11.159678308691912"><ele>275.5</ele><time>2026-04-03T08:56:26.001Z</time></trkpt><trkpt lat="43.72532297090858" lon="11.15952598472632"><ele>274.0</ele><time>2026-04-03T08:56:27.001Z</time></trkpt><trkpt lat="43.72522801101911" lon="11.15937113530623"><ele>272.5</ele><time>2026-04-03T08:56:28.001Z</time></trkpt><trkpt lat="43.72513899200038" lon="11.159211654443654"><ele>271.0</ele><time>2026-04-03T08:56:29.001Z</time></trkpt><trkpt lat="43.72504795369718" lon="11.15903613825838"><ele>273.0</ele><time>2026-04-03T08:56:30.001Z</time></trkpt><trkpt lat="43.724945755079354" lon="11.158832142388924"><ele>275.0</ele><time>2026-04-03T08:56:31.001Z</time></trkpt><trkpt lat="43.724843157520745" lon="11.158603037581301"><ele>277.0</ele><time>2026-04-03T08:56:32.001Z</time></trkpt><trkpt lat="43.72475160846673" lon="11.158369051284685"><ele>276.0</ele><time>2026-04-03T08:56:33.001Z</time></trkpt><trkpt lat="43.72465377034891" lon="11.158141122651765"><ele>275.0</ele><time>2026-04-03T08:56:34.001Z</time></trkpt><trkpt lat="43.72456448747484" lon="11.157921200412193"><ele>274.0</ele><time>2026-04-03T08:56:35.001Z</time></trkpt><trkpt lat="43.724479010830436" lon="11.157735681642752"><ele>278.3333333333333</ele><time>2026-04-03T08:56:36.001Z</time></trkpt><trkpt lat="43.72438789934528" lon="11.157581042704868"><ele>282.6666666666667</ele><time>2026-04-03T08:56:37.001Z</time></trkpt><trkpt lat="43.72428589062098" lon="11.157428245497577"><ele>287.0</ele><time>2026-04-03T08:56:38.001Z</time></trkpt><trkpt lat="43.72416979660708" lon="11.157270042159642"><ele>287.0</ele><time>2026-04-03T08:56:39.001Z</time></trkpt><trkpt lat="43.72406150197093" lon="11.157135380193937"><ele>287.0</ele><time>2026-04-03T08:56:40.001Z</time></trkpt><trkpt lat="43.72398744057074" lon="11.157006481166812"><ele>287.0</ele><time>2026-04-03T08:56:41.001Z</time></trkpt><trkpt lat="43.72394212049678" lon="11.156914915366338"><ele>287.0</ele><time>2026-04-03T08:56:42.001Z</time></trkpt><trkpt lat="43.72389696620581" lon="11.156798890273015"><ele>287.0</ele><time>2026-04-03T08:56:44.001Z</time></trkpt><trkpt lat="43.72377854459534" lon="11.156800106740626"><ele>287.0</ele><time>2026-04-03T08:56:46.001Z</time></trkpt><trkpt lat="43.72371297986054" lon="11.156794775567594"><ele>287.0</ele><time>2026-04-03T08:56:47.001Z</time></trkpt><trkpt lat="43.72363848696142" lon="11.15675199626321"><ele>287.0</ele><time>2026-04-03T08:56:48.001Z</time></trkpt><trkpt lat="43.7235736755896" lon="11.156689479404296"><ele>287.0</ele><time>2026-04-03T08:56:49.001Z</time></trkpt><trkpt lat="43.7235037189701" lon="11.156625450267166"><ele>287.0</ele><time>2026-04-03T08:56:50.001Z</time></trkpt><trkpt lat="43.723440949035925" lon="11.156552363622739"><ele>287.0</ele><time>2026-04-03T08:56:51.001Z</time></trkpt><trkpt lat="43.723386868441075" lon="11.156472939387418"><ele>288.6</ele><time>2026-04-03T08:56:51.998Z</time></trkpt><trkpt lat="43.72335292633139" lon="11.15637033338181"><ele>290.2</ele><time>2026-04-03T08:56:52.998Z</time></trkpt><trkpt lat="43.72330029296453" lon="11.156236447449704"><ele>291.8</ele><time>2026-04-03T08:56:53.998Z</time></trkpt><trkpt lat="43.72323718505731" lon="11.156088401867137"><ele>293.4</ele><time>2026-04-03T08:56:54.998Z</time></trkpt><trkpt lat="43.7231827359834" lon="11.155946611399154"><ele>295.0</ele><time>2026-04-03T08:56:55.998Z</time></trkpt><trkpt lat="43.72313637557435" lon="11.155802943072755"><ele>297.0</ele><time>2026-04-03T08:56:56.998Z</time></trkpt><trkpt lat="43.72311529562369" lon="11.155639593675028"><ele>299.0</ele><time>2026-04-03T08:56:57.999Z</time></trkpt><trkpt lat="43.7230767318741" lon="11.155491402251739"><ele>301.0</ele><time>2026-04-03T08:56:58.999Z</time></trkpt><trkpt lat="43.723022095070476" lon="11.155355457565049"><ele>303.0</ele><time>2026-04-03T08:56:59.999Z</time></trkpt><trkpt lat="43.72297446161204" lon="11.155230529787115"><ele>305.0</ele><time>2026-04-03T08:57:00.999Z</time></trkpt><trkpt lat="43.72289263408823" lon="11.155132547910997"><ele>305.0</ele><time>2026-04-03T08:57:01.999Z</time></trkpt><trkpt lat="43.72280395445402" lon="11.155010397795268"><ele>305.0</ele><time>2026-04-03T08:57:02.999Z</time></trkpt><trkpt lat="43.7226979598518" lon="11.154905460114131"><ele>305.0</ele><time>2026-04-03T08:57:03.999Z</time></trkpt><trkpt lat="43.722580422419576" lon="11.154845602383286"><ele>305.0</ele><time>2026-04-03T08:57:04.999Z</time></trkpt><trkpt lat="43.72247953206314" lon="11.154803157227828"><ele>308.5</ele><time>2026-04-03T08:57:05.999Z</time></trkpt><trkpt lat="43.72237386352507" lon="11.154781666505945"><ele>312.0</ele><time>2026-04-03T08:57:06.999Z</time></trkpt><trkpt lat="43.72225217604598" lon="11.154816329918631"><ele>315.5</ele><time>2026-04-03T08:57:07.999Z</time></trkpt><trkpt lat="43.72213401489798" lon="11.154834928356532"><ele>319.0</ele><time>2026-04-03T08:57:08.999Z</time></trkpt><trkpt lat="43.722003011165704" lon="11.154843606974415"><ele>318.2</ele><time>2026-04-03T08:57:09.999Z</time></trkpt><trkpt lat="43.721888514963375" lon="11.154813716666707"><ele>317.4</ele><time>2026-04-03T08:57:10.999Z</time></trkpt><trkpt lat="43.721798568914316" lon="11.154732938122855"><ele>316.6</ele><time>2026-04-03T08:57:11.999Z</time></trkpt><trkpt lat="43.721715133906486" lon="11.154667536581984"><ele>315.8</ele><time>2026-04-03T08:57:12.999Z</time></trkpt><trkpt lat="43.72163832534732" lon="11.15455477219654"><ele>315.0</ele><time>2026-04-03T08:57:13.999Z</time></trkpt><trkpt lat="43.72154122324817" lon="11.154427272879074"><ele>315.0</ele><time>2026-04-03T08:57:14.999Z</time></trkpt><trkpt lat="43.72143418644904" lon="11.154294689283315"><ele>315.0</ele><time>2026-04-03T08:57:15.999Z</time></trkpt><trkpt lat="43.72133196282705" lon="11.154129119163574"><ele>315.0</ele><time>2026-04-03T08:57:16.999Z</time></trkpt><trkpt lat="43.72122522500895" lon="11.153995110166283"><ele>315.0</ele><time>2026-04-03T08:57:17.999Z</time></trkpt><trkpt lat="43.721112564035636" lon="11.153854074794108"><ele>316.5</ele><time>2026-04-03T08:57:18.999Z</time></trkpt><trkpt lat="43.72099784630375" lon="11.153709756436868"><ele>318.0</ele><time>2026-04-03T08:57:20Z</time></trkpt><trkpt lat="43.720889590503674" lon="11.153580750467635"><ele>319.5</ele><time>2026-04-03T08:57:21Z</time></trkpt><trkpt lat="43.72076267578243" lon="11.153477490056007"><ele>321.0</ele><time>2026-04-03T08:57:22Z</time></trkpt><trkpt lat="43.720633264799964" lon="11.153339103122596"><ele>321.0</ele><time>2026-04-03T08:57:23Z</time></trkpt><trkpt lat="43.72050868481667" lon="11.153241790172782"><ele>321.0</ele><time>2026-04-03T08:57:24Z</time></trkpt><trkpt lat="43.72042529793854" lon="11.153141445209835"><ele>321.0</ele><time>2026-04-03T08:57:25Z</time></trkpt><trkpt lat="43.720334935939874" lon="11.153068978094735"><ele>321.0</ele><time>2026-04-03T08:57:26Z</time></trkpt><trkpt lat="43.720256209267376" lon="11.152997366142976"><ele>319.6</ele><time>2026-04-03T08:57:27Z</time></trkpt><trkpt lat="43.720192231112044" lon="11.152947661140873"><ele>318.20000000000005</ele><time>2026-04-03T08:57:28Z</time></trkpt><trkpt lat="43.72009868613746" lon="11.152955357112543"><ele>316.79999999999995</ele><time>2026-04-03T08:57:29Z</time></trkpt><trkpt lat="43.71998012168132" lon="11.15293181072399"><ele>315.4</ele><time>2026-04-03T08:57:30Z</time></trkpt><trkpt lat="43.71985212795633" lon="11.15293551389566"><ele>314.0</ele><time>2026-04-03T08:57:31Z</time></trkpt><trkpt lat="43.719719518362574" lon="11.15292488126723"><ele>314.0</ele><time>2026-04-03T08:57:32Z</time></trkpt><trkpt lat="43.71959012451068" lon="11.152886418328018"><ele>314.0</ele><time>2026-04-03T08:57:33Z</time></trkpt><trkpt lat="43.71947746235083" lon="11.15285463647068"><ele>314.0</ele><time>2026-04-03T08:57:34Z</time></trkpt><trkpt lat="43.719387477550164" lon="11.152789864479413"><ele>314.0</ele><time>2026-04-03T08:57:35Z</time></trkpt><trkpt lat="43.7192787926667" lon="11.15276507129877"><ele>314.0</ele><time>2026-04-03T08:57:36Z</time></trkpt><trkpt lat="43.71916950455104" lon="11.152732696811123"><ele>314.0</ele><time>2026-04-03T08:57:37Z</time></trkpt><trkpt lat="43.71906504273488" lon="11.152711761905993"><ele>314.0</ele><time>2026-04-03T08:57:38Z</time></trkpt><trkpt lat="43.71897895294956" lon="11.152656054832702"><ele>314.0</ele><time>2026-04-03T08:57:39Z</time></trkpt><trkpt lat="43.718907617078514" lon="11.152623694717384"><ele>314.0</ele><time>2026-04-03T08:57:40Z</time></trkpt><trkpt lat="43.71883201720795" lon="11.152612265595312"><ele>314.0</ele><time>2026-04-03T08:57:41Z</time></trkpt><trkpt lat="43.71873002705514" lon="11.152602127772688"><ele>314.0</ele><time>2026-04-03T08:57:42Z</time></trkpt><trkpt lat="43.71862470832617" lon="11.152625190279917"><ele>314.0</ele><time>2026-04-03T08:57:43Z</time></trkpt><trkpt lat="43.718516305180465" lon="11.152654123399527"><ele>314.0</ele><time>2026-04-03T08:57:44Z</time></trkpt><trkpt lat="43.71841029671468" lon="11.152673335602408"><ele>314.0</ele><time>2026-04-03T08:57:45Z</time></trkpt><trkpt lat="43.71831625648366" lon="11.152699696114201"><ele>314.0</ele><time>2026-04-03T08:57:46Z</time></trkpt><trkpt lat="43.71822843231599" lon="11.152736715526304"><ele>314.0</ele><time>2026-04-03T08:57:47Z</time></trkpt><trkpt lat="43.71815367597577" lon="11.152833757349121"><ele>314.0</ele><time>2026-04-03T08:57:48Z</time></trkpt><trkpt lat="43.71811449784422" lon="11.152980706652261"><ele>314.0</ele><time>2026-04-03T08:57:49Z</time></trkpt><trkpt lat="43.718068818860495" lon="11.153079450596186"><ele>314.0</ele><time>2026-04-03T08:57:50Z</time></trkpt><trkpt lat="43.71798827284078" lon="11.153102205806995"><ele>314.0</ele><time>2026-04-03T08:57:51Z</time></trkpt><trkpt lat="43.71790812679591" lon="11.153108125960848"><ele>314.0</ele><time>2026-04-03T08:57:52Z</time></trkpt><trkpt lat="43.7178133685464" lon="11.153093412405104"><ele>314.0</ele><time>2026-04-03T08:57:53Z</time></trkpt><trkpt lat="43.71772040652937" lon="11.153041779359073"><ele>314.0</ele><time>2026-04-03T08:57:54Z</time></trkpt><trkpt lat="43.717563555494046" lon="11.152943570369418"><ele>314.0</ele><time>2026-04-03T08:57:55Z</time></trkpt><trkpt lat="43.717432463086254" lon="11.152904393499025"><ele>313.25</ele><time>2026-04-03T08:57:56Z</time></trkpt><trkpt lat="43.717340622962" lon="11.152895090008364"><ele>312.5</ele><time>2026-04-03T08:57:57Z</time></trkpt><trkpt lat="43.71722157988732" lon="11.152936764388794"><ele>311.75</ele><time>2026-04-03T08:57:58Z</time></trkpt><trkpt lat="43.71710287279453" lon="11.152928960733917"><ele>311.0</ele><time>2026-04-03T08:57:59Z</time></trkpt><trkpt lat="43.71699221849138" lon="11.15287620969341"><ele>314.5</ele><time>2026-04-03T08:58:00Z</time></trkpt><trkpt lat="43.71685232084716" lon="11.152779369325781"><ele>318.0</ele><time>2026-04-03T08:58:01Z</time></trkpt><trkpt lat="43.71672276567567" lon="11.152676229558026"><ele>321.5</ele><time>2026-04-03T08:58:02Z</time></trkpt><trkpt lat="43.71663248182876" lon="11.152587979293477"><ele>325.0</ele><time>2026-04-03T08:58:03Z</time></trkpt><trkpt lat="43.71655932854403" lon="11.152501390061431"><ele>325.0</ele><time>2026-04-03T08:58:04Z</time></trkpt><trkpt lat="43.71648865417093" lon="11.15245058700287"><ele>325.0</ele><time>2026-04-03T08:58:05Z</time></trkpt><trkpt lat="43.71641455379344" lon="11.152443746288963"><ele>325.0</ele><time>2026-04-03T08:58:06Z</time></trkpt><trkpt lat="43.71632482785915" lon="11.152436616983106"><ele>325.0</ele><time>2026-04-03T08:58:07Z</time></trkpt><trkpt lat="43.7162236679568" lon="11.152444434277124"><ele>325.0</ele><time>2026-04-03T08:58:08Z</time></trkpt><trkpt lat="43.716111087068484" lon="11.152468917437393"><ele>327.0</ele><time>2026-04-03T08:58:09.001Z</time></trkpt><trkpt lat="43.715987986544405" lon="11.152479256227268"><ele>329.0</ele><time>2026-04-03T08:58:10.001Z</time></trkpt><trkpt lat="43.71584982538483" lon="11.152488150510191"><ele>331.0</ele><time>2026-04-03T08:58:11.001Z</time></trkpt><trkpt lat="43.71572218989656" lon="11.152515898301148"><ele>333.0</ele><time>2026-04-03T08:58:12.001Z</time></trkpt><trkpt lat="43.7156059141252" lon="11.152553231170296"><ele>333.0</ele><time>2026-04-03T08:58:13.001Z</time></trkpt><trkpt lat="43.71551663943826" lon="11.152622553839528"><ele>333.0</ele><time>2026-04-03T08:58:14.001Z</time></trkpt><trkpt lat="43.715468462293316" lon="11.152715532895987"><ele>333.0</ele><time>2026-04-03T08:58:15.001Z</time></trkpt><trkpt lat="43.71544135288176" lon="11.15282736773429"><ele>333.0</ele><time>2026-04-03T08:58:16.001Z</time></trkpt><trkpt lat="43.715427863203146" lon="11.152977912324113"><ele>333.0</ele><time>2026-04-03T08:58:17.001Z</time></trkpt><trkpt lat="43.71538906632193" lon="11.153085485842858"><ele>333.0</ele><time>2026-04-03T08:58:18.001Z</time></trkpt><trkpt lat="43.71528736917784" lon="11.153125734176818"><ele>333.0</ele><time>2026-04-03T08:58:19.001Z</time></trkpt><trkpt lat="43.71514947307763" lon="11.15318620643068"><ele>333.0</ele><time>2026-04-03T08:58:20.001Z</time></trkpt><trkpt lat="43.71500258838464" lon="11.153259222316283"><ele>333.0</ele><time>2026-04-03T08:58:21.001Z</time></trkpt><trkpt lat="43.71484996992377" lon="11.153342121273806"><ele>332.5</ele><time>2026-04-03T08:58:22.001Z</time></trkpt><trkpt lat="43.714705748110426" lon="11.153423395425822"><ele>332.0</ele><time>2026-04-03T08:58:23.001Z</time></trkpt><trkpt lat="43.714579285793626" lon="11.153489690965234"><ele>331.5</ele><time>2026-04-03T08:58:24.001Z</time></trkpt><trkpt lat="43.71448482212415" lon="11.153494363778973"><ele>331.0</ele><time>2026-04-03T08:58:25.001Z</time></trkpt><trkpt lat="43.714403040463125" lon="11.153491544485135"><ele>328.2</ele><time>2026-04-03T08:58:26.001Z</time></trkpt><trkpt lat="43.714311094019706" lon="11.15348693561305"><ele>325.40000000000003</ele><time>2026-04-03T08:58:28.001Z</time></trkpt><trkpt lat="43.714254370910034" lon="11.153739949865264"><ele>322.6</ele><time>2026-04-03T08:58:31.001Z</time></trkpt><trkpt lat="43.71424553823209" lon="11.153848991316305"><ele>319.8</ele><time>2026-04-03T08:58:32.001Z</time></trkpt><trkpt lat="43.71423745577117" lon="11.153963922726023"><ele>317.0</ele><time>2026-04-03T08:58:33.001Z</time></trkpt><trkpt lat="43.71422782741764" lon="11.154082556952181"><ele>317.0</ele><time>2026-04-03T08:58:34.001Z</time></trkpt><trkpt lat="43.714190804855455" lon="11.154185528805318"><ele>317.0</ele><time>2026-04-03T08:58:35.001Z</time></trkpt><trkpt lat="43.71417685633242" lon="11.15430026618932"><ele>317.0</ele><time>2026-04-03T08:58:36.001Z</time></trkpt><trkpt lat="43.714162475363196" lon="11.154412083508843"><ele>317.0</ele><time>2026-04-03T08:58:37.001Z</time></trkpt><trkpt lat="43.71414432355883" lon="11.154525681702035"><ele>317.0</ele><time>2026-04-03T08:58:38.001Z</time></trkpt><trkpt lat="43.714119608721106" lon="11.154627065156737"><ele>317.0</ele><time>2026-04-03T08:58:39.001Z</time></trkpt><trkpt lat="43.71410191699385" lon="11.154719885824639"><ele>317.0</ele><time>2026-04-03T08:58:40.001Z</time></trkpt><trkpt lat="43.714084084217966" lon="11.154806308072672"><ele>317.0</ele><time>2026-04-03T08:58:41.001Z</time></trkpt><trkpt lat="43.71405938697613" lon="11.154963858678322"><ele>317.0</ele><time>2026-04-03T08:58:43.001Z</time></trkpt><trkpt lat="43.71407645057611" lon="11.155052810513508"><ele>317.0</ele><time>2026-04-03T08:58:44.001Z</time></trkpt><trkpt lat="43.71410608689694" lon="11.155165119267807"><ele>317.0</ele><time>2026-04-03T08:58:45.001Z</time></trkpt><trkpt lat="43.71414493912552" lon="11.155290975797104"><ele>317.0</ele><time>2026-04-03T08:58:46.001Z</time></trkpt><trkpt lat="43.71417836398991" lon="11.155400118992821"><ele>317.0</ele><time>2026-04-03T08:58:47.001Z</time></trkpt><trkpt lat="43.71420464809085" lon="11.155484160168049"><ele>317.0</ele><time>2026-04-03T08:58:48.001Z</time></trkpt><trkpt lat="43.714202796899684" lon="11.15563899124999"><ele>317.0</ele><time>2026-04-03T08:58:50.001Z</time></trkpt><trkpt lat="43.71414638408814" lon="11.155787770078824"><ele>317.0</ele><time>2026-04-03T08:58:52.001Z</time></trkpt><trkpt lat="43.714093024214726" lon="11.155886271428153"><ele>317.0</ele><time>2026-04-03T08:58:53.001Z</time></trkpt><trkpt lat="43.7140385142494" lon="11.155999894449693"><ele>317.0</ele><time>2026-04-03T08:58:54.001Z</time></trkpt><trkpt lat="43.71398435893984" lon="11.156111245526882"><ele>317.0</ele><time>2026-04-03T08:58:55.001Z</time></trkpt><trkpt lat="43.71393452085677" lon="11.15622079953625"><ele>317.0</ele><time>2026-04-03T08:58:56.001Z</time></trkpt><trkpt lat="43.713887514105494" lon="11.156330366422383"><ele>317.0</ele><time>2026-04-03T08:58:57.001Z</time></trkpt><trkpt lat="43.71384226170116" lon="11.156436113429269"><ele>317.0</ele><time>2026-04-03T08:58:57.999Z</time></trkpt><trkpt lat="43.713797623874676" lon="11.156543548100741"><ele>318.8</ele><time>2026-04-03T08:58:58.999Z</time></trkpt><trkpt lat="43.713751776655926" lon="11.15666306360569"><ele>320.6</ele><time>2026-04-03T08:58:59.999Z</time></trkpt><trkpt lat="43.71369923736927" lon="11.156789745649492"><ele>322.40000000000003</ele><time>2026-04-03T08:59:00.999Z</time></trkpt><trkpt lat="43.71364347425711" lon="11.156910339142117"><ele>324.2</ele><time>2026-04-03T08:59:01.999Z</time></trkpt><trkpt lat="43.71359573776438" lon="11.157015944283978"><ele>326.0</ele><time>2026-04-03T08:59:02.999Z</time></trkpt><trkpt lat="43.713558190566985" lon="11.157111929390194"><ele>322.6</ele><time>2026-04-03T08:59:03.999Z</time></trkpt><trkpt lat="43.71352001594155" lon="11.157201603958091"><ele>319.20000000000005</ele><time>2026-04-03T08:59:04.999Z</time></trkpt><trkpt lat="43.71347227529436" lon="11.157318222306516"><ele>315.79999999999995</ele><time>2026-04-03T08:59:05.999Z</time></trkpt><trkpt lat="43.71341733950696" lon="11.157433421353161"><ele>312.4</ele><time>2026-04-03T08:59:06.999Z</time></trkpt><trkpt lat="43.71337774054859" lon="11.157537625594722"><ele>309.0</ele><time>2026-04-03T08:59:07.999Z</time></trkpt><trkpt lat="43.71332953307423" lon="11.157648226866637"><ele>309.0</ele><time>2026-04-03T08:59:08.999Z</time></trkpt><trkpt lat="43.713292635263905" lon="11.157750906807374"><ele>309.0</ele><time>2026-04-03T08:59:09.999Z</time></trkpt><trkpt lat="43.71325824784783" lon="11.157851013719622"><ele>309.0</ele><time>2026-04-03T08:59:10.999Z</time></trkpt><trkpt lat="43.713232251726" lon="11.157942353291062"><ele>309.0</ele><time>2026-04-03T08:59:11.999Z</time></trkpt><trkpt lat="43.71319381516161" lon="11.158027033684071"><ele>309.0</ele><time>2026-04-03T08:59:12.999Z</time></trkpt><trkpt lat="43.713149463000676" lon="11.15810710524595"><ele>309.0</ele><time>2026-04-03T08:59:13.999Z</time></trkpt><trkpt lat="43.713090068174346" lon="11.158173483304063"><ele>308.0</ele><time>2026-04-03T08:59:15Z</time></trkpt><trkpt lat="43.7130204002837" lon="11.158227735371936"><ele>307.0</ele><time>2026-04-03T08:59:16Z</time></trkpt><trkpt lat="43.71295224689733" lon="11.158288046864591"><ele>306.0</ele><time>2026-04-03T08:59:17Z</time></trkpt><trkpt lat="43.71286643260029" lon="11.158355851092692"><ele>305.0</ele><time>2026-04-03T08:59:18Z</time></trkpt><trkpt lat="43.71279252417618" lon="11.158428976058534"><ele>304.0</ele><time>2026-04-03T08:59:19Z</time></trkpt><trkpt lat="43.71273192393575" lon="11.158494083163804"><ele>303.0</ele><time>2026-04-03T08:59:20Z</time></trkpt><trkpt lat="43.71266903970944" lon="11.15855800087376"><ele>303.0</ele><time>2026-04-03T08:59:21Z</time></trkpt><trkpt lat="43.71260476427028" lon="11.158630020966687"><ele>303.0</ele><time>2026-04-03T08:59:22Z</time></trkpt><trkpt lat="43.71254403679626" lon="11.158702878478895"><ele>303.0</ele><time>2026-04-03T08:59:23Z</time></trkpt><trkpt lat="43.71248723566704" lon="11.158770940198817"><ele>303.0</ele><time>2026-04-03T08:59:24Z</time></trkpt><trkpt lat="43.712430797065245" lon="11.158857967651974"><ele>303.0</ele><time>2026-04-03T08:59:25Z</time></trkpt><trkpt lat="43.71238573907242" lon="11.158964803209837"><ele>303.0</ele><time>2026-04-03T08:59:26Z</time></trkpt><trkpt lat="43.71233942981226" lon="11.159078968833972"><ele>305.3333333333333</ele><time>2026-04-03T08:59:27Z</time></trkpt><trkpt lat="43.712319197592095" lon="11.159195181002252"><ele>307.6666666666667</ele><time>2026-04-03T08:59:28Z</time></trkpt><trkpt lat="43.71228426221047" lon="11.159305808798354"><ele>310.0</ele><time>2026-04-03T08:59:29Z</time></trkpt><trkpt lat="43.712251469960854" lon="11.159415271679165"><ele>312.33333333333337</ele><time>2026-04-03T08:59:30Z</time></trkpt><trkpt lat="43.712222482340515" lon="11.15952264026671"><ele>314.6666666666667</ele><time>2026-04-03T08:59:31Z</time></trkpt><trkpt lat="43.71218479646688" lon="11.159625982706121"><ele>317.0</ele><time>2026-04-03T08:59:32Z</time></trkpt><trkpt lat="43.71215116602279" lon="11.15972902995772"><ele>317.0</ele><time>2026-04-03T08:59:33Z</time></trkpt><trkpt lat="43.71211763559893" lon="11.159847379617498"><ele>317.0</ele><time>2026-04-03T08:59:34Z</time></trkpt><trkpt lat="43.71208550953561" lon="11.159954388793516"><ele>317.0</ele><time>2026-04-03T08:59:35Z</time></trkpt><trkpt lat="43.712066186273184" lon="11.160053591063194"><ele>317.0</ele><time>2026-04-03T08:59:36Z</time></trkpt><trkpt lat="43.711996474780186" lon="11.160181503391486"><ele>317.0</ele><time>2026-04-03T08:59:38Z</time></trkpt><trkpt lat="43.711945159557494" lon="11.160232264669085"><ele>317.0</ele><time>2026-04-03T08:59:39Z</time></trkpt><trkpt lat="43.71185159199204" lon="11.160292763950146"><ele>312.0</ele><time>2026-04-03T08:59:41Z</time></trkpt><trkpt lat="43.711715718699885" lon="11.1603216249514"><ele>307.0</ele><time>2026-04-03T08:59:43Z</time></trkpt><trkpt lat="43.71160110708734" lon="11.160381467934585"><ele>302.0</ele><time>2026-04-03T08:59:45Z</time></trkpt><trkpt lat="43.71152169800121" lon="11.160443497685707"><ele>297.0</ele><time>2026-04-03T08:59:47Z</time></trkpt><trkpt lat="43.711442989842766" lon="11.160581217344395"><ele>297.0</ele><time>2026-04-03T08:59:49Z</time></trkpt><trkpt lat="43.711434412397466" lon="11.160696322412342"><ele>297.0</ele><time>2026-04-03T08:59:50Z</time></trkpt><trkpt lat="43.711401628359035" lon="11.16080472873842"><ele>297.0</ele><time>2026-04-03T08:59:51Z</time></trkpt><trkpt lat="43.71136969509333" lon="11.16093162198813"><ele>297.0</ele><time>2026-04-03T08:59:52.001Z</time></trkpt><trkpt lat="43.711336911489724" lon="11.161066880387896"><ele>297.0</ele><time>2026-04-03T08:59:53.001Z</time></trkpt><trkpt lat="43.71131348181495" lon="11.161188701527484"><ele>299.4</ele><time>2026-04-03T08:59:54.001Z</time></trkpt><trkpt lat="43.71128799186336" lon="11.161304901026503"><ele>301.79999999999995</ele><time>2026-04-03T08:59:55.001Z</time></trkpt><trkpt lat="43.711278771846686" lon="11.161430794127629"><ele>304.2</ele><time>2026-04-03T08:59:56.001Z</time></trkpt><trkpt lat="43.71128056902098" lon="11.161557035564945"><ele>306.59999999999997</ele><time>2026-04-03T08:59:57.001Z</time></trkpt><trkpt lat="43.711278906956096" lon="11.16168490839872"><ele>309.0</ele><time>2026-04-03T08:59:58.001Z</time></trkpt><trkpt lat="43.711273951783255" lon="11.16181293612292"><ele>310.1666666666667</ele><time>2026-04-03T08:59:59.001Z</time></trkpt><trkpt lat="43.711270870456495" lon="11.161946632344982"><ele>311.3333333333333</ele><time>2026-04-03T09:00:00.001Z</time></trkpt><trkpt lat="43.71127011329151" lon="11.162068306753067"><ele>312.5</ele><time>2026-04-03T09:00:01.001Z</time></trkpt><trkpt lat="43.711248814673766" lon="11.16217543050223"><ele>313.66666666666663</ele><time>2026-04-03T09:00:02.001Z</time></trkpt><trkpt lat="43.711261273658415" lon="11.162296015211922"><ele>314.8333333333333</ele><time>2026-04-03T09:00:03.001Z</time></trkpt><trkpt lat="43.711259923970665" lon="11.162411295699323"><ele>316.0</ele><time>2026-04-03T09:00:04.001Z</time></trkpt><trkpt lat="43.71126150969315" lon="11.16251397666801"><ele>316.0</ele><time>2026-04-03T09:00:05.001Z</time></trkpt><trkpt lat="43.71127829544951" lon="11.162619608672781"><ele>316.0</ele><time>2026-04-03T09:00:06.001Z</time></trkpt><trkpt lat="43.71128618147735" lon="11.162716855621975"><ele>316.0</ele><time>2026-04-03T09:00:07.001Z</time></trkpt><trkpt lat="43.711338537141906" lon="11.162855582651318"><ele>316.0</ele><time>2026-04-03T09:00:09.001Z</time></trkpt><trkpt lat="43.7114437040288" lon="11.162965242090408"><ele>316.0</ele><time>2026-04-03T09:00:11.001Z</time></trkpt><trkpt lat="43.711532438422665" lon="11.163048542929106"><ele>316.0</ele><time>2026-04-03T09:00:13.001Z</time></trkpt><trkpt lat="43.71164216006534" lon="11.16309366905862"><ele>316.0</ele><time>2026-04-03T09:00:15.001Z</time></trkpt><trkpt lat="43.71171254828775" lon="11.163171041633536"><ele>316.0</ele><time>2026-04-03T09:00:16.001Z</time></trkpt><trkpt lat="43.71180047894864" lon="11.163224798831736"><ele>316.0</ele><time>2026-04-03T09:00:17.001Z</time></trkpt><trkpt lat="43.71189921378678" lon="11.163280622062924"><ele>316.0</ele><time>2026-04-03T09:00:18.001Z</time></trkpt><trkpt lat="43.71199719792317" lon="11.163348114531678"><ele>316.0</ele><time>2026-04-03T09:00:19.001Z</time></trkpt><trkpt lat="43.71209781315415" lon="11.163416291848247"><ele>316.0</ele><time>2026-04-03T09:00:20.001Z</time></trkpt><trkpt lat="43.71220922862108" lon="11.163476833004129"><ele>316.0</ele><time>2026-04-03T09:00:21.001Z</time></trkpt><trkpt lat="43.7122952165971" lon="11.163526145637332"><ele>316.0</ele><time>2026-04-03T09:00:22.001Z</time></trkpt><trkpt lat="43.71238778952596" lon="11.163576082282296"><ele>316.0</ele><time>2026-04-03T09:00:23.001Z</time></trkpt><trkpt lat="43.71248050361106" lon="11.163619706609312"><ele>316.0</ele><time>2026-04-03T09:00:24.001Z</time></trkpt><trkpt lat="43.71256298427226" lon="11.163673490001653"><ele>316.0</ele><time>2026-04-03T09:00:25.001Z</time></trkpt><trkpt lat="43.712660175748574" lon="11.163734872788046"><ele>316.0</ele><time>2026-04-03T09:00:26.001Z</time></trkpt><trkpt lat="43.71274168474446" lon="11.16377973306488"><ele>316.0</ele><time>2026-04-03T09:00:27.001Z</time></trkpt><trkpt lat="43.71281427635517" lon="11.163824345399405"><ele>316.0</ele><time>2026-04-03T09:00:28.001Z</time></trkpt><trkpt lat="43.71289002425196" lon="11.16385874487645"><ele>316.0</ele><time>2026-04-03T09:00:29.001Z</time></trkpt><trkpt lat="43.71295830793477" lon="11.163871644879059"><ele>317.4</ele><time>2026-04-03T09:00:30.001Z</time></trkpt><trkpt lat="43.71306894914249" lon="11.163903720122189"><ele>318.8</ele><time>2026-04-03T09:00:32.001Z</time></trkpt><trkpt lat="43.713145083525696" lon="11.163890591302845"><ele>320.2</ele><time>2026-04-03T09:00:33.001Z</time></trkpt><trkpt lat="43.71323250994132" lon="11.163874779179338"><ele>321.59999999999997</ele><time>2026-04-03T09:00:34.001Z</time></trkpt><trkpt lat="43.713338443037614" lon="11.163835922631781"><ele>323.0</ele><time>2026-04-03T09:00:35.001Z</time></trkpt><trkpt lat="43.71345968345388" lon="11.163808865133097"><ele>322.79999999999995</ele><time>2026-04-03T09:00:36.001Z</time></trkpt><trkpt lat="43.71358371824141" lon="11.163782199289564"><ele>322.6</ele><time>2026-04-03T09:00:37.001Z</time></trkpt><trkpt lat="43.71369724744927" lon="11.163761151649192"><ele>322.4</ele><time>2026-04-03T09:00:38.001Z</time></trkpt><trkpt lat="43.713795270737364" lon="11.163726975940461"><ele>322.20000000000005</ele><time>2026-04-03T09:00:39.001Z</time></trkpt><trkpt lat="43.7138730665612" lon="11.163711149763474"><ele>322.0</ele><time>2026-04-03T09:00:40.001Z</time></trkpt><trkpt lat="43.71395392743798" lon="11.163699311678531"><ele>322.0</ele><time>2026-04-03T09:00:41.001Z</time></trkpt><trkpt lat="43.7140346302912" lon="11.163716705036803"><ele>322.0</ele><time>2026-04-03T09:00:42.001Z</time></trkpt><trkpt lat="43.71412299797032" lon="11.163763043092208"><ele>322.0</ele><time>2026-04-03T09:00:43.001Z</time></trkpt><trkpt lat="43.71420905442102" lon="11.163812099799895"><ele>322.0</ele><time>2026-04-03T09:00:44.001Z</time></trkpt><trkpt lat="43.71429342832496" lon="11.163883663166548"><ele>322.0</ele><time>2026-04-03T09:00:45.001Z</time></trkpt><trkpt lat="43.71438765360301" lon="11.163941403197052"><ele>320.6</ele><time>2026-04-03T09:00:46.001Z</time></trkpt><trkpt lat="43.71447615168585" lon="11.163977808106004"><ele>319.20000000000005</ele><time>2026-04-03T09:00:47.002Z</time></trkpt><trkpt lat="43.714576234533496" lon="11.163988499949506"><ele>317.8</ele><time>2026-04-03T09:00:48.002Z</time></trkpt><trkpt lat="43.71467900640541" lon="11.163997705531173"><ele>316.4</ele><time>2026-04-03T09:00:49.002Z</time></trkpt><trkpt lat="43.71478277395197" lon="11.164029990644384"><ele>315.0</ele><time>2026-04-03T09:00:50.002Z</time></trkpt><trkpt lat="43.71487931994862" lon="11.164048135642245"><ele>314.0</ele><time>2026-04-03T09:00:51.002Z</time></trkpt><trkpt lat="43.71495593523148" lon="11.164062327414383"><ele>313.0</ele><time>2026-04-03T09:00:52.002Z</time></trkpt><trkpt lat="43.71505638252426" lon="11.164136972696529"><ele>312.0</ele><time>2026-04-03T09:00:54.002Z</time></trkpt><trkpt lat="43.7151317151023" lon="11.1642830309003"><ele>311.0</ele><time>2026-04-03T09:00:56.002Z</time></trkpt><trkpt lat="43.71519941520048" lon="11.164428948288457"><ele>310.0</ele><time>2026-04-03T09:00:58.002Z</time></trkpt><trkpt lat="43.71524472223633" lon="11.16449892776291"><ele>310.0</ele><time>2026-04-03T09:00:59.002Z</time></trkpt><trkpt lat="43.71529662199819" lon="11.164589291851003"><ele>310.0</ele><time>2026-04-03T09:01:00.002Z</time></trkpt><trkpt lat="43.715370737626195" lon="11.164714618212676"><ele>310.0</ele><time>2026-04-03T09:01:01.002Z</time></trkpt><trkpt lat="43.71544530100698" lon="11.164840866252813"><ele>310.0</ele><time>2026-04-03T09:01:02.002Z</time></trkpt><trkpt lat="43.715513828835775" lon="11.164960850003393"><ele>310.0</ele><time>2026-04-03T09:01:03.002Z</time></trkpt><trkpt lat="43.71558441418728" lon="11.165064368529451"><ele>310.66666666666663</ele><time>2026-04-03T09:01:04.002Z</time></trkpt><trkpt lat="43.715634412843116" lon="11.165157392789347"><ele>311.3333333333333</ele><time>2026-04-03T09:01:05.002Z</time></trkpt><trkpt lat="43.71567060432933" lon="11.165262464535251"><ele>312.0</ele><time>2026-04-03T09:01:06.002Z</time></trkpt><trkpt lat="43.71570226941033" lon="11.165377241510823"><ele>312.6666666666667</ele><time>2026-04-03T09:01:07.002Z</time></trkpt><trkpt lat="43.71573145843048" lon="11.165467810372212"><ele>313.33333333333337</ele><time>2026-04-03T09:01:08.002Z</time></trkpt><trkpt lat="43.71576526791296" lon="11.165558733464524"><ele>314.0</ele><time>2026-04-03T09:01:09.002Z</time></trkpt><trkpt lat="43.71580819546249" lon="11.165626996968804"><ele>314.4</ele><time>2026-04-03T09:01:10.002Z</time></trkpt><trkpt lat="43.71590532809831" lon="11.165745195091533"><ele>314.79999999999995</ele><time>2026-04-03T09:01:12.002Z</time></trkpt><trkpt lat="43.715970376838385" lon="11.165815364950433"><ele>315.20000000000005</ele><time>2026-04-03T09:01:13.002Z</time></trkpt><trkpt lat="43.716040551696" lon="11.165898137550657"><ele>315.6</ele><time>2026-04-03T09:01:14.002Z</time></trkpt><trkpt lat="43.716116251002624" lon="11.165989017684126"><ele>316.0</ele><time>2026-04-03T09:01:15.002Z</time></trkpt><trkpt lat="43.71621249189165" lon="11.166088457702864"><ele>316.0</ele><time>2026-04-03T09:01:16.002Z</time></trkpt><trkpt lat="43.716311888058584" lon="11.166186308153465"><ele>316.0</ele><time>2026-04-03T09:01:17.002Z</time></trkpt><trkpt lat="43.7163917635196" lon="11.166269672276792"><ele>316.0</ele><time>2026-04-03T09:01:18.002Z</time></trkpt><trkpt lat="43.71645068886799" lon="11.166327400534529"><ele>316.0</ele><time>2026-04-03T09:01:19.002Z</time></trkpt><trkpt lat="43.71649960510992" lon="11.166427254445292"><ele>316.0</ele><time>2026-04-03T09:01:21.002Z</time></trkpt><trkpt lat="43.716501156722906" lon="11.16656967125304"><ele>315.6</ele><time>2026-04-03T09:01:23.002Z</time></trkpt><trkpt lat="43.716432677166864" lon="11.166728789587554"><ele>315.20000000000005</ele><time>2026-04-03T09:01:25.002Z</time></trkpt><trkpt lat="43.71639686387639" lon="11.166816973480575"><ele>314.79999999999995</ele><time>2026-04-03T09:01:26.002Z</time></trkpt><trkpt lat="43.7163578973286" lon="11.166918830437316"><ele>314.4</ele><time>2026-04-03T09:01:27.002Z</time></trkpt><trkpt lat="43.71632429270804" lon="11.167023079541895"><ele>314.0</ele><time>2026-04-03T09:01:28.002Z</time></trkpt><trkpt lat="43.716290153525286" lon="11.167124639061983"><ele>314.0</ele><time>2026-04-03T09:01:29.002Z</time></trkpt><trkpt lat="43.716258184386646" lon="11.167214596755171"><ele>314.0</ele><time>2026-04-03T09:01:30.002Z</time></trkpt><trkpt lat="43.716222090623845" lon="11.167288803664105"><ele>314.0</ele><time>2026-04-03T09:01:31.002Z</time></trkpt><trkpt lat="43.71618419010746" lon="11.16736656577868"><ele>314.0</ele><time>2026-04-03T09:01:32.002Z</time></trkpt><trkpt lat="43.71615095378545" lon="11.167459356168209"><ele>314.0</ele><time>2026-04-03T09:01:33.002Z</time></trkpt><trkpt lat="43.716114503818744" lon="11.167583306045914"><ele>314.0</ele><time>2026-04-03T09:01:34.002Z</time></trkpt><trkpt lat="43.716065867623755" lon="11.167688146303316"><ele>311.83333333333337</ele><time>2026-04-03T09:01:35.002Z</time></trkpt><trkpt lat="43.716010140051765" lon="11.167782818131592"><ele>309.6666666666667</ele><time>2026-04-03T09:01:36.002Z</time></trkpt><trkpt lat="43.715953151647504" lon="11.167874359812172"><ele>307.5</ele><time>2026-04-03T09:01:37.002Z</time></trkpt><trkpt lat="43.71588696528292" lon="11.167939712342418"><ele>305.3333333333333</ele><time>2026-04-03T09:01:38.002Z</time></trkpt><trkpt lat="43.71582657186152" lon="11.16800503815101"><ele>303.16666666666663</ele><time>2026-04-03T09:01:39.002Z</time></trkpt><trkpt lat="43.7157693041901" lon="11.16807384702543"><ele>301.0</ele><time>2026-04-03T09:01:40.002Z</time></trkpt><trkpt lat="43.7157101448443" lon="11.168108585793732"><ele>301.0</ele><time>2026-04-03T09:01:41.002Z</time></trkpt><trkpt lat="43.71561744043229" lon="11.168137987539628"><ele>301.0</ele><time>2026-04-03T09:01:43.003Z</time></trkpt><trkpt lat="43.715545522538335" lon="11.168134204168908"><ele>301.0</ele><time>2026-04-03T09:01:45.003Z</time></trkpt><trkpt lat="43.71547369050901" lon="11.168096680725805"><ele>301.0</ele><time>2026-04-03T09:01:47.003Z</time></trkpt><trkpt lat="43.71538204697907" lon="11.16806642835636"><ele>301.0</ele><time>2026-04-03T09:01:49.003Z</time></trkpt><trkpt lat="43.715301020954584" lon="11.168007340355622"><ele>301.0</ele><time>2026-04-03T09:01:53.003Z</time></trkpt><trkpt lat="43.71522029046104" lon="11.167960553395309"><ele>299.0</ele><time>2026-04-03T09:01:55.003Z</time></trkpt><trkpt lat="43.715155152801024" lon="11.167942113451765"><ele>297.0</ele><time>2026-04-03T09:01:56.003Z</time></trkpt><trkpt lat="43.71508611716035" lon="11.167935554157609"><ele>295.0</ele><time>2026-04-03T09:01:57.003Z</time></trkpt><trkpt lat="43.715008958795515" lon="11.167940288059285"><ele>293.0</ele><time>2026-04-03T09:01:58.003Z</time></trkpt><trkpt lat="43.71493230900679" lon="11.167953880063786"><ele>291.0</ele><time>2026-04-03T09:01:59.003Z</time></trkpt><trkpt lat="43.71485631504107" lon="11.167941415327437"><ele>289.0</ele><time>2026-04-03T09:02:00.003Z</time></trkpt><trkpt lat="43.71478086681178" lon="11.167949710753936"><ele>287.0</ele><time>2026-04-03T09:02:01.003Z</time></trkpt><trkpt lat="43.71470524106995" lon="11.167963553343727"><ele>287.0</ele><time>2026-04-03T09:02:02.003Z</time></trkpt><trkpt lat="43.71462975910886" lon="11.167996237954803"><ele>287.0</ele><time>2026-04-03T09:02:03.003Z</time></trkpt><trkpt lat="43.71455797302491" lon="11.168057182280547"><ele>287.0</ele><time>2026-04-03T09:02:04.003Z</time></trkpt><trkpt lat="43.7144776393099" lon="11.168095864716339"><ele>287.0</ele><time>2026-04-03T09:02:05.003Z</time></trkpt><trkpt lat="43.71439596041636" lon="11.168148148011403"><ele>287.0</ele><time>2026-04-03T09:02:06.003Z</time></trkpt><trkpt lat="43.71431516447104" lon="11.168227273301305"><ele>287.0</ele><time>2026-04-03T09:02:07.003Z</time></trkpt><trkpt lat="43.71423358146867" lon="11.168342293929797"><ele>286.6</ele><time>2026-04-03T09:02:08.003Z</time></trkpt><trkpt lat="43.71416404901394" lon="11.168481435437881"><ele>286.2</ele><time>2026-04-03T09:02:09.003Z</time></trkpt><trkpt lat="43.7140963476027" lon="11.168606595187958"><ele>285.8</ele><time>2026-04-03T09:02:10.003Z</time></trkpt><trkpt lat="43.71402389129254" lon="11.168694435367108"><ele>285.4</ele><time>2026-04-03T09:02:11.003Z</time></trkpt><trkpt lat="43.71396402659392" lon="11.168758278104937"><ele>285.0</ele><time>2026-04-03T09:02:12.003Z</time></trkpt><trkpt lat="43.713866617267584" lon="11.168832856424187"><ele>285.0</ele><time>2026-04-03T09:02:14.003Z</time></trkpt><trkpt lat="43.71378704520735" lon="11.168885116816545"><ele>285.0</ele><time>2026-04-03T09:02:15.003Z</time></trkpt><trkpt lat="43.71370350694551" lon="11.168935853809852"><ele>285.0</ele><time>2026-04-03T09:02:16.003Z</time></trkpt><trkpt lat="43.71361681848034" lon="11.168987856622232"><ele>285.0</ele><time>2026-04-03T09:02:17.003Z</time></trkpt><trkpt lat="43.713529825337844" lon="11.169044673301718"><ele>285.0</ele><time>2026-04-03T09:02:18.003Z</time></trkpt><trkpt lat="43.71343531770945" lon="11.169111901288089"><ele>285.0</ele><time>2026-04-03T09:02:19.003Z</time></trkpt><trkpt lat="43.71333831067785" lon="11.16918597044326"><ele>285.0</ele><time>2026-04-03T09:02:20.003Z</time></trkpt><trkpt lat="43.713239458683354" lon="11.169265520291445"><ele>285.0</ele><time>2026-04-03T09:02:21.003Z</time></trkpt><trkpt lat="43.71316018785757" lon="11.169329312073916"><ele>285.0</ele><time>2026-04-03T09:02:22.003Z</time></trkpt><trkpt lat="43.713108527937834" lon="11.169403649417527"><ele>285.0</ele><time>2026-04-03T09:02:23.003Z</time></trkpt><trkpt lat="43.713053919221416" lon="11.169459428072317"><ele>285.0</ele><time>2026-04-03T09:02:24.003Z</time></trkpt><trkpt lat="43.71300432229513" lon="11.169514438168177"><ele>285.0</ele><time>2026-04-03T09:02:25.003Z</time></trkpt><trkpt lat="43.71293897686854" lon="11.169640663276711"><ele>285.0</ele><time>2026-04-03T09:02:27.003Z</time></trkpt><trkpt lat="43.71290408027607" lon="11.169718154272834"><ele>285.0</ele><time>2026-04-03T09:02:28.003Z</time></trkpt><trkpt lat="43.71286773882425" lon="11.16982065602535"><ele>285.0</ele><time>2026-04-03T09:02:30.003Z</time></trkpt><trkpt lat="43.71282591459103" lon="11.169931715377734"><ele>285.0</ele><time>2026-04-03T09:02:33.003Z</time></trkpt><trkpt lat="43.71278455688863" lon="11.170011332054672"><ele>284.8333333333333</ele><time>2026-04-03T09:02:35.003Z</time></trkpt><trkpt lat="43.71271679630393" lon="11.17008480180748"><ele>284.6666666666667</ele><time>2026-04-03T09:02:37.003Z</time></trkpt><trkpt lat="43.71268424977933" lon="11.170179079731694"><ele>284.5</ele><time>2026-04-03T09:02:39.003Z</time></trkpt><trkpt lat="43.71260722087714" lon="11.170225456099033"><ele>284.33333333333337</ele><time>2026-04-03T09:02:41.004Z</time></trkpt><trkpt lat="43.71251909791502" lon="11.170212302101868"><ele>284.1666666666667</ele><time>2026-04-03T09:02:42.004Z</time></trkpt><trkpt lat="43.71243763415199" lon="11.170244047693972"><ele>284.0</ele><time>2026-04-03T09:02:43.004Z</time></trkpt><trkpt lat="43.712353270387766" lon="11.17027692342698"><ele>284.0</ele><time>2026-04-03T09:02:44.004Z</time></trkpt><trkpt lat="43.712266727331915" lon="11.170516928409434"><ele>284.0</ele><time>2026-04-03T09:02:45.004Z</time></trkpt><trkpt lat="43.712172916873136" lon="11.17062049028624"><ele>284.0</ele><time>2026-04-03T09:02:46.004Z</time></trkpt><trkpt lat="43.71210786357343" lon="11.170679302399744"><ele>284.0</ele><time>2026-04-03T09:02:47.004Z</time></trkpt><trkpt lat="43.712044127967324" lon="11.170719087082816"><ele>284.1666666666667</ele><time>2026-04-03T09:02:48.004Z</time></trkpt><trkpt lat="43.711984838013656" lon="11.170757238674875"><ele>284.33333333333337</ele><time>2026-04-03T09:02:49.004Z</time></trkpt><trkpt lat="43.71191339956973" lon="11.170783074385293"><ele>284.5</ele><time>2026-04-03T09:02:50.004Z</time></trkpt><trkpt lat="43.711827375004006" lon="11.170789457090729"><ele>284.6666666666667</ele><time>2026-04-03T09:02:51.004Z</time></trkpt><trkpt lat="43.711750449249585" lon="11.170786515582241"><ele>284.8333333333333</ele><time>2026-04-03T09:02:52.004Z</time></trkpt><trkpt lat="43.71166952612735" lon="11.170765001893937"><ele>285.0</ele><time>2026-04-03T09:02:53.004Z</time></trkpt><trkpt lat="43.71156337244518" lon="11.170709231047821"><ele>285.25</ele><time>2026-04-03T09:02:54.004Z</time></trkpt><trkpt lat="43.71143828007785" lon="11.170644270326834"><ele>285.5</ele><time>2026-04-03T09:02:55.004Z</time></trkpt><trkpt lat="43.71129663532125" lon="11.17056496633463"><ele>285.75</ele><time>2026-04-03T09:02:56.004Z</time></trkpt><trkpt lat="43.711190195048324" lon="11.170399046271372"><ele>286.0</ele><time>2026-04-03T09:02:57.004Z</time></trkpt><trkpt lat="43.71107371034056" lon="11.17035712804759"><ele>287.5</ele><time>2026-04-03T09:02:58.004Z</time></trkpt><trkpt lat="43.710983736329325" lon="11.170321431872974"><ele>289.0</ele><time>2026-04-03T09:02:59.004Z</time></trkpt><trkpt lat="43.71089961013031" lon="11.170287479523084"><ele>290.5</ele><time>2026-04-03T09:03:00.004Z</time></trkpt><trkpt lat="43.71082202978777" lon="11.17024324262951"><ele>292.0</ele><time>2026-04-03T09:03:01.004Z</time></trkpt><trkpt lat="43.710639804680994" lon="11.170201166798199"><ele>292.0</ele><time>2026-04-03T09:03:02.004Z</time></trkpt><trkpt lat="43.71048149888774" lon="11.170313181548117"><ele>292.0</ele><time>2026-04-03T09:03:03.004Z</time></trkpt><trkpt lat="43.71038616386191" lon="11.170456186167458"><ele>292.0</ele><time>2026-04-03T09:03:04.004Z</time></trkpt><trkpt lat="43.71033838421418" lon="11.170548482322372"><ele>292.0</ele><time>2026-04-03T09:03:05.004Z</time></trkpt><trkpt lat="43.71029025648917" lon="11.170626407516727"><ele>292.16666666666663</ele><time>2026-04-03T09:03:06.004Z</time></trkpt><trkpt lat="43.710246833072496" lon="11.170695131215354"><ele>292.3333333333333</ele><time>2026-04-03T09:03:07.004Z</time></trkpt><trkpt lat="43.710165674424275" lon="11.17078547693235"><ele>292.5</ele><time>2026-04-03T09:03:09.004Z</time></trkpt><trkpt lat="43.71006789312615" lon="11.170849316028765"><ele>292.6666666666667</ele><time>2026-04-03T09:03:11.004Z</time></trkpt><trkpt lat="43.71000956255466" lon="11.170887529031509"><ele>292.83333333333337</ele><time>2026-04-03T09:03:16.004Z</time></trkpt><trkpt lat="43.70992319780709" lon="11.170927400912806"><ele>293.0</ele><time>2026-04-03T09:04:45.006Z</time></trkpt><trkpt lat="43.7098260265528" lon="11.170975677702204"><ele>293.0</ele><time>2026-04-03T09:04:55.006Z</time></trkpt><trkpt lat="43.70973245227144" lon="11.171020380918572"><ele>293.0</ele><time>2026-04-03T09:04:56.006Z</time></trkpt><trkpt lat="43.70966811594865" lon="11.171070017180318"><ele>293.0</ele><time>2026-04-03T09:04:58.006Z</time></trkpt><trkpt lat="43.709600097951004" lon="11.17114080256908"><ele>293.0</ele><time>2026-04-03T09:05:59.007Z</time></trkpt><trkpt lat="43.70953682899782" lon="11.171184942977147"><ele>293.0</ele><time>2026-04-03T09:06:00.007Z</time></trkpt><trkpt lat="43.7094476583895" lon="11.171248992688056"><ele>293.0</ele><time>2026-04-03T09:06:01.007Z</time></trkpt><trkpt lat="43.709358847730186" lon="11.17131920537823"><ele>293.0</ele><time>2026-04-03T09:06:02.007Z</time></trkpt><trkpt lat="43.70927257275024" lon="11.171401314019233"><ele>293.0</ele><time>2026-04-03T09:06:03.007Z</time></trkpt><trkpt lat="43.70918506375496" lon="11.171475859341099"><ele>293.0</ele><time>2026-04-03T09:06:04.007Z</time></trkpt><trkpt lat="43.70909986050238" lon="11.171558876908003"><ele>293.0</ele><time>2026-04-03T09:06:05.007Z</time></trkpt><trkpt lat="43.70900066706034" lon="11.171603628355804"><ele>293.0</ele><time>2026-04-03T09:06:06.007Z</time></trkpt><trkpt lat="43.70893173120101" lon="11.171652664445002"><ele>293.57142857142856</ele><time>2026-04-03T09:06:07.007Z</time></trkpt><trkpt lat="43.708854284667986" lon="11.171674422026408"><ele>294.1428571428571</ele><time>2026-04-03T09:06:08.007Z</time></trkpt><trkpt lat="43.708787198073615" lon="11.171699253255385"><ele>294.7142857142857</ele><time>2026-04-03T09:06:09.007Z</time></trkpt><trkpt lat="43.7087071482656" lon="11.171731645266515"><ele>295.2857142857143</ele><time>2026-04-03T09:06:10.007Z</time></trkpt><trkpt lat="43.708633962731646" lon="11.17175593010715"><ele>295.8571428571429</ele><time>2026-04-03T09:06:11.007Z</time></trkpt><trkpt lat="43.70856731960504" lon="11.171782787016076"><ele>296.42857142857144</ele><time>2026-04-03T09:06:12.007Z</time></trkpt><trkpt lat="43.70850486290954" lon="11.171816586001041"><ele>297.0</ele><time>2026-04-03T09:06:13.007Z</time></trkpt><trkpt lat="43.70843741935226" lon="11.171855931773454"><ele>297.4</ele><time>2026-04-03T09:06:14.007Z</time></trkpt><trkpt lat="43.70837243255118" lon="11.17190945366643"><ele>297.79999999999995</ele><time>2026-04-03T09:06:15.007Z</time></trkpt><trkpt lat="43.708332663270646" lon="11.17198760047053"><ele>298.2</ele><time>2026-04-03T09:06:16.007Z</time></trkpt><trkpt lat="43.70828942880734" lon="11.172052158656301"><ele>298.59999999999997</ele><time>2026-04-03T09:06:17.007Z</time></trkpt><trkpt lat="43.70820931017591" lon="11.172114652160648"><ele>299.0</ele><time>2026-04-03T09:06:19.007Z</time></trkpt><trkpt lat="43.70812879919224" lon="11.171858266639994"><ele>299.0</ele><time>2026-04-03T09:06:26.008Z</time></trkpt><trkpt lat="43.708056087769734" lon="11.171651604509453"><ele>299.0</ele><time>2026-04-03T09:06:27.008Z</time></trkpt><trkpt lat="43.70799090325556" lon="11.171504826235793"><ele>299.0</ele><time>2026-04-03T09:06:28.008Z</time></trkpt><trkpt lat="43.70796817939857" lon="11.171326675019419"><ele>299.0</ele><time>2026-04-03T09:06:29.008Z</time></trkpt><trkpt lat="43.707939888322635" lon="11.171138175787645"><ele>296.6666666666667</ele><time>2026-04-03T09:06:30.008Z</time></trkpt><trkpt lat="43.70790893524399" lon="11.17092897440764"><ele>294.3333333333333</ele><time>2026-04-03T09:06:31.008Z</time></trkpt><trkpt lat="43.70786923294576" lon="11.17071287670397"><ele>292.0</ele><time>2026-04-03T09:06:32.008Z</time></trkpt><trkpt lat="43.70782725907511" lon="11.170498157559226"><ele>288.66666666666663</ele><time>2026-04-03T09:06:33.008Z</time></trkpt><trkpt lat="43.70778218213912" lon="11.170286791203312"><ele>285.3333333333333</ele><time>2026-04-03T09:06:34.008Z</time></trkpt><trkpt lat="43.707736478954" lon="11.170077100134392"><ele>282.0</ele><time>2026-04-03T09:06:35.008Z</time></trkpt><trkpt lat="43.70768569516544" lon="11.169876101446015"><ele>280.75</ele><time>2026-04-03T09:06:36.008Z</time></trkpt><trkpt lat="43.707630865169385" lon="11.169684808077184"><ele>279.5</ele><time>2026-04-03T09:06:37.008Z</time></trkpt><trkpt lat="43.7075617141428" lon="11.169511217320787"><ele>278.25</ele><time>2026-04-03T09:06:38.008Z</time></trkpt><trkpt lat="43.70751868749731" lon="11.16935649701245"><ele>277.0</ele><time>2026-04-03T09:06:39.008Z</time></trkpt><trkpt lat="43.70746542557775" lon="11.169208593603981"><ele>277.0</ele><time>2026-04-03T09:06:40.008Z</time></trkpt><trkpt lat="43.70739770166071" lon="11.16906545818933"><ele>277.0</ele><time>2026-04-03T09:06:41.008Z</time></trkpt><trkpt lat="43.70731959375459" lon="11.168947144042706"><ele>277.0</ele><time>2026-04-03T09:06:42.008Z</time></trkpt><trkpt lat="43.70721760400868" lon="11.168869555066369"><ele>277.0</ele><time>2026-04-03T09:06:43.008Z</time></trkpt><trkpt lat="43.70707679955184" lon="11.16879206477968"><ele>276.5</ele><time>2026-04-03T09:06:44.008Z</time></trkpt><trkpt lat="43.70693030185413" lon="11.168710419548177"><ele>276.0</ele><time>2026-04-03T09:06:45.008Z</time></trkpt><trkpt lat="43.70679724693462" lon="11.16863626727114"><ele>275.5</ele><time>2026-04-03T09:06:46.008Z</time></trkpt><trkpt lat="43.706664092676675" lon="11.168571505581856"><ele>275.0</ele><time>2026-04-03T09:06:47.008Z</time></trkpt><trkpt lat="43.706549972510835" lon="11.1685537402685"><ele>275.0</ele><time>2026-04-03T09:06:48.008Z</time></trkpt><trkpt lat="43.706409910599255" lon="11.168559195586045"><ele>275.0</ele><time>2026-04-03T09:06:49.008Z</time></trkpt><trkpt lat="43.70625786379763" lon="11.168572817645796"><ele>275.0</ele><time>2026-04-03T09:06:50.008Z</time></trkpt><trkpt lat="43.706092850211874" lon="11.168595016232008"><ele>272.6666666666667</ele><time>2026-04-03T09:06:51.008Z</time></trkpt><trkpt lat="43.70592364963418" lon="11.168604040081473"><ele>270.3333333333333</ele><time>2026-04-03T09:06:52.008Z</time></trkpt><trkpt lat="43.70577585746392" lon="11.168576596664598"><ele>268.0</ele><time>2026-04-03T09:06:53.008Z</time></trkpt><trkpt lat="43.70562360471121" lon="11.168548425689261"><ele>268.0</ele><time>2026-04-03T09:06:54.008Z</time></trkpt><trkpt lat="43.70547379978792" lon="11.168496858722895"><ele>268.0</ele><time>2026-04-03T09:06:55.008Z</time></trkpt><trkpt lat="43.70533677682948" lon="11.168449368727432"><ele>268.0</ele><time>2026-04-03T09:06:56.008Z</time></trkpt><trkpt lat="43.70519795676997" lon="11.1683836970919"><ele>268.0</ele><time>2026-04-03T09:06:57.008Z</time></trkpt><trkpt lat="43.70506839172411" lon="11.168293091124687"><ele>266.0</ele><time>2026-04-03T09:06:58.008Z</time></trkpt><trkpt lat="43.70494206572869" lon="11.168192982111966"><ele>264.0</ele><time>2026-04-03T09:06:59.008Z</time></trkpt><trkpt lat="43.70480888046341" lon="11.168086452735597"><ele>262.0</ele><time>2026-04-03T09:07:00.008Z</time></trkpt><trkpt lat="43.70465703911375" lon="11.16797202328339"><ele>262.0</ele><time>2026-04-03T09:07:01.008Z</time></trkpt><trkpt lat="43.704497187165224" lon="11.167868022205683"><ele>262.0</ele><time>2026-04-03T09:07:02.008Z</time></trkpt><trkpt lat="43.70433679337412" lon="11.167745907547792"><ele>262.0</ele><time>2026-04-03T09:07:03.008Z</time></trkpt><trkpt lat="43.70416733543134" lon="11.167652980286729"><ele>261.66666666666663</ele><time>2026-04-03T09:07:04.008Z</time></trkpt><trkpt lat="43.70400207337246" lon="11.167595849388896"><ele>261.3333333333333</ele><time>2026-04-03T09:07:05.008Z</time></trkpt><trkpt lat="43.703848060873185" lon="11.16752514993675"><ele>261.0</ele><time>2026-04-03T09:07:06.008Z</time></trkpt><trkpt lat="43.70370847869123" lon="11.167440401756188"><ele>261.0</ele><time>2026-04-03T09:07:07.008Z</time></trkpt><trkpt lat="43.703591816475566" lon="11.167335926465757"><ele>261.0</ele><time>2026-04-03T09:07:08.008Z</time></trkpt><trkpt lat="43.70348107745774" lon="11.167264706689062"><ele>261.0</ele><time>2026-04-03T09:07:09.008Z</time></trkpt><trkpt lat="43.70336248203178" lon="11.167160617871517"><ele>261.0</ele><time>2026-04-03T09:07:10.008Z</time></trkpt><trkpt lat="43.70323640723487" lon="11.167034278668606"><ele>259.3333333333333</ele><time>2026-04-03T09:07:11.008Z</time></trkpt><trkpt lat="43.70310569229599" lon="11.166884583478836"><ele>257.66666666666663</ele><time>2026-04-03T09:07:12.008Z</time></trkpt><trkpt lat="43.70300944962341" lon="11.166692572243795"><ele>256.0</ele><time>2026-04-03T09:07:13.008Z</time></trkpt><trkpt lat="43.70291520919042" lon="11.166527392203994"><ele>254.25</ele><time>2026-04-03T09:07:14.008Z</time></trkpt><trkpt lat="43.70284890340459" lon="11.166359999532592"><ele>252.5</ele><time>2026-04-03T09:07:15.008Z</time></trkpt><trkpt lat="43.702785550003924" lon="11.166184951525812"><ele>250.75</ele><time>2026-04-03T09:07:16.008Z</time></trkpt><trkpt lat="43.702722307558" lon="11.165984112894519"><ele>249.0</ele><time>2026-04-03T09:07:17.008Z</time></trkpt><trkpt lat="43.70266185544497" lon="11.165784043320695"><ele>248.0</ele><time>2026-04-03T09:07:18.008Z</time></trkpt><trkpt lat="43.702595368729725" lon="11.165584537064912"><ele>247.0</ele><time>2026-04-03T09:07:19.008Z</time></trkpt><trkpt lat="43.702528223586505" lon="11.165393666978556"><ele>246.0</ele><time>2026-04-03T09:07:20.008Z</time></trkpt><trkpt lat="43.70244792583243" lon="11.165201172938897"><ele>246.0</ele><time>2026-04-03T09:07:21.008Z</time></trkpt><trkpt lat="43.702355920822036" lon="11.165020613806622"><ele>246.0</ele><time>2026-04-03T09:07:22.009Z</time></trkpt><trkpt lat="43.702254634282596" lon="11.164843161144088"><ele>246.0</ele><time>2026-04-03T09:07:23.009Z</time></trkpt><trkpt lat="43.7021557014277" lon="11.16468384771172"><ele>245.33333333333331</ele><time>2026-04-03T09:07:24.009Z</time></trkpt><trkpt lat="43.702040583821606" lon="11.164512127337504"><ele>244.66666666666666</ele><time>2026-04-03T09:07:25.009Z</time></trkpt><trkpt lat="43.70192617364189" lon="11.16434146389416"><ele>244.0</ele><time>2026-04-03T09:07:26.009Z</time></trkpt><trkpt lat="43.701812240635704" lon="11.164171918834024"><ele>243.66666666666666</ele><time>2026-04-03T09:07:27.009Z</time></trkpt><trkpt lat="43.70170342596061" lon="11.164009786017749"><ele>243.33333333333331</ele><time>2026-04-03T09:07:28.009Z</time></trkpt><trkpt lat="43.70160758554696" lon="11.163857375251503"><ele>243.0</ele><time>2026-04-03T09:07:29.009Z</time></trkpt><trkpt lat="43.70151372970437" lon="11.163704770843209"><ele>243.0</ele><time>2026-04-03T09:07:30.009Z</time></trkpt><trkpt lat="43.70142118230834" lon="11.163564832313149"><ele>243.0</ele><time>2026-04-03T09:07:31.009Z</time></trkpt><trkpt lat="43.7013140525238" lon="11.163448824759433"><ele>243.0</ele><time>2026-04-03T09:07:32.009Z</time></trkpt><trkpt lat="43.70118351453669" lon="11.163370614496815"><ele>243.0</ele><time>2026-04-03T09:07:33.009Z</time></trkpt><trkpt lat="43.70103988852053" lon="11.163303143586633"><ele>243.66666666666669</ele><time>2026-04-03T09:07:34.009Z</time></trkpt><trkpt lat="43.70088964250927" lon="11.163229577984902"><ele>244.33333333333334</ele><time>2026-04-03T09:07:35.009Z</time></trkpt><trkpt lat="43.700735740084895" lon="11.163149914857728"><ele>245.0</ele><time>2026-04-03T09:07:36.009Z</time></trkpt><trkpt lat="43.70058280069536" lon="11.163063412989501"><ele>245.0</ele><time>2026-04-03T09:07:37.009Z</time></trkpt><trkpt lat="43.70044608588627" lon="11.162987564935426"><ele>245.0</ele><time>2026-04-03T09:07:38.009Z</time></trkpt><trkpt lat="43.7003364474242" lon="11.162906042084998"><ele>245.0</ele><time>2026-04-03T09:07:39.009Z</time></trkpt><trkpt lat="43.70023932544047" lon="11.162850320850813"><ele>245.0</ele><time>2026-04-03T09:07:40.009Z</time></trkpt><trkpt lat="43.70015171714449" lon="11.16278962481368"><ele>245.4</ele><time>2026-04-03T09:07:41.009Z</time></trkpt><trkpt lat="43.7000565530545" lon="11.162727025578302"><ele>245.8</ele><time>2026-04-03T09:07:42.009Z</time></trkpt><trkpt lat="43.69996571557989" lon="11.162676906980167"><ele>246.2</ele><time>2026-04-03T09:07:43.009Z</time></trkpt><trkpt lat="43.69986383004277" lon="11.162660520713086"><ele>246.6</ele><time>2026-04-03T09:07:44.009Z</time></trkpt><trkpt lat="43.699744527839506" lon="11.162658487671953"><ele>247.0</ele><time>2026-04-03T09:07:45.009Z</time></trkpt><trkpt lat="43.699591388677284" lon="11.16266623403519"><ele>247.0</ele><time>2026-04-03T09:07:46.009Z</time></trkpt><trkpt lat="43.69942329878897" lon="11.162689958419168"><ele>247.0</ele><time>2026-04-03T09:07:47.009Z</time></trkpt><trkpt lat="43.69925232478363" lon="11.162712567281286"><ele>247.0</ele><time>2026-04-03T09:07:48.009Z</time></trkpt><trkpt lat="43.69910255718597" lon="11.162737869876075"><ele>245.5</ele><time>2026-04-03T09:07:49.009Z</time></trkpt><trkpt lat="43.698958271357185" lon="11.162751069602514"><ele>244.0</ele><time>2026-04-03T09:07:50.009Z</time></trkpt><trkpt lat="43.69881236291774" lon="11.162714842245522"><ele>242.5</ele><time>2026-04-03T09:07:51.009Z</time></trkpt><trkpt lat="43.698664366070766" lon="11.162672397923444"><ele>241.0</ele><time>2026-04-03T09:07:52.009Z</time></trkpt><trkpt lat="43.69852663640432" lon="11.162620285261074"><ele>239.5</ele><time>2026-04-03T09:07:53.009Z</time></trkpt><trkpt lat="43.698408300871414" lon="11.162538470267307"><ele>238.0</ele><time>2026-04-03T09:07:54.009Z</time></trkpt><trkpt lat="43.698306492998384" lon="11.162422013633444"><ele>236.5</ele><time>2026-04-03T09:07:55.009Z</time></trkpt><trkpt lat="43.698216133128355" lon="11.162310208831808"><ele>235.0</ele><time>2026-04-03T09:07:56.009Z</time></trkpt><trkpt lat="43.698143332604346" lon="11.162189489951897"><ele>234.25</ele><time>2026-04-03T09:07:57.009Z</time></trkpt><trkpt lat="43.698059423009255" lon="11.162056966095339"><ele>233.5</ele><time>2026-04-03T09:07:58.009Z</time></trkpt><trkpt lat="43.69801553686426" lon="11.161917601712265"><ele>232.75</ele><time>2026-04-03T09:07:59.009Z</time></trkpt><trkpt lat="43.69794971144402" lon="11.161772530588602"><ele>232.0</ele><time>2026-04-03T09:08:00.009Z</time></trkpt><trkpt lat="43.697889225022905" lon="11.161631208095383"><ele>232.6</ele><time>2026-04-03T09:08:01.009Z</time></trkpt><trkpt lat="43.697843866765645" lon="11.16149718012424"><ele>233.2</ele><time>2026-04-03T09:08:02.009Z</time></trkpt><trkpt lat="43.69780239006092" lon="11.161367477498397"><ele>233.8</ele><time>2026-04-03T09:08:03.009Z</time></trkpt><trkpt lat="43.697766468898664" lon="11.161245853089898"><ele>234.4</ele><time>2026-04-03T09:08:04.009Z</time></trkpt><trkpt lat="43.697732481772334" lon="11.161126248990232"><ele>235.0</ele><time>2026-04-03T09:08:05.009Z</time></trkpt><trkpt lat="43.69765726492417" lon="11.161038917089368"><ele>235.0</ele><time>2026-04-03T09:08:06.009Z</time></trkpt><trkpt lat="43.697594957623735" lon="11.160924223871975"><ele>235.0</ele><time>2026-04-03T09:08:07.009Z</time></trkpt><trkpt lat="43.697528055945135" lon="11.16080082632798"><ele>235.0</ele><time>2026-04-03T09:08:08.009Z</time></trkpt><trkpt lat="43.697451415019124" lon="11.160684503393293"><ele>235.0</ele><time>2026-04-03T09:08:09.009Z</time></trkpt><trkpt lat="43.697379255303645" lon="11.160579168495635"><ele>235.0</ele><time>2026-04-03T09:08:10.009Z</time></trkpt><trkpt lat="43.69732093155003" lon="11.160495330761266"><ele>235.16666666666666</ele><time>2026-04-03T09:08:11.009Z</time></trkpt><trkpt lat="43.69726044920878" lon="11.160418393710655"><ele>235.33333333333331</ele><time>2026-04-03T09:08:12.009Z</time></trkpt><trkpt lat="43.697206372909605" lon="11.16035684541473"><ele>235.5</ele><time>2026-04-03T09:08:13.009Z</time></trkpt><trkpt lat="43.6971412626439" lon="11.160283991744457"><ele>235.66666666666669</ele><time>2026-04-03T09:08:15.009Z</time></trkpt><trkpt lat="43.697080662615576" lon="11.160188694908651"><ele>235.83333333333334</ele><time>2026-04-03T09:08:18.009Z</time></trkpt><trkpt lat="43.69702679377296" lon="11.16012687429442"><ele>236.0</ele><time>2026-04-03T09:08:20.01Z</time></trkpt><trkpt lat="43.696940603181766" lon="11.16003741764815"><ele>236.0</ele><time>2026-04-03T09:08:22.01Z</time></trkpt><trkpt lat="43.696892491094495" lon="11.159979890868948"><ele>236.00000000000003</ele><time>2026-04-03T09:08:23.01Z</time></trkpt><trkpt lat="43.696832031911484" lon="11.159924275301382"><ele>236.00000000000003</ele><time>2026-04-03T09:08:24.01Z</time></trkpt><trkpt lat="43.696746649475635" lon="11.159845675803279"><ele>236.0</ele><time>2026-04-03T09:08:26.01Z</time></trkpt><trkpt lat="43.696624942909686" lon="11.159763994685092"><ele>236.0</ele><time>2026-04-03T09:08:28.01Z</time></trkpt><trkpt lat="43.69654747628734" lon="11.15971445052292"><ele>236.0</ele><time>2026-04-03T09:08:29.01Z</time></trkpt><trkpt lat="43.69648197420573" lon="11.159649061233"><ele>236.00000000000003</ele><time>2026-04-03T09:08:30.01Z</time></trkpt><trkpt lat="43.696422665061775" lon="11.159555393056326"><ele>236.00000000000003</ele><time>2026-04-03T09:08:31.01Z</time></trkpt><trkpt lat="43.69635560963632" lon="11.159447681278607"><ele>236.0</ele><time>2026-04-03T09:08:32.01Z</time></trkpt><trkpt lat="43.6962919753155" lon="11.159346364122975"><ele>236.0</ele><time>2026-04-03T09:08:33.01Z</time></trkpt><trkpt lat="43.696238268107685" lon="11.15924476381529"><ele>236.0</ele><time>2026-04-03T09:08:34.01Z</time></trkpt><trkpt lat="43.696180501876775" lon="11.15915357823968"><ele>236.00000000000003</ele><time>2026-04-03T09:08:35.01Z</time></trkpt><trkpt lat="43.69615056550249" lon="11.159026235090199"><ele>236.00000000000003</ele><time>2026-04-03T09:08:36.01Z</time></trkpt><trkpt lat="43.69612574954535" lon="11.1588764125882"><ele>236.0</ele><time>2026-04-03T09:08:37.01Z</time></trkpt><trkpt lat="43.69610645851591" lon="11.158726415596025"><ele>236.0</ele><time>2026-04-03T09:08:38.01Z</time></trkpt><trkpt lat="43.69607564145349" lon="11.15856842499588"><ele>236.20000000000002</ele><time>2026-04-03T09:08:39.01Z</time></trkpt><trkpt lat="43.696058916635344" lon="11.158415520117853"><ele>236.40000000000003</ele><time>2026-04-03T09:08:40.01Z</time></trkpt><trkpt lat="43.696027608849455" lon="11.158290837648922"><ele>236.6</ele><time>2026-04-03T09:08:41.01Z</time></trkpt><trkpt lat="43.69599836424059" lon="11.158174371729034"><ele>236.8</ele><time>2026-04-03T09:08:42.01Z</time></trkpt><trkpt lat="43.69597018567674" lon="11.158062151354885"><ele>237.0</ele><time>2026-04-03T09:08:43.01Z</time></trkpt><trkpt lat="43.69594263871143" lon="11.157945671106305"><ele>235.8</ele><time>2026-04-03T09:08:44.01Z</time></trkpt><trkpt lat="43.6959360143334" lon="11.157808580996589"><ele>234.6</ele><time>2026-04-03T09:08:45.01Z</time></trkpt><trkpt lat="43.695925421444294" lon="11.157663613260844"><ele>233.40000000000003</ele><time>2026-04-03T09:08:46.01Z</time></trkpt><trkpt lat="43.695914009238166" lon="11.157532787776848"><ele>232.20000000000002</ele><time>2026-04-03T09:08:47.01Z</time></trkpt><trkpt lat="43.695902606390824" lon="11.157402069637877"><ele>231.0</ele><time>2026-04-03T09:08:48.01Z</time></trkpt><trkpt lat="43.69589282825431" lon="11.157275225269293"><ele>230.0</ele><time>2026-04-03T09:08:49.01Z</time></trkpt><trkpt lat="43.695890750117506" lon="11.157146733176555"><ele>229.0</ele><time>2026-04-03T09:08:50.01Z</time></trkpt><trkpt lat="43.69589671877577" lon="11.157022821240162"><ele>228.0</ele><time>2026-04-03T09:08:51.01Z</time></trkpt><trkpt lat="43.6959156975613" lon="11.156908584700512"><ele>227.0</ele><time>2026-04-03T09:08:52.01Z</time></trkpt><trkpt lat="43.69592696390592" lon="11.156789301640881"><ele>226.0</ele><time>2026-04-03T09:08:53.01Z</time></trkpt><trkpt lat="43.69593263182479" lon="11.1566673241294"><ele>225.0</ele><time>2026-04-03T09:08:54.01Z</time></trkpt><trkpt lat="43.695922413948466" lon="11.156527315030733"><ele>223.0</ele><time>2026-04-03T09:08:55.01Z</time></trkpt><trkpt lat="43.69592566771082" lon="11.156383230797216"><ele>221.0</ele><time>2026-04-03T09:08:56.01Z</time></trkpt><trkpt lat="43.69592637050754" lon="11.156236768694825"><ele>219.0</ele><time>2026-04-03T09:08:57.01Z</time></trkpt><trkpt lat="43.69592710761748" lon="11.156089307991705"><ele>217.0</ele><time>2026-04-03T09:08:58.01Z</time></trkpt><trkpt lat="43.695949825183106" lon="11.155946484185964"><ele>215.0</ele><time>2026-04-03T09:08:59.01Z</time></trkpt><trkpt lat="43.695954813690356" lon="11.155785328151563"><ele>213.0</ele><time>2026-04-03T09:09:00.01Z</time></trkpt><trkpt lat="43.69595107722954" lon="11.155642300496485"><ele>211.0</ele><time>2026-04-03T09:09:01.01Z</time></trkpt><trkpt lat="43.69595135712086" lon="11.155499014259306"><ele>209.0</ele><time>2026-04-03T09:09:02.01Z</time></trkpt><trkpt lat="43.6959721788868" lon="11.155347022094261"><ele>207.0</ele><time>2026-04-03T09:09:03.01Z</time></trkpt><trkpt lat="43.69600692420009" lon="11.155192681734805"><ele>205.0</ele><time>2026-04-03T09:09:04.01Z</time></trkpt><trkpt lat="43.69605160981819" lon="11.155063282445118"><ele>205.0</ele><time>2026-04-03T09:09:05.01Z</time></trkpt><trkpt lat="43.69606142639686" lon="11.15491194381901"><ele>205.0</ele><time>2026-04-03T09:09:06.01Z</time></trkpt><trkpt lat="43.696049109480846" lon="11.154744784478694"><ele>205.0</ele><time>2026-04-03T09:09:07.01Z</time></trkpt><trkpt lat="43.69599773705082" lon="11.154592170001957"><ele>205.0</ele><time>2026-04-03T09:09:08.01Z</time></trkpt><trkpt lat="43.69592887850188" lon="11.154461168930114"><ele>205.0</ele><time>2026-04-03T09:09:09.01Z</time></trkpt><trkpt lat="43.69586734547181" lon="11.154321328063622"><ele>205.0</ele><time>2026-04-03T09:09:10.01Z</time></trkpt><trkpt lat="43.695785506642274" lon="11.154160853152456"><ele>205.0</ele><time>2026-04-03T09:09:11.01Z</time></trkpt><trkpt lat="43.69570384146438" lon="11.153992924559269"><ele>205.0</ele><time>2026-04-03T09:09:12.01Z</time></trkpt><trkpt lat="43.69563201383913" lon="11.153834148695477"><ele>203.5</ele><time>2026-04-03T09:09:13.01Z</time></trkpt><trkpt lat="43.69554994078518" lon="11.153696309999056"><ele>202.0</ele><time>2026-04-03T09:09:14.01Z</time></trkpt><trkpt lat="43.69545523349141" lon="11.153574129517423"><ele>200.5</ele><time>2026-04-03T09:09:15.011Z</time></trkpt><trkpt lat="43.69534810586135" lon="11.153475013799547"><ele>199.0</ele><time>2026-04-03T09:09:16.011Z</time></trkpt><trkpt lat="43.695244450662344" lon="11.153387710997425"><ele>199.0</ele><time>2026-04-03T09:09:17.011Z</time></trkpt><trkpt lat="43.69514558864846" lon="11.153284344801367"><ele>199.0</ele><time>2026-04-03T09:09:18.011Z</time></trkpt><trkpt lat="43.69504560040851" lon="11.153188626528506"><ele>199.0</ele><time>2026-04-03T09:09:19.011Z</time></trkpt><trkpt lat="43.694950289966116" lon="11.153090530442148"><ele>199.0</ele><time>2026-04-03T09:09:20.011Z</time></trkpt><trkpt lat="43.69485790062097" lon="11.15299291238808"><ele>197.75</ele><time>2026-04-03T09:09:21.011Z</time></trkpt><trkpt lat="43.694768820129696" lon="11.152890632272069"><ele>196.5</ele><time>2026-04-03T09:09:22.011Z</time></trkpt><trkpt lat="43.6946868030962" lon="11.152784184708171"><ele>195.25</ele><time>2026-04-03T09:09:23.011Z</time></trkpt><trkpt lat="43.69462670889818" lon="11.152650639940557"><ele>194.0</ele><time>2026-04-03T09:09:24.011Z</time></trkpt><trkpt lat="43.69458329497747" lon="11.15250453430884"><ele>193.2</ele><time>2026-04-03T09:09:25.011Z</time></trkpt><trkpt lat="43.694551272933836" lon="11.152355263894664"><ele>192.39999999999998</ele><time>2026-04-03T09:09:26.011Z</time></trkpt><trkpt lat="43.694525969473816" lon="11.152206257313619"><ele>191.6</ele><time>2026-04-03T09:09:27.011Z</time></trkpt><trkpt lat="43.6945075221516" lon="11.152059138550685"><ele>190.8</ele><time>2026-04-03T09:09:28.011Z</time></trkpt><trkpt lat="43.694477427535155" lon="11.15191654758909"><ele>190.0</ele><time>2026-04-03T09:09:29.011Z</time></trkpt><trkpt lat="43.694434985071204" lon="11.151764474010326"><ele>193.6</ele><time>2026-04-03T09:09:30.011Z</time></trkpt><trkpt lat="43.69438495254814" lon="11.151615564284999"><ele>197.2</ele><time>2026-04-03T09:09:31.011Z</time></trkpt><trkpt lat="43.69433470894503" lon="11.151477458713682"><ele>200.8</ele><time>2026-04-03T09:09:32.011Z</time></trkpt><trkpt lat="43.6942828470032" lon="11.151343652618564"><ele>204.4</ele><time>2026-04-03T09:09:33.011Z</time></trkpt><trkpt lat="43.694240421221096" lon="11.15120698082589"><ele>208.0</ele><time>2026-04-03T09:09:34.011Z</time></trkpt><trkpt lat="43.69417022752137" lon="11.151108916031097"><ele>208.0</ele><time>2026-04-03T09:09:35.011Z</time></trkpt><trkpt lat="43.69412393256483" lon="11.150986299098859"><ele>208.0</ele><time>2026-04-03T09:09:36.011Z</time></trkpt><trkpt lat="43.694060601936435" lon="11.15086479740884"><ele>208.0</ele><time>2026-04-03T09:09:37.011Z</time></trkpt><trkpt lat="43.694002694172426" lon="11.150738205336628"><ele>208.0</ele><time>2026-04-03T09:09:38.011Z</time></trkpt><trkpt lat="43.69395715026544" lon="11.15060602471127"><ele>208.0</ele><time>2026-04-03T09:09:39.011Z</time></trkpt><trkpt lat="43.693918506049414" lon="11.150454615639008"><ele>206.5</ele><time>2026-04-03T09:09:40.011Z</time></trkpt><trkpt lat="43.69389593723582" lon="11.150281393823189"><ele>205.0</ele><time>2026-04-03T09:09:41.011Z</time></trkpt><trkpt lat="43.69387499634861" lon="11.150086859384373"><ele>203.5</ele><time>2026-04-03T09:09:42.011Z</time></trkpt><trkpt lat="43.69385375461428" lon="11.149889333323028"><ele>202.0</ele><time>2026-04-03T09:09:43.011Z</time></trkpt><trkpt lat="43.69383031534364" lon="11.149671372369362"><ele>197.66666666666666</ele><time>2026-04-03T09:09:44.011Z</time></trkpt><trkpt lat="43.69380515506743" lon="11.149452388377235"><ele>193.33333333333331</ele><time>2026-04-03T09:09:45.011Z</time></trkpt><trkpt lat="43.693765100706585" lon="11.149239724597932"><ele>189.0</ele><time>2026-04-03T09:09:46.011Z</time></trkpt><trkpt lat="43.69374417369377" lon="11.149024672852564"><ele>186.33333333333334</ele><time>2026-04-03T09:09:47.011Z</time></trkpt><trkpt lat="43.69372081216473" lon="11.14881504735644"><ele>183.66666666666669</ele><time>2026-04-03T09:09:48.011Z</time></trkpt><trkpt lat="43.6936914290325" lon="11.148603056582647"><ele>181.0</ele><time>2026-04-03T09:09:49.011Z</time></trkpt><trkpt lat="43.69366502121384" lon="11.14838975001142"><ele>180.66666666666669</ele><time>2026-04-03T09:09:50.011Z</time></trkpt><trkpt lat="43.69363223185443" lon="11.148176370615726"><ele>180.33333333333334</ele><time>2026-04-03T09:09:51.011Z</time></trkpt><trkpt lat="43.69359752822433" lon="11.14797053690409"><ele>180.0</ele><time>2026-04-03T09:09:52.011Z</time></trkpt><trkpt lat="43.69356686535878" lon="11.147774013400955"><ele>181.75</ele><time>2026-04-03T09:09:53.011Z</time></trkpt><trkpt lat="43.6935388367651" lon="11.147580684190554"><ele>183.5</ele><time>2026-04-03T09:09:54.011Z</time></trkpt><trkpt lat="43.69351142631852" lon="11.14739886900372"><ele>185.25</ele><time>2026-04-03T09:09:55.011Z</time></trkpt><trkpt lat="43.6934814267321" lon="11.147215017765529"><ele>187.0</ele><time>2026-04-03T09:09:56.011Z</time></trkpt><trkpt lat="43.693445041305125" lon="11.147030235702811"><ele>187.0</ele><time>2026-04-03T09:09:57.011Z</time></trkpt><trkpt lat="43.69340761616291" lon="11.14685344029003"><ele>187.0</ele><time>2026-04-03T09:09:58.011Z</time></trkpt><trkpt lat="43.693369254715016" lon="11.146686441523375"><ele>187.0</ele><time>2026-04-03T09:09:59.011Z</time></trkpt><trkpt lat="43.69332853523332" lon="11.14654456210974"><ele>187.0</ele><time>2026-04-03T09:10:00.011Z</time></trkpt><trkpt lat="43.69328359278118" lon="11.146389516886856"><ele>186.0</ele><time>2026-04-03T09:10:01.011Z</time></trkpt><trkpt lat="43.69320263604185" lon="11.146258153692322"><ele>185.0</ele><time>2026-04-03T09:10:02.011Z</time></trkpt><trkpt lat="43.693122305526494" lon="11.146121470650161"><ele>184.0</ele><time>2026-04-03T09:10:03.011Z</time></trkpt><trkpt lat="43.693039119822394" lon="11.145994326358405"><ele>183.0</ele><time>2026-04-03T09:10:04.011Z</time></trkpt><trkpt lat="43.69296532525813" lon="11.145871346128157"><ele>183.0</ele><time>2026-04-03T09:10:05.011Z</time></trkpt><trkpt lat="43.69288293577009" lon="11.145747344565118"><ele>183.0</ele><time>2026-04-03T09:10:06.011Z</time></trkpt><trkpt lat="43.69279912352913" lon="11.145622524569745"><ele>183.0</ele><time>2026-04-03T09:10:07.011Z</time></trkpt><trkpt lat="43.69272246545763" lon="11.145495181451865"><ele>183.0</ele><time>2026-04-03T09:10:08.011Z</time></trkpt><trkpt lat="43.692644037210954" lon="11.145345662215753"><ele>180.0</ele><time>2026-04-03T09:10:09.011Z</time></trkpt><trkpt lat="43.69256454378183" lon="11.145181408671771"><ele>177.0</ele><time>2026-04-03T09:10:10.011Z</time></trkpt><trkpt lat="43.69249420921589" lon="11.145019577726423"><ele>174.0</ele><time>2026-04-03T09:10:11.012Z</time></trkpt><trkpt lat="43.692425831210954" lon="11.14484883043687"><ele>171.0</ele><time>2026-04-03T09:10:12.012Z</time></trkpt><trkpt lat="43.6923576725026" lon="11.144688066948996"><ele>170.25</ele><time>2026-04-03T09:10:13.012Z</time></trkpt><trkpt lat="43.69228655262876" lon="11.144529359210656"><ele>169.5</ele><time>2026-04-03T09:10:14.012Z</time></trkpt><trkpt lat="43.69223059791376" lon="11.14436854009817"><ele>168.75</ele><time>2026-04-03T09:10:15.012Z</time></trkpt><trkpt lat="43.692168902881" lon="11.14419088512591"><ele>168.0</ele><time>2026-04-03T09:10:16.012Z</time></trkpt><trkpt lat="43.69211309285679" lon="11.14401619003803"><ele>165.25</ele><time>2026-04-03T09:10:17.012Z</time></trkpt><trkpt lat="43.69204108820713" lon="11.143833113890974"><ele>162.5</ele><time>2026-04-03T09:10:18.012Z</time></trkpt><trkpt lat="43.69195684773079" lon="11.143664627315665"><ele>159.75</ele><time>2026-04-03T09:10:19.012Z</time></trkpt><trkpt lat="43.69188086052314" lon="11.143497979445446"><ele>157.0</ele><time>2026-04-03T09:10:20.012Z</time></trkpt><trkpt lat="43.69181013622373" lon="11.14334194762181"><ele>153.75</ele><time>2026-04-03T09:10:21.012Z</time></trkpt><trkpt lat="43.69174600369871" lon="11.14319614481912"><ele>150.5</ele><time>2026-04-03T09:10:22.012Z</time></trkpt><trkpt lat="43.691679895476696" lon="11.143052341730009"><ele>147.25</ele><time>2026-04-03T09:10:23.012Z</time></trkpt><trkpt lat="43.691635408186634" lon="11.142904152579082"><ele>144.0</ele><time>2026-04-03T09:10:24.012Z</time></trkpt><trkpt lat="43.69156271185014" lon="11.142761459047511"><ele>144.0</ele><time>2026-04-03T09:10:25.012Z</time></trkpt><trkpt lat="43.69149096409097" lon="11.142624629146916"><ele>144.0</ele><time>2026-04-03T09:10:26.012Z</time></trkpt><trkpt lat="43.691416094245916" lon="11.142502607720724"><ele>144.0</ele><time>2026-04-03T09:10:27.012Z</time></trkpt><trkpt lat="43.691336944341145" lon="11.142383943328575"><ele>144.0</ele><time>2026-04-03T09:10:28.012Z</time></trkpt><trkpt lat="43.69126359812568" lon="11.142266306183556"><ele>142.0</ele><time>2026-04-03T09:10:29.012Z</time></trkpt><trkpt lat="43.691194734910674" lon="11.142145649004425"><ele>140.0</ele><time>2026-04-03T09:10:30.012Z</time></trkpt><trkpt lat="43.691139849378516" lon="11.142014587266507"><ele>138.0</ele><time>2026-04-03T09:10:31.012Z</time></trkpt><trkpt lat="43.691075858512846" lon="11.141863448534949"><ele>136.0</ele><time>2026-04-03T09:10:32.012Z</time></trkpt><trkpt lat="43.691035541128294" lon="11.141704340117352"><ele>134.5</ele><time>2026-04-03T09:10:33.012Z</time></trkpt><trkpt lat="43.69099704715808" lon="11.141527774662892"><ele>133.0</ele><time>2026-04-03T09:10:34.012Z</time></trkpt><trkpt lat="43.69095105029331" lon="11.141337617427402"><ele>131.5</ele><time>2026-04-03T09:10:35.012Z</time></trkpt><trkpt lat="43.69089711555523" lon="11.14113947233084"><ele>130.0</ele><time>2026-04-03T09:10:36.012Z</time></trkpt><trkpt lat="43.69082894934995" lon="11.14092106955535"><ele>129.33333333333334</ele><time>2026-04-03T09:10:37.012Z</time></trkpt><trkpt lat="43.69078205613359" lon="11.140707933160067"><ele>128.66666666666666</ele><time>2026-04-03T09:10:38.012Z</time></trkpt><trkpt lat="43.690707770617756" lon="11.1405046707762"><ele>128.0</ele><time>2026-04-03T09:10:39.012Z</time></trkpt><trkpt lat="43.6906364798286" lon="11.140323503802882"><ele>128.0</ele><time>2026-04-03T09:10:40.012Z</time></trkpt><trkpt lat="43.69057213349529" lon="11.140152559456673"><ele>128.0</ele><time>2026-04-03T09:10:41.012Z</time></trkpt><trkpt lat="43.690508135096366" lon="11.139984104778517"><ele>128.0</ele><time>2026-04-03T09:10:42.012Z</time></trkpt><trkpt lat="43.69045290981634" lon="11.139813859171026"><ele>128.0</ele><time>2026-04-03T09:10:43.012Z</time></trkpt><trkpt lat="43.690415311283516" lon="11.13964218823619"><ele>126.25</ele><time>2026-04-03T09:10:44.012Z</time></trkpt><trkpt lat="43.6903732144293" lon="11.139469644767587"><ele>124.5</ele><time>2026-04-03T09:10:45.012Z</time></trkpt><trkpt lat="43.69033038961607" lon="11.139306921987071"><ele>122.75</ele><time>2026-04-03T09:10:46.012Z</time></trkpt><trkpt lat="43.690278371192555" lon="11.139144343919096"><ele>121.0</ele><time>2026-04-03T09:10:47.012Z</time></trkpt><trkpt lat="43.690201305377016" lon="11.138969144344289"><ele>121.0</ele><time>2026-04-03T09:10:48.012Z</time></trkpt><trkpt lat="43.690117326172164" lon="11.13879100306598"><ele>121.0</ele><time>2026-04-03T09:10:49.012Z</time></trkpt><trkpt lat="43.690032998965584" lon="11.138607123497302"><ele>121.0</ele><time>2026-04-03T09:10:50.012Z</time></trkpt><trkpt lat="43.68996374344104" lon="11.138438988778907"><ele>121.0</ele><time>2026-04-03T09:10:51.012Z</time></trkpt><trkpt lat="43.68989079818767" lon="11.138258351877024"><ele>121.0</ele><time>2026-04-03T09:10:52.012Z</time></trkpt><trkpt lat="43.68982883503914" lon="11.138083333931458"><ele>121.0</ele><time>2026-04-03T09:10:53.012Z</time></trkpt><trkpt lat="43.68976494212965" lon="11.137915214253576"><ele>121.0</ele><time>2026-04-03T09:10:54.012Z</time></trkpt><trkpt lat="43.68971226916559" lon="11.137760367449104"><ele>120.0</ele><time>2026-04-03T09:10:55.012Z</time></trkpt><trkpt lat="43.68966939357845" lon="11.137607734032217"><ele>119.0</ele><time>2026-04-03T09:10:56.012Z</time></trkpt><trkpt lat="43.68962478404416" lon="11.137462430335752"><ele>118.0</ele><time>2026-04-03T09:10:57.012Z</time></trkpt><trkpt lat="43.68957894076668" lon="11.137321492756511"><ele>117.0</ele><time>2026-04-03T09:10:58.012Z</time></trkpt><trkpt lat="43.68952833300694" lon="11.137188073815445"><ele>116.5</ele><time>2026-04-03T09:10:59.012Z</time></trkpt><trkpt lat="43.689464620740786" lon="11.137057589107538"><ele>116.0</ele><time>2026-04-03T09:11:00.012Z</time></trkpt><trkpt lat="43.68937980621335" lon="11.136927781919805"><ele>115.5</ele><time>2026-04-03T09:11:01.012Z</time></trkpt><trkpt lat="43.68927024986164" lon="11.136822980009036"><ele>115.0</ele><time>2026-04-03T09:11:02.012Z</time></trkpt><trkpt lat="43.689171830808064" lon="11.136720052993924"><ele>115.0</ele><time>2026-04-03T09:11:03.012Z</time></trkpt><trkpt lat="43.68907880132561" lon="11.136624744992329"><ele>115.0</ele><time>2026-04-03T09:11:04.012Z</time></trkpt><trkpt lat="43.68898807926086" lon="11.136541527575382"><ele>115.0</ele><time>2026-04-03T09:11:05.012Z</time></trkpt><trkpt lat="43.688896125996365" lon="11.136453002967261"><ele>115.0</ele><time>2026-04-03T09:11:06.012Z</time></trkpt><trkpt lat="43.68881006815471" lon="11.136351479363116"><ele>113.8</ele><time>2026-04-03T09:11:07.012Z</time></trkpt><trkpt lat="43.688749881847954" lon="11.136217823584829"><ele>112.6</ele><time>2026-04-03T09:11:08.013Z</time></trkpt><trkpt lat="43.688686177677575" lon="11.136103246352144"><ele>111.4</ele><time>2026-04-03T09:11:09.013Z</time></trkpt><trkpt lat="43.6886288889423" lon="11.135986885285469"><ele>110.2</ele><time>2026-04-03T09:11:10.013Z</time></trkpt><trkpt lat="43.68856829873582" lon="11.135865176318616"><ele>109.0</ele><time>2026-04-03T09:11:11.013Z</time></trkpt><trkpt lat="43.688503980619096" lon="11.13573252836598"><ele>108.6</ele><time>2026-04-03T09:11:12.013Z</time></trkpt><trkpt lat="43.68842075274313" lon="11.135630187001237"><ele>108.2</ele><time>2026-04-03T09:11:13.013Z</time></trkpt><trkpt lat="43.688364727814715" lon="11.135506068549835"><ele>107.79999999999998</ele><time>2026-04-03T09:11:14.013Z</time></trkpt><trkpt lat="43.68830729402562" lon="11.135386876801375"><ele>107.39999999999999</ele><time>2026-04-03T09:11:15.013Z</time></trkpt><trkpt lat="43.68824699240254" lon="11.135285338257743"><ele>107.0</ele><time>2026-04-03T09:11:16.013Z</time></trkpt><trkpt lat="43.6881758616415" lon="11.135177939411882"><ele>107.0</ele><time>2026-04-03T09:11:17.013Z</time></trkpt><trkpt lat="43.688112585182516" lon="11.135062633132017"><ele>106.99999999999999</ele><time>2026-04-03T09:11:18.013Z</time></trkpt><trkpt lat="43.68805658417294" lon="11.134957631790202"><ele>106.99999999999999</ele><time>2026-04-03T09:11:19.013Z</time></trkpt><trkpt lat="43.687999037447454" lon="11.134835864778104"><ele>107.0</ele><time>2026-04-03T09:11:20.013Z</time></trkpt><trkpt lat="43.68797775172812" lon="11.134697090574779"><ele>107.0</ele><time>2026-04-03T09:11:21.013Z</time></trkpt><trkpt lat="43.68793491216393" lon="11.134579923442192"><ele>106.8</ele><time>2026-04-03T09:11:22.013Z</time></trkpt><trkpt lat="43.68789784240161" lon="11.134469232885447"><ele>106.6</ele><time>2026-04-03T09:11:23.013Z</time></trkpt><trkpt lat="43.687859514992816" lon="11.134358462960463"><ele>106.39999999999999</ele><time>2026-04-03T09:11:24.013Z</time></trkpt><trkpt lat="43.6878189035423" lon="11.13422316185833"><ele>106.19999999999999</ele><time>2026-04-03T09:11:25.013Z</time></trkpt><trkpt lat="43.68778112712714" lon="11.134092051551265"><ele>106.0</ele><time>2026-04-03T09:11:26.013Z</time></trkpt><trkpt lat="43.687740247896336" lon="11.133960377526867"><ele>105.0</ele><time>2026-04-03T09:11:27.013Z</time></trkpt><trkpt lat="43.68769888375497" lon="11.13384374649662"><ele>104.0</ele><time>2026-04-03T09:11:28.013Z</time></trkpt><trkpt lat="43.68766208148133" lon="11.13372161070664"><ele>103.0</ele><time>2026-04-03T09:11:29.013Z</time></trkpt><trkpt lat="43.68762501715137" lon="11.133593774386064"><ele>102.0</ele><time>2026-04-03T09:11:30.013Z</time></trkpt><trkpt lat="43.68759659518325" lon="11.133463376705556"><ele>101.0</ele><time>2026-04-03T09:11:31.013Z</time></trkpt><trkpt lat="43.68758109439975" lon="11.133374056169377"><ele>101.0</ele><time>2026-04-03T09:11:32.013Z</time></trkpt><trkpt lat="43.687574950851925" lon="11.13327536099748"><ele>101.0</ele><time>2026-04-03T09:11:33.013Z</time></trkpt><trkpt lat="43.68756012637316" lon="11.133133886550612"><ele>101.0</ele><time>2026-04-03T09:11:35.013Z</time></trkpt><trkpt lat="43.68750024721593" lon="11.132966644627839"><ele>101.0</ele><time>2026-04-03T09:11:37.013Z</time></trkpt><trkpt lat="43.68748524355688" lon="11.132853266529521"><ele>101.0</ele><time>2026-04-03T09:11:38.013Z</time></trkpt><trkpt lat="43.68746451259096" lon="11.132702738132382"><ele>100.75</ele><time>2026-04-03T09:11:39.013Z</time></trkpt><trkpt lat="43.68741401989654" lon="11.132561212283955"><ele>100.5</ele><time>2026-04-03T09:11:40.013Z</time></trkpt><trkpt lat="43.687322817901325" lon="11.132400923401859"><ele>100.25</ele><time>2026-04-03T09:11:41.013Z</time></trkpt><trkpt lat="43.687225025211475" lon="11.13225355371813"><ele>100.0</ele><time>2026-04-03T09:11:42.013Z</time></trkpt><trkpt lat="43.68711154569434" lon="11.132093167062674"><ele>99.25</ele><time>2026-04-03T09:11:43.013Z</time></trkpt><trkpt lat="43.68700788383416" lon="11.131925720181187"><ele>98.5</ele><time>2026-04-03T09:11:44.013Z</time></trkpt><trkpt lat="43.68692634571133" lon="11.131786167974687"><ele>97.75</ele><time>2026-04-03T09:11:45.013Z</time></trkpt><trkpt lat="43.68684647592006" lon="11.13164672262004"><ele>97.0</ele><time>2026-04-03T09:11:46.013Z</time></trkpt><trkpt lat="43.68676263077383" lon="11.13151965686106"><ele>96.25</ele><time>2026-04-03T09:11:47.013Z</time></trkpt><trkpt lat="43.68669160857473" lon="11.131388457733218"><ele>95.5</ele><time>2026-04-03T09:11:48.013Z</time></trkpt><trkpt lat="43.68661964670385" lon="11.13126117860522"><ele>94.75</ele><time>2026-04-03T09:11:49.013Z</time></trkpt><trkpt lat="43.68652694433888" lon="11.131164746679413"><ele>94.0</ele><time>2026-04-03T09:11:50.013Z</time></trkpt><trkpt lat="43.68642775006269" lon="11.131072157956986"><ele>94.0</ele><time>2026-04-03T09:11:51.013Z</time></trkpt><trkpt lat="43.68633228044084" lon="11.130969133325783"><ele>94.0</ele><time>2026-04-03T09:11:52.013Z</time></trkpt><trkpt lat="43.686240601903" lon="11.130867462569809"><ele>94.0</ele><time>2026-04-03T09:11:53.013Z</time></trkpt><trkpt lat="43.6861448928546" lon="11.130768668937106"><ele>94.0</ele><time>2026-04-03T09:11:54.013Z</time></trkpt><trkpt lat="43.68605081685366" lon="11.130673346244448"><ele>93.0</ele><time>2026-04-03T09:11:55.013Z</time></trkpt><trkpt lat="43.68595504835009" lon="11.130574519599763"><ele>92.0</ele><time>2026-04-03T09:11:56.013Z</time></trkpt><trkpt lat="43.685858282613744" lon="11.130469418537897"><ele>91.0</ele><time>2026-04-03T09:11:57.013Z</time></trkpt><trkpt lat="43.68575463778859" lon="11.130361458334587"><ele>90.0</ele><time>2026-04-03T09:11:58.013Z</time></trkpt><trkpt lat="43.685664279599216" lon="11.130260924399591"><ele>90.0</ele><time>2026-04-03T09:11:59.013Z</time></trkpt><trkpt lat="43.68557199273999" lon="11.130178215882536"><ele>90.0</ele><time>2026-04-03T09:12:00.013Z</time></trkpt><trkpt lat="43.685477535106585" lon="11.130094348901642"><ele>90.0</ele><time>2026-04-03T09:12:01.013Z</time></trkpt><trkpt lat="43.68539397668003" lon="11.130012850490704"><ele>90.0</ele><time>2026-04-03T09:12:02.013Z</time></trkpt><trkpt lat="43.68531681794388" lon="11.129928710945565"><ele>90.0</ele><time>2026-04-03T09:12:03.013Z</time></trkpt><trkpt lat="43.68523902219226" lon="11.12984355108913"><ele>89.0</ele><time>2026-04-03T09:12:04.014Z</time></trkpt><trkpt lat="43.68515933471655" lon="11.129766047860432"><ele>88.0</ele><time>2026-04-03T09:12:05.014Z</time></trkpt><trkpt lat="43.68508547525781" lon="11.129679500267406"><ele>87.0</ele><time>2026-04-03T09:12:06.014Z</time></trkpt><trkpt lat="43.68501609908886" lon="11.12958129083992"><ele>86.0</ele><time>2026-04-03T09:12:07.014Z</time></trkpt><trkpt lat="43.68494338438779" lon="11.12948023320581"><ele>85.0</ele><time>2026-04-03T09:12:08.014Z</time></trkpt><trkpt lat="43.684894049397755" lon="11.129344483978448"><ele>85.0</ele><time>2026-04-03T09:12:09.014Z</time></trkpt><trkpt lat="43.684843654000346" lon="11.129203074608624"><ele>85.0</ele><time>2026-04-03T09:12:10.014Z</time></trkpt><trkpt lat="43.684801854937696" lon="11.129065444252202"><ele>85.0</ele><time>2026-04-03T09:12:11.014Z</time></trkpt><trkpt lat="43.684765125521416" lon="11.128941800334449"><ele>85.0</ele><time>2026-04-03T09:12:12.014Z</time></trkpt><trkpt lat="43.68473470468451" lon="11.128834884352509"><ele>85.0</ele><time>2026-04-03T09:12:13.014Z</time></trkpt><trkpt lat="43.684702485739415" lon="11.128717451011807"><ele>84.8</ele><time>2026-04-03T09:12:14.014Z</time></trkpt><trkpt lat="43.68466512697246" lon="11.128584323516682"><ele>84.6</ele><time>2026-04-03T09:12:15.014Z</time></trkpt><trkpt lat="43.684610762014586" lon="11.128451083434088"><ele>84.4</ele><time>2026-04-03T09:12:16.014Z</time></trkpt><trkpt lat="43.68458112163057" lon="11.128313712919747"><ele>84.2</ele><time>2026-04-03T09:12:17.014Z</time></trkpt><trkpt lat="43.684533938158324" lon="11.12820657690215"><ele>84.0</ele><time>2026-04-03T09:12:18.014Z</time></trkpt><trkpt lat="43.68448755881817" lon="11.12812712920757"><ele>84.0</ele><time>2026-04-03T09:12:19.014Z</time></trkpt><trkpt lat="43.68444123009521" lon="11.128050263753368"><ele>84.0</ele><time>2026-04-03T09:12:21.014Z</time></trkpt><trkpt lat="43.6843898241921" lon="11.12817179398183"><ele>84.0</ele><time>2026-04-03T09:12:22.014Z</time></trkpt><trkpt lat="43.68431782727899" lon="11.12828790623229"><ele>84.0</ele><time>2026-04-03T09:12:23.014Z</time></trkpt><trkpt lat="43.6842421100033" lon="11.128449162602552"><ele>84.0</ele><time>2026-04-03T09:12:24.014Z</time></trkpt><trkpt lat="43.68415448866449" lon="11.12859414575367"><ele>83.33333333333333</ele><time>2026-04-03T09:12:25.014Z</time></trkpt><trkpt lat="43.68405329794342" lon="11.128714145528281"><ele>82.66666666666666</ele><time>2026-04-03T09:12:26.014Z</time></trkpt><trkpt lat="43.68391227433073" lon="11.128841752972873"><ele>82.0</ele><time>2026-04-03T09:12:27.014Z</time></trkpt><trkpt lat="43.683735093871235" lon="11.12899862464958"><ele>82.0</ele><time>2026-04-03T09:12:28.014Z</time></trkpt><trkpt lat="43.68355153493707" lon="11.129145069765004"><ele>82.0</ele><time>2026-04-03T09:12:29.014Z</time></trkpt><trkpt lat="43.6833702371383" lon="11.129309942449076"><ele>82.0</ele><time>2026-04-03T09:12:30.014Z</time></trkpt><trkpt lat="43.683201296096854" lon="11.12947024004702"><ele>82.0</ele><time>2026-04-03T09:12:31.014Z</time></trkpt><trkpt lat="43.68304930043962" lon="11.129622299210613"><ele>82.0</ele><time>2026-04-03T09:12:32.014Z</time></trkpt><trkpt lat="43.68293205377459" lon="11.12979923076372"><ele>82.0</ele><time>2026-04-03T09:12:33.014Z</time></trkpt><trkpt lat="43.68282455642651" lon="11.129945077152495"><ele>83.5</ele><time>2026-04-03T09:12:34.014Z</time></trkpt><trkpt lat="43.6827493677664" lon="11.130124194294059"><ele>85.0</ele><time>2026-04-03T09:12:35.014Z</time></trkpt><trkpt lat="43.68270383698858" lon="11.130292239349954"><ele>86.5</ele><time>2026-04-03T09:12:36.014Z</time></trkpt><trkpt lat="43.682684065656" lon="11.130485733721168"><ele>88.0</ele><time>2026-04-03T09:12:37.014Z</time></trkpt><trkpt lat="43.6827214963433" lon="11.130730629476316"><ele>89.0</ele><time>2026-04-03T09:12:38.014Z</time></trkpt><trkpt lat="43.68273350869056" lon="11.131018271679359"><ele>90.0</ele><time>2026-04-03T09:12:39.014Z</time></trkpt><trkpt lat="43.6827638013988" lon="11.131337390769792"><ele>91.0</ele><time>2026-04-03T09:12:40.014Z</time></trkpt><trkpt lat="43.68279429273613" lon="11.131656479567772"><ele>92.5</ele><time>2026-04-03T09:12:41.014Z</time></trkpt><trkpt lat="43.68282653474899" lon="11.13198633099591"><ele>94.0</ele><time>2026-04-03T09:12:42.014Z</time></trkpt><trkpt lat="43.68281992964743" lon="11.13231981059334"><ele>95.33333333333333</ele><time>2026-04-03T09:12:43.014Z</time></trkpt><trkpt lat="43.6828255293289" lon="11.132608557874189"><ele>96.66666666666666</ele><time>2026-04-03T09:12:44.014Z</time></trkpt><trkpt lat="43.682827349563354" lon="11.132870550129809"><ele>98.0</ele><time>2026-04-03T09:12:45.014Z</time></trkpt><trkpt lat="43.682816968190906" lon="11.133084776630897"><ele>101.33333333333333</ele><time>2026-04-03T09:12:46.014Z</time></trkpt><trkpt lat="43.682800845086085" lon="11.133300731420267"><ele>104.66666666666666</ele><time>2026-04-03T09:12:47.014Z</time></trkpt><trkpt lat="43.682776817786824" lon="11.133555132607128"><ele>108.0</ele><time>2026-04-03T09:12:48.014Z</time></trkpt><trkpt lat="43.682748427770726" lon="11.13383472196848"><ele>111.33333333333334</ele><time>2026-04-03T09:12:49.014Z</time></trkpt><trkpt lat="43.682721282082554" lon="11.134125177446721"><ele>114.66666666666667</ele><time>2026-04-03T09:12:50.014Z</time></trkpt><trkpt lat="43.682727220361464" lon="11.134387694419221"><ele>118.0</ele><time>2026-04-03T09:12:51.014Z</time></trkpt><trkpt lat="43.68271567026475" lon="11.134643915417705"><ele>119.0</ele><time>2026-04-03T09:12:52.014Z</time></trkpt><trkpt lat="43.682745178376464" lon="11.134906597909461"><ele>120.0</ele><time>2026-04-03T09:12:53.014Z</time></trkpt><trkpt lat="43.682796986026744" lon="11.135157013040901"><ele>121.0</ele><time>2026-04-03T09:12:54.014Z</time></trkpt><trkpt lat="43.68285656922502" lon="11.13538716881646"><ele>121.0</ele><time>2026-04-03T09:12:55.014Z</time></trkpt><trkpt lat="43.68291904499715" lon="11.13563460818605"><ele>121.0</ele><time>2026-04-03T09:12:56.014Z</time></trkpt><trkpt lat="43.683000268279834" lon="11.135848876915606"><ele>121.0</ele><time>2026-04-03T09:12:57.014Z</time></trkpt><trkpt lat="43.68309446595981" lon="11.136015885455416"><ele>123.25</ele><time>2026-04-03T09:12:58.014Z</time></trkpt><trkpt lat="43.68318539889468" lon="11.136158624877254"><ele>125.5</ele><time>2026-04-03T09:12:59.014Z</time></trkpt><trkpt lat="43.683249150873955" lon="11.136285703543306"><ele>127.75</ele><time>2026-04-03T09:13:00.014Z</time></trkpt><trkpt lat="43.68329152227204" lon="11.136432427036558"><ele>130.0</ele><time>2026-04-03T09:13:01.015Z</time></trkpt><trkpt lat="43.683238797473315" lon="11.136610266896275"><ele>132.0</ele><time>2026-04-03T09:13:02.015Z</time></trkpt><trkpt lat="43.68318738721416" lon="11.136833129430254"><ele>134.0</ele><time>2026-04-03T09:13:03.015Z</time></trkpt><trkpt lat="43.68313101485096" lon="11.137069318121187"><ele>136.0</ele><time>2026-04-03T09:13:04.015Z</time></trkpt><trkpt lat="43.68307669293411" lon="11.137298625423242"><ele>136.66666666666669</ele><time>2026-04-03T09:13:05.015Z</time></trkpt><trkpt lat="43.68302206338559" lon="11.137538106146641"><ele>137.33333333333334</ele><time>2026-04-03T09:13:06.015Z</time></trkpt><trkpt lat="43.6829638544992" lon="11.137788282431899"><ele>138.0</ele><time>2026-04-03T09:13:07.015Z</time></trkpt><trkpt lat="43.68291060761188" lon="11.138069205523086"><ele>140.5</ele><time>2026-04-03T09:13:08.015Z</time></trkpt><trkpt lat="43.68286645190953" lon="11.138400858608547"><ele>143.0</ele><time>2026-04-03T09:13:09.015Z</time></trkpt><trkpt lat="43.68283073782609" lon="11.138739332283224"><ele>143.66666666666666</ele><time>2026-04-03T09:13:10.015Z</time></trkpt><trkpt lat="43.682793184103836" lon="11.139062911498188"><ele>144.33333333333334</ele><time>2026-04-03T09:13:11.015Z</time></trkpt><trkpt lat="43.682739796885514" lon="11.13930889781966"><ele>145.0</ele><time>2026-04-03T09:13:12.015Z</time></trkpt><trkpt lat="43.68269557438741" lon="11.139506201183622"><ele>147.5</ele><time>2026-04-03T09:13:13.015Z</time></trkpt><trkpt lat="43.682668657840914" lon="11.13967796553427"><ele>150.0</ele><time>2026-04-03T09:13:14.015Z</time></trkpt><trkpt lat="43.68263704514384" lon="11.13983600880372"><ele>152.5</ele><time>2026-04-03T09:13:15.015Z</time></trkpt><trkpt lat="43.682612202689626" lon="11.139986431550422"><ele>155.0</ele><time>2026-04-03T09:13:16.015Z</time></trkpt><trkpt lat="43.68261690133187" lon="11.140139459683477"><ele>158.33333333333331</ele><time>2026-04-03T09:13:17.015Z</time></trkpt><trkpt lat="43.682666579408824" lon="11.140342299188626"><ele>161.66666666666666</ele><time>2026-04-03T09:13:18.015Z</time></trkpt><trkpt lat="43.682703103469045" lon="11.140615533992849"><ele>165.0</ele><time>2026-04-03T09:13:19.015Z</time></trkpt><trkpt lat="43.68266003462943" lon="11.140810102591566"><ele>166.5</ele><time>2026-04-03T09:13:20.015Z</time></trkpt><trkpt lat="43.68258201410705" lon="11.140928604126682"><ele>168.0</ele><time>2026-04-03T09:13:21.015Z</time></trkpt><trkpt lat="43.68246718264329" lon="11.141019754363015"><ele>169.5</ele><time>2026-04-03T09:13:22.015Z</time></trkpt><trkpt lat="43.68230683831299" lon="11.14109565895519"><ele>171.0</ele><time>2026-04-03T09:13:23.015Z</time></trkpt><trkpt lat="43.682111968490204" lon="11.141213536402477"><ele>171.0</ele><time>2026-04-03T09:13:24.015Z</time></trkpt><trkpt lat="43.6819458842049" lon="11.141366214452598"><ele>171.0</ele><time>2026-04-03T09:13:25.015Z</time></trkpt><trkpt lat="43.68182067939259" lon="11.141533654472635"><ele>171.0</ele><time>2026-04-03T09:13:26.015Z</time></trkpt><trkpt lat="43.681719585469054" lon="11.141742024653178"><ele>175.66666666666666</ele><time>2026-04-03T09:13:27.015Z</time></trkpt><trkpt lat="43.68165239391016" lon="11.142000502421698"><ele>180.33333333333331</ele><time>2026-04-03T09:13:28.015Z</time></trkpt><trkpt lat="43.681567169313254" lon="11.142239783926263"><ele>185.0</ele><time>2026-04-03T09:13:29.015Z</time></trkpt><trkpt lat="43.681474928386116" lon="11.14242566350939"><ele>185.0</ele><time>2026-04-03T09:13:30.015Z</time></trkpt><trkpt lat="43.68135620057142" lon="11.142619841937606"><ele>185.0</ele><time>2026-04-03T09:13:31.015Z</time></trkpt><trkpt lat="43.68120598031588" lon="11.142831395105352"><ele>185.0</ele><time>2026-04-03T09:13:32.015Z</time></trkpt><trkpt lat="43.681016006880704" lon="11.143031203047897"><ele>192.5</ele><time>2026-04-03T09:13:33.015Z</time></trkpt><trkpt lat="43.680818236332186" lon="11.143223857224207"><ele>200.0</ele><time>2026-04-03T09:13:34.015Z</time></trkpt><trkpt lat="43.68058696530953" lon="11.143421895097493"><ele>200.0</ele><time>2026-04-03T09:13:35.015Z</time></trkpt><trkpt lat="43.68036943887441" lon="11.143650649135514"><ele>200.0</ele><time>2026-04-03T09:13:36.015Z</time></trkpt><trkpt lat="43.68015719663568" lon="11.143874028450032"><ele>206.0</ele><time>2026-04-03T09:13:37.015Z</time></trkpt><trkpt lat="43.67995244643527" lon="11.144082813917866"><ele>212.0</ele><time>2026-04-03T09:13:38.015Z</time></trkpt><trkpt lat="43.67975019264459" lon="11.144261396289592"><ele>212.0</ele><time>2026-04-03T09:13:39.015Z</time></trkpt><trkpt lat="43.67955008701049" lon="11.144418903188706"><ele>212.0</ele><time>2026-04-03T09:13:40.015Z</time></trkpt><trkpt lat="43.679364689367105" lon="11.144573777364402"><ele>212.0</ele><time>2026-04-03T09:13:41.015Z</time></trkpt><trkpt lat="43.6792104499756" lon="11.144708165342196"><ele>214.0</ele><time>2026-04-03T09:13:42.015Z</time></trkpt><trkpt lat="43.67912443520767" lon="11.144844498252073"><ele>216.0</ele><time>2026-04-03T09:13:43.015Z</time></trkpt><trkpt lat="43.67905262783394" lon="11.145018498192089"><ele>218.0</ele><time>2026-04-03T09:13:44.015Z</time></trkpt><trkpt lat="43.67906489095892" lon="11.145254227373725"><ele>220.0</ele><time>2026-04-03T09:13:45.015Z</time></trkpt><trkpt lat="43.6790515021078" lon="11.145551561994601"><ele>221.66666666666666</ele><time>2026-04-03T09:13:46.015Z</time></trkpt><trkpt lat="43.67903726301607" lon="11.145839651163618"><ele>223.33333333333331</ele><time>2026-04-03T09:13:47.015Z</time></trkpt><trkpt lat="43.67902309091449" lon="11.146153993616169"><ele>225.0</ele><time>2026-04-03T09:13:48.015Z</time></trkpt><trkpt lat="43.67898772243011" lon="11.14643241573115"><ele>228.0</ele><time>2026-04-03T09:13:49.015Z</time></trkpt><trkpt lat="43.678979084952886" lon="11.146727829742607"><ele>231.0</ele><time>2026-04-03T09:13:50.015Z</time></trkpt><trkpt lat="43.67896818485477" lon="11.147038875428303"><ele>234.0</ele><time>2026-04-03T09:13:51.015Z</time></trkpt><trkpt lat="43.67894556815933" lon="11.147332726492266"><ele>235.0</ele><time>2026-04-03T09:13:52.015Z</time></trkpt><trkpt lat="43.678893015132054" lon="11.147624606707204"><ele>236.0</ele><time>2026-04-03T09:13:53.015Z</time></trkpt><trkpt lat="43.678815997889004" lon="11.14791924740168"><ele>237.0</ele><time>2026-04-03T09:13:54.015Z</time></trkpt><trkpt lat="43.67872484849687" lon="11.148202256444968"><ele>236.66666666666669</ele><time>2026-04-03T09:13:55.015Z</time></trkpt><trkpt lat="43.678608397310235" lon="11.1484482397542"><ele>236.33333333333334</ele><time>2026-04-03T09:13:56.015Z</time></trkpt><trkpt lat="43.678464588139924" lon="11.148660470779344"><ele>236.0</ele><time>2026-04-03T09:13:57.016Z</time></trkpt><trkpt lat="43.67830761131688" lon="11.148866861965244"><ele>235.0</ele><time>2026-04-03T09:13:58.016Z</time></trkpt><trkpt lat="43.678137352146685" lon="11.149061699918951"><ele>234.0</ele><time>2026-04-03T09:13:59.016Z</time></trkpt><trkpt lat="43.67796188863144" lon="11.149260925888232"><ele>233.0</ele><time>2026-04-03T09:14:00.016Z</time></trkpt><trkpt lat="43.67781776191822" lon="11.1494309868669"><ele>231.66666666666669</ele><time>2026-04-03T09:14:01.016Z</time></trkpt><trkpt lat="43.67769270723984" lon="11.14958510028605"><ele>230.33333333333331</ele><time>2026-04-03T09:14:02.016Z</time></trkpt><trkpt lat="43.67756994609116" lon="11.149718342143546"><ele>229.0</ele><time>2026-04-03T09:14:03.016Z</time></trkpt><trkpt lat="43.67745960759184" lon="11.14985397056286"><ele>230.5</ele><time>2026-04-03T09:14:04.016Z</time></trkpt><trkpt lat="43.67735485004629" lon="11.14998259187669"><ele>232.0</ele><time>2026-04-03T09:14:05.016Z</time></trkpt><trkpt lat="43.67725196590951" lon="11.150104448722503"><ele>233.5</ele><time>2026-04-03T09:14:06.016Z</time></trkpt><trkpt lat="43.6771542562296" lon="11.150227103635594"><ele>235.0</ele><time>2026-04-03T09:14:07.016Z</time></trkpt><trkpt lat="43.677058079425045" lon="11.150347031779194"><ele>235.0</ele><time>2026-04-03T09:14:08.016Z</time></trkpt><trkpt lat="43.6769589638191" lon="11.150462616961825"><ele>235.0</ele><time>2026-04-03T09:14:09.016Z</time></trkpt><trkpt lat="43.67688575705323" lon="11.150567821743994"><ele>235.0</ele><time>2026-04-03T09:14:10.016Z</time></trkpt><trkpt lat="43.67681707532341" lon="11.150668385565178"><ele>235.0</ele><time>2026-04-03T09:14:11.016Z</time></trkpt><trkpt lat="43.676752461134605" lon="11.150767167117845"><ele>235.0</ele><time>2026-04-03T09:14:12.016Z</time></trkpt><trkpt lat="43.676697515092926" lon="11.15088735232166"><ele>236.0</ele><time>2026-04-03T09:14:13.016Z</time></trkpt><trkpt lat="43.67664476977631" lon="11.151032623198912"><ele>237.0</ele><time>2026-04-03T09:14:14.016Z</time></trkpt><trkpt lat="43.67658151726568" lon="11.151166246564983"><ele>238.0</ele><time>2026-04-03T09:14:15.016Z</time></trkpt><trkpt lat="43.67651413230629" lon="11.151314726417764"><ele>239.0</ele><time>2026-04-03T09:14:16.016Z</time></trkpt><trkpt lat="43.676417560228764" lon="11.151467406349838"><ele>239.0</ele><time>2026-04-03T09:14:17.016Z</time></trkpt><trkpt lat="43.676287277666596" lon="11.15160101769373"><ele>239.0</ele><time>2026-04-03T09:14:18.016Z</time></trkpt><trkpt lat="43.67615534661726" lon="11.151743395625253"><ele>239.0</ele><time>2026-04-03T09:14:19.016Z</time></trkpt><trkpt lat="43.67602798485809" lon="11.151886848427921"><ele>241.0</ele><time>2026-04-03T09:14:20.016Z</time></trkpt><trkpt lat="43.675908208544456" lon="11.152034115817052"><ele>243.0</ele><time>2026-04-03T09:14:21.016Z</time></trkpt><trkpt lat="43.675789192668844" lon="11.152183987170341"><ele>245.0</ele><time>2026-04-03T09:14:22.016Z</time></trkpt><trkpt lat="43.675664507680395" lon="11.152339385757653"><ele>246.66666666666669</ele><time>2026-04-03T09:14:23.016Z</time></trkpt><trkpt lat="43.67552751510039" lon="11.152499848024044"><ele>248.33333333333331</ele><time>2026-04-03T09:14:24.016Z</time></trkpt><trkpt lat="43.67538781376337" lon="11.152652766900811"><ele>250.0</ele><time>2026-04-03T09:14:25.016Z</time></trkpt><trkpt lat="43.67524092024383" lon="11.152789281556727"><ele>246.33333333333331</ele><time>2026-04-03T09:14:26.016Z</time></trkpt><trkpt lat="43.6750817252662" lon="11.152911003317806"><ele>242.66666666666669</ele><time>2026-04-03T09:14:27.016Z</time></trkpt><trkpt lat="43.67493261809463" lon="11.153044059527879"><ele>239.0</ele><time>2026-04-03T09:14:28.016Z</time></trkpt><trkpt lat="43.674791793630206" lon="11.15317041454397"><ele>239.66666666666669</ele><time>2026-04-03T09:14:29.016Z</time></trkpt><trkpt lat="43.67465241110506" lon="11.153293406779307"><ele>240.33333333333331</ele><time>2026-04-03T09:14:30.016Z</time></trkpt><trkpt lat="43.67452178945749" lon="11.153399204558767"><ele>241.0</ele><time>2026-04-03T09:14:31.016Z</time></trkpt><trkpt lat="43.67440457813937" lon="11.153502301587292"><ele>241.0</ele><time>2026-04-03T09:14:32.016Z</time></trkpt><trkpt lat="43.67428968052189" lon="11.153595007323863"><ele>241.0</ele><time>2026-04-03T09:14:33.016Z</time></trkpt><trkpt lat="43.67418587407269" lon="11.153678409500461"><ele>241.0</ele><time>2026-04-03T09:14:34.016Z</time></trkpt><trkpt lat="43.67408418180707" lon="11.153755363600325"><ele>241.0</ele><time>2026-04-03T09:14:35.016Z</time></trkpt><trkpt lat="43.67399179591472" lon="11.15383754246081"><ele>241.0</ele><time>2026-04-03T09:14:36.016Z</time></trkpt><trkpt lat="43.67389748878839" lon="11.153919302364194"><ele>241.00000000000003</ele><time>2026-04-03T09:14:37.016Z</time></trkpt><trkpt lat="43.673806554190726" lon="11.154002255739796"><ele>241.00000000000003</ele><time>2026-04-03T09:14:38.016Z</time></trkpt><trkpt lat="43.67370799542418" lon="11.154074811913253"><ele>241.0</ele><time>2026-04-03T09:14:39.016Z</time></trkpt><trkpt lat="43.67360915984028" lon="11.15414977016599"><ele>241.0</ele><time>2026-04-03T09:14:40.016Z</time></trkpt><trkpt lat="43.67349590143778" lon="11.154210942245546"><ele>242.25</ele><time>2026-04-03T09:14:41.016Z</time></trkpt><trkpt lat="43.673377154907485" lon="11.154286425839608"><ele>243.5</ele><time>2026-04-03T09:14:42.016Z</time></trkpt><trkpt lat="43.673241737286546" lon="11.1543695572892"><ele>244.75</ele><time>2026-04-03T09:14:43.016Z</time></trkpt><trkpt lat="43.673092539929264" lon="11.154470797374284"><ele>246.0</ele><time>2026-04-03T09:14:44.016Z</time></trkpt><trkpt lat="43.672918984663276" lon="11.15458696308773"><ele>244.66666666666669</ele><time>2026-04-03T09:14:45.016Z</time></trkpt><trkpt lat="43.67273868878414" lon="11.154733535070251"><ele>243.33333333333334</ele><time>2026-04-03T09:14:46.016Z</time></trkpt><trkpt lat="43.67254899250002" lon="11.154865574431124"><ele>242.0</ele><time>2026-04-03T09:14:47.016Z</time></trkpt><trkpt lat="43.67233383001199" lon="11.155043255253238"><ele>246.0</ele><time>2026-04-03T09:14:48.016Z</time></trkpt><trkpt lat="43.67211172603101" lon="11.155223794966924"><ele>250.0</ele><time>2026-04-03T09:14:49.016Z</time></trkpt><trkpt lat="43.67187903401801" lon="11.155398951943743"><ele>251.0</ele><time>2026-04-03T09:14:50.016Z</time></trkpt><trkpt lat="43.67165375461451" lon="11.155549236686248"><ele>252.0</ele><time>2026-04-03T09:14:51.016Z</time></trkpt><trkpt lat="43.67144807551614" lon="11.15569484984835"><ele>254.66666666666669</ele><time>2026-04-03T09:14:52.016Z</time></trkpt><trkpt lat="43.671264856992416" lon="11.155839642459307"><ele>257.33333333333337</ele><time>2026-04-03T09:14:53.016Z</time></trkpt><trkpt lat="43.67110076699656" lon="11.155971102935181"><ele>260.0</ele><time>2026-04-03T09:14:54.017Z</time></trkpt><trkpt lat="43.670944986085466" lon="11.156111329680124"><ele>260.0</ele><time>2026-04-03T09:14:55.017Z</time></trkpt><trkpt lat="43.670780717994326" lon="11.15628445218831"><ele>260.0</ele><time>2026-04-03T09:14:56.017Z</time></trkpt><trkpt lat="43.67064186318526" lon="11.156519752462604"><ele>260.0</ele><time>2026-04-03T09:14:57.017Z</time></trkpt><trkpt lat="43.67051115822339" lon="11.156763766195008"><ele>262.33333333333337</ele><time>2026-04-03T09:14:58.017Z</time></trkpt><trkpt lat="43.67039182919627" lon="11.15701255250326"><ele>264.6666666666667</ele><time>2026-04-03T09:14:59.017Z</time></trkpt><trkpt lat="43.67027633889419" lon="11.157242475424711"><ele>267.0</ele><time>2026-04-03T09:15:00.017Z</time></trkpt><trkpt lat="43.67015863599957" lon="11.15747519853533"><ele>270.6666666666667</ele><time>2026-04-03T09:15:01.017Z</time></trkpt><trkpt lat="43.67003846878186" lon="11.157719668309886"><ele>274.33333333333337</ele><time>2026-04-03T09:15:02.017Z</time></trkpt><trkpt lat="43.669906296627936" lon="11.157960784953344"><ele>278.0</ele><time>2026-04-03T09:15:03.017Z</time></trkpt><trkpt lat="43.669774850845435" lon="11.15818936363288"><ele>281.0</ele><time>2026-04-03T09:15:04.017Z</time></trkpt><trkpt lat="43.66965985143556" lon="11.15838185187171"><ele>284.0</ele><time>2026-04-03T09:15:05.017Z</time></trkpt><trkpt lat="43.669547654189614" lon="11.15855300234318"><ele>287.0</ele><time>2026-04-03T09:15:06.017Z</time></trkpt><trkpt lat="43.66945469241484" lon="11.158745211978681"><ele>287.0</ele><time>2026-04-03T09:15:07.017Z</time></trkpt><trkpt lat="43.66936944176822" lon="11.158991555043356"><ele>287.0</ele><time>2026-04-03T09:15:08.017Z</time></trkpt><trkpt lat="43.66928972833792" lon="11.159275670896925"><ele>287.0</ele><time>2026-04-03T09:15:09.017Z</time></trkpt><trkpt lat="43.669203300392795" lon="11.159570324187941"><ele>289.0</ele><time>2026-04-03T09:15:10.017Z</time></trkpt><trkpt lat="43.6691103758756" lon="11.159887725213181"><ele>291.0</ele><time>2026-04-03T09:15:11.017Z</time></trkpt><trkpt lat="43.669013244163374" lon="11.160219143193117"><ele>291.0</ele><time>2026-04-03T09:15:12.017Z</time></trkpt><trkpt lat="43.66890755542917" lon="11.160571854529067"><ele>291.0</ele><time>2026-04-03T09:15:13.017Z</time></trkpt><trkpt lat="43.66881643639116" lon="11.160914894693049"><ele>291.5</ele><time>2026-04-03T09:15:14.017Z</time></trkpt><trkpt lat="43.6687342116448" lon="11.16124275980358"><ele>292.0</ele><time>2026-04-03T09:15:15.017Z</time></trkpt><trkpt lat="43.66866506599437" lon="11.161564270349325"><ele>292.0</ele><time>2026-04-03T09:15:16.017Z</time></trkpt><trkpt lat="43.66861744069253" lon="11.161875819453819"><ele>292.0</ele><time>2026-04-03T09:15:17.017Z</time></trkpt><trkpt lat="43.668565075451276" lon="11.162168073900554"><ele>292.0</ele><time>2026-04-03T09:15:18.017Z</time></trkpt><trkpt lat="43.66849309781572" lon="11.162441437454493"><ele>289.3333333333333</ele><time>2026-04-03T09:15:19.017Z</time></trkpt><trkpt lat="43.668367297501845" lon="11.162668259550253"><ele>286.6666666666667</ele><time>2026-04-03T09:15:20.017Z</time></trkpt><trkpt lat="43.668197186636476" lon="11.162858276335005"><ele>284.0</ele><time>2026-04-03T09:15:21.017Z</time></trkpt><trkpt lat="43.668009932997585" lon="11.163056702263582"><ele>286.0</ele><time>2026-04-03T09:15:22.017Z</time></trkpt><trkpt lat="43.66781049106506" lon="11.16327358221276"><ele>288.0</ele><time>2026-04-03T09:15:23.017Z</time></trkpt><trkpt lat="43.66760502567368" lon="11.163492780750909"><ele>288.0</ele><time>2026-04-03T09:15:24.017Z</time></trkpt><trkpt lat="43.66740589733575" lon="11.163702959238266"><ele>288.0</ele><time>2026-04-03T09:15:25.017Z</time></trkpt><trkpt lat="43.66720513929513" lon="11.163894776296173"><ele>289.5</ele><time>2026-04-03T09:15:26.017Z</time></trkpt><trkpt lat="43.66699617175183" lon="11.164067595516363"><ele>291.0</ele><time>2026-04-03T09:15:27.017Z</time></trkpt><trkpt lat="43.66677058489489" lon="11.16424965981653"><ele>293.0</ele><time>2026-04-03T09:15:28.017Z</time></trkpt><trkpt lat="43.66654158313971" lon="11.164435895571703"><ele>295.0</ele><time>2026-04-03T09:15:29.017Z</time></trkpt><trkpt lat="43.66632266157786" lon="11.164613418794271"><ele>295.0</ele><time>2026-04-03T09:15:30.017Z</time></trkpt><trkpt lat="43.66612501913981" lon="11.164775413154407"><ele>295.0</ele><time>2026-04-03T09:15:31.017Z</time></trkpt><trkpt lat="43.66594718663639" lon="11.164941897474215"><ele>295.0</ele><time>2026-04-03T09:15:32.017Z</time></trkpt><trkpt lat="43.66576240501589" lon="11.165112439393752"><ele>296.5</ele><time>2026-04-03T09:15:33.017Z</time></trkpt><trkpt lat="43.66558523198484" lon="11.165363437732017"><ele>298.0</ele><time>2026-04-03T09:15:34.017Z</time></trkpt><trkpt lat="43.66541519928382" lon="11.165684338403755"><ele>300.5</ele><time>2026-04-03T09:15:35.017Z</time></trkpt><trkpt lat="43.66525806813748" lon="11.165964347986558"><ele>303.0</ele><time>2026-04-03T09:15:36.017Z</time></trkpt><trkpt lat="43.665096877273406" lon="11.166186469086385"><ele>303.0</ele><time>2026-04-03T09:15:37.017Z</time></trkpt><trkpt lat="43.664965779943046" lon="11.166378523451757"><ele>303.0</ele><time>2026-04-03T09:15:38.017Z</time></trkpt><trkpt lat="43.66486387666714" lon="11.166570323238478"><ele>303.0</ele><time>2026-04-03T09:15:39.017Z</time></trkpt><trkpt lat="43.664742053791386" lon="11.166761558580554"><ele>303.0</ele><time>2026-04-03T09:15:40.017Z</time></trkpt><trkpt lat="43.66461845171242" lon="11.166990891140959"><ele>303.0</ele><time>2026-04-03T09:15:41.017Z</time></trkpt><trkpt lat="43.66448856521582" lon="11.167234344942303"><ele>303.0</ele><time>2026-04-03T09:15:42.017Z</time></trkpt><trkpt lat="43.66433747530914" lon="11.167436997631443"><ele>302.6666666666667</ele><time>2026-04-03T09:15:43.017Z</time></trkpt><trkpt lat="43.664234546478745" lon="11.167636217874373"><ele>302.33333333333337</ele><time>2026-04-03T09:15:44.017Z</time></trkpt><trkpt lat="43.6641562465987" lon="11.167812257714967"><ele>302.0</ele><time>2026-04-03T09:15:45.017Z</time></trkpt><trkpt lat="43.66409561981237" lon="11.168014228892696"><ele>300.33333333333337</ele><time>2026-04-03T09:15:46.017Z</time></trkpt><trkpt lat="43.66408284351791" lon="11.168283412976688"><ele>298.6666666666667</ele><time>2026-04-03T09:15:47.017Z</time></trkpt><trkpt lat="43.6640606711405" lon="11.168561982933772"><ele>297.0</ele><time>2026-04-03T09:15:48.017Z</time></trkpt><trkpt lat="43.66404974574383" lon="11.1687970990638"><ele>297.0</ele><time>2026-04-03T09:15:49.017Z</time></trkpt><trkpt lat="43.664112431036195" lon="11.169020210258143"><ele>297.0</ele><time>2026-04-03T09:15:50.018Z</time></trkpt><trkpt lat="43.66418686804641" lon="11.16928487467637"><ele>297.0</ele><time>2026-04-03T09:15:51.018Z</time></trkpt><trkpt lat="43.66431990035807" lon="11.169537012582737"><ele>297.0</ele><time>2026-04-03T09:15:52.018Z</time></trkpt><trkpt lat="43.66446389473063" lon="11.169779275647503"><ele>297.0</ele><time>2026-04-03T09:15:53.018Z</time></trkpt><trkpt lat="43.664604925746886" lon="11.170003359100198"><ele>297.0</ele><time>2026-04-03T09:15:54.018Z</time></trkpt><trkpt lat="43.66471049109046" lon="11.170227256477247"><ele>297.0</ele><time>2026-04-03T09:15:55.018Z</time></trkpt><trkpt lat="43.664774956830726" lon="11.170452550569266"><ele>297.0</ele><time>2026-04-03T09:15:56.018Z</time></trkpt><trkpt lat="43.664817825248235" lon="11.170690663116286"><ele>297.0</ele><time>2026-04-03T09:15:57.018Z</time></trkpt><trkpt lat="43.664825747882865" lon="11.170924139899528"><ele>297.6666666666667</ele><time>2026-04-03T09:15:58.018Z</time></trkpt><trkpt lat="43.66483429025838" lon="11.171154558483954"><ele>298.33333333333337</ele><time>2026-04-03T09:15:59.018Z</time></trkpt><trkpt lat="43.66484520515359" lon="11.171414003984271"><ele>299.0</ele><time>2026-04-03T09:16:00.018Z</time></trkpt><trkpt lat="43.66486390830413" lon="11.171680918232571"><ele>299.0</ele><time>2026-04-03T09:16:01.018Z</time></trkpt><trkpt lat="43.664899615499465" lon="11.171978888042045"><ele>299.0</ele><time>2026-04-03T09:16:02.018Z</time></trkpt><trkpt lat="43.664927684921004" lon="11.172288284510712"><ele>299.0</ele><time>2026-04-03T09:16:03.018Z</time></trkpt><trkpt lat="43.66493589737946" lon="11.172609769631807"><ele>299.0</ele><time>2026-04-03T09:16:04.018Z</time></trkpt><trkpt lat="43.66497539460966" lon="11.17294570532365"><ele>299.0</ele><time>2026-04-03T09:16:05.018Z</time></trkpt><trkpt lat="43.66502207243312" lon="11.173271694001077"><ele>297.33333333333337</ele><time>2026-04-03T09:16:06.018Z</time></trkpt><trkpt lat="43.66506240090997" lon="11.173562903222942"><ele>295.6666666666667</ele><time>2026-04-03T09:16:07.018Z</time></trkpt><trkpt lat="43.665099746892174" lon="11.173812783655457"><ele>294.0</ele><time>2026-04-03T09:16:08.018Z</time></trkpt><trkpt lat="43.665135169393025" lon="11.174028100032013"><ele>293.0</ele><time>2026-04-03T09:16:09.018Z</time></trkpt><trkpt lat="43.665194145889224" lon="11.174234999923879"><ele>292.0</ele><time>2026-04-03T09:16:10.018Z</time></trkpt><trkpt lat="43.66528799933835" lon="11.174442923099333"><ele>291.0</ele><time>2026-04-03T09:16:11.018Z</time></trkpt><trkpt lat="43.66541498567741" lon="11.174638585056494"><ele>295.0</ele><time>2026-04-03T09:16:12.018Z</time></trkpt><trkpt lat="43.665520077128946" lon="11.174858795457949"><ele>299.0</ele><time>2026-04-03T09:16:13.018Z</time></trkpt><trkpt lat="43.6655684266915" lon="11.175123362703516"><ele>303.0</ele><time>2026-04-03T09:16:14.018Z</time></trkpt><trkpt lat="43.66560988260175" lon="11.175397245012423"><ele>303.0</ele><time>2026-04-03T09:16:15.018Z</time></trkpt><trkpt lat="43.665651361186114" lon="11.175647478729614"><ele>303.0</ele><time>2026-04-03T09:16:16.018Z</time></trkpt><trkpt lat="43.66567803603048" lon="11.17586214694661"><ele>303.0</ele><time>2026-04-03T09:16:17.018Z</time></trkpt><trkpt lat="43.66569807253413" lon="11.17606503829259"><ele>302.75</ele><time>2026-04-03T09:16:18.018Z</time></trkpt><trkpt lat="43.6657034516276" lon="11.176260719006299"><ele>302.5</ele><time>2026-04-03T09:16:19.018Z</time></trkpt><trkpt lat="43.665691985240855" lon="11.176443756681728"><ele>302.25</ele><time>2026-04-03T09:16:20.018Z</time></trkpt><trkpt lat="43.665661975739454" lon="11.176601787662662"><ele>302.0</ele><time>2026-04-03T09:16:21.018Z</time></trkpt><trkpt lat="43.66559775931306" lon="11.176770799709194"><ele>302.0</ele><time>2026-04-03T09:16:22.018Z</time></trkpt><trkpt lat="43.66549429710895" lon="11.17693315649511"><ele>302.0</ele><time>2026-04-03T09:16:23.018Z</time></trkpt><trkpt lat="43.665367941916884" lon="11.177070474821639"><ele>302.0</ele><time>2026-04-03T09:16:24.018Z</time></trkpt><trkpt lat="43.66523403064844" lon="11.17719044490104"><ele>302.33333333333337</ele><time>2026-04-03T09:16:25.018Z</time></trkpt><trkpt lat="43.665096338510004" lon="11.177297863114571"><ele>302.6666666666667</ele><time>2026-04-03T09:16:26.018Z</time></trkpt><trkpt lat="43.6649356047086" lon="11.177382318839525"><ele>303.0</ele><time>2026-04-03T09:16:27.018Z</time></trkpt><trkpt lat="43.6647474840852" lon="11.17745747762569"><ele>303.0</ele><time>2026-04-03T09:16:28.018Z</time></trkpt><trkpt lat="43.66458745016087" lon="11.177538031183996"><ele>303.0</ele><time>2026-04-03T09:16:29.018Z</time></trkpt><trkpt lat="43.66442149227471" lon="11.1776184820825"><ele>303.0</ele><time>2026-04-03T09:16:30.018Z</time></trkpt><trkpt lat="43.66425004023269" lon="11.177699399942094"><ele>302.3333333333333</ele><time>2026-04-03T09:16:31.018Z</time></trkpt><trkpt lat="43.66407526290181" lon="11.177788492880623"><ele>301.66666666666663</ele><time>2026-04-03T09:16:32.018Z</time></trkpt><trkpt lat="43.66391031549226" lon="11.177896411732718"><ele>301.0</ele><time>2026-04-03T09:16:33.018Z</time></trkpt><trkpt lat="43.663762337919536" lon="11.177984917311159"><ele>301.0</ele><time>2026-04-03T09:16:34.018Z</time></trkpt><trkpt lat="43.66362765814678" lon="11.178077926285727"><ele>301.0</ele><time>2026-04-03T09:16:35.018Z</time></trkpt><trkpt lat="43.66352303194919" lon="11.178177063729281"><ele>301.0</ele><time>2026-04-03T09:16:36.018Z</time></trkpt><trkpt lat="43.663453468740684" lon="11.178291589340258"><ele>301.0</ele><time>2026-04-03T09:16:37.018Z</time></trkpt><trkpt lat="43.66341290009732" lon="11.178455878864504"><ele>301.75</ele><time>2026-04-03T09:16:38.018Z</time></trkpt><trkpt lat="43.66333735744682" lon="11.178624564694708"><ele>302.5</ele><time>2026-04-03T09:16:39.018Z</time></trkpt><trkpt lat="43.66325055194129" lon="11.178791034757248"><ele>303.25</ele><time>2026-04-03T09:16:40.018Z</time></trkpt><trkpt lat="43.66313471875846" lon="11.178921080151078"><ele>304.0</ele><time>2026-04-03T09:16:41.018Z</time></trkpt><trkpt lat="43.662999772802664" lon="11.179048383929175"><ele>304.0</ele><time>2026-04-03T09:16:42.018Z</time></trkpt><trkpt lat="43.6628570722922" lon="11.17918050819539"><ele>304.0</ele><time>2026-04-03T09:16:43.018Z</time></trkpt><trkpt lat="43.662718530614725" lon="11.179349102069516"><ele>304.0</ele><time>2026-04-03T09:16:44.018Z</time></trkpt><trkpt lat="43.66258428477381" lon="11.179577535816442"><ele>303.5</ele><time>2026-04-03T09:16:45.018Z</time></trkpt><trkpt lat="43.66245310776888" lon="11.179826568955974"><ele>303.0</ele><time>2026-04-03T09:16:46.019Z</time></trkpt><trkpt lat="43.662343467004646" lon="11.180101979940012"><ele>303.0</ele><time>2026-04-03T09:16:47.019Z</time></trkpt><trkpt lat="43.66224533215764" lon="11.180394872067343"><ele>303.0</ele><time>2026-04-03T09:16:48.019Z</time></trkpt><trkpt lat="43.66216550056895" lon="11.180661852275882"><ele>303.0</ele><time>2026-04-03T09:16:49.019Z</time></trkpt><trkpt lat="43.66210083791559" lon="11.180901684546413"><ele>303.0</ele><time>2026-04-03T09:16:50.019Z</time></trkpt><trkpt lat="43.66204425440181" lon="11.181129710671778"><ele>303.0</ele><time>2026-04-03T09:16:51.019Z</time></trkpt><trkpt lat="43.66197434077492" lon="11.181349602302578"><ele>303.0</ele><time>2026-04-03T09:16:52.019Z</time></trkpt><trkpt lat="43.661895640196875" lon="11.181550456571053"><ele>302.25</ele><time>2026-04-03T09:16:53.019Z</time></trkpt><trkpt lat="43.661818838432104" lon="11.18172801089423"><ele>301.5</ele><time>2026-04-03T09:16:54.019Z</time></trkpt><trkpt lat="43.66175263962351" lon="11.181896295493194"><ele>300.75</ele><time>2026-04-03T09:16:55.019Z</time></trkpt><trkpt lat="43.661691121821185" lon="11.182036612295345"><ele>300.0</ele><time>2026-04-03T09:16:56.019Z</time></trkpt><trkpt lat="43.66162673800278" lon="11.182140769290749"><ele>300.0</ele><time>2026-04-03T09:16:57.019Z</time></trkpt><trkpt lat="43.661567225855414" lon="11.182226637745627"><ele>300.0</ele><time>2026-04-03T09:16:58.019Z</time></trkpt><trkpt lat="43.66151000503673" lon="11.182277506521878"><ele>300.0</ele><time>2026-04-03T09:16:59.019Z</time></trkpt><trkpt lat="43.66143502033398" lon="11.182312467332592"><ele>300.0</ele><time>2026-04-03T09:17:01.019Z</time></trkpt><trkpt lat="43.661377574281836" lon="11.182366643010505"><ele>300.0</ele><time>2026-04-03T09:17:03.019Z</time></trkpt><trkpt lat="43.66136690243722" lon="11.182495937875082"><ele>300.0</ele><time>2026-04-03T09:17:05.019Z</time></trkpt><trkpt lat="43.66137711098111" lon="11.182667491340919"><ele>300.5</ele><time>2026-04-03T09:17:07.019Z</time></trkpt><trkpt lat="43.66134729128145" lon="11.182756990568691"><ele>301.0</ele><time>2026-04-03T09:17:08.019Z</time></trkpt><trkpt lat="43.66131330729279" lon="11.182856578636079"><ele>301.5</ele><time>2026-04-03T09:17:09.019Z</time></trkpt><trkpt lat="43.66127931804314" lon="11.182949053379769"><ele>302.0</ele><time>2026-04-03T09:17:10.019Z</time></trkpt><trkpt lat="43.661220998849764" lon="11.183023802384065"><ele>302.5</ele><time>2026-04-03T09:17:11.019Z</time></trkpt><trkpt lat="43.66120396612737" lon="11.1831234756922"><ele>303.0</ele><time>2026-04-03T09:17:12.019Z</time></trkpt><trkpt lat="43.6611559850913" lon="11.183210095700804"><ele>301.0</ele><time>2026-04-03T09:17:14.019Z</time></trkpt><trkpt lat="43.66130207613896" lon="11.183380478299352"><ele>299.0</ele><time>2026-04-03T09:17:16.019Z</time></trkpt><trkpt lat="43.66141410482251" lon="11.183462242900362"><ele>297.0</ele><time>2026-04-03T09:17:17.019Z</time></trkpt><trkpt lat="43.661549571937634" lon="11.18352686968302"><ele>297.0</ele><time>2026-04-03T09:17:18.019Z</time></trkpt><trkpt lat="43.66167281146276" lon="11.18359413876013"><ele>297.0</ele><time>2026-04-03T09:17:19.019Z</time></trkpt><trkpt lat="43.66178636164121" lon="11.183660318413526"><ele>297.0</ele><time>2026-04-03T09:17:20.019Z</time></trkpt><trkpt lat="43.66190340188677" lon="11.183727018060937"><ele>297.0</ele><time>2026-04-03T09:17:21.019Z</time></trkpt><trkpt lat="43.66202082387037" lon="11.18378215105482"><ele>297.0</ele><time>2026-04-03T09:17:22.019Z</time></trkpt><trkpt lat="43.66213456004291" lon="11.18382297287977"><ele>297.0</ele><time>2026-04-03T09:17:23.019Z</time></trkpt><trkpt lat="43.66222259301709" lon="11.183873650932563"><ele>297.0</ele><time>2026-04-03T09:17:24.019Z</time></trkpt><trkpt lat="43.66229188027618" lon="11.18396827778578"><ele>297.0</ele><time>2026-04-03T09:17:25.019Z</time></trkpt><trkpt lat="43.662360147084726" lon="11.18407803192802"><ele>297.0</ele><time>2026-04-03T09:17:27.019Z</time></trkpt><trkpt lat="43.662260598372434" lon="11.184253434281073"><ele>294.0</ele><time>2026-04-03T09:17:28.019Z</time></trkpt><trkpt lat="43.66221858633257" lon="11.184365243185047"><ele>291.0</ele><time>2026-04-03T09:17:29.019Z</time></trkpt><trkpt lat="43.66216578533497" lon="11.184513385114496"><ele>288.0</ele><time>2026-04-03T09:17:30.019Z</time></trkpt><trkpt lat="43.66214919557388" lon="11.184700941875395"><ele>285.0</ele><time>2026-04-03T09:17:31.019Z</time></trkpt><trkpt lat="43.66212543418519" lon="11.184898636085114"><ele>282.6666666666667</ele><time>2026-04-03T09:17:32.019Z</time></trkpt><trkpt lat="43.66211415765883" lon="11.1850991389095"><ele>280.33333333333337</ele><time>2026-04-03T09:17:33.019Z</time></trkpt><trkpt lat="43.66212727312574" lon="11.185313778930011"><ele>278.0</ele><time>2026-04-03T09:17:34.019Z</time></trkpt><trkpt lat="43.662175315615706" lon="11.185513869797177"><ele>278.0</ele><time>2026-04-03T09:17:35.019Z</time></trkpt><trkpt lat="43.662258098009836" lon="11.185678101677077"><ele>278.0</ele><time>2026-04-03T09:17:36.019Z</time></trkpt><trkpt lat="43.66237387367975" lon="11.185827539821346"><ele>278.0</ele><time>2026-04-03T09:17:37.019Z</time></trkpt><trkpt lat="43.662508428299205" lon="11.185943509256353"><ele>278.6666666666667</ele><time>2026-04-03T09:17:38.019Z</time></trkpt><trkpt lat="43.66266425801364" lon="11.186028450380038"><ele>279.3333333333333</ele><time>2026-04-03T09:17:39.019Z</time></trkpt><trkpt lat="43.66285076553421" lon="11.186082638278684"><ele>280.0</ele><time>2026-04-03T09:17:40.019Z</time></trkpt><trkpt lat="43.66306862863251" lon="11.186124052308722"><ele>280.0</ele><time>2026-04-03T09:17:41.019Z</time></trkpt><trkpt lat="43.66329563082653" lon="11.186182051936605"><ele>280.0</ele><time>2026-04-03T09:17:42.019Z</time></trkpt><trkpt lat="43.663509410728345" lon="11.186244191095561"><ele>280.0</ele><time>2026-04-03T09:17:43.02Z</time></trkpt><trkpt lat="43.66372683017945" lon="11.186310963986037"><ele>277.0</ele><time>2026-04-03T09:17:44.02Z</time></trkpt><trkpt lat="43.663935022944806" lon="11.186381860180331"><ele>274.0</ele><time>2026-04-03T09:17:45.02Z</time></trkpt><trkpt lat="43.664140466645684" lon="11.186448224512347"><ele>271.0</ele><time>2026-04-03T09:17:46.02Z</time></trkpt><trkpt lat="43.66433370901549" lon="11.186513526008957"><ele>275.0</ele><time>2026-04-03T09:17:47.02Z</time></trkpt><trkpt lat="43.6645212560817" lon="11.186594328403336"><ele>279.0</ele><time>2026-04-03T09:17:48.02Z</time></trkpt><trkpt lat="43.6647249285756" lon="11.186684532382161"><ele>283.0</ele><time>2026-04-03T09:17:49.02Z</time></trkpt><trkpt lat="43.66494851644731" lon="11.18678686154064"><ele>283.0</ele><time>2026-04-03T09:17:50.02Z</time></trkpt><trkpt lat="43.66519828246776" lon="11.186880197477825"><ele>283.0</ele><time>2026-04-03T09:17:51.02Z</time></trkpt><trkpt lat="43.66545639159836" lon="11.187008111518965"><ele>278.5</ele><time>2026-04-03T09:17:52.02Z</time></trkpt><trkpt lat="43.665694234709115" lon="11.187121244992463"><ele>274.0</ele><time>2026-04-03T09:17:53.02Z</time></trkpt><trkpt lat="43.66589133586024" lon="11.18722309336385"><ele>274.0</ele><time>2026-04-03T09:17:54.02Z</time></trkpt><trkpt lat="43.66603906235027" lon="11.187328815757674"><ele>274.0</ele><time>2026-04-03T09:17:55.02Z</time></trkpt><trkpt lat="43.66614050701125" lon="11.18746569214474"><ele>274.0</ele><time>2026-04-03T09:17:56.02Z</time></trkpt><trkpt lat="43.66621274582019" lon="11.187633092932698"><ele>274.0</ele><time>2026-04-03T09:17:57.02Z</time></trkpt><trkpt lat="43.666253372384006" lon="11.187824590482109"><ele>274.66666666666663</ele><time>2026-04-03T09:17:58.02Z</time></trkpt><trkpt lat="43.66624295503979" lon="11.188058944207476"><ele>275.3333333333333</ele><time>2026-04-03T09:17:59.02Z</time></trkpt><trkpt lat="43.6661784738508" lon="11.188270203266695"><ele>276.0</ele><time>2026-04-03T09:18:00.02Z</time></trkpt><trkpt lat="43.66607405401866" lon="11.188459709189283"><ele>278.6666666666667</ele><time>2026-04-03T09:18:01.02Z</time></trkpt><trkpt lat="43.665929860276" lon="11.188583645541216"><ele>281.33333333333337</ele><time>2026-04-03T09:18:02.02Z</time></trkpt><trkpt lat="43.6657509893054" lon="11.18864542494953"><ele>284.0</ele><time>2026-04-03T09:18:03.02Z</time></trkpt><trkpt lat="43.665535634809224" lon="11.188636501761021"><ele>284.0</ele><time>2026-04-03T09:18:04.02Z</time></trkpt><trkpt lat="43.665314512427656" lon="11.18866928907696"><ele>284.0</ele><time>2026-04-03T09:18:05.02Z</time></trkpt><trkpt lat="43.66508602949681" lon="11.188671571937531"><ele>284.33333333333337</ele><time>2026-04-03T09:18:06.02Z</time></trkpt><trkpt lat="43.664867594172726" lon="11.188683769901646"><ele>284.6666666666667</ele><time>2026-04-03T09:18:07.02Z</time></trkpt><trkpt lat="43.66466698734429" lon="11.188678022882671"><ele>285.0</ele><time>2026-04-03T09:18:08.02Z</time></trkpt><trkpt lat="43.66445085211935" lon="11.188688537640841"><ele>284.0</ele><time>2026-04-03T09:18:09.02Z</time></trkpt><trkpt lat="43.66421934208304" lon="11.18870007662125"><ele>283.0</ele><time>2026-04-03T09:18:10.02Z</time></trkpt><trkpt lat="43.66397006354471" lon="11.188710839344589"><ele>283.0</ele><time>2026-04-03T09:18:11.02Z</time></trkpt><trkpt lat="43.6637102715807" lon="11.18872205598923"><ele>283.0</ele><time>2026-04-03T09:18:12.02Z</time></trkpt><trkpt lat="43.66344905747955" lon="11.188733334031324"><ele>281.5</ele><time>2026-04-03T09:18:13.02Z</time></trkpt><trkpt lat="43.66316676201905" lon="11.1887462449992"><ele>280.0</ele><time>2026-04-03T09:18:14.02Z</time></trkpt><trkpt lat="43.662895876677666" lon="11.18875874312452"><ele>281.0</ele><time>2026-04-03T09:18:15.02Z</time></trkpt><trkpt lat="43.66263635183694" lon="11.18877559126633"><ele>282.0</ele><time>2026-04-03T09:18:16.02Z</time></trkpt><trkpt lat="43.662406597031655" lon="11.188785551171891"><ele>282.0</ele><time>2026-04-03T09:18:17.02Z</time></trkpt><trkpt lat="43.66222469571814" lon="11.188822671879104"><ele>282.0</ele><time>2026-04-03T09:18:18.02Z</time></trkpt><trkpt lat="43.6620763949933" lon="11.188930551455925"><ele>282.0</ele><time>2026-04-03T09:18:19.02Z</time></trkpt><trkpt lat="43.66195296354011" lon="11.18909685591223"><ele>280.6666666666667</ele><time>2026-04-03T09:18:20.02Z</time></trkpt><trkpt lat="43.661870120130246" lon="11.189311948102192"><ele>279.33333333333337</ele><time>2026-04-03T09:18:21.02Z</time></trkpt><trkpt lat="43.6618406355446" lon="11.189545857132757"><ele>278.0</ele><time>2026-04-03T09:18:22.02Z</time></trkpt><trkpt lat="43.66185964156438" lon="11.189769617250938"><ele>277.75</ele><time>2026-04-03T09:18:23.02Z</time></trkpt><trkpt lat="43.66190309540909" lon="11.189981089049702"><ele>277.5</ele><time>2026-04-03T09:18:24.02Z</time></trkpt><trkpt lat="43.661976600821966" lon="11.190172104810287"><ele>277.25</ele><time>2026-04-03T09:18:25.02Z</time></trkpt><trkpt lat="43.662046293101135" lon="11.190329929076327"><ele>277.0</ele><time>2026-04-03T09:18:26.02Z</time></trkpt><trkpt lat="43.662094177820734" lon="11.190445925250641"><ele>277.0</ele><time>2026-04-03T09:18:27.02Z</time></trkpt><trkpt lat="43.66214879435019" lon="11.190572904640577"><ele>277.0</ele><time>2026-04-03T09:18:28.02Z</time></trkpt><trkpt lat="43.66211314563435" lon="11.190680162952992"><ele>277.0</ele><time>2026-04-03T09:18:29.02Z</time></trkpt><trkpt lat="43.66205615466088" lon="11.190757779199592"><ele>277.0</ele><time>2026-04-03T09:18:30.02Z</time></trkpt><trkpt lat="43.66200109287077" lon="11.190808031808553"><ele>277.0</ele><time>2026-04-03T09:18:31.02Z</time></trkpt><trkpt lat="43.66187874862777" lon="11.19081397921799"><ele>279.0</ele><time>2026-04-03T09:18:33.02Z</time></trkpt><trkpt lat="43.66176125642123" lon="11.190766063161274"><ele>281.0</ele><time>2026-04-03T09:18:35.02Z</time></trkpt><trkpt lat="43.661639279049055" lon="11.190686669484293"><ele>283.0</ele><time>2026-04-03T09:18:37.02Z</time></trkpt><trkpt lat="43.6615421382222" lon="11.190684452060689"><ele>285.0</ele><time>2026-04-03T09:18:38.02Z</time></trkpt><trkpt lat="43.661445271753664" lon="11.190656574264533"><ele>285.0</ele><time>2026-04-03T09:18:39.021Z</time></trkpt><trkpt lat="43.66134353294553" lon="11.190619965859934"><ele>285.0</ele><time>2026-04-03T09:18:40.021Z</time></trkpt><trkpt lat="43.66124659898318" lon="11.190590654317063"><ele>285.0</ele><time>2026-04-03T09:18:41.021Z</time></trkpt><trkpt lat="43.66113845400109" lon="11.190556512802448"><ele>285.0</ele><time>2026-04-03T09:18:42.021Z</time></trkpt><trkpt lat="43.66102780910901" lon="11.190529058057411"><ele>285.0</ele><time>2026-04-03T09:18:43.021Z</time></trkpt><trkpt lat="43.66091739839047" lon="11.190504572375584"><ele>286.5</ele><time>2026-04-03T09:18:44.021Z</time></trkpt><trkpt lat="43.66079856686245" lon="11.190485522295527"><ele>288.0</ele><time>2026-04-03T09:18:45.021Z</time></trkpt><trkpt lat="43.660696842272124" lon="11.190438745958051"><ele>289.5</ele><time>2026-04-03T09:18:46.021Z</time></trkpt><trkpt lat="43.66058379485382" lon="11.190411154857427"><ele>291.0</ele><time>2026-04-03T09:18:47.021Z</time></trkpt><trkpt lat="43.6604735414323" lon="11.190339839157467"><ele>291.0</ele><time>2026-04-03T09:18:48.021Z</time></trkpt><trkpt lat="43.6603873184955" lon="11.190285858378891"><ele>291.0</ele><time>2026-04-03T09:18:49.021Z</time></trkpt><trkpt lat="43.66033490347286" lon="11.190193196671002"><ele>291.0</ele><time>2026-04-03T09:18:52.021Z</time></trkpt><trkpt lat="43.660267994029304" lon="11.190105737086402"><ele>291.0</ele><time>2026-04-03T09:18:53.021Z</time></trkpt><trkpt lat="43.6601799374224" lon="11.190024456874355"><ele>291.0</ele><time>2026-04-03T09:18:54.021Z</time></trkpt><trkpt lat="43.660072646406235" lon="11.189932644104424"><ele>292.6666666666667</ele><time>2026-04-03T09:18:55.021Z</time></trkpt><trkpt lat="43.65994729043468" lon="11.18982473738575"><ele>294.33333333333337</ele><time>2026-04-03T09:18:56.021Z</time></trkpt><trkpt lat="43.65980462391809" lon="11.189705565501727"><ele>296.0</ele><time>2026-04-03T09:18:57.021Z</time></trkpt><trkpt lat="43.65966741371517" lon="11.189586457405046"><ele>296.0</ele><time>2026-04-03T09:18:58.021Z</time></trkpt><trkpt lat="43.659516325015346" lon="11.189477551104234"><ele>296.0</ele><time>2026-04-03T09:18:59.021Z</time></trkpt><trkpt lat="43.6593697890074" lon="11.189398314219059"><ele>296.0</ele><time>2026-04-03T09:19:00.021Z</time></trkpt><trkpt lat="43.659234201523084" lon="11.18934424852829"><ele>297.40000000000003</ele><time>2026-04-03T09:19:01.021Z</time></trkpt><trkpt lat="43.659112192524354" lon="11.189291543361636"><ele>298.8</ele><time>2026-04-03T09:19:02.021Z</time></trkpt><trkpt lat="43.65902346459449" lon="11.18924272255267"><ele>300.20000000000005</ele><time>2026-04-03T09:19:03.021Z</time></trkpt><trkpt lat="43.65894995832663" lon="11.18919046458102"><ele>301.6</ele><time>2026-04-03T09:19:04.021Z</time></trkpt><trkpt lat="43.65888464112989" lon="11.189124212239042"><ele>303.0</ele><time>2026-04-03T09:19:05.021Z</time></trkpt><trkpt lat="43.65881743447339" lon="11.189059732831081"><ele>303.3333333333333</ele><time>2026-04-03T09:19:06.021Z</time></trkpt><trkpt lat="43.658766296825625" lon="11.18898494964228"><ele>303.6666666666667</ele><time>2026-04-03T09:19:07.021Z</time></trkpt><trkpt lat="43.65870796986402" lon="11.188910901237668"><ele>304.0</ele><time>2026-04-03T09:19:08.021Z</time></trkpt><trkpt lat="43.6586533214255" lon="11.188858470604895"><ele>304.33333333333337</ele><time>2026-04-03T09:19:09.021Z</time></trkpt><trkpt lat="43.65859050021928" lon="11.188788420672415"><ele>304.6666666666667</ele><time>2026-04-03T09:19:11.001Z</time></trkpt><trkpt lat="43.65852873442747" lon="11.188729344302379"><ele>305.0</ele><time>2026-04-03T09:19:15.001Z</time></trkpt><trkpt lat="43.65845941965013" lon="11.188607971958783"><ele>305.0</ele><time>2026-04-03T09:19:17.001Z</time></trkpt><trkpt lat="43.65841410903079" lon="11.188530252017362"><ele>305.0</ele><time>2026-04-03T09:19:18.001Z</time></trkpt><trkpt lat="43.65837689984918" lon="11.188455830333757"><ele>305.0</ele><time>2026-04-03T09:19:19.001Z</time></trkpt><trkpt lat="43.65834081686254" lon="11.188378935352222"><ele>305.0</ele><time>2026-04-03T09:19:20.001Z</time></trkpt><trkpt lat="43.658183920344875" lon="11.188389607870818"><ele>305.0</ele><time>2026-04-03T09:19:21.001Z</time></trkpt><trkpt lat="43.65807553785039" lon="11.1883463343128"><ele>305.0</ele><time>2026-04-03T09:19:22.001Z</time></trkpt><trkpt lat="43.65795907288386" lon="11.188288559766791"><ele>305.0</ele><time>2026-04-03T09:19:23.001Z</time></trkpt><trkpt lat="43.65784407432054" lon="11.188208854668323"><ele>305.0</ele><time>2026-04-03T09:19:24.001Z</time></trkpt><trkpt lat="43.65771171081415" lon="11.18814218464756"><ele>305.0</ele><time>2026-04-03T09:19:25.001Z</time></trkpt><trkpt lat="43.657558860394595" lon="11.18806519561224"><ele>306.33333333333337</ele><time>2026-04-03T09:19:26.001Z</time></trkpt><trkpt lat="43.65740914447629" lon="11.187989698461417"><ele>307.6666666666667</ele><time>2026-04-03T09:19:27.001Z</time></trkpt><trkpt lat="43.6572460599031" lon="11.187907400344395"><ele>309.0</ele><time>2026-04-03T09:19:28.001Z</time></trkpt><trkpt lat="43.65708143526537" lon="11.18782476591688"><ele>308.0</ele><time>2026-04-03T09:19:29.001Z</time></trkpt><trkpt lat="43.656926032539815" lon="11.187762920328296"><ele>307.0</ele><time>2026-04-03T09:19:30.001Z</time></trkpt><trkpt lat="43.65678309701497" lon="11.187684697509075"><ele>306.0</ele><time>2026-04-03T09:19:31.001Z</time></trkpt><trkpt lat="43.656644724478504" lon="11.187614899452882"><ele>306.0</ele><time>2026-04-03T09:19:32.001Z</time></trkpt><trkpt lat="43.65651961458533" lon="11.187564081013436"><ele>306.0</ele><time>2026-04-03T09:19:33.001Z</time></trkpt><trkpt lat="43.6563991663684" lon="11.187514039001487"><ele>306.0</ele><time>2026-04-03T09:19:34.001Z</time></trkpt><trkpt lat="43.65629951092544" lon="11.18747751140181"><ele>306.0</ele><time>2026-04-03T09:19:35.001Z</time></trkpt><trkpt lat="43.65621177644966" lon="11.187460939553786"><ele>306.0</ele><time>2026-04-03T09:19:36.001Z</time></trkpt><trkpt lat="43.656119604344255" lon="11.187459658833463"><ele>305.40000000000003</ele><time>2026-04-03T09:19:37.001Z</time></trkpt><trkpt lat="43.65601963198341" lon="11.187435169397334"><ele>304.8</ele><time>2026-04-03T09:19:38.001Z</time></trkpt><trkpt lat="43.655903497196256" lon="11.187438975716193"><ele>304.20000000000005</ele><time>2026-04-03T09:19:39.001Z</time></trkpt><trkpt lat="43.655783015083045" lon="11.187467764967593"><ele>303.6</ele><time>2026-04-03T09:19:40.001Z</time></trkpt><trkpt lat="43.65568630792989" lon="11.187486732662407"><ele>303.0</ele><time>2026-04-03T09:19:41.001Z</time></trkpt><trkpt lat="43.65560621843783" lon="11.187468743597034"><ele>303.0</ele><time>2026-04-03T09:19:42.001Z</time></trkpt><trkpt lat="43.65553314576319" lon="11.187559609893487"><ele>303.0</ele><time>2026-04-03T09:19:44.001Z</time></trkpt><trkpt lat="43.65550787651717" lon="11.18768401656303"><ele>303.0</ele><time>2026-04-03T09:19:45.001Z</time></trkpt><trkpt lat="43.65546223527714" lon="11.187839755258048"><ele>303.0</ele><time>2026-04-03T09:19:46.002Z</time></trkpt><trkpt lat="43.655405450145224" lon="11.188002160098963"><ele>303.0</ele><time>2026-04-03T09:19:47.002Z</time></trkpt><trkpt lat="43.655350481998" lon="11.188163162494185"><ele>304.0</ele><time>2026-04-03T09:19:48.002Z</time></trkpt><trkpt lat="43.65530774965165" lon="11.188343935534533"><ele>305.0</ele><time>2026-04-03T09:19:49.002Z</time></trkpt><trkpt lat="43.655283598788905" lon="11.188545660694789"><ele>306.0</ele><time>2026-04-03T09:19:50.002Z</time></trkpt><trkpt lat="43.655284368027075" lon="11.188750484299538"><ele>307.0</ele><time>2026-04-03T09:19:51.002Z</time></trkpt><trkpt lat="43.655285838141985" lon="11.188941824780581"><ele>307.0</ele><time>2026-04-03T09:19:52.002Z</time></trkpt><trkpt lat="43.655307024771076" lon="11.189131031883859"><ele>307.0</ele><time>2026-04-03T09:19:53.002Z</time></trkpt><trkpt lat="43.65528324682858" lon="11.189304089009553"><ele>307.0</ele><time>2026-04-03T09:19:54.002Z</time></trkpt><trkpt lat="43.655251145463886" lon="11.189482342194678"><ele>307.0</ele><time>2026-04-03T09:19:55.002Z</time></trkpt><trkpt lat="43.655186066313505" lon="11.18964531014174"><ele>307.0</ele><time>2026-04-03T09:19:56.002Z</time></trkpt><trkpt lat="43.65511194023459" lon="11.189757462585304"><ele>307.0</ele><time>2026-04-03T09:19:57.002Z</time></trkpt><trkpt lat="43.65507411488294" lon="11.189870109302607"><ele>307.0</ele><time>2026-04-03T09:19:58Z</time></trkpt><trkpt lat="43.65501191489858" lon="11.189957465916537"><ele>307.0</ele><time>2026-04-03T09:19:59.001Z</time></trkpt><trkpt lat="43.65511667443837" lon="11.190171127005797"><ele>305.5</ele><time>2026-04-03T09:20:00.001Z</time></trkpt><trkpt lat="43.655127514661395" lon="11.190333160282083"><ele>304.0</ele><time>2026-04-03T09:20:01.001Z</time></trkpt><trkpt lat="43.65513307257693" lon="11.190508843990052"><ele>302.5</ele><time>2026-04-03T09:20:02Z</time></trkpt><trkpt lat="43.655134674970576" lon="11.190685840929921"><ele>301.0</ele><time>2026-04-03T09:20:03Z</time></trkpt><trkpt lat="43.655134012644176" lon="11.190845957337485"><ele>299.6</ele><time>2026-04-03T09:20:04.001Z</time></trkpt><trkpt lat="43.65513080035986" lon="11.190983218200996"><ele>298.20000000000005</ele><time>2026-04-03T09:20:05Z</time></trkpt><trkpt lat="43.65512121375246" lon="11.191147438615587"><ele>296.79999999999995</ele><time>2026-04-03T09:20:06Z</time></trkpt><trkpt lat="43.655086812683024" lon="11.191272926724178"><ele>295.4</ele><time>2026-04-03T09:20:07Z</time></trkpt><trkpt lat="43.6550505516225" lon="11.191408396364324"><ele>294.0</ele><time>2026-04-03T09:20:08Z</time></trkpt><trkpt lat="43.65500646290398" lon="11.191545283748141"><ele>293.4</ele><time>2026-04-03T09:20:09Z</time></trkpt><trkpt lat="43.65496244185973" lon="11.191667098131802"><ele>292.79999999999995</ele><time>2026-04-03T09:20:10.001Z</time></trkpt><trkpt lat="43.65491599296816" lon="11.191787776360927"><ele>292.20000000000005</ele><time>2026-04-03T09:20:11.001Z</time></trkpt><trkpt lat="43.654874783814996" lon="11.191914338209646"><ele>291.6</ele><time>2026-04-03T09:20:12.001Z</time></trkpt><trkpt lat="43.65483439195702" lon="11.192038829162605"><ele>291.0</ele><time>2026-04-03T09:20:13.001Z</time></trkpt><trkpt lat="43.654782897928875" lon="11.192176072843877"><ele>291.0</ele><time>2026-04-03T09:20:14.001Z</time></trkpt><trkpt lat="43.654722790860575" lon="11.192334344311734"><ele>291.0</ele><time>2026-04-03T09:20:15.001Z</time></trkpt><trkpt lat="43.654655877486235" lon="11.19250485659258"><ele>291.0</ele><time>2026-04-03T09:20:16.001Z</time></trkpt><trkpt lat="43.654583466207455" lon="11.192684074245252"><ele>291.0</ele><time>2026-04-03T09:20:17.001Z</time></trkpt><trkpt lat="43.65450713759367" lon="11.192857313352961"><ele>289.25</ele><time>2026-04-03T09:20:18.001Z</time></trkpt><trkpt lat="43.654442734723126" lon="11.193020807053005"><ele>287.5</ele><time>2026-04-03T09:20:19.001Z</time></trkpt><trkpt lat="43.65438036521782" lon="11.193167638264704"><ele>285.75</ele><time>2026-04-03T09:20:20.001Z</time></trkpt><trkpt lat="43.65431791488868" lon="11.19331203389507"><ele>284.0</ele><time>2026-04-03T09:20:21.001Z</time></trkpt><trkpt lat="43.65425608023708" lon="11.193454662421416"><ele>284.0</ele><time>2026-04-03T09:20:22.001Z</time></trkpt><trkpt lat="43.65419435584407" lon="11.193597197914709"><ele>284.0</ele><time>2026-04-03T09:20:23.001Z</time></trkpt><trkpt lat="43.65413783308654" lon="11.193743954273689"><ele>284.0</ele><time>2026-04-03T09:20:24.001Z</time></trkpt><trkpt lat="43.65409748118974" lon="11.193885804537341"><ele>284.0</ele><time>2026-04-03T09:20:25.001Z</time></trkpt><trkpt lat="43.654065034593074" lon="11.194017569267672"><ele>284.4</ele><time>2026-04-03T09:20:26.001Z</time></trkpt><trkpt lat="43.65402672165866" lon="11.19414664863058"><ele>284.79999999999995</ele><time>2026-04-03T09:20:27.001Z</time></trkpt><trkpt lat="43.653976571007895" lon="11.194258970757543"><ele>285.20000000000005</ele><time>2026-04-03T09:20:28.001Z</time></trkpt><trkpt lat="43.65392106268578" lon="11.19437444654694"><ele>285.6</ele><time>2026-04-03T09:20:29.001Z</time></trkpt><trkpt lat="43.653861742178464" lon="11.19448930683082"><ele>286.0</ele><time>2026-04-03T09:20:30.001Z</time></trkpt><trkpt lat="43.653779840552104" lon="11.194612575153375"><ele>286.0</ele><time>2026-04-03T09:20:31.001Z</time></trkpt><trkpt lat="43.65367646942751" lon="11.194724312095149"><ele>286.0</ele><time>2026-04-03T09:20:32.001Z</time></trkpt><trkpt lat="43.65355574364223" lon="11.194853881390099"><ele>286.0</ele><time>2026-04-03T09:20:33.001Z</time></trkpt><trkpt lat="43.65343472864333" lon="11.194985585765453"><ele>286.0</ele><time>2026-04-03T09:20:34.001Z</time></trkpt><trkpt lat="43.65331247304207" lon="11.195088606782894"><ele>286.0</ele><time>2026-04-03T09:20:35.001Z</time></trkpt><trkpt lat="43.653195520562015" lon="11.195194959476282"><ele>286.0</ele><time>2026-04-03T09:20:36.001Z</time></trkpt><trkpt lat="43.65305987040481" lon="11.195340170445917"><ele>286.0</ele><time>2026-04-03T09:20:37.001Z</time></trkpt><trkpt lat="43.65287588387321" lon="11.195440589465992"><ele>286.66666666666663</ele><time>2026-04-03T09:20:38.001Z</time></trkpt><trkpt lat="43.65267434267455" lon="11.195536137540236"><ele>287.3333333333333</ele><time>2026-04-03T09:20:39.001Z</time></trkpt><trkpt lat="43.652503489212066" lon="11.195640524191646"><ele>288.0</ele><time>2026-04-03T09:20:40.001Z</time></trkpt><trkpt lat="43.65233519140711" lon="11.195765847726017"><ele>289.6666666666667</ele><time>2026-04-03T09:20:41.001Z</time></trkpt><trkpt lat="43.652166234749664" lon="11.195936429249583"><ele>291.33333333333337</ele><time>2026-04-03T09:20:42.001Z</time></trkpt><trkpt lat="43.65199245226552" lon="11.19611296135744"><ele>293.0</ele><time>2026-04-03T09:20:43.001Z</time></trkpt><trkpt lat="43.65184260964396" lon="11.196258257649923"><ele>295.0</ele><time>2026-04-03T09:20:44.001Z</time></trkpt><trkpt lat="43.651707833621835" lon="11.196365266821003"><ele>297.0</ele><time>2026-04-03T09:20:45.001Z</time></trkpt><trkpt lat="43.65158043498099" lon="11.196444059117528"><ele>299.0</ele><time>2026-04-03T09:20:46.001Z</time></trkpt><trkpt lat="43.6514382283506" lon="11.196497248765379"><ele>301.0</ele><time>2026-04-03T09:20:47.001Z</time></trkpt><trkpt lat="43.651275652817056" lon="11.196541712713643"><ele>300.66666666666663</ele><time>2026-04-03T09:20:48.001Z</time></trkpt><trkpt lat="43.65108769392282" lon="11.19660199758581"><ele>300.3333333333333</ele><time>2026-04-03T09:20:49.001Z</time></trkpt><trkpt lat="43.65089354941495" lon="11.196676057403199"><ele>300.0</ele><time>2026-04-03T09:20:50.001Z</time></trkpt><trkpt lat="43.65069561532081" lon="11.196785178151396"><ele>300.0</ele><time>2026-04-03T09:20:51.001Z</time></trkpt><trkpt lat="43.65047985263668" lon="11.196898767300787"><ele>300.0</ele><time>2026-04-03T09:20:52.001Z</time></trkpt><trkpt lat="43.65026014561858" lon="11.19701599589647"><ele>299.6666666666667</ele><time>2026-04-03T09:20:53.001Z</time></trkpt><trkpt lat="43.6500492998278" lon="11.197132144785932"><ele>299.33333333333337</ele><time>2026-04-03T09:20:54.002Z</time></trkpt><trkpt lat="43.64985457576026" lon="11.197215883289035"><ele>299.0</ele><time>2026-04-03T09:20:55.002Z</time></trkpt><trkpt lat="43.64969438173848" lon="11.197313829406822"><ele>298.0</ele><time>2026-04-03T09:20:56.002Z</time></trkpt><trkpt lat="43.64956652353145" lon="11.197412839942514"><ele>297.0</ele><time>2026-04-03T09:20:57.002Z</time></trkpt><trkpt lat="43.649470325389714" lon="11.197561131873371"><ele>296.0</ele><time>2026-04-03T09:20:58.002Z</time></trkpt><trkpt lat="43.64941349021157" lon="11.197729343556704"><ele>295.0</ele><time>2026-04-03T09:20:59.002Z</time></trkpt><trkpt lat="43.649368241053374" lon="11.197958663356061"><ele>293.3333333333333</ele><time>2026-04-03T09:21:00.002Z</time></trkpt><trkpt lat="43.64932903238823" lon="11.198182322536619"><ele>291.6666666666667</ele><time>2026-04-03T09:21:01.002Z</time></trkpt><trkpt lat="43.64934203431701" lon="11.198393641187376"><ele>290.0</ele><time>2026-04-03T09:21:02.002Z</time></trkpt><trkpt lat="43.649369101689174" lon="11.19858118428539"><ele>290.0</ele><time>2026-04-03T09:21:03.002Z</time></trkpt><trkpt lat="43.64938975725663" lon="11.198791790086801"><ele>290.0</ele><time>2026-04-03T09:21:04.002Z</time></trkpt><trkpt lat="43.6494126457648" lon="11.199017279647165"><ele>290.0</ele><time>2026-04-03T09:21:05.002Z</time></trkpt><trkpt lat="43.649427863431804" lon="11.199249639204538"><ele>290.0</ele><time>2026-04-03T09:21:06.002Z</time></trkpt><trkpt lat="43.649429020498154" lon="11.19949028290787"><ele>290.0</ele><time>2026-04-03T09:21:07.002Z</time></trkpt><trkpt lat="43.64941355105772" lon="11.199739686742417"><ele>290.0</ele><time>2026-04-03T09:21:08.002Z</time></trkpt><trkpt lat="43.64936140296028" lon="11.19997685962988"><ele>290.0</ele><time>2026-04-03T09:21:09.002Z</time></trkpt><trkpt lat="43.64926156492647" lon="11.20020349684668"><ele>290.0</ele><time>2026-04-03T09:21:10.002Z</time></trkpt><trkpt lat="43.649122367011316" lon="11.200423976433013"><ele>290.0</ele><time>2026-04-03T09:21:11.002Z</time></trkpt><trkpt lat="43.64898558844402" lon="11.200656596905592"><ele>292.0</ele><time>2026-04-03T09:21:12.002Z</time></trkpt><trkpt lat="43.64885861520458" lon="11.200893677718627"><ele>294.0</ele><time>2026-04-03T09:21:13.002Z</time></trkpt><trkpt lat="43.648727370135674" lon="11.201110664027507"><ele>296.0</ele><time>2026-04-03T09:21:14.002Z</time></trkpt><trkpt lat="43.64860285365229" lon="11.201306454337956"><ele>296.6666666666667</ele><time>2026-04-03T09:21:15.002Z</time></trkpt><trkpt lat="43.648490903552144" lon="11.201484840083976"><ele>297.3333333333333</ele><time>2026-04-03T09:21:16.002Z</time></trkpt><trkpt lat="43.64837911955579" lon="11.201642723185826"><ele>298.0</ele><time>2026-04-03T09:21:17.002Z</time></trkpt><trkpt lat="43.64828334602736" lon="11.201784447848452"><ele>298.0</ele><time>2026-04-03T09:21:18.002Z</time></trkpt><trkpt lat="43.64820563548756" lon="11.201945294361224"><ele>298.0</ele><time>2026-04-03T09:21:19.002Z</time></trkpt><trkpt lat="43.64813510773105" lon="11.202139599317302"><ele>298.0</ele><time>2026-04-03T09:21:20.002Z</time></trkpt><trkpt lat="43.64804450089568" lon="11.202376641614489"><ele>294.0</ele><time>2026-04-03T09:21:21.002Z</time></trkpt><trkpt lat="43.64795257421877" lon="11.202657815610522"><ele>290.0</ele><time>2026-04-03T09:21:22.002Z</time></trkpt><trkpt lat="43.64785801470404" lon="11.202942095937466"><ele>291.33333333333337</ele><time>2026-04-03T09:21:23.002Z</time></trkpt><trkpt lat="43.647779846694675" lon="11.203205337689509"><ele>292.6666666666667</ele><time>2026-04-03T09:21:24.002Z</time></trkpt><trkpt lat="43.64774393377986" lon="11.203467452374296"><ele>294.0</ele><time>2026-04-03T09:21:25.002Z</time></trkpt><trkpt lat="43.64772773491998" lon="11.20371108514326"><ele>294.0</ele><time>2026-04-03T09:21:26.002Z</time></trkpt><trkpt lat="43.64777277539818" lon="11.203970534558911"><ele>294.0</ele><time>2026-04-03T09:21:27.002Z</time></trkpt><trkpt lat="43.6478327349802" lon="11.204251014219372"><ele>294.0</ele><time>2026-04-03T09:21:28.002Z</time></trkpt><trkpt lat="43.647887524995845" lon="11.204513718738571"><ele>295.0</ele><time>2026-04-03T09:21:29.002Z</time></trkpt><trkpt lat="43.64793266251247" lon="11.20477320053792"><ele>296.0</ele><time>2026-04-03T09:21:30.002Z</time></trkpt><trkpt lat="43.64797531803897" lon="11.20503484569991"><ele>297.0</ele><time>2026-04-03T09:21:31.002Z</time></trkpt><trkpt lat="43.64801186889754" lon="11.205302399635753"><ele>297.0</ele><time>2026-04-03T09:21:32.002Z</time></trkpt><trkpt lat="43.648003210158194" lon="11.205582181704004"><ele>297.0</ele><time>2026-04-03T09:21:33.002Z</time></trkpt><trkpt lat="43.64799217251949" lon="11.205867242281114"><ele>297.0</ele><time>2026-04-03T09:21:34.002Z</time></trkpt><trkpt lat="43.64797534430818" lon="11.206162577465847"><ele>297.3333333333333</ele><time>2026-04-03T09:21:35.002Z</time></trkpt><trkpt lat="43.64795661335885" lon="11.206462642282878"><ele>297.66666666666663</ele><time>2026-04-03T09:21:36.002Z</time></trkpt><trkpt lat="43.64792119944579" lon="11.206762673337327"><ele>298.0</ele><time>2026-04-03T09:21:37.002Z</time></trkpt><trkpt lat="43.64785034056642" lon="11.207028815496823"><ele>297.3333333333333</ele><time>2026-04-03T09:21:38.002Z</time></trkpt><trkpt lat="43.6477475718766" lon="11.20726170440478"><ele>296.6666666666667</ele><time>2026-04-03T09:21:39.002Z</time></trkpt><trkpt lat="43.6476232044867" lon="11.207450288404578"><ele>296.0</ele><time>2026-04-03T09:21:40.002Z</time></trkpt><trkpt lat="43.64748283726631" lon="11.207605140240345"><ele>296.0</ele><time>2026-04-03T09:21:41.002Z</time></trkpt><trkpt lat="43.647324540336164" lon="11.207740264080348"><ele>296.0</ele><time>2026-04-03T09:21:42.002Z</time></trkpt><trkpt lat="43.64714852310799" lon="11.207822325119512"><ele>296.0</ele><time>2026-04-03T09:21:43.002Z</time></trkpt><trkpt lat="43.64695589922244" lon="11.207836735056322"><ele>295.6666666666667</ele><time>2026-04-03T09:21:44.002Z</time></trkpt><trkpt lat="43.646748101392745" lon="11.20782234154647"><ele>295.3333333333333</ele><time>2026-04-03T09:21:45.002Z</time></trkpt><trkpt lat="43.646523979437816" lon="11.207800419969598"><ele>295.0</ele><time>2026-04-03T09:21:46.002Z</time></trkpt><trkpt lat="43.64629809339134" lon="11.207778325824366"><ele>297.66666666666663</ele><time>2026-04-03T09:21:47.002Z</time></trkpt><trkpt lat="43.64609743103901" lon="11.207761497243542"><ele>300.3333333333333</ele><time>2026-04-03T09:21:48.002Z</time></trkpt><trkpt lat="43.6459211617401" lon="11.207761506755736"><ele>303.0</ele><time>2026-04-03T09:21:49.002Z</time></trkpt><trkpt lat="43.645745840904944" lon="11.207791598006917"><ele>303.0</ele><time>2026-04-03T09:21:50.003Z</time></trkpt><trkpt lat="43.6455466820901" lon="11.207853549771185"><ele>303.0</ele><time>2026-04-03T09:21:51.003Z</time></trkpt><trkpt lat="43.64533057814217" lon="11.207927061923549"><ele>303.0</ele><time>2026-04-03T09:21:52.003Z</time></trkpt><trkpt lat="43.64509053082344" lon="11.20802366969377"><ele>303.0</ele><time>2026-04-03T09:21:53.003Z</time></trkpt><trkpt lat="43.6448832212084" lon="11.208119811216413"><ele>303.0</ele><time>2026-04-03T09:21:54.003Z</time></trkpt><trkpt lat="43.644682982629725" lon="11.208220266235834"><ele>303.0</ele><time>2026-04-03T09:21:55.003Z</time></trkpt><trkpt lat="43.644509894696135" lon="11.208377878212493"><ele>302.0</ele><time>2026-04-03T09:21:56.003Z</time></trkpt><trkpt lat="43.64434018561523" lon="11.208503753197574"><ele>301.0</ele><time>2026-04-03T09:21:57.003Z</time></trkpt><trkpt lat="43.64417987994692" lon="11.208656068972031"><ele>300.0</ele><time>2026-04-03T09:21:58.003Z</time></trkpt><trkpt lat="43.64404925148656" lon="11.20884259270797"><ele>300.0</ele><time>2026-04-03T09:21:59.003Z</time></trkpt><trkpt lat="43.643942716372464" lon="11.209029065198743"><ele>300.0</ele><time>2026-04-03T09:22:00.003Z</time></trkpt><trkpt lat="43.64386114496503" lon="11.20926557522304"><ele>300.0</ele><time>2026-04-03T09:22:01.003Z</time></trkpt><trkpt lat="43.643841997171776" lon="11.209549274509108"><ele>299.3333333333333</ele><time>2026-04-03T09:22:02.003Z</time></trkpt><trkpt lat="43.64381297990845" lon="11.209848333765315"><ele>298.66666666666663</ele><time>2026-04-03T09:22:03.003Z</time></trkpt><trkpt lat="43.64380829639359" lon="11.210144881839495"><ele>298.0</ele><time>2026-04-03T09:22:04Z</time></trkpt><trkpt lat="43.64372901483342" lon="11.210380222084021"><ele>297.3333333333333</ele><time>2026-04-03T09:22:05Z</time></trkpt><trkpt lat="43.6436199293632" lon="11.21060493482283"><ele>296.6666666666667</ele><time>2026-04-03T09:22:06Z</time></trkpt><trkpt lat="43.64347045201312" lon="11.210804951914978"><ele>296.0</ele><time>2026-04-03T09:22:07.001Z</time></trkpt><trkpt lat="43.643318185143464" lon="11.210963971107223"><ele>296.0</ele><time>2026-04-03T09:22:08Z</time></trkpt><trkpt lat="43.643158706246574" lon="11.211087630633498"><ele>296.0</ele><time>2026-04-03T09:22:09Z</time></trkpt><trkpt lat="43.64297218426275" lon="11.211205999181578"><ele>296.0</ele><time>2026-04-03T09:22:10.001Z</time></trkpt><trkpt lat="43.642751828039344" lon="11.211352312004825"><ele>297.0</ele><time>2026-04-03T09:22:11Z</time></trkpt><trkpt lat="43.64251215906953" lon="11.211518197836675"><ele>298.0</ele><time>2026-04-03T09:22:12Z</time></trkpt><trkpt lat="43.642307987144356" lon="11.21170022886353"><ele>298.0</ele><time>2026-04-03T09:22:13.001Z</time></trkpt><trkpt lat="43.642114672344455" lon="11.211871503482438"><ele>298.0</ele><time>2026-04-03T09:22:14Z</time></trkpt><trkpt lat="43.64193377211206" lon="11.212052117562596"><ele>298.3333333333333</ele><time>2026-04-03T09:22:15Z</time></trkpt><trkpt lat="43.64177090734516" lon="11.212213372755873"><ele>298.6666666666667</ele><time>2026-04-03T09:22:16.001Z</time></trkpt><trkpt lat="43.64162458461614" lon="11.212377789986519"><ele>299.0</ele><time>2026-04-03T09:22:17.001Z</time></trkpt><trkpt lat="43.641496203100495" lon="11.212544502873694"><ele>298.25</ele><time>2026-04-03T09:22:18.001Z</time></trkpt><trkpt lat="43.64138804916661" lon="11.21269357627507"><ele>297.5</ele><time>2026-04-03T09:22:19.001Z</time></trkpt><trkpt lat="43.64129782594712" lon="11.212834961828765"><ele>296.75</ele><time>2026-04-03T09:22:20.001Z</time></trkpt><trkpt lat="43.64123922406364" lon="11.213002783256536"><ele>296.0</ele><time>2026-04-03T09:22:21.001Z</time></trkpt><trkpt lat="43.64118187993659" lon="11.213218399341676"><ele>295.6666666666667</ele><time>2026-04-03T09:22:22.001Z</time></trkpt><trkpt lat="43.64113282088987" lon="11.213437496662777"><ele>295.3333333333333</ele><time>2026-04-03T09:22:23.001Z</time></trkpt><trkpt lat="43.64111409961868" lon="11.213667774392441"><ele>295.0</ele><time>2026-04-03T09:22:24.001Z</time></trkpt><trkpt lat="43.64108262297067" lon="11.2139019211691"><ele>295.3333333333333</ele><time>2026-04-03T09:22:25.001Z</time></trkpt><trkpt lat="43.64105818332201" lon="11.214161585688661"><ele>295.6666666666667</ele><time>2026-04-03T09:22:26.001Z</time></trkpt><trkpt lat="43.641024052901805" lon="11.21442415465494"><ele>296.0</ele><time>2026-04-03T09:22:27.001Z</time></trkpt><trkpt lat="43.640995232801565" lon="11.214695771044074"><ele>293.6666666666667</ele><time>2026-04-03T09:22:28.001Z</time></trkpt><trkpt lat="43.64096901938392" lon="11.214970596335842"><ele>291.3333333333333</ele><time>2026-04-03T09:22:29.001Z</time></trkpt><trkpt lat="43.64093569171795" lon="11.215234855044825"><ele>289.0</ele><time>2026-04-03T09:22:30.001Z</time></trkpt><trkpt lat="43.64087854164438" lon="11.215480499826732"><ele>290.3333333333333</ele><time>2026-04-03T09:22:31.001Z</time></trkpt><trkpt lat="43.64081129194301" lon="11.215710571165564"><ele>291.6666666666667</ele><time>2026-04-03T09:22:32.001Z</time></trkpt><trkpt lat="43.640700905260516" lon="11.215888899779404"><ele>293.0</ele><time>2026-04-03T09:22:33.001Z</time></trkpt><trkpt lat="43.64060304180121" lon="11.216078408532038"><ele>293.0</ele><time>2026-04-03T09:22:34.001Z</time></trkpt><trkpt lat="43.6404880735471" lon="11.216233731905625"><ele>293.0</ele><time>2026-04-03T09:22:35.001Z</time></trkpt><trkpt lat="43.64036840399704" lon="11.216370155561247"><ele>293.0</ele><time>2026-04-03T09:22:36.001Z</time></trkpt><trkpt lat="43.64025947118541" lon="11.216498192703659"><ele>294.5</ele><time>2026-04-03T09:22:37.001Z</time></trkpt><trkpt lat="43.64015515685628" lon="11.21662752788651"><ele>296.0</ele><time>2026-04-03T09:22:38.001Z</time></trkpt><trkpt lat="43.6400577962322" lon="11.216755510517277"><ele>297.5</ele><time>2026-04-03T09:22:39.001Z</time></trkpt><trkpt lat="43.63996850967904" lon="11.216889575721506"><ele>299.0</ele><time>2026-04-03T09:22:40.001Z</time></trkpt><trkpt lat="43.63988244942995" lon="11.217035015955096"><ele>299.0</ele><time>2026-04-03T09:22:41.001Z</time></trkpt><trkpt lat="43.63978943380285" lon="11.21718581607464"><ele>299.0</ele><time>2026-04-03T09:22:42.001Z</time></trkpt><trkpt lat="43.639704576963354" lon="11.217352767232798"><ele>299.0</ele><time>2026-04-03T09:22:43.001Z</time></trkpt><trkpt lat="43.639624174644645" lon="11.217519735076445"><ele>299.0</ele><time>2026-04-03T09:22:44.001Z</time></trkpt><trkpt lat="43.63954202484697" lon="11.217701461154578"><ele>302.33333333333337</ele><time>2026-04-03T09:22:45.001Z</time></trkpt><trkpt lat="43.63946323011663" lon="11.217897735905629"><ele>305.6666666666667</ele><time>2026-04-03T09:22:46.001Z</time></trkpt><trkpt lat="43.63937904462401" lon="11.218122077200002"><ele>309.0</ele><time>2026-04-03T09:22:47.001Z</time></trkpt><trkpt lat="43.63928575511938" lon="11.218336963288701"><ele>309.0</ele><time>2026-04-03T09:22:48.001Z</time></trkpt><trkpt lat="43.63920020839398" lon="11.218530991546706"><ele>309.0</ele><time>2026-04-03T09:22:49.001Z</time></trkpt><trkpt lat="43.63910127316455" lon="11.218710115556012"><ele>309.0</ele><time>2026-04-03T09:22:50.001Z</time></trkpt><trkpt lat="43.63897688715449" lon="11.218884076121773"><ele>308.0</ele><time>2026-04-03T09:22:51.001Z</time></trkpt><trkpt lat="43.63885184212658" lon="11.219063308396235"><ele>307.0</ele><time>2026-04-03T09:22:52.001Z</time></trkpt><trkpt lat="43.63871925443276" lon="11.219238227580826"><ele>306.0</ele><time>2026-04-03T09:22:53.001Z</time></trkpt><trkpt lat="43.63856779314851" lon="11.219376138415274"><ele>306.0</ele><time>2026-04-03T09:22:54.001Z</time></trkpt><trkpt lat="43.638402718005935" lon="11.219524246508023"><ele>306.0</ele><time>2026-04-03T09:22:55.001Z</time></trkpt><trkpt lat="43.63823474534309" lon="11.219689276121043"><ele>306.0</ele><time>2026-04-03T09:22:56.001Z</time></trkpt><trkpt lat="43.63806053383746" lon="11.219831947458394"><ele>305.6666666666667</ele><time>2026-04-03T09:22:57.001Z</time></trkpt><trkpt lat="43.63789521208102" lon="11.219974967414542"><ele>305.33333333333337</ele><time>2026-04-03T09:22:58.001Z</time></trkpt><trkpt lat="43.63775573529326" lon="11.220134738062157"><ele>305.0</ele><time>2026-04-03T09:22:59.001Z</time></trkpt><trkpt lat="43.637648203919284" lon="11.220311424356606"><ele>303.6666666666667</ele><time>2026-04-03T09:23:00.001Z</time></trkpt><trkpt lat="43.63754668327219" lon="11.220509123332546"><ele>302.3333333333333</ele><time>2026-04-03T09:23:01.001Z</time></trkpt><trkpt lat="43.63745930253513" lon="11.220731445091664"><ele>301.0</ele><time>2026-04-03T09:23:02.001Z</time></trkpt><trkpt lat="43.63738152157693" lon="11.220984165785323"><ele>300.66666666666663</ele><time>2026-04-03T09:23:03.001Z</time></trkpt><trkpt lat="43.637287878453684" lon="11.221210765014526"><ele>300.3333333333333</ele><time>2026-04-03T09:23:04.001Z</time></trkpt><trkpt lat="43.63718647499014" lon="11.221429989528094"><ele>300.0</ele><time>2026-04-03T09:23:05.001Z</time></trkpt><trkpt lat="43.637063715207375" lon="11.221626471141695"><ele>299.6666666666667</ele><time>2026-04-03T09:23:06.001Z</time></trkpt><trkpt lat="43.63692586531498" lon="11.221822161955892"><ele>299.33333333333337</ele><time>2026-04-03T09:23:07.001Z</time></trkpt><trkpt lat="43.636769853328225" lon="11.22201508348831"><ele>299.0</ele><time>2026-04-03T09:23:08.001Z</time></trkpt><trkpt lat="43.63662290759117" lon="11.22221497854914"><ele>298.33333333333337</ele><time>2026-04-03T09:23:09.001Z</time></trkpt><trkpt lat="43.63650177627544" lon="11.222394224833444"><ele>297.6666666666667</ele><time>2026-04-03T09:23:10.001Z</time></trkpt><trkpt lat="43.6363896559254" lon="11.22255698671778"><ele>297.0</ele><time>2026-04-03T09:23:11.002Z</time></trkpt><trkpt lat="43.636318402858684" lon="11.222735230089269"><ele>297.0</ele><time>2026-04-03T09:23:12.002Z</time></trkpt><trkpt lat="43.63628395924426" lon="11.222913388324406"><ele>297.0</ele><time>2026-04-03T09:23:13.002Z</time></trkpt><trkpt lat="43.636298906619885" lon="11.22307517383753"><ele>297.0</ele><time>2026-04-03T09:23:14.002Z</time></trkpt><trkpt lat="43.63630725723611" lon="11.223290284515105"><ele>297.0</ele><time>2026-04-03T09:23:15.002Z</time></trkpt><trkpt lat="43.63631396179254" lon="11.223518591403531"><ele>297.3333333333333</ele><time>2026-04-03T09:23:16.002Z</time></trkpt><trkpt lat="43.63634817371588" lon="11.223715112365188"><ele>297.66666666666663</ele><time>2026-04-03T09:23:17.002Z</time></trkpt><trkpt lat="43.636392312783656" lon="11.223955748578767"><ele>298.0</ele><time>2026-04-03T09:23:18.002Z</time></trkpt><trkpt lat="43.636448205380006" lon="11.224204463988247"><ele>298.66666666666663</ele><time>2026-04-03T09:23:19.002Z</time></trkpt><trkpt lat="43.63651296725236" lon="11.224479524185936"><ele>299.3333333333333</ele><time>2026-04-03T09:23:20.002Z</time></trkpt><trkpt lat="43.636573026351186" lon="11.224734611749437"><ele>300.0</ele><time>2026-04-03T09:23:21.002Z</time></trkpt><trkpt lat="43.63663369829795" lon="11.224979618201077"><ele>300.0</ele><time>2026-04-03T09:23:22.002Z</time></trkpt><trkpt lat="43.636686355864576" lon="11.22519290241165"><ele>300.0</ele><time>2026-04-03T09:23:23.002Z</time></trkpt><trkpt lat="43.63674734213405" lon="11.225435590770587"><ele>300.0</ele><time>2026-04-03T09:23:24.002Z</time></trkpt><trkpt lat="43.63680934601595" lon="11.22567468952152"><ele>299.6666666666667</ele><time>2026-04-03T09:23:25.002Z</time></trkpt><trkpt lat="43.6368635711442" lon="11.225928040564442"><ele>299.33333333333337</ele><time>2026-04-03T09:23:26.002Z</time></trkpt><trkpt lat="43.636924590097806" lon="11.226167265503658"><ele>299.0</ele><time>2026-04-03T09:23:27.002Z</time></trkpt><trkpt lat="43.63697776853499" lon="11.226412484803287"><ele>298.6666666666667</ele><time>2026-04-03T09:23:28.002Z</time></trkpt><trkpt lat="43.63698924796881" lon="11.22664843808034"><ele>298.3333333333333</ele><time>2026-04-03T09:23:29.002Z</time></trkpt><trkpt lat="43.637001285834366" lon="11.226896945854348"><ele>298.0</ele><time>2026-04-03T09:23:30.002Z</time></trkpt><trkpt lat="43.63698836793005" lon="11.22715536767492"><ele>295.66666666666663</ele><time>2026-04-03T09:23:31.002Z</time></trkpt><trkpt lat="43.63694806814463" lon="11.227413922758972"><ele>293.3333333333333</ele><time>2026-04-03T09:23:32.002Z</time></trkpt><trkpt lat="43.63689518224306" lon="11.227646784146387"><ele>291.0</ele><time>2026-04-03T09:23:33.002Z</time></trkpt><trkpt lat="43.63683353400174" lon="11.22784842135908"><ele>291.0</ele><time>2026-04-03T09:23:34.002Z</time></trkpt><trkpt lat="43.6367792923041" lon="11.227982055370124"><ele>291.0</ele><time>2026-04-03T09:23:35.002Z</time></trkpt><trkpt lat="43.63668411325778" lon="11.228058201551576"><ele>291.0</ele><time>2026-04-03T09:23:36.002Z</time></trkpt><trkpt lat="43.63661731551985" lon="11.228190841238112"><ele>291.0</ele><time>2026-04-03T09:23:37.002Z</time></trkpt><trkpt lat="43.636502201564824" lon="11.228254638834878"><ele>291.5</ele><time>2026-04-03T09:23:38.002Z</time></trkpt><trkpt lat="43.63640242714642" lon="11.228330115688024"><ele>292.0</ele><time>2026-04-03T09:23:39.002Z</time></trkpt><trkpt lat="43.63630435930564" lon="11.228414131135738"><ele>292.5</ele><time>2026-04-03T09:23:40.002Z</time></trkpt><trkpt lat="43.6362083401069" lon="11.22851551181639"><ele>293.0</ele><time>2026-04-03T09:23:41.002Z</time></trkpt><trkpt lat="43.636103808222934" lon="11.228613765793288"><ele>293.75</ele><time>2026-04-03T09:23:42.002Z</time></trkpt><trkpt lat="43.63599072240784" lon="11.228710299719447"><ele>294.5</ele><time>2026-04-03T09:23:43.002Z</time></trkpt><trkpt lat="43.635884606750075" lon="11.228807630729907"><ele>295.25</ele><time>2026-04-03T09:23:44.002Z</time></trkpt><trkpt lat="43.63577470719732" lon="11.228909654833778"><ele>296.0</ele><time>2026-04-03T09:23:45.002Z</time></trkpt><trkpt lat="43.635664936858014" lon="11.229023617107375"><ele>296.0</ele><time>2026-04-03T09:23:46.002Z</time></trkpt><trkpt lat="43.63554649800386" lon="11.22914524712312"><ele>296.0</ele><time>2026-04-03T09:23:47.002Z</time></trkpt><trkpt lat="43.63541861852743" lon="11.229288775643369"><ele>296.0</ele><time>2026-04-03T09:23:48.002Z</time></trkpt><trkpt lat="43.635290863727015" lon="11.229415004019367"><ele>296.0</ele><time>2026-04-03T09:23:49.002Z</time></trkpt><trkpt lat="43.63516896145412" lon="11.229544223131773"><ele>296.0</ele><time>2026-04-03T09:23:50.002Z</time></trkpt><trkpt lat="43.635050805131826" lon="11.229660762120151"><ele>296.0</ele><time>2026-04-03T09:23:51.002Z</time></trkpt><trkpt lat="43.63493341776514" lon="11.229768901245757"><ele>296.0</ele><time>2026-04-03T09:23:52.002Z</time></trkpt><trkpt lat="43.634816793153874" lon="11.229878325752205"><ele>295.5</ele><time>2026-04-03T09:23:53.002Z</time></trkpt><trkpt lat="43.63469965710948" lon="11.229988798462882"><ele>295.0</ele><time>2026-04-03T09:23:54.002Z</time></trkpt><trkpt lat="43.63459128509157" lon="11.230106987560848"><ele>294.5</ele><time>2026-04-03T09:23:55.002Z</time></trkpt><trkpt lat="43.63447281702314" lon="11.230235058174372"><ele>294.0</ele><time>2026-04-03T09:23:56.002Z</time></trkpt><trkpt lat="43.63437463545082" lon="11.230379238317319"><ele>294.0</ele><time>2026-04-03T09:23:57.002Z</time></trkpt><trkpt lat="43.63426819141016" lon="11.230523738240178"><ele>294.0</ele><time>2026-04-03T09:23:58.002Z</time></trkpt><trkpt lat="43.634171511988" lon="11.230672039344189"><ele>294.0</ele><time>2026-04-03T09:23:59.002Z</time></trkpt><trkpt lat="43.634070123198576" lon="11.230808664746903"><ele>294.0</ele><time>2026-04-03T09:24:00.002Z</time></trkpt><trkpt lat="43.633967180064886" lon="11.23095026065138"><ele>293.59999999999997</ele><time>2026-04-03T09:24:01.002Z</time></trkpt><trkpt lat="43.63388508073538" lon="11.231084662831387"><ele>293.2</ele><time>2026-04-03T09:24:02.002Z</time></trkpt><trkpt lat="43.633820397999166" lon="11.23118815249216"><ele>292.79999999999995</ele><time>2026-04-03T09:24:03.002Z</time></trkpt><trkpt lat="43.633768113197775" lon="11.231256009116224"><ele>292.4</ele><time>2026-04-03T09:24:04.002Z</time></trkpt><trkpt lat="43.633716740981214" lon="11.231358080294351"><ele>292.0</ele><time>2026-04-03T09:24:06.002Z</time></trkpt><trkpt lat="43.633882695723635" lon="11.231472304625068"><ele>291.8</ele><time>2026-04-03T09:24:09.003Z</time></trkpt><trkpt lat="43.63397936145494" lon="11.231497213712041"><ele>291.6</ele><time>2026-04-03T09:24:10.001Z</time></trkpt><trkpt lat="43.634083360404944" lon="11.231552557980077"><ele>291.40000000000003</ele><time>2026-04-03T09:24:11.001Z</time></trkpt><trkpt lat="43.63418603738099" lon="11.23159832984789"><ele>291.2</ele><time>2026-04-03T09:24:12.001Z</time></trkpt><trkpt lat="43.63427579390446" lon="11.231642448014158"><ele>291.0</ele><time>2026-04-03T09:24:13Z</time></trkpt><trkpt lat="43.63439149753199" lon="11.231700379037534"><ele>289.5</ele><time>2026-04-03T09:24:14.001Z</time></trkpt><trkpt lat="43.63453826030897" lon="11.231789837901731"><ele>288.0</ele><time>2026-04-03T09:24:15.001Z</time></trkpt><trkpt lat="43.63465651649934" lon="11.231889937704977"><ele>286.5</ele><time>2026-04-03T09:24:16Z</time></trkpt><trkpt lat="43.63477057359604" lon="11.231928076604765"><ele>285.0</ele><time>2026-04-03T09:24:17.001Z</time></trkpt><trkpt lat="43.63483364151968" lon="11.231960196015022"><ele>285.0</ele><time>2026-04-03T09:24:18.001Z</time></trkpt><trkpt lat="43.63474439783089" lon="11.232150763345517"><ele>285.0</ele><time>2026-04-03T09:24:22.001Z</time></trkpt><trkpt lat="43.63469755060084" lon="11.23229150407862"><ele>285.0</ele><time>2026-04-03T09:24:23.001Z</time></trkpt><trkpt lat="43.63465120211576" lon="11.232437214474233"><ele>285.0</ele><time>2026-04-03T09:24:24.001Z</time></trkpt><trkpt lat="43.6346070700906" lon="11.232591004437062"><ele>285.8</ele><time>2026-04-03T09:24:25.001Z</time></trkpt><trkpt lat="43.63458281868713" lon="11.232741202568588"><ele>286.6</ele><time>2026-04-03T09:24:26.001Z</time></trkpt><trkpt lat="43.63453106245018" lon="11.232871944948505"><ele>287.4</ele><time>2026-04-03T09:24:27.001Z</time></trkpt><trkpt lat="43.63449339032879" lon="11.233001949920236"><ele>288.2</ele><time>2026-04-03T09:24:28.001Z</time></trkpt><trkpt lat="43.634467494896576" lon="11.233134318240468"><ele>289.0</ele><time>2026-04-03T09:24:29.001Z</time></trkpt><trkpt lat="43.634447288195155" lon="11.233279298841726"><ele>289.8</ele><time>2026-04-03T09:24:30.001Z</time></trkpt><trkpt lat="43.63444955893808" lon="11.233431475080199"><ele>290.59999999999997</ele><time>2026-04-03T09:24:31.001Z</time></trkpt><trkpt lat="43.634448169162795" lon="11.233570759836212"><ele>291.4</ele><time>2026-04-03T09:24:32.001Z</time></trkpt><trkpt lat="43.63444366380284" lon="11.233683413963556"><ele>292.2</ele><time>2026-04-03T09:24:33.001Z</time></trkpt><trkpt lat="43.63442271378958" lon="11.233784311104783"><ele>293.0</ele><time>2026-04-03T09:24:34.001Z</time></trkpt><trkpt lat="43.634409612321406" lon="11.23390926880855"><ele>292.5</ele><time>2026-04-03T09:24:35.001Z</time></trkpt><trkpt lat="43.63438698543002" lon="11.234042872766153"><ele>292.0</ele><time>2026-04-03T09:24:36.001Z</time></trkpt><trkpt lat="43.63436183371113" lon="11.234205775773862"><ele>291.5</ele><time>2026-04-03T09:24:37.001Z</time></trkpt><trkpt lat="43.634331694108745" lon="11.234381131265893"><ele>291.0</ele><time>2026-04-03T09:24:38.001Z</time></trkpt><trkpt lat="43.63429306888824" lon="11.23456007515766"><ele>291.0</ele><time>2026-04-03T09:24:39.001Z</time></trkpt><trkpt lat="43.63423898848344" lon="11.234751555542767"><ele>291.0</ele><time>2026-04-03T09:24:40.001Z</time></trkpt><trkpt lat="43.634176052678164" lon="11.234936146204795"><ele>291.0</ele><time>2026-04-03T09:24:41.001Z</time></trkpt><trkpt lat="43.63411853688563" lon="11.235119171269636"><ele>291.0</ele><time>2026-04-03T09:24:42.001Z</time></trkpt><trkpt lat="43.634043643192754" lon="11.235301131157039"><ele>291.0</ele><time>2026-04-03T09:24:43.001Z</time></trkpt><trkpt lat="43.633972643621384" lon="11.235477937930925"><ele>291.0</ele><time>2026-04-03T09:24:44.001Z</time></trkpt><trkpt lat="43.633912712246584" lon="11.235655607534923"><ele>291.0</ele><time>2026-04-03T09:24:45.001Z</time></trkpt><trkpt lat="43.633841919762936" lon="11.235837166169892"><ele>291.0</ele><time>2026-04-03T09:24:46.001Z</time></trkpt><trkpt lat="43.63377879472442" lon="11.236015252496506"><ele>291.0</ele><time>2026-04-03T09:24:47.001Z</time></trkpt><trkpt lat="43.63371010073234" lon="11.236195829944327"><ele>291.0</ele><time>2026-04-03T09:24:48.001Z</time></trkpt><trkpt lat="43.63363761571094" lon="11.236383327502223"><ele>291.0</ele><time>2026-04-03T09:24:49.001Z</time></trkpt><trkpt lat="43.63356464838704" lon="11.236579940474812"><ele>291.6</ele><time>2026-04-03T09:24:50.001Z</time></trkpt><trkpt lat="43.633489576536896" lon="11.236756342514276"><ele>292.20000000000005</ele><time>2026-04-03T09:24:51.001Z</time></trkpt><trkpt lat="43.63343834663877" lon="11.236915106445064"><ele>292.79999999999995</ele><time>2026-04-03T09:24:52.001Z</time></trkpt><trkpt lat="43.63339818236648" lon="11.237038557094245"><ele>293.4</ele><time>2026-04-03T09:24:53.001Z</time></trkpt><trkpt lat="43.63339741687381" lon="11.237144824653233"><ele>294.0</ele><time>2026-04-03T09:24:54.001Z</time></trkpt><trkpt lat="43.63338789320606" lon="11.237278610731765"><ele>294.0</ele><time>2026-04-03T09:24:55.001Z</time></trkpt><trkpt lat="43.63337296554409" lon="11.237428234362637"><ele>294.0</ele><time>2026-04-03T09:24:56.001Z</time></trkpt><trkpt lat="43.63335637526579" lon="11.237606970224299"><ele>294.0</ele><time>2026-04-03T09:24:57.001Z</time></trkpt><trkpt lat="43.63334135982626" lon="11.23780996442739"><ele>294.0</ele><time>2026-04-03T09:24:58.001Z</time></trkpt><trkpt lat="43.63333169904451" lon="11.238024113809645"><ele>293.0</ele><time>2026-04-03T09:24:59.001Z</time></trkpt><trkpt lat="43.63332779311479" lon="11.238250119375378"><ele>292.0</ele><time>2026-04-03T09:25:00.001Z</time></trkpt><trkpt lat="43.63332976907337" lon="11.238452344644394"><ele>291.0</ele><time>2026-04-03T09:25:01.001Z</time></trkpt><trkpt lat="43.633349902008064" lon="11.23863541013284"><ele>290.0</ele><time>2026-04-03T09:25:02.001Z</time></trkpt><trkpt lat="43.63337692466128" lon="11.23881137939047"><ele>289.6666666666667</ele><time>2026-04-03T09:25:03.001Z</time></trkpt><trkpt lat="43.63340197899738" lon="11.239010103005452"><ele>289.3333333333333</ele><time>2026-04-03T09:25:04.001Z</time></trkpt><trkpt lat="43.633446409382714" lon="11.239222621720154"><ele>289.0</ele><time>2026-04-03T09:25:05.001Z</time></trkpt><trkpt lat="43.63347831788542" lon="11.239431071547793"><ele>289.0</ele><time>2026-04-03T09:25:06.001Z</time></trkpt><trkpt lat="43.633510841758685" lon="11.239619721941724"><ele>289.0</ele><time>2026-04-03T09:25:07.001Z</time></trkpt><trkpt lat="43.6335324936004" lon="11.239787486869268"><ele>289.0</ele><time>2026-04-03T09:25:08.002Z</time></trkpt><trkpt lat="43.63352904393354" lon="11.23994185709192"><ele>289.0</ele><time>2026-04-03T09:25:09.002Z</time></trkpt><trkpt lat="43.633488651573074" lon="11.240081518766166"><ele>289.25</ele><time>2026-04-03T09:25:10.002Z</time></trkpt><trkpt lat="43.63344558806218" lon="11.240217157590157"><ele>289.5</ele><time>2026-04-03T09:25:11.002Z</time></trkpt><trkpt lat="43.63339133781309" lon="11.240387486755155"><ele>289.75</ele><time>2026-04-03T09:25:12.002Z</time></trkpt><trkpt lat="43.63333429468397" lon="11.24056947617459"><ele>290.0</ele><time>2026-04-03T09:25:13.002Z</time></trkpt><trkpt lat="43.63328701985159" lon="11.240778186290528"><ele>290.0</ele><time>2026-04-03T09:25:14.002Z</time></trkpt><trkpt lat="43.63322347231867" lon="11.240995845504527"><ele>290.0</ele><time>2026-04-03T09:25:15.002Z</time></trkpt><trkpt lat="43.6331640117959" lon="11.241200655148695"><ele>290.0</ele><time>2026-04-03T09:25:16.002Z</time></trkpt><trkpt lat="43.63312195582935" lon="11.24140619594772"><ele>289.0</ele><time>2026-04-03T09:25:17.002Z</time></trkpt><trkpt lat="43.63308233662762" lon="11.241634904614475"><ele>288.0</ele><time>2026-04-03T09:25:18.002Z</time></trkpt><trkpt lat="43.63304139277308" lon="11.241879398299504"><ele>287.0</ele><time>2026-04-03T09:25:19.002Z</time></trkpt><trkpt lat="43.63301218706504" lon="11.242136051468044"><ele>285.6666666666667</ele><time>2026-04-03T09:25:20.002Z</time></trkpt><trkpt lat="43.63297423336385" lon="11.24235586208409"><ele>284.3333333333333</ele><time>2026-04-03T09:25:21.002Z</time></trkpt><trkpt lat="43.63291163447501" lon="11.242555458841657"><ele>283.0</ele><time>2026-04-03T09:25:22.002Z</time></trkpt><trkpt lat="43.63281613726329" lon="11.24271686808379"><ele>285.25</ele><time>2026-04-03T09:25:23.002Z</time></trkpt><trkpt lat="43.63273022667568" lon="11.24286688294169"><ele>287.5</ele><time>2026-04-03T09:25:24.002Z</time></trkpt><trkpt lat="43.63263845290233" lon="11.24297627756519"><ele>289.75</ele><time>2026-04-03T09:25:25.002Z</time></trkpt><trkpt lat="43.63254105136541" lon="11.243092774150627"><ele>292.0</ele><time>2026-04-03T09:25:26.002Z</time></trkpt><trkpt lat="43.6323951427406" lon="11.243095445092793"><ele>292.75</ele><time>2026-04-03T09:25:27.002Z</time></trkpt><trkpt lat="43.632233439713104" lon="11.243163856178164"><ele>293.5</ele><time>2026-04-03T09:25:28.002Z</time></trkpt><trkpt lat="43.63209216785777" lon="11.243244733630835"><ele>294.25</ele><time>2026-04-03T09:25:29.002Z</time></trkpt><trkpt lat="43.631976129484784" lon="11.243317537898957"><ele>295.0</ele><time>2026-04-03T09:25:30.002Z</time></trkpt><trkpt lat="43.63188926669005" lon="11.243435059108924"><ele>295.0</ele><time>2026-04-03T09:25:31.002Z</time></trkpt><trkpt lat="43.63183737815816" lon="11.243588795971979"><ele>295.0</ele><time>2026-04-03T09:25:32.002Z</time></trkpt><trkpt lat="43.6317983278364" lon="11.243754055507273"><ele>295.0</ele><time>2026-04-03T09:25:33.002Z</time></trkpt><trkpt lat="43.63176029960007" lon="11.243976432098226"><ele>295.0</ele><time>2026-04-03T09:25:34.002Z</time></trkpt><trkpt lat="43.631728190152465" lon="11.244181912352468"><ele>293.66666666666663</ele><time>2026-04-03T09:25:35.002Z</time></trkpt><trkpt lat="43.6316542116704" lon="11.244356064444688"><ele>292.3333333333333</ele><time>2026-04-03T09:25:36.002Z</time></trkpt><trkpt lat="43.631559867857604" lon="11.244547791068262"><ele>291.0</ele><time>2026-04-03T09:25:37.002Z</time></trkpt><trkpt lat="43.63146491802379" lon="11.244733149160943"><ele>290.0</ele><time>2026-04-03T09:25:38.002Z</time></trkpt><trkpt lat="43.63136821778042" lon="11.244917315207651"><ele>289.0</ele><time>2026-04-03T09:25:39.002Z</time></trkpt><trkpt lat="43.63127356079854" lon="11.24509759021072"><ele>288.0</ele><time>2026-04-03T09:25:40.002Z</time></trkpt><trkpt lat="43.63118880730383" lon="11.24526437770789"><ele>289.0</ele><time>2026-04-03T09:25:41.002Z</time></trkpt><trkpt lat="43.631090993631716" lon="11.245443674621097"><ele>290.0</ele><time>2026-04-03T09:25:42.002Z</time></trkpt><trkpt lat="43.63099298075692" lon="11.245600265519016"><ele>291.0</ele><time>2026-04-03T09:25:43.002Z</time></trkpt><trkpt lat="43.63087941751941" lon="11.245729450618887"><ele>291.0</ele><time>2026-04-03T09:25:44.002Z</time></trkpt><trkpt lat="43.63076926005729" lon="11.245843994461596"><ele>291.0</ele><time>2026-04-03T09:25:45.002Z</time></trkpt><trkpt lat="43.630653018810015" lon="11.245916195752844"><ele>291.0</ele><time>2026-04-03T09:25:46.002Z</time></trkpt><trkpt lat="43.630523763747625" lon="11.245931175125827"><ele>291.0</ele><time>2026-04-03T09:25:47.002Z</time></trkpt><trkpt lat="43.630373356712965" lon="11.245978749829638"><ele>292.3333333333333</ele><time>2026-04-03T09:25:48.002Z</time></trkpt><trkpt lat="43.63022308180077" lon="11.246045559052664"><ele>293.66666666666663</ele><time>2026-04-03T09:25:49.002Z</time></trkpt><trkpt lat="43.6300707265071" lon="11.246186277225494"><ele>295.0</ele><time>2026-04-03T09:25:50.002Z</time></trkpt><trkpt lat="43.629927056687386" lon="11.246346214211092"><ele>292.3333333333333</ele><time>2026-04-03T09:25:51.002Z</time></trkpt><trkpt lat="43.62981371625501" lon="11.246528020417458"><ele>289.6666666666667</ele><time>2026-04-03T09:25:52.002Z</time></trkpt><trkpt lat="43.62970972457279" lon="11.246696873589487"><ele>287.0</ele><time>2026-04-03T09:25:53.002Z</time></trkpt><trkpt lat="43.629596562515346" lon="11.246855442137406"><ele>287.0</ele><time>2026-04-03T09:25:54.002Z</time></trkpt><trkpt lat="43.62949481563498" lon="11.247003628437536"><ele>287.0</ele><time>2026-04-03T09:25:55.002Z</time></trkpt><trkpt lat="43.62942082298846" lon="11.247179781593527"><ele>287.0</ele><time>2026-04-03T09:25:56.002Z</time></trkpt><trkpt lat="43.629306271466234" lon="11.24730399979702"><ele>287.0</ele><time>2026-04-03T09:25:57.002Z</time></trkpt><trkpt lat="43.62918684964192" lon="11.247425190308736"><ele>288.5</ele><time>2026-04-03T09:25:58.002Z</time></trkpt><trkpt lat="43.629067552672865" lon="11.247533212582946"><ele>290.0</ele><time>2026-04-03T09:25:59.002Z</time></trkpt><trkpt lat="43.6289591066624" lon="11.247593217943704"><ele>291.5</ele><time>2026-04-03T09:26:00.002Z</time></trkpt><trkpt lat="43.62883732614062" lon="11.247614708582836"><ele>293.0</ele><time>2026-04-03T09:26:01.002Z</time></trkpt><trkpt lat="43.628709568873994" lon="11.247621579554776"><ele>295.25</ele><time>2026-04-03T09:26:02.002Z</time></trkpt><trkpt lat="43.628556348120306" lon="11.247615077012707"><ele>297.5</ele><time>2026-04-03T09:26:03.002Z</time></trkpt><trkpt lat="43.628408300118124" lon="11.247632233281946"><ele>299.75</ele><time>2026-04-03T09:26:04.003Z</time></trkpt><trkpt lat="43.62829088366123" lon="11.24769405374058"><ele>302.0</ele><time>2026-04-03T09:26:05.003Z</time></trkpt><trkpt lat="43.62821853849028" lon="11.247762076045161"><ele>302.0</ele><time>2026-04-03T09:26:06.003Z</time></trkpt><trkpt lat="43.62818151293114" lon="11.247941476319445"><ele>302.0</ele><time>2026-04-03T09:26:07.003Z</time></trkpt><trkpt lat="43.62813697940201" lon="11.248149203244417"><ele>302.0</ele><time>2026-04-03T09:26:08.003Z</time></trkpt><trkpt lat="43.628101605211285" lon="11.248366853365527"><ele>300.6666666666667</ele><time>2026-04-03T09:26:09.003Z</time></trkpt><trkpt lat="43.628065602224666" lon="11.248571721356459"><ele>299.3333333333333</ele><time>2026-04-03T09:26:10.003Z</time></trkpt><trkpt lat="43.628033471471156" lon="11.248782159688627"><ele>298.0</ele><time>2026-04-03T09:26:11.003Z</time></trkpt><trkpt lat="43.62800414565349" lon="11.24898919529525"><ele>297.0</ele><time>2026-04-03T09:26:12.003Z</time></trkpt><trkpt lat="43.62798643076385" lon="11.249189197519032"><ele>296.0</ele><time>2026-04-03T09:26:13.003Z</time></trkpt><trkpt lat="43.62793384540498" lon="11.249384598465179"><ele>295.0</ele><time>2026-04-03T09:26:14.003Z</time></trkpt><trkpt lat="43.627883441773676" lon="11.249603370134768"><ele>293.3333333333333</ele><time>2026-04-03T09:26:15.003Z</time></trkpt><trkpt lat="43.6278211549973" lon="11.249839701239637"><ele>291.6666666666667</ele><time>2026-04-03T09:26:16.001Z</time></trkpt><trkpt lat="43.62778038797723" lon="11.250075007560204"><ele>290.0</ele><time>2026-04-03T09:26:17.002Z</time></trkpt><trkpt lat="43.62775106307002" lon="11.250287030630076"><ele>291.5</ele><time>2026-04-03T09:26:18.002Z</time></trkpt><trkpt lat="43.62774090758506" lon="11.250475930155906"><ele>293.0</ele><time>2026-04-03T09:26:19.002Z</time></trkpt><trkpt lat="43.62775866507864" lon="11.250675416529718"><ele>294.5</ele><time>2026-04-03T09:26:20.001Z</time></trkpt><trkpt lat="43.627796401857786" lon="11.250855442141269"><ele>296.0</ele><time>2026-04-03T09:26:21.001Z</time></trkpt><trkpt lat="43.62784602832832" lon="11.251009309677663"><ele>296.0</ele><time>2026-04-03T09:26:22.001Z</time></trkpt><trkpt lat="43.6278763292966" lon="11.251121336916944"><ele>296.0</ele><time>2026-04-03T09:26:23.001Z</time></trkpt><trkpt lat="43.62785838622953" lon="11.251280393153742"><ele>296.0</ele><time>2026-04-03T09:26:25.002Z</time></trkpt><trkpt lat="43.62776729679948" lon="11.251351704410217"><ele>296.0</ele><time>2026-04-03T09:26:27.001Z</time></trkpt><trkpt lat="43.62769481229765" lon="11.25136414951789"><ele>296.0</ele><time>2026-04-03T09:26:28.002Z</time></trkpt><trkpt lat="43.627596192018295" lon="11.251395330849114"><ele>296.0</ele><time>2026-04-03T09:26:29.001Z</time></trkpt><trkpt lat="43.627493738454056" lon="11.251446939028218"><ele>296.0</ele><time>2026-04-03T09:26:30.001Z</time></trkpt><trkpt lat="43.62738893276256" lon="11.251533531928153"><ele>296.0</ele><time>2026-04-03T09:26:31.001Z</time></trkpt><trkpt lat="43.627305945050125" lon="11.251642001341935"><ele>296.0</ele><time>2026-04-03T09:26:32.001Z</time></trkpt><trkpt lat="43.627219123275445" lon="11.251769060606412"><ele>292.0</ele><time>2026-04-03T09:26:33.001Z</time></trkpt><trkpt lat="43.62714664447897" lon="11.251907979784143"><ele>288.0</ele><time>2026-04-03T09:26:34.001Z</time></trkpt><trkpt lat="43.62709502150344" lon="11.252049229373386"><ele>284.0</ele><time>2026-04-03T09:26:35.001Z</time></trkpt><trkpt lat="43.62705674944201" lon="11.25219965147995"><ele>280.0</ele><time>2026-04-03T09:26:36.001Z</time></trkpt><trkpt lat="43.627048259634286" lon="11.252374552800724"><ele>277.25</ele><time>2026-04-03T09:26:37.001Z</time></trkpt><trkpt lat="43.62703735050897" lon="11.252513822637598"><ele>274.5</ele><time>2026-04-03T09:26:38.001Z</time></trkpt><trkpt lat="43.6270260013899" lon="11.252604694019976"><ele>271.75</ele><time>2026-04-03T09:26:39.001Z</time></trkpt><trkpt lat="43.62699515311264" lon="11.252720755171941"><ele>269.0</ele><time>2026-04-03T09:26:43.001Z</time></trkpt><trkpt lat="43.62715461360947" lon="11.252889681519617"><ele>269.0</ele><time>2026-04-03T09:26:44.001Z</time></trkpt><trkpt lat="43.62722101219417" lon="11.253032764863253"><ele>269.0</ele><time>2026-04-03T09:26:45.001Z</time></trkpt><trkpt lat="43.627268943067975" lon="11.253222929608352"><ele>269.0</ele><time>2026-04-03T09:26:46.001Z</time></trkpt><trkpt lat="43.627339310200796" lon="11.2534049608592"><ele>269.0</ele><time>2026-04-03T09:26:47.001Z</time></trkpt><trkpt lat="43.62741391038141" lon="11.253595844429237"><ele>269.33333333333337</ele><time>2026-04-03T09:26:48.001Z</time></trkpt><trkpt lat="43.627492827231904" lon="11.253792184312267"><ele>269.6666666666667</ele><time>2026-04-03T09:26:49.001Z</time></trkpt><trkpt lat="43.62757058171157" lon="11.253995216442203"><ele>270.0</ele><time>2026-04-03T09:26:50.001Z</time></trkpt><trkpt lat="43.627646217710144" lon="11.254199040887878"><ele>268.6666666666667</ele><time>2026-04-03T09:26:51.001Z</time></trkpt><trkpt lat="43.62772646869732" lon="11.254402415913889"><ele>267.33333333333337</ele><time>2026-04-03T09:26:52.001Z</time></trkpt><trkpt lat="43.62780235603657" lon="11.25458908750107"><ele>266.0</ele><time>2026-04-03T09:26:53.001Z</time></trkpt><trkpt lat="43.62789420507082" lon="11.254769317193892"><ele>263.33333333333337</ele><time>2026-04-03T09:26:54.001Z</time></trkpt><trkpt lat="43.62800335844353" lon="11.254942414086495"><ele>260.6666666666667</ele><time>2026-04-03T09:26:55.001Z</time></trkpt><trkpt lat="43.6281359949982" lon="11.255109199627867"><ele>258.0</ele><time>2026-04-03T09:26:56.001Z</time></trkpt><trkpt lat="43.62828686140487" lon="11.2552768456724"><ele>258.0</ele><time>2026-04-03T09:26:57.001Z</time></trkpt><trkpt lat="43.628464128378006" lon="11.255431704846186"><ele>258.0</ele><time>2026-04-03T09:26:58.002Z</time></trkpt><trkpt lat="43.62864487986223" lon="11.255573783467836"><ele>258.0</ele><time>2026-04-03T09:26:59.002Z</time></trkpt><trkpt lat="43.628807422629016" lon="11.25568270620333"><ele>255.66666666666669</ele><time>2026-04-03T09:27:00.002Z</time></trkpt><trkpt lat="43.6289492964571" lon="11.255774094463337"><ele>253.33333333333334</ele><time>2026-04-03T09:27:01.002Z</time></trkpt><trkpt lat="43.62908824696679" lon="11.25590039765791"><ele>251.0</ele><time>2026-04-03T09:27:02.002Z</time></trkpt><trkpt lat="43.62920480368213" lon="11.256071521906042"><ele>251.0</ele><time>2026-04-03T09:27:03.002Z</time></trkpt><trkpt lat="43.62930634091059" lon="11.256281521593138"><ele>251.0</ele><time>2026-04-03T09:27:04.002Z</time></trkpt><trkpt lat="43.629402361177554" lon="11.256506259725557"><ele>251.0</ele><time>2026-04-03T09:27:05.002Z</time></trkpt><trkpt lat="43.629497030179266" lon="11.256742798293208"><ele>251.0</ele><time>2026-04-03T09:27:06.002Z</time></trkpt><trkpt lat="43.62959314185534" lon="11.25698046589999"><ele>251.0</ele><time>2026-04-03T09:27:07.002Z</time></trkpt><trkpt lat="43.629668900137766" lon="11.257236805108217"><ele>251.0</ele><time>2026-04-03T09:27:08.002Z</time></trkpt><trkpt lat="43.62972565415588" lon="11.257523995592978"><ele>246.5</ele><time>2026-04-03T09:27:09.002Z</time></trkpt><trkpt lat="43.62978153955277" lon="11.257831012814304"><ele>242.0</ele><time>2026-04-03T09:27:10.002Z</time></trkpt><trkpt lat="43.62983629123053" lon="11.25813249547512"><ele>237.0</ele><time>2026-04-03T09:27:11.002Z</time></trkpt><trkpt lat="43.62990228642888" lon="11.258436962394649"><ele>232.0</ele><time>2026-04-03T09:27:12.002Z</time></trkpt><trkpt lat="43.62997958996257" lon="11.258737727274774"><ele>230.33333333333331</ele><time>2026-04-03T09:27:13.002Z</time></trkpt><trkpt lat="43.630055919371394" lon="11.259022332569257"><ele>228.66666666666669</ele><time>2026-04-03T09:27:14.002Z</time></trkpt><trkpt lat="43.63013226705274" lon="11.259292379611226"><ele>227.0</ele><time>2026-04-03T09:27:15.002Z</time></trkpt><trkpt lat="43.63021403279812" lon="11.259544024881832"><ele>227.33333333333334</ele><time>2026-04-03T09:27:16.002Z</time></trkpt><trkpt lat="43.630320225204784" lon="11.259778482736301"><ele>227.66666666666669</ele><time>2026-04-03T09:27:17.002Z</time></trkpt><trkpt lat="43.630453569747864" lon="11.260000721798228"><ele>228.0</ele><time>2026-04-03T09:27:18.002Z</time></trkpt><trkpt lat="43.63059910241057" lon="11.260189389236482"><ele>228.0</ele><time>2026-04-03T09:27:19.002Z</time></trkpt><trkpt lat="43.63073486787847" lon="11.260360426829049"><ele>228.0</ele><time>2026-04-03T09:27:20.002Z</time></trkpt><trkpt lat="43.63085196011126" lon="11.260536626609095"><ele>228.0</ele><time>2026-04-03T09:27:21.002Z</time></trkpt><trkpt lat="43.63094689829856" lon="11.26071949814831"><ele>228.0</ele><time>2026-04-03T09:27:22.002Z</time></trkpt><trkpt lat="43.63102563499357" lon="11.26091643029845"><ele>228.0</ele><time>2026-04-03T09:27:23.002Z</time></trkpt><trkpt lat="43.631093151096344" lon="11.261128891505013"><ele>228.0</ele><time>2026-04-03T09:27:24.002Z</time></trkpt><trkpt lat="43.63114482865274" lon="11.261356432978676"><ele>220.33333333333331</ele><time>2026-04-03T09:27:25.002Z</time></trkpt><trkpt lat="43.63119058729041" lon="11.261593432405691"><ele>212.66666666666666</ele><time>2026-04-03T09:27:26.002Z</time></trkpt><trkpt lat="43.63121461288349" lon="11.261859178556831"><ele>205.0</ele><time>2026-04-03T09:27:27.002Z</time></trkpt><trkpt lat="43.63121784833539" lon="11.262134366000451"><ele>205.25</ele><time>2026-04-03T09:27:28.002Z</time></trkpt><trkpt lat="43.63122151260759" lon="11.262363383356634"><ele>205.5</ele><time>2026-04-03T09:27:29.002Z</time></trkpt><trkpt lat="43.63123290683547" lon="11.2625555874893"><ele>205.75</ele><time>2026-04-03T09:27:30.002Z</time></trkpt><trkpt lat="43.63127170829417" lon="11.262714706105106"><ele>206.0</ele><time>2026-04-03T09:27:31.002Z</time></trkpt><trkpt lat="43.63135041561083" lon="11.262851586636131"><ele>206.0</ele><time>2026-04-03T09:27:32.002Z</time></trkpt><trkpt lat="43.63147523813663" lon="11.26295805629494"><ele>206.0</ele><time>2026-04-03T09:27:33.002Z</time></trkpt><trkpt lat="43.63162763092602" lon="11.263043045515978"><ele>206.0</ele><time>2026-04-03T09:27:34.002Z</time></trkpt><trkpt lat="43.631790970064266" lon="11.263138742022052"><ele>205.0</ele><time>2026-04-03T09:27:35.002Z</time></trkpt><trkpt lat="43.63198089252573" lon="11.263206820278663"><ele>204.0</ele><time>2026-04-03T09:27:36.002Z</time></trkpt><trkpt lat="43.632159538832" lon="11.263236216345353"><ele>203.0</ele><time>2026-04-03T09:27:37.002Z</time></trkpt><trkpt lat="43.63231220050893" lon="11.263254148293992"><ele>203.0</ele><time>2026-04-03T09:27:38.002Z</time></trkpt><trkpt lat="43.63243912178348" lon="11.26331386777085"><ele>203.0</ele><time>2026-04-03T09:27:39.002Z</time></trkpt><trkpt lat="43.63253776446263" lon="11.263424567991013"><ele>203.0</ele><time>2026-04-03T09:27:40.002Z</time></trkpt><trkpt lat="43.632621768048274" lon="11.263602531895469"><ele>203.0</ele><time>2026-04-03T09:27:41.002Z</time></trkpt><trkpt lat="43.632686779828354" lon="11.263832997575495"><ele>204.66666666666669</ele><time>2026-04-03T09:27:42.002Z</time></trkpt><trkpt lat="43.632751671662355" lon="11.264080466325279"><ele>206.33333333333331</ele><time>2026-04-03T09:27:43.002Z</time></trkpt><trkpt lat="43.63282677245331" lon="11.26431763911357"><ele>208.0</ele><time>2026-04-03T09:27:44.002Z</time></trkpt><trkpt lat="43.632930396243104" lon="11.264543646137573"><ele>202.33333333333331</ele><time>2026-04-03T09:27:45.002Z</time></trkpt><trkpt lat="43.63305784823826" lon="11.264763735369549"><ele>196.66666666666666</ele><time>2026-04-03T09:27:46.002Z</time></trkpt><trkpt lat="43.633194617797265" lon="11.264971599654874"><ele>191.0</ele><time>2026-04-03T09:27:47.002Z</time></trkpt><trkpt lat="43.63333011197114" lon="11.265143672482282"><ele>191.0</ele><time>2026-04-03T09:27:48.002Z</time></trkpt><trkpt lat="43.63347791505065" lon="11.265279605328235"><ele>191.0</ele><time>2026-04-03T09:27:49.002Z</time></trkpt><trkpt lat="43.633638187334405" lon="11.265368966832739"><ele>191.0</ele><time>2026-04-03T09:27:50.002Z</time></trkpt><trkpt lat="43.63379376008506" lon="11.265422020457834"><ele>188.25</ele><time>2026-04-03T09:27:51.002Z</time></trkpt><trkpt lat="43.63390446816991" lon="11.265528546488813"><ele>185.5</ele><time>2026-04-03T09:27:52.002Z</time></trkpt><trkpt lat="43.63398273871258" lon="11.26566562047532"><ele>182.75</ele><time>2026-04-03T09:27:53.002Z</time></trkpt><trkpt lat="43.634001574243754" lon="11.265821579097569"><ele>180.0</ele><time>2026-04-03T09:27:54.003Z</time></trkpt><trkpt lat="43.634019631522385" lon="11.266026640148715"><ele>180.0</ele><time>2026-04-03T09:27:55.003Z</time></trkpt><trkpt lat="43.63404443883716" lon="11.266276710790041"><ele>180.0</ele><time>2026-04-03T09:27:56.003Z</time></trkpt><trkpt lat="43.63410734141984" lon="11.266547882113297"><ele>180.0</ele><time>2026-04-03T09:27:57.003Z</time></trkpt><trkpt lat="43.63417247462864" lon="11.266772084885796"><ele>180.5</ele><time>2026-04-03T09:27:58.003Z</time></trkpt><trkpt lat="43.63421171078841" lon="11.266952919505192"><ele>181.0</ele><time>2026-04-03T09:27:59.003Z</time></trkpt><trkpt lat="43.63423779460903" lon="11.26715361716629"><ele>181.5</ele><time>2026-04-03T09:28:00.003Z</time></trkpt><trkpt lat="43.63425204192623" lon="11.267338049533087"><ele>182.0</ele><time>2026-04-03T09:28:01.003Z</time></trkpt><trkpt lat="43.634261073850986" lon="11.267521774661857"><ele>182.0</ele><time>2026-04-03T09:28:02.003Z</time></trkpt><trkpt lat="43.63426252549275" lon="11.267702228981939"><ele>182.0</ele><time>2026-04-03T09:28:03.003Z</time></trkpt><trkpt lat="43.634254654304705" lon="11.267882101994651"><ele>182.0</ele><time>2026-04-03T09:28:04.003Z</time></trkpt><trkpt lat="43.63423960911501" lon="11.268062328642257"><ele>182.0</ele><time>2026-04-03T09:28:05.003Z</time></trkpt><trkpt lat="43.63420619579808" lon="11.268224102310576"><ele>179.5</ele><time>2026-04-03T09:28:06.003Z</time></trkpt><trkpt lat="43.63415466258867" lon="11.268367863182755"><ele>177.0</ele><time>2026-04-03T09:28:07.003Z</time></trkpt><trkpt lat="43.63406615290631" lon="11.268519265291296"><ele>174.5</ele><time>2026-04-03T09:28:08.003Z</time></trkpt><trkpt lat="43.6339251363669" lon="11.268688608200371"><ele>172.0</ele><time>2026-04-03T09:28:09.003Z</time></trkpt><trkpt lat="43.63376151175822" lon="11.268894366573402"><ele>171.5</ele><time>2026-04-03T09:28:10.003Z</time></trkpt><trkpt lat="43.63359787210215" lon="11.269138735066683"><ele>171.0</ele><time>2026-04-03T09:28:11.003Z</time></trkpt><trkpt lat="43.63343982154883" lon="11.26937901289419"><ele>171.0</ele><time>2026-04-03T09:28:12.003Z</time></trkpt><trkpt lat="43.63327728646061" lon="11.26963119007036"><ele>171.0</ele><time>2026-04-03T09:28:13.003Z</time></trkpt><trkpt lat="43.63312192078893" lon="11.269872652419718"><ele>169.66666666666666</ele><time>2026-04-03T09:28:14.003Z</time></trkpt><trkpt lat="43.632981179902856" lon="11.270124359558723"><ele>168.33333333333331</ele><time>2026-04-03T09:28:15.003Z</time></trkpt><trkpt lat="43.63282668728782" lon="11.270320459486001"><ele>167.0</ele><time>2026-04-03T09:28:16.003Z</time></trkpt><trkpt lat="43.63269090576405" lon="11.27051633474328"><ele>164.33333333333331</ele><time>2026-04-03T09:28:17.003Z</time></trkpt><trkpt lat="43.63255333849119" lon="11.270690298300671"><ele>161.66666666666666</ele><time>2026-04-03T09:28:18.003Z</time></trkpt><trkpt lat="43.6324034852589" lon="11.270828812057115"><ele>159.0</ele><time>2026-04-03T09:28:19.003Z</time></trkpt><trkpt lat="43.632250578569504" lon="11.270943706320272"><ele>159.0</ele><time>2026-04-03T09:28:20.003Z</time></trkpt><trkpt lat="43.63210071317411" lon="11.271054237950404"><ele>159.0</ele><time>2026-04-03T09:28:21.003Z</time></trkpt><trkpt lat="43.6319601591469" lon="11.271164898462848"><ele>159.0</ele><time>2026-04-03T09:28:22.002Z</time></trkpt><trkpt lat="43.63183162435945" lon="11.271232538077879"><ele>159.5</ele><time>2026-04-03T09:28:23.002Z</time></trkpt><trkpt lat="43.631733430391925" lon="11.27135018159415"><ele>160.0</ele><time>2026-04-03T09:28:24.002Z</time></trkpt><trkpt lat="43.63166122097305" lon="11.2714906539154"><ele>160.5</ele><time>2026-04-03T09:28:25.002Z</time></trkpt><trkpt lat="43.631602773440875" lon="11.27165255312877"><ele>161.0</ele><time>2026-04-03T09:28:26.001Z</time></trkpt><trkpt lat="43.6315671233232" lon="11.271829546431162"><ele>160.0</ele><time>2026-04-03T09:28:27.001Z</time></trkpt><trkpt lat="43.63155469739664" lon="11.272019787113111"><ele>159.0</ele><time>2026-04-03T09:28:28.002Z</time></trkpt><trkpt lat="43.63157926616345" lon="11.272211087162031"><ele>158.0</ele><time>2026-04-03T09:28:29.002Z</time></trkpt><trkpt lat="43.63162678692008" lon="11.272388994514627"><ele>157.0</ele><time>2026-04-03T09:28:30.002Z</time></trkpt><trkpt lat="43.63169269880737" lon="11.272556496944611"><ele>157.0</ele><time>2026-04-03T09:28:31.001Z</time></trkpt><trkpt lat="43.631773413257775" lon="11.272718382402054"><ele>157.0</ele><time>2026-04-03T09:28:32.001Z</time></trkpt><trkpt lat="43.63185645456454" lon="11.272890546693011"><ele>157.0</ele><time>2026-04-03T09:28:33.001Z</time></trkpt><trkpt lat="43.63194369030673" lon="11.273075387108813"><ele>155.66666666666669</ele><time>2026-04-03T09:28:34.001Z</time></trkpt><trkpt lat="43.63204127903013" lon="11.273278096619142"><ele>154.33333333333334</ele><time>2026-04-03T09:28:35.002Z</time></trkpt><trkpt lat="43.63214960109578" lon="11.273489104725593"><ele>153.0</ele><time>2026-04-03T09:28:36.002Z</time></trkpt><trkpt lat="43.63225754994744" lon="11.273675855726278"><ele>153.0</ele><time>2026-04-03T09:28:37.002Z</time></trkpt><trkpt lat="43.632340944905344" lon="11.273855468213402"><ele>153.0</ele><time>2026-04-03T09:28:38.002Z</time></trkpt><trkpt lat="43.63239276930927" lon="11.274042000245718"><ele>153.0</ele><time>2026-04-03T09:28:39.002Z</time></trkpt><trkpt lat="43.632378183874025" lon="11.274221503356236"><ele>153.0</ele><time>2026-04-03T09:28:40.002Z</time></trkpt><trkpt lat="43.63231109494414" lon="11.27438206765926"><ele>153.66666666666666</ele><time>2026-04-03T09:28:41.002Z</time></trkpt><trkpt lat="43.63221517787726" lon="11.274539775620571"><ele>154.33333333333331</ele><time>2026-04-03T09:28:42.002Z</time></trkpt><trkpt lat="43.63207046317545" lon="11.274641646391204"><ele>155.0</ele><time>2026-04-03T09:28:43.002Z</time></trkpt><trkpt lat="43.63190033386543" lon="11.274708863436599"><ele>155.66666666666666</ele><time>2026-04-03T09:28:44.002Z</time></trkpt><trkpt lat="43.63169438752466" lon="11.274756131952547"><ele>156.33333333333334</ele><time>2026-04-03T09:28:45.002Z</time></trkpt><trkpt lat="43.6314719847713" lon="11.274808717978678"><ele>157.0</ele><time>2026-04-03T09:28:46.002Z</time></trkpt><trkpt lat="43.63124859814588" lon="11.274868102971974"><ele>157.0</ele><time>2026-04-03T09:28:47.002Z</time></trkpt><trkpt lat="43.63101936023938" lon="11.274959704231732"><ele>157.0</ele><time>2026-04-03T09:28:48.002Z</time></trkpt><trkpt lat="43.63078618609514" lon="11.275086551861929"><ele>157.0</ele><time>2026-04-03T09:28:49.002Z</time></trkpt><trkpt lat="43.630558555887276" lon="11.275243575170416"><ele>157.0</ele><time>2026-04-03T09:28:50.002Z</time></trkpt><trkpt lat="43.63033432391422" lon="11.275410742876792"><ele>156.5</ele><time>2026-04-03T09:28:51.002Z</time></trkpt><trkpt lat="43.630105400843846" lon="11.275597594519938"><ele>156.0</ele><time>2026-04-03T09:28:52.002Z</time></trkpt><trkpt lat="43.62987771887566" lon="11.275814290479856"><ele>156.5</ele><time>2026-04-03T09:28:53.002Z</time></trkpt><trkpt lat="43.62966025071924" lon="11.27606196872047"><ele>157.0</ele><time>2026-04-03T09:28:54.002Z</time></trkpt><trkpt lat="43.629470583481115" lon="11.276286980086766"><ele>159.33333333333334</ele><time>2026-04-03T09:28:55.002Z</time></trkpt><trkpt lat="43.629302820338125" lon="11.27647573754454"><ele>161.66666666666666</ele><time>2026-04-03T09:28:56.002Z</time></trkpt><trkpt lat="43.62911874319978" lon="11.276648107218339"><ele>164.0</ele><time>2026-04-03T09:28:57.002Z</time></trkpt><trkpt lat="43.62890877496805" lon="11.276792002378905"><ele>164.0</ele><time>2026-04-03T09:28:58.002Z</time></trkpt><trkpt lat="43.628671749382406" lon="11.276915375310294"><ele>164.0</ele><time>2026-04-03T09:28:59.002Z</time></trkpt><trkpt lat="43.628434438831526" lon="11.277021274363493"><ele>163.0</ele><time>2026-04-03T09:29:00.002Z</time></trkpt><trkpt lat="43.62820863471367" lon="11.277141254178334"><ele>162.0</ele><time>2026-04-03T09:29:01.002Z</time></trkpt><trkpt lat="43.62796992490475" lon="11.277261678699347"><ele>162.0</ele><time>2026-04-03T09:29:02.002Z</time></trkpt><trkpt lat="43.62773208915837" lon="11.277407881826676"><ele>162.0</ele><time>2026-04-03T09:29:03.002Z</time></trkpt><trkpt lat="43.627501447917055" lon="11.277588135650477"><ele>162.0</ele><time>2026-04-03T09:29:04.002Z</time></trkpt><trkpt lat="43.627298001602924" lon="11.27777701503922"><ele>162.0</ele><time>2026-04-03T09:29:05.002Z</time></trkpt><trkpt lat="43.62712940262632" lon="11.277980101629579"><ele>162.0</ele><time>2026-04-03T09:29:06.002Z</time></trkpt><trkpt lat="43.62698209578593" lon="11.278192606844247"><ele>162.0</ele><time>2026-04-03T09:29:07.002Z</time></trkpt><trkpt lat="43.626834290158925" lon="11.278429901452668"><ele>162.0</ele><time>2026-04-03T09:29:08.002Z</time></trkpt><trkpt lat="43.626676839503354" lon="11.278663612463628"><ele>162.0</ele><time>2026-04-03T09:29:09.002Z</time></trkpt><trkpt lat="43.626519550768656" lon="11.278899555913746"><ele>162.0</ele><time>2026-04-03T09:29:10.002Z</time></trkpt><trkpt lat="43.62636563211616" lon="11.279150234099497"><ele>162.5</ele><time>2026-04-03T09:29:11.002Z</time></trkpt><trkpt lat="43.62620822831266" lon="11.279392178100903"><ele>163.0</ele><time>2026-04-03T09:29:12.002Z</time></trkpt><trkpt lat="43.62606080121053" lon="11.279613554548911"><ele>163.33333333333334</ele><time>2026-04-03T09:29:13.002Z</time></trkpt><trkpt lat="43.62594255198825" lon="11.27985903701491"><ele>163.66666666666666</ele><time>2026-04-03T09:29:14.002Z</time></trkpt><trkpt lat="43.62584559082406" lon="11.28009882832007"><ele>164.0</ele><time>2026-04-03T09:29:15.002Z</time></trkpt><trkpt lat="43.625757333209606" lon="11.280335448160235"><ele>164.0</ele><time>2026-04-03T09:29:16.002Z</time></trkpt><trkpt lat="43.62567067107883" lon="11.280544438414244"><ele>164.0</ele><time>2026-04-03T09:29:17.002Z</time></trkpt><trkpt lat="43.62559355718589" lon="11.280726962062488"><ele>164.0</ele><time>2026-04-03T09:29:18.002Z</time></trkpt><trkpt lat="43.62551669849315" lon="11.28089716200913"><ele>164.0</ele><time>2026-04-03T09:29:19.002Z</time></trkpt><trkpt lat="43.62545101205377" lon="11.281057502405861"><ele>164.0</ele><time>2026-04-03T09:29:20.003Z</time></trkpt><trkpt lat="43.62539048014729" lon="11.281214934698392"><ele>164.0</ele><time>2026-04-03T09:29:21.003Z</time></trkpt><trkpt lat="43.6253274482129" lon="11.281359429095126"><ele>164.0</ele><time>2026-04-03T09:29:22.003Z</time></trkpt><trkpt lat="43.625265126558745" lon="11.281495267260315"><ele>164.0</ele><time>2026-04-03T09:29:23.003Z</time></trkpt><trkpt lat="43.6252083283218" lon="11.281615462884107"><ele>164.0</ele><time>2026-04-03T09:29:24.003Z</time></trkpt><trkpt lat="43.625152773048846" lon="11.2817368214367"><ele>164.0</ele><time>2026-04-03T09:29:25.003Z</time></trkpt><trkpt lat="43.62510641358776" lon="11.281850275928639"><ele>164.0</ele><time>2026-04-03T09:29:26.003Z</time></trkpt><trkpt lat="43.62506211728054" lon="11.281954957432461"><ele>164.0</ele><time>2026-04-03T09:29:27.003Z</time></trkpt><trkpt lat="43.62501173900563" lon="11.282061985788209"><ele>164.0</ele><time>2026-04-03T09:29:28.003Z</time></trkpt><trkpt lat="43.624959682181476" lon="11.282173824458665"><ele>164.0</ele><time>2026-04-03T09:29:29.003Z</time></trkpt><trkpt lat="43.62491102006087" lon="11.282292450061652"><ele>164.0</ele><time>2026-04-03T09:29:30.003Z</time></trkpt><trkpt lat="43.62485327070126" lon="11.28242676775323"><ele>164.0</ele><time>2026-04-03T09:29:31.003Z</time></trkpt><trkpt lat="43.624787018632325" lon="11.282560950610932"><ele>164.0</ele><time>2026-04-03T09:29:32.003Z</time></trkpt><trkpt lat="43.62472202081003" lon="11.282699414694921"><ele>164.5</ele><time>2026-04-03T09:29:33.003Z</time></trkpt><trkpt lat="43.62465663768622" lon="11.282850067198842"><ele>165.0</ele><time>2026-04-03T09:29:34.003Z</time></trkpt><trkpt lat="43.62458736445765" lon="11.283010478269244"><ele>165.5</ele><time>2026-04-03T09:29:35.003Z</time></trkpt><trkpt lat="43.6245132203645" lon="11.283180339850972"><ele>166.0</ele><time>2026-04-03T09:29:36.003Z</time></trkpt><trkpt lat="43.62443332988754" lon="11.283371375876655"><ele>166.66666666666669</ele><time>2026-04-03T09:29:37.003Z</time></trkpt><trkpt lat="43.62433937323071" lon="11.283559420219373"><ele>167.33333333333334</ele><time>2026-04-03T09:29:38.003Z</time></trkpt><trkpt lat="43.62425176811482" lon="11.283758999008178"><ele>168.0</ele><time>2026-04-03T09:29:39.003Z</time></trkpt><trkpt lat="43.62415975011774" lon="11.283965907327433"><ele>169.33333333333334</ele><time>2026-04-03T09:29:40.003Z</time></trkpt><trkpt lat="43.62406045607157" lon="11.284172493244515"><ele>170.66666666666669</ele><time>2026-04-03T09:29:41.003Z</time></trkpt><trkpt lat="43.62393058456736" lon="11.284359975215352"><ele>172.0</ele><time>2026-04-03T09:29:42.003Z</time></trkpt><trkpt lat="43.623792704177625" lon="11.284490747659268"><ele>171.0</ele><time>2026-04-03T09:29:43.003Z</time></trkpt><trkpt lat="43.62362501227096" lon="11.284581497754864"><ele>170.0</ele><time>2026-04-03T09:29:44.003Z</time></trkpt><trkpt lat="43.62344389389361" lon="11.28465832342401"><ele>169.0</ele><time>2026-04-03T09:29:45.003Z</time></trkpt><trkpt lat="43.62326109698931" lon="11.28477935313985"><ele>172.0</ele><time>2026-04-03T09:29:46.003Z</time></trkpt><trkpt lat="43.62308055071688" lon="11.284965636532235"><ele>175.0</ele><time>2026-04-03T09:29:47.003Z</time></trkpt><trkpt lat="43.62287960284864" lon="11.285169013031016"><ele>175.5</ele><time>2026-04-03T09:29:48.003Z</time></trkpt><trkpt lat="43.62269056521928" lon="11.285398945716288"><ele>176.0</ele><time>2026-04-03T09:29:49.003Z</time></trkpt><trkpt lat="43.62252199848061" lon="11.285600780371514"><ele>176.0</ele><time>2026-04-03T09:29:50.003Z</time></trkpt><trkpt lat="43.62235937663167" lon="11.28575882311906"><ele>176.0</ele><time>2026-04-03T09:29:51.003Z</time></trkpt><trkpt lat="43.622197194004684" lon="11.28588616169595"><ele>176.0</ele><time>2026-04-03T09:29:52.003Z</time></trkpt><trkpt lat="43.6220323741299" lon="11.2859593943831"><ele>174.33333333333331</ele><time>2026-04-03T09:29:53.003Z</time></trkpt><trkpt lat="43.6218551286956" lon="11.286002992961437"><ele>172.66666666666666</ele><time>2026-04-03T09:29:54.003Z</time></trkpt><trkpt lat="43.62167918197777" lon="11.286054451347656"><ele>171.0</ele><time>2026-04-03T09:29:55.003Z</time></trkpt><trkpt lat="43.62150187195907" lon="11.28611090510626"><ele>171.0</ele><time>2026-04-03T09:29:56.003Z</time></trkpt><trkpt lat="43.62131363252706" lon="11.286156934788814"><ele>171.0</ele><time>2026-04-03T09:29:57.003Z</time></trkpt><trkpt lat="43.62111018116468" lon="11.286191289187952"><ele>171.0</ele><time>2026-04-03T09:29:58.003Z</time></trkpt><trkpt lat="43.62089957256888" lon="11.28621174554963"><ele>171.33333333333334</ele><time>2026-04-03T09:29:59.003Z</time></trkpt><trkpt lat="43.620714969376195" lon="11.286239198247925"><ele>171.66666666666669</ele><time>2026-04-03T09:30:00.003Z</time></trkpt><trkpt lat="43.62054092388456" lon="11.286283570974447"><ele>172.0</ele><time>2026-04-03T09:30:01.003Z</time></trkpt><trkpt lat="43.620378763559124" lon="11.28638141398007"><ele>173.33333333333334</ele><time>2026-04-03T09:30:02.003Z</time></trkpt><trkpt lat="43.620231764299824" lon="11.286517094714673"><ele>174.66666666666666</ele><time>2026-04-03T09:30:03.003Z</time></trkpt><trkpt lat="43.62010536954397" lon="11.286679349766866"><ele>176.0</ele><time>2026-04-03T09:30:04.003Z</time></trkpt><trkpt lat="43.61998294771896" lon="11.286894479379766"><ele>176.0</ele><time>2026-04-03T09:30:05.003Z</time></trkpt><trkpt lat="43.61984947403639" lon="11.28716360389812"><ele>176.0</ele><time>2026-04-03T09:30:06.003Z</time></trkpt><trkpt lat="43.61970763852965" lon="11.287445955128083"><ele>175.0</ele><time>2026-04-03T09:30:07.003Z</time></trkpt><trkpt lat="43.61956941981077" lon="11.287754271691172"><ele>174.0</ele><time>2026-04-03T09:30:08.003Z</time></trkpt><trkpt lat="43.619432337292906" lon="11.288059345954052"><ele>176.5</ele><time>2026-04-03T09:30:09.003Z</time></trkpt><trkpt lat="43.61929996410972" lon="11.288395308451165"><ele>179.0</ele><time>2026-04-03T09:30:10.003Z</time></trkpt><trkpt lat="43.61918037590646" lon="11.28874993401836"><ele>182.0</ele><time>2026-04-03T09:30:11.003Z</time></trkpt><trkpt lat="43.6190726533446" lon="11.289114630694309"><ele>185.0</ele><time>2026-04-03T09:30:12.003Z</time></trkpt><trkpt lat="43.61898322162214" lon="11.289499224296268"><ele>187.0</ele><time>2026-04-03T09:30:13.003Z</time></trkpt><trkpt lat="43.61893387667578" lon="11.289854770727505"><ele>189.0</ele><time>2026-04-03T09:30:14.003Z</time></trkpt><trkpt lat="43.61888525260789" lon="11.29016806727915"><ele>189.0</ele><time>2026-04-03T09:30:15.003Z</time></trkpt><trkpt lat="43.61884504935174" lon="11.29043930636687"><ele>189.0</ele><time>2026-04-03T09:30:16.003Z</time></trkpt><trkpt lat="43.618803627033124" lon="11.290684797987746"><ele>189.0</ele><time>2026-04-03T09:30:17.004Z</time></trkpt><trkpt lat="43.61875921381757" lon="11.290936544253073"><ele>190.33333333333331</ele><time>2026-04-03T09:30:18.004Z</time></trkpt><trkpt lat="43.6187084734506" lon="11.291197412533451"><ele>191.66666666666666</ele><time>2026-04-03T09:30:19.004Z</time></trkpt><trkpt lat="43.618638809899736" lon="11.291481098959457"><ele>193.0</ele><time>2026-04-03T09:30:20.004Z</time></trkpt><trkpt lat="43.61855430674038" lon="11.291779658243579"><ele>191.0</ele><time>2026-04-03T09:30:21.004Z</time></trkpt><trkpt lat="43.61848438629531" lon="11.29205720828865"><ele>189.0</ele><time>2026-04-03T09:30:22.004Z</time></trkpt><trkpt lat="43.61844632390362" lon="11.292291493197101"><ele>187.0</ele><time>2026-04-03T09:30:23.004Z</time></trkpt><trkpt lat="43.61842332070937" lon="11.292509852483072"><ele>187.0</ele><time>2026-04-03T09:30:24.004Z</time></trkpt><trkpt lat="43.61843637823635" lon="11.2927334119301"><ele>187.0</ele><time>2026-04-03T09:30:25.004Z</time></trkpt><trkpt lat="43.61848587373679" lon="11.292965626211947"><ele>187.0</ele><time>2026-04-03T09:30:26.004Z</time></trkpt><trkpt lat="43.61856680321864" lon="11.293217582414448"><ele>191.0</ele><time>2026-04-03T09:30:27.004Z</time></trkpt><trkpt lat="43.61871359456502" lon="11.29348367982502"><ele>195.0</ele><time>2026-04-03T09:30:28.002Z</time></trkpt><trkpt lat="43.61884036650743" lon="11.293761344199394"><ele>194.66666666666669</ele><time>2026-04-03T09:30:29.002Z</time></trkpt><trkpt lat="43.61895845310406" lon="11.294033479722106"><ele>194.33333333333334</ele><time>2026-04-03T09:30:30.002Z</time></trkpt><trkpt lat="43.61905165754441" lon="11.294265741713868"><ele>194.0</ele><time>2026-04-03T09:30:31.002Z</time></trkpt><trkpt lat="43.61913494804336" lon="11.294454098633258"><ele>194.0</ele><time>2026-04-03T09:30:32.002Z</time></trkpt><trkpt lat="43.61923587287407" lon="11.294623598529007"><ele>194.0</ele><time>2026-04-03T09:30:33.002Z</time></trkpt><trkpt lat="43.61938251152812" lon="11.294743705497567"><ele>194.0</ele><time>2026-04-03T09:30:34.002Z</time></trkpt><trkpt lat="43.61955107576904" lon="11.294863181834414"><ele>196.33333333333334</ele><time>2026-04-03T09:30:35.002Z</time></trkpt><trkpt lat="43.6197046596298" lon="11.294983350167893"><ele>198.66666666666669</ele><time>2026-04-03T09:30:36.002Z</time></trkpt><trkpt lat="43.61982377126479" lon="11.295108822514043"><ele>201.0</ele><time>2026-04-03T09:30:37.002Z</time></trkpt><trkpt lat="43.61989010522978" lon="11.295283373394408"><ele>201.0</ele><time>2026-04-03T09:30:38.002Z</time></trkpt><trkpt lat="43.61994078678637" lon="11.295530743393744"><ele>201.0</ele><time>2026-04-03T09:30:39.002Z</time></trkpt><trkpt lat="43.620038852098745" lon="11.295791469192325"><ele>201.0</ele><time>2026-04-03T09:30:40.002Z</time></trkpt><trkpt lat="43.62013365885867" lon="11.296060357566029"><ele>201.66666666666669</ele><time>2026-04-03T09:30:41.002Z</time></trkpt><trkpt lat="43.62021930309962" lon="11.296324132726271"><ele>202.33333333333334</ele><time>2026-04-03T09:30:42.002Z</time></trkpt><trkpt lat="43.62027611835056" lon="11.296596490364905"><ele>203.0</ele><time>2026-04-03T09:30:43.002Z</time></trkpt><trkpt lat="43.62031439424659" lon="11.296851393380779"><ele>204.4</ele><time>2026-04-03T09:30:44.002Z</time></trkpt><trkpt lat="43.620350775947806" lon="11.29705141452291"><ele>205.8</ele><time>2026-04-03T09:30:45.002Z</time></trkpt><trkpt lat="43.62036684530783" lon="11.297175158350116"><ele>207.2</ele><time>2026-04-03T09:30:46.002Z</time></trkpt><trkpt lat="43.62034143779623" lon="11.297269806864994"><ele>208.6</ele><time>2026-04-03T09:30:47.002Z</time></trkpt><trkpt lat="43.620247719708686" lon="11.297344668321259"><ele>210.0</ele><time>2026-04-03T09:30:48.002Z</time></trkpt><trkpt lat="43.62015302515407" lon="11.297376931125376"><ele>210.0</ele><time>2026-04-03T09:30:49.002Z</time></trkpt><trkpt lat="43.62005595144976" lon="11.297388895938608"><ele>210.0</ele><time>2026-04-03T09:30:50.002Z</time></trkpt><trkpt lat="43.61992419162095" lon="11.297295714323838"><ele>210.0</ele><time>2026-04-03T09:30:51.002Z</time></trkpt><trkpt lat="43.61977926730469" lon="11.297181763289274"><ele>210.0</ele><time>2026-04-03T09:30:52.002Z</time></trkpt><trkpt lat="43.61969354960727" lon="11.297033878761576"><ele>209.0</ele><time>2026-04-03T09:30:53.002Z</time></trkpt><trkpt lat="43.61963833667933" lon="11.296828500193852"><ele>208.0</ele><time>2026-04-03T09:30:54.002Z</time></trkpt><trkpt lat="43.61952350895908" lon="11.296641562276706"><ele>207.0</ele><time>2026-04-03T09:30:55.002Z</time></trkpt><trkpt lat="43.619402980492374" lon="11.296547879316098"><ele>207.0</ele><time>2026-04-03T09:30:56.002Z</time></trkpt><trkpt lat="43.619263287561715" lon="11.296488696039944"><ele>207.0</ele><time>2026-04-03T09:30:57.002Z</time></trkpt><trkpt lat="43.61910733236471" lon="11.296438147939469"><ele>207.0</ele><time>2026-04-03T09:30:58.002Z</time></trkpt><trkpt lat="43.618921389362896" lon="11.29641873749153"><ele>207.0</ele><time>2026-04-03T09:30:59.002Z</time></trkpt><trkpt lat="43.61870577706695" lon="11.296394916966456"><ele>207.0</ele><time>2026-04-03T09:31:00.002Z</time></trkpt><trkpt lat="43.618515335538014" lon="11.296238336651594"><ele>207.0</ele><time>2026-04-03T09:31:01.002Z</time></trkpt><trkpt lat="43.61833634399553" lon="11.296083524294495"><ele>209.33333333333331</ele><time>2026-04-03T09:31:02.002Z</time></trkpt><trkpt lat="43.61818721724823" lon="11.29596535504696"><ele>211.66666666666666</ele><time>2026-04-03T09:31:03.002Z</time></trkpt><trkpt lat="43.61804200800179" lon="11.295906054878374"><ele>214.0</ele><time>2026-04-03T09:31:04.002Z</time></trkpt><trkpt lat="43.61791221568228" lon="11.295859449583906"><ele>216.0</ele><time>2026-04-03T09:31:05.002Z</time></trkpt><trkpt lat="43.61775370636744" lon="11.295873847226744"><ele>218.0</ele><time>2026-04-03T09:31:06.002Z</time></trkpt><trkpt lat="43.61757821153675" lon="11.295909273312919"><ele>220.0</ele><time>2026-04-03T09:31:07.002Z</time></trkpt><trkpt lat="43.6173791907489" lon="11.295949908250941"><ele>220.0</ele><time>2026-04-03T09:31:08.002Z</time></trkpt><trkpt lat="43.61715755969135" lon="11.296004670943818"><ele>220.0</ele><time>2026-04-03T09:31:09.002Z</time></trkpt><trkpt lat="43.61694260511996" lon="11.296053564864087"><ele>220.0</ele><time>2026-04-03T09:31:10.002Z</time></trkpt><trkpt lat="43.61675961481338" lon="11.296124437442574"><ele>219.66666666666666</ele><time>2026-04-03T09:31:11.002Z</time></trkpt><trkpt lat="43.61659121727245" lon="11.296226385712439"><ele>219.33333333333331</ele><time>2026-04-03T09:31:12.002Z</time></trkpt><trkpt lat="43.61645592645929" lon="11.296420844500533"><ele>219.0</ele><time>2026-04-03T09:31:13.002Z</time></trkpt><trkpt lat="43.61628821288216" lon="11.296635807990363"><ele>221.0</ele><time>2026-04-03T09:31:14.002Z</time></trkpt><trkpt lat="43.61613020962449" lon="11.296890415661286"><ele>223.0</ele><time>2026-04-03T09:31:15.002Z</time></trkpt><trkpt lat="43.61595039730075" lon="11.297118685536596"><ele>229.0</ele><time>2026-04-03T09:31:16.002Z</time></trkpt><trkpt lat="43.61575018498425" lon="11.297273941744496"><ele>235.0</ele><time>2026-04-03T09:31:17.003Z</time></trkpt><trkpt lat="43.61551921148805" lon="11.297368769550467"><ele>235.0</ele><time>2026-04-03T09:31:18.003Z</time></trkpt><trkpt lat="43.61527972752031" lon="11.297461134060262"><ele>235.0</ele><time>2026-04-03T09:31:19.003Z</time></trkpt><trkpt lat="43.61502936363748" lon="11.297557207485905"><ele>235.0</ele><time>2026-04-03T09:31:20.003Z</time></trkpt><trkpt lat="43.61477529424604" lon="11.297658294326343"><ele>235.0</ele><time>2026-04-03T09:31:21.003Z</time></trkpt><trkpt lat="43.614534291894834" lon="11.297756086709368"><ele>235.33333333333331</ele><time>2026-04-03T09:31:22.003Z</time></trkpt><trkpt lat="43.61431465844411" lon="11.29782892092707"><ele>235.66666666666669</ele><time>2026-04-03T09:31:23.003Z</time></trkpt><trkpt lat="43.6141251618803" lon="11.297878823882213"><ele>236.0</ele><time>2026-04-03T09:31:24.003Z</time></trkpt><trkpt lat="43.61396830616264" lon="11.297883749111042"><ele>236.0</ele><time>2026-04-03T09:31:25.003Z</time></trkpt><trkpt lat="43.613849865632645" lon="11.297921335894086"><ele>236.00000000000003</ele><time>2026-04-03T09:31:26.003Z</time></trkpt><trkpt lat="43.61373065774862" lon="11.29792098607018"><ele>236.00000000000003</ele><time>2026-04-03T09:31:27.003Z</time></trkpt><trkpt lat="43.613642306745284" lon="11.297851989512287"><ele>236.0</ele><time>2026-04-03T09:31:28.003Z</time></trkpt><trkpt lat="43.61354941013939" lon="11.297826716647183"><ele>236.0</ele><time>2026-04-03T09:31:29.003Z</time></trkpt><trkpt lat="43.61345725962595" lon="11.297814672190599"><ele>237.5</ele><time>2026-04-03T09:31:30.003Z</time></trkpt><trkpt lat="43.61334652777981" lon="11.297741396428307"><ele>239.0</ele><time>2026-04-03T09:31:31.003Z</time></trkpt><trkpt lat="43.613218843498366" lon="11.297763894410627"><ele>240.5</ele><time>2026-04-03T09:31:32.003Z</time></trkpt><trkpt lat="43.6131115807203" lon="11.29783271998983"><ele>242.0</ele><time>2026-04-03T09:31:33.003Z</time></trkpt><trkpt lat="43.61303677386098" lon="11.29794347084231"><ele>242.0</ele><time>2026-04-03T09:31:34.003Z</time></trkpt><trkpt lat="43.612991175869396" lon="11.298079841161513"><ele>242.0</ele><time>2026-04-03T09:31:35.003Z</time></trkpt><trkpt lat="43.61295624621115" lon="11.298238562091571"><ele>242.0</ele><time>2026-04-03T09:31:36.003Z</time></trkpt><trkpt lat="43.613003160549745" lon="11.298434668985054"><ele>242.0</ele><time>2026-04-03T09:31:37.003Z</time></trkpt><trkpt lat="43.613100440857586" lon="11.298627844174884"><ele>241.33333333333334</ele><time>2026-04-03T09:31:38.003Z</time></trkpt><trkpt lat="43.613199918594084" lon="11.298823034533603"><ele>240.66666666666669</ele><time>2026-04-03T09:31:39.003Z</time></trkpt><trkpt lat="43.6133097957869" lon="11.29906747895487"><ele>240.0</ele><time>2026-04-03T09:31:40.003Z</time></trkpt><trkpt lat="43.613443157690114" lon="11.299262803204012"><ele>240.0</ele><time>2026-04-03T09:31:41.003Z</time></trkpt><trkpt lat="43.6135569508779" lon="11.299447651138605"><ele>240.0</ele><time>2026-04-03T09:31:42.003Z</time></trkpt><trkpt lat="43.613694326146366" lon="11.299609861281592"><ele>240.0</ele><time>2026-04-03T09:31:43.003Z</time></trkpt><trkpt lat="43.61384157594636" lon="11.299725570314749"><ele>239.5</ele><time>2026-04-03T09:31:44.003Z</time></trkpt><trkpt lat="43.61397394666268" lon="11.299812626967007"><ele>239.0</ele><time>2026-04-03T09:31:45.003Z</time></trkpt><trkpt lat="43.61409352291006" lon="11.299881578358367"><ele>238.5</ele><time>2026-04-03T09:31:46.003Z</time></trkpt><trkpt lat="43.614207461919534" lon="11.299928262613149"><ele>238.0</ele><time>2026-04-03T09:31:47.003Z</time></trkpt><trkpt lat="43.614287353800286" lon="11.299987841968623"><ele>238.0</ele><time>2026-04-03T09:31:48.003Z</time></trkpt><trkpt lat="43.614353500451024" lon="11.300078421603803"><ele>238.0</ele><time>2026-04-03T09:31:49.003Z</time></trkpt><trkpt lat="43.61434925773158" lon="11.300190311863112"><ele>238.0</ele><time>2026-04-03T09:31:50.003Z</time></trkpt><trkpt lat="43.61426384076154" lon="11.300317009926657"><ele>238.0</ele><time>2026-04-03T09:31:51.003Z</time></trkpt><trkpt lat="43.61415767927768" lon="11.300362122084934"><ele>238.0</ele><time>2026-04-03T09:31:52.003Z</time></trkpt><trkpt lat="43.614047655240554" lon="11.300253896418905"><ele>238.0</ele><time>2026-04-03T09:31:53.003Z</time></trkpt><trkpt lat="43.61386024431022" lon="11.300147226947994"><ele>238.0</ele><time>2026-04-03T09:31:54.003Z</time></trkpt><trkpt lat="43.61369893124711" lon="11.300058282659235"><ele>238.0</ele><time>2026-04-03T09:31:55.003Z</time></trkpt><trkpt lat="43.613535397060254" lon="11.299992976066273"><ele>238.66666666666666</ele><time>2026-04-03T09:31:56.003Z</time></trkpt><trkpt lat="43.61336804727495" lon="11.299875277402135"><ele>239.33333333333331</ele><time>2026-04-03T09:31:57.003Z</time></trkpt><trkpt lat="43.613176586945045" lon="11.299775037819318"><ele>240.0</ele><time>2026-04-03T09:31:58.003Z</time></trkpt><trkpt lat="43.61297905059851" lon="11.299663339401144"><ele>236.33333333333331</ele><time>2026-04-03T09:31:59.003Z</time></trkpt><trkpt lat="43.61277211177486" lon="11.299557308065005"><ele>232.66666666666666</ele><time>2026-04-03T09:32:00.003Z</time></trkpt><trkpt lat="43.61256206241432" lon="11.299448857545105"><ele>229.0</ele><time>2026-04-03T09:32:01.003Z</time></trkpt><trkpt lat="43.61236285104693" lon="11.299349358892737"><ele>229.0</ele><time>2026-04-03T09:32:02.003Z</time></trkpt><trkpt lat="43.612213853228894" lon="11.299259316382917"><ele>229.0</ele><time>2026-04-03T09:32:03.003Z</time></trkpt><trkpt lat="43.612088476283155" lon="11.299194906874265"><ele>229.0</ele><time>2026-04-03T09:32:04.003Z</time></trkpt><trkpt lat="43.61195933482851" lon="11.299159729588352"><ele>229.0</ele><time>2026-04-03T09:32:05.003Z</time></trkpt><trkpt lat="43.611837486475395" lon="11.299185312097912"><ele>228.33333333333331</ele><time>2026-04-03T09:32:06.003Z</time></trkpt><trkpt lat="43.61172246567771" lon="11.299269440530393"><ele>227.66666666666669</ele><time>2026-04-03T09:32:07.003Z</time></trkpt><trkpt lat="43.61155406120445" lon="11.299400304130467"><ele>227.0</ele><time>2026-04-03T09:32:08.003Z</time></trkpt><trkpt lat="43.611408676313445" lon="11.299451978530684"><ele>227.0</ele><time>2026-04-03T09:32:09.003Z</time></trkpt><trkpt lat="43.6112824995091" lon="11.299513861240808"><ele>227.0</ele><time>2026-04-03T09:32:10.003Z</time></trkpt><trkpt lat="43.611146887421995" lon="11.299440341615261"><ele>227.0</ele><time>2026-04-03T09:32:11.003Z</time></trkpt><trkpt lat="43.610999690121695" lon="11.299392976536227"><ele>227.0</ele><time>2026-04-03T09:32:12.003Z</time></trkpt><trkpt lat="43.61087739430719" lon="11.299345310606796"><ele>225.33333333333334</ele><time>2026-04-03T09:32:13.003Z</time></trkpt><trkpt lat="43.61071967884838" lon="11.299380751457953"><ele>223.66666666666669</ele><time>2026-04-03T09:32:14.004Z</time></trkpt><trkpt lat="43.61056679297542" lon="11.299472800172282"><ele>222.0</ele><time>2026-04-03T09:32:15.004Z</time></trkpt><trkpt lat="43.6104401899552" lon="11.299572900057406"><ele>222.25</ele><time>2026-04-03T09:32:16.004Z</time></trkpt><trkpt lat="43.6103083398821" lon="11.299643821729358"><ele>222.5</ele><time>2026-04-03T09:32:17.004Z</time></trkpt><trkpt lat="43.610178626247006" lon="11.299720248112118"><ele>222.75</ele><time>2026-04-03T09:32:18.004Z</time></trkpt><trkpt lat="43.61005524823274" lon="11.299805501341973"><ele>223.0</ele><time>2026-04-03T09:32:19.004Z</time></trkpt><trkpt lat="43.60994819388001" lon="11.299875366820325"><ele>220.0</ele><time>2026-04-03T09:32:20.004Z</time></trkpt><trkpt lat="43.6098393095287" lon="11.299919855532538"><ele>217.0</ele><time>2026-04-03T09:32:21.004Z</time></trkpt><trkpt lat="43.60972062060217" lon="11.299920391558532"><ele>214.0</ele><time>2026-04-03T09:32:22.004Z</time></trkpt><trkpt lat="43.609599647743316" lon="11.299901003076828"><ele>211.0</ele><time>2026-04-03T09:32:23.004Z</time></trkpt><trkpt lat="43.609469533178505" lon="11.299867438465492"><ele>211.8</ele><time>2026-04-03T09:32:24.004Z</time></trkpt><trkpt lat="43.60935932938895" lon="11.299824555114792"><ele>212.60000000000002</ele><time>2026-04-03T09:32:25.004Z</time></trkpt><trkpt lat="43.60926064219161" lon="11.299776253967519"><ele>213.4</ele><time>2026-04-03T09:32:26.004Z</time></trkpt><trkpt lat="43.60916032590299" lon="11.299735695624138"><ele>214.2</ele><time>2026-04-03T09:32:27.004Z</time></trkpt><trkpt lat="43.60906313040196" lon="11.299700083568156"><ele>215.0</ele><time>2026-04-03T09:32:28.004Z</time></trkpt><trkpt lat="43.608971987804665" lon="11.29967748101248"><ele>215.0</ele><time>2026-04-03T09:32:29.004Z</time></trkpt><trkpt lat="43.60887548980663" lon="11.299698126618651"><ele>215.0</ele><time>2026-04-03T09:32:30.004Z</time></trkpt><trkpt lat="43.60877622309052" lon="11.299738668431075"><ele>215.0</ele><time>2026-04-03T09:32:31.004Z</time></trkpt><trkpt lat="43.60870522191509" lon="11.29981973355537"><ele>215.0</ele><time>2026-04-03T09:32:32.004Z</time></trkpt><trkpt lat="43.608632745855544" lon="11.299936838580335"><ele>215.0</ele><time>2026-04-03T09:32:33.004Z</time></trkpt><trkpt lat="43.608544535754426" lon="11.3000939749918"><ele>212.66666666666669</ele><time>2026-04-03T09:32:34.003Z</time></trkpt><trkpt lat="43.60843783183215" lon="11.300286353614425"><ele>210.33333333333331</ele><time>2026-04-03T09:32:35.002Z</time></trkpt><trkpt lat="43.60831273734218" lon="11.300519850714071"><ele>208.0</ele><time>2026-04-03T09:32:36.002Z</time></trkpt><trkpt lat="43.60820364969646" lon="11.30073132526346"><ele>208.0</ele><time>2026-04-03T09:32:37.002Z</time></trkpt><trkpt lat="43.608111169540855" lon="11.300887928744267"><ele>208.0</ele><time>2026-04-03T09:32:38.002Z</time></trkpt><trkpt lat="43.60807389713569" lon="11.301033558582596"><ele>208.0</ele><time>2026-04-03T09:32:39.002Z</time></trkpt><trkpt lat="43.608032129457364" lon="11.301197557692419"><ele>208.0</ele><time>2026-04-03T09:32:40.002Z</time></trkpt><trkpt lat="43.60798188770124" lon="11.30135765695085"><ele>209.5</ele><time>2026-04-03T09:32:41.003Z</time></trkpt><trkpt lat="43.60794722703045" lon="11.301515691916487"><ele>211.0</ele><time>2026-04-03T09:32:42.003Z</time></trkpt><trkpt lat="43.60791803949947" lon="11.3016723124879"><ele>212.5</ele><time>2026-04-03T09:32:43.002Z</time></trkpt><trkpt lat="43.60789961659458" lon="11.301821016066981"><ele>214.0</ele><time>2026-04-03T09:32:44.002Z</time></trkpt><trkpt lat="43.60788284844934" lon="11.30197699425943"><ele>214.0</ele><time>2026-04-03T09:32:45.002Z</time></trkpt><trkpt lat="43.607868355575285" lon="11.302117450055187"><ele>213.99999999999997</ele><time>2026-04-03T09:32:46.003Z</time></trkpt><trkpt lat="43.607866245635456" lon="11.302257209842166"><ele>213.99999999999997</ele><time>2026-04-03T09:32:47.002Z</time></trkpt><trkpt lat="43.60783644859655" lon="11.302406699759555"><ele>214.0</ele><time>2026-04-03T09:32:48.002Z</time></trkpt><trkpt lat="43.60778216046588" lon="11.302555806584506"><ele>214.0</ele><time>2026-04-03T09:32:49.002Z</time></trkpt><trkpt lat="43.607718749824386" lon="11.302728066879688"><ele>212.33333333333331</ele><time>2026-04-03T09:32:50.002Z</time></trkpt><trkpt lat="43.60761425611892" lon="11.3028970960931"><ele>210.66666666666669</ele><time>2026-04-03T09:32:51.003Z</time></trkpt><trkpt lat="43.60752218431075" lon="11.30309623627095"><ele>209.0</ele><time>2026-04-03T09:32:52.003Z</time></trkpt><trkpt lat="43.60740385180996" lon="11.303284002679781"><ele>209.0</ele><time>2026-04-03T09:32:53.003Z</time></trkpt><trkpt lat="43.6072858009262" lon="11.303490318912834"><ele>209.0</ele><time>2026-04-03T09:32:54.003Z</time></trkpt><trkpt lat="43.607149995140155" lon="11.303751339792788"><ele>209.0</ele><time>2026-04-03T09:32:55.003Z</time></trkpt><trkpt lat="43.60700223718709" lon="11.304032961430245"><ele>209.0</ele><time>2026-04-03T09:32:56.003Z</time></trkpt><trkpt lat="43.60686901522979" lon="11.304292111638201"><ele>209.0</ele><time>2026-04-03T09:32:57.003Z</time></trkpt><trkpt lat="43.60674676437408" lon="11.304509347949072"><ele>209.0</ele><time>2026-04-03T09:32:58.003Z</time></trkpt><trkpt lat="43.606613164329914" lon="11.304686526778994"><ele>211.33333333333334</ele><time>2026-04-03T09:32:59.003Z</time></trkpt><trkpt lat="43.60646663782396" lon="11.30481890536027"><ele>213.66666666666669</ele><time>2026-04-03T09:33:00.003Z</time></trkpt><trkpt lat="43.606305684105784" lon="11.304937617483407"><ele>216.0</ele><time>2026-04-03T09:33:01.003Z</time></trkpt><trkpt lat="43.60616546829805" lon="11.305057866572357"><ele>213.33333333333331</ele><time>2026-04-03T09:33:02.003Z</time></trkpt><trkpt lat="43.60603474521741" lon="11.305164189184744"><ele>210.66666666666666</ele><time>2026-04-03T09:33:03.003Z</time></trkpt><trkpt lat="43.605900409016215" lon="11.305286118166322"><ele>208.0</ele><time>2026-04-03T09:33:04.003Z</time></trkpt><trkpt lat="43.60575195576795" lon="11.305409356212868"><ele>208.0</ele><time>2026-04-03T09:33:05.003Z</time></trkpt><trkpt lat="43.605605679721336" lon="11.305531418182756"><ele>208.0</ele><time>2026-04-03T09:33:06.003Z</time></trkpt><trkpt lat="43.605463169342435" lon="11.305652664896169"><ele>208.0</ele><time>2026-04-03T09:33:07.003Z</time></trkpt><trkpt lat="43.6053102819397" lon="11.305786321385682"><ele>208.0</ele><time>2026-04-03T09:33:08.003Z</time></trkpt><trkpt lat="43.60514475973326" lon="11.305927288672402"><ele>208.0</ele><time>2026-04-03T09:33:09.003Z</time></trkpt><trkpt lat="43.604961636341514" lon="11.30608196058475"><ele>208.0</ele><time>2026-04-03T09:33:10.003Z</time></trkpt><trkpt lat="43.604764207378956" lon="11.306245561314421"><ele>208.0</ele><time>2026-04-03T09:33:11.003Z</time></trkpt><trkpt lat="43.60458013209265" lon="11.306398442032307"><ele>208.0</ele><time>2026-04-03T09:33:12.003Z</time></trkpt><trkpt lat="43.604410636083166" lon="11.306542416155466"><ele>208.0</ele><time>2026-04-03T09:33:13.003Z</time></trkpt><trkpt lat="43.6042827461845" lon="11.306675158836729"><ele>208.25</ele><time>2026-04-03T09:33:14.003Z</time></trkpt><trkpt lat="43.60419361315048" lon="11.306829694849416"><ele>208.5</ele><time>2026-04-03T09:33:15.003Z</time></trkpt><trkpt lat="43.604127961210814" lon="11.306995296641723"><ele>208.75</ele><time>2026-04-03T09:33:16.003Z</time></trkpt><trkpt lat="43.604099047868274" lon="11.307191835040555"><ele>209.0</ele><time>2026-04-03T09:33:17.003Z</time></trkpt><trkpt lat="43.60410191321862" lon="11.307450274536624"><ele>210.66666666666669</ele><time>2026-04-03T09:33:18.003Z</time></trkpt><trkpt lat="43.60411697748759" lon="11.307721115734859"><ele>212.33333333333331</ele><time>2026-04-03T09:33:19.003Z</time></trkpt><trkpt lat="43.6041185061575" lon="11.307989645655898"><ele>214.0</ele><time>2026-04-03T09:33:20.003Z</time></trkpt><trkpt lat="43.60411913351726" lon="11.308252246664333"><ele>214.66666666666666</ele><time>2026-04-03T09:33:21.003Z</time></trkpt><trkpt lat="43.604102115184176" lon="11.308476117403256"><ele>215.33333333333331</ele><time>2026-04-03T09:33:22.003Z</time></trkpt><trkpt lat="43.60403719410063" lon="11.308672469273908"><ele>216.0</ele><time>2026-04-03T09:33:23.003Z</time></trkpt><trkpt lat="43.60395789780803" lon="11.308865020817784"><ele>216.0</ele><time>2026-04-03T09:33:24.003Z</time></trkpt><trkpt lat="43.60387055521527" lon="11.309055143844471"><ele>216.0</ele><time>2026-04-03T09:33:25.003Z</time></trkpt><trkpt lat="43.60375448592724" lon="11.309178599766021"><ele>216.0</ele><time>2026-04-03T09:33:26.003Z</time></trkpt><trkpt lat="43.60362642663537" lon="11.309304080074973"><ele>215.0</ele><time>2026-04-03T09:33:27.003Z</time></trkpt><trkpt lat="43.60346513205909" lon="11.30940236912995"><ele>214.0</ele><time>2026-04-03T09:33:28.003Z</time></trkpt><trkpt lat="43.603293925858495" lon="11.309493582757192"><ele>213.0</ele><time>2026-04-03T09:33:29.003Z</time></trkpt><trkpt lat="43.60309649374806" lon="11.309596801520476"><ele>213.0</ele><time>2026-04-03T09:33:30.003Z</time></trkpt><trkpt lat="43.60287360003786" lon="11.309717351177444"><ele>213.0</ele><time>2026-04-03T09:33:31.003Z</time></trkpt><trkpt lat="43.60266677765477" lon="11.309837494155353"><ele>213.5</ele><time>2026-04-03T09:33:32.003Z</time></trkpt><trkpt lat="43.6024488909429" lon="11.309946408175866"><ele>214.0</ele><time>2026-04-03T09:33:33.003Z</time></trkpt><trkpt lat="43.60224234862286" lon="11.310065144852025"><ele>214.0</ele><time>2026-04-03T09:33:34.003Z</time></trkpt><trkpt lat="43.60205922159929" lon="11.310165480281093"><ele>214.0</ele><time>2026-04-03T09:33:35.003Z</time></trkpt><trkpt lat="43.60187943034847" lon="11.310267384897813"><ele>214.0</ele><time>2026-04-03T09:33:36.003Z</time></trkpt><trkpt lat="43.60174734375279" lon="11.310339657772127"><ele>213.33333333333331</ele><time>2026-04-03T09:33:37.003Z</time></trkpt><trkpt lat="43.60159834277234" lon="11.310423228715608"><ele>212.66666666666669</ele><time>2026-04-03T09:33:38.003Z</time></trkpt><trkpt lat="43.601441752081804" lon="11.310511026913238"><ele>212.0</ele><time>2026-04-03T09:33:39.003Z</time></trkpt><trkpt lat="43.60128710186558" lon="11.310602054728976"><ele>213.0</ele><time>2026-04-03T09:33:40.003Z</time></trkpt><trkpt lat="43.60112020683438" lon="11.31072129509372"><ele>214.0</ele><time>2026-04-03T09:33:41.003Z</time></trkpt><trkpt lat="43.60093522215983" lon="11.310861586538975"><ele>215.0</ele><time>2026-04-03T09:33:42.003Z</time></trkpt><trkpt lat="43.60076826026281" lon="11.311050245206397"><ele>215.0</ele><time>2026-04-03T09:33:43.003Z</time></trkpt><trkpt lat="43.60063553319583" lon="11.311259911889668"><ele>215.0</ele><time>2026-04-03T09:33:44.003Z</time></trkpt><trkpt lat="43.60053362540229" lon="11.311456744223321"><ele>215.0</ele><time>2026-04-03T09:33:45.003Z</time></trkpt><trkpt lat="43.60044527497237" lon="11.311627364497525"><ele>214.5</ele><time>2026-04-03T09:33:46.003Z</time></trkpt><trkpt lat="43.60034746634482" lon="11.31177568361224"><ele>214.0</ele><time>2026-04-03T09:33:47.003Z</time></trkpt><trkpt lat="43.600266032698215" lon="11.31192441524403"><ele>213.5</ele><time>2026-04-03T09:33:48.004Z</time></trkpt><trkpt lat="43.60017600805836" lon="11.312104768274866"><ele>213.0</ele><time>2026-04-03T09:33:49.004Z</time></trkpt><trkpt lat="43.60006838586985" lon="11.312311623150817"><ele>213.0</ele><time>2026-04-03T09:33:50.004Z</time></trkpt><trkpt lat="43.59993582358498" lon="11.312548234482895"><ele>213.0</ele><time>2026-04-03T09:33:51.004Z</time></trkpt><trkpt lat="43.59979738111286" lon="11.312783690412772"><ele>213.0</ele><time>2026-04-03T09:33:52.004Z</time></trkpt><trkpt lat="43.59965738220936" lon="11.313024558848264"><ele>213.33333333333331</ele><time>2026-04-03T09:33:53.004Z</time></trkpt><trkpt lat="43.599523553871116" lon="11.313261375302805"><ele>213.66666666666666</ele><time>2026-04-03T09:33:54.004Z</time></trkpt><trkpt lat="43.599400946689336" lon="11.313492983949468"><ele>214.0</ele><time>2026-04-03T09:33:55.004Z</time></trkpt><trkpt lat="43.599283123190126" lon="11.31371429977539"><ele>215.0</ele><time>2026-04-03T09:33:56.004Z</time></trkpt><trkpt lat="43.59917160639842" lon="11.313916421019874"><ele>216.0</ele><time>2026-04-03T09:33:57.004Z</time></trkpt><trkpt lat="43.59906947231252" lon="11.314130487136353"><ele>217.0</ele><time>2026-04-03T09:33:58.004Z</time></trkpt><trkpt lat="43.598921539726604" lon="11.314373484659088"><ele>217.0</ele><time>2026-04-03T09:33:59.004Z</time></trkpt><trkpt lat="43.5987686116998" lon="11.314665737480828"><ele>217.0</ele><time>2026-04-03T09:34:00.004Z</time></trkpt><trkpt lat="43.59858822573562" lon="11.314984586126458"><ele>216.66666666666666</ele><time>2026-04-03T09:34:01.004Z</time></trkpt><trkpt lat="43.59852097546882" lon="11.31507848389735"><ele>216.33333333333331</ele><time>2026-04-03T09:34:02.004Z</time></trkpt><trkpt lat="43.5983405326904" lon="11.315416580291172"><ele>216.0</ele><time>2026-04-03T09:34:03.004Z</time></trkpt><trkpt lat="43.5981635158568" lon="11.315742641438575"><ele>216.0</ele><time>2026-04-03T09:34:04.004Z</time></trkpt><trkpt lat="43.59799723647496" lon="11.316034670463774"><ele>216.0</ele><time>2026-04-03T09:34:05.004Z</time></trkpt><trkpt lat="43.59782196651038" lon="11.316244058582464"><ele>216.0</ele><time>2026-04-03T09:34:06.004Z</time></trkpt><trkpt lat="43.59762075799918" lon="11.31639785811212"><ele>216.0</ele><time>2026-04-03T09:34:07.004Z</time></trkpt><trkpt lat="43.597384391356044" lon="11.316556070518487"><ele>217.0</ele><time>2026-04-03T09:34:08.004Z</time></trkpt><trkpt lat="43.597123707190505" lon="11.316728523286251"><ele>218.0</ele><time>2026-04-03T09:34:09.004Z</time></trkpt><trkpt lat="43.59689268850325" lon="11.316859065128451"><ele>218.0</ele><time>2026-04-03T09:34:10.004Z</time></trkpt><trkpt lat="43.596684570218336" lon="11.316926604715785"><ele>218.0</ele><time>2026-04-03T09:34:11.004Z</time></trkpt><trkpt lat="43.596486610970835" lon="11.316941288965225"><ele>218.0</ele><time>2026-04-03T09:34:12.004Z</time></trkpt><trkpt lat="43.5962611156057" lon="11.31690705677107"><ele>218.0</ele><time>2026-04-03T09:34:13.004Z</time></trkpt><trkpt lat="43.59602014935005" lon="11.316831241417272"><ele>218.0</ele><time>2026-04-03T09:34:14.004Z</time></trkpt><trkpt lat="43.595779368887236" lon="11.31674680222149"><ele>218.0</ele><time>2026-04-03T09:34:15.004Z</time></trkpt><trkpt lat="43.59552976475926" lon="11.316668627751014"><ele>218.0</ele><time>2026-04-03T09:34:16.004Z</time></trkpt><trkpt lat="43.5952921243916" lon="11.316627021441622"><ele>220.0</ele><time>2026-04-03T09:34:17.004Z</time></trkpt><trkpt lat="43.59506398160024" lon="11.316643372265627"><ele>222.0</ele><time>2026-04-03T09:34:18.004Z</time></trkpt><trkpt lat="43.59484273433283" lon="11.316691561616473"><ele>222.0</ele><time>2026-04-03T09:34:19.004Z</time></trkpt><trkpt lat="43.59463772489768" lon="11.316660367529813"><ele>222.0</ele><time>2026-04-03T09:34:20.004Z</time></trkpt><trkpt lat="43.594463252089774" lon="11.3165726205143"><ele>222.0</ele><time>2026-04-03T09:34:21.004Z</time></trkpt><trkpt lat="43.594288789218744" lon="11.316460446079976"><ele>221.33333333333331</ele><time>2026-04-03T09:34:22.004Z</time></trkpt><trkpt lat="43.594115967074444" lon="11.316340451651854"><ele>220.66666666666666</ele><time>2026-04-03T09:34:23.004Z</time></trkpt><trkpt lat="43.59397285819554" lon="11.31624108320314"><ele>220.0</ele><time>2026-04-03T09:34:24.004Z</time></trkpt><trkpt lat="43.593857114457734" lon="11.316160701451363"><ele>220.0</ele><time>2026-04-03T09:34:25.004Z</time></trkpt><trkpt lat="43.593745878548724" lon="11.316083676391063"><ele>220.0</ele><time>2026-04-03T09:34:26.004Z</time></trkpt><trkpt lat="43.59363240415411" lon="11.316005124646068"><ele>220.0</ele><time>2026-04-03T09:34:27.004Z</time></trkpt><trkpt lat="43.593516576034105" lon="11.31592494292943"><ele>220.0</ele><time>2026-04-03T09:34:28.004Z</time></trkpt><trkpt lat="43.59339400191292" lon="11.31584153338051"><ele>221.33333333333331</ele><time>2026-04-03T09:34:29.004Z</time></trkpt><trkpt lat="43.59326867067008" lon="11.315763965879336"><ele>222.66666666666669</ele><time>2026-04-03T09:34:30.004Z</time></trkpt><trkpt lat="43.59313055415728" lon="11.315693725379667"><ele>224.0</ele><time>2026-04-03T09:34:31.004Z</time></trkpt><trkpt lat="43.592970042151514" lon="11.315628749569726"><ele>224.66666666666669</ele><time>2026-04-03T09:34:32.004Z</time></trkpt><trkpt lat="43.59281114369353" lon="11.315570829125035"><ele>225.33333333333331</ele><time>2026-04-03T09:34:33.004Z</time></trkpt><trkpt lat="43.59265409439556" lon="11.315529257508468"><ele>226.0</ele><time>2026-04-03T09:34:34.004Z</time></trkpt><trkpt lat="43.59250767831594" lon="11.315453617531706"><ele>225.0</ele><time>2026-04-03T09:34:35.004Z</time></trkpt><trkpt lat="43.592380614443705" lon="11.315379302001963"><ele>224.00000000000003</ele><time>2026-04-03T09:34:36.004Z</time></trkpt><trkpt lat="43.59227319938959" lon="11.315321115706993"><ele>223.00000000000003</ele><time>2026-04-03T09:34:37.004Z</time></trkpt><trkpt lat="43.592192315600485" lon="11.31527395591427"><ele>222.0</ele><time>2026-04-03T09:34:38.004Z</time></trkpt><trkpt lat="43.59212668277345" lon="11.31522158503576"><ele>221.0</ele><time>2026-04-03T09:34:39.004Z</time></trkpt><trkpt lat="43.59206076715706" lon="11.315077822451089"><ele>221.00000000000003</ele><time>2026-04-03T09:34:41.002Z</time></trkpt><trkpt lat="43.592028802212255" lon="11.314997967623038"><ele>221.0</ele><time>2026-04-03T09:34:42.002Z</time></trkpt><trkpt lat="43.59195448756057" lon="11.314965082394759"><ele>221.0</ele><time>2026-04-03T09:34:43.003Z</time></trkpt><trkpt lat="43.591868363200106" lon="11.31496660353817"><ele>221.0</ele><time>2026-04-03T09:34:44.002Z</time></trkpt><trkpt lat="43.591792661260975" lon="11.314943409529196"><ele>221.00000000000003</ele><time>2026-04-03T09:34:45.002Z</time></trkpt><trkpt lat="43.59171610564329" lon="11.314865304710937"><ele>221.0</ele><time>2026-04-03T09:34:46.003Z</time></trkpt><trkpt lat="43.59161853661229" lon="11.314802086007212"><ele>221.0</ele><time>2026-04-03T09:34:47.003Z</time></trkpt><trkpt lat="43.5915101735131" lon="11.31473363731919"><ele>221.0</ele><time>2026-04-03T09:34:48.003Z</time></trkpt><trkpt lat="43.59138085716729" lon="11.314653937468018"><ele>221.0</ele><time>2026-04-03T09:34:49.002Z</time></trkpt><trkpt lat="43.59124295648875" lon="11.314600993069412"><ele>221.0</ele><time>2026-04-03T09:34:50.003Z</time></trkpt><trkpt lat="43.59108725469745" lon="11.314508166742579"><ele>221.33333333333334</ele><time>2026-04-03T09:34:51.003Z</time></trkpt><trkpt lat="43.590919003702375" lon="11.314415273362679"><ele>221.66666666666669</ele><time>2026-04-03T09:34:52.003Z</time></trkpt><trkpt lat="43.590731352120045" lon="11.31434186037122"><ele>222.0</ele><time>2026-04-03T09:34:53.003Z</time></trkpt><trkpt lat="43.59052287408517" lon="11.314313930481687"><ele>222.33333333333331</ele><time>2026-04-03T09:34:54.003Z</time></trkpt><trkpt lat="43.590330131480584" lon="11.314332699309636"><ele>222.66666666666666</ele><time>2026-04-03T09:34:55.003Z</time></trkpt><trkpt lat="43.59016306630078" lon="11.314347626995634"><ele>223.0</ele><time>2026-04-03T09:34:56.003Z</time></trkpt><trkpt lat="43.590037189246566" lon="11.314382900483022"><ele>223.0</ele><time>2026-04-03T09:34:57.003Z</time></trkpt><trkpt lat="43.589947929217" lon="11.314412036381816"><ele>223.0</ele><time>2026-04-03T09:34:59.003Z</time></trkpt><trkpt lat="43.58986200547005" lon="11.314439267603692"><ele>223.0</ele><time>2026-04-03T09:35:22.003Z</time></trkpt><trkpt lat="43.589785312988326" lon="11.314455990813572"><ele>223.0</ele><time>2026-04-03T09:35:23.003Z</time></trkpt><trkpt lat="43.589700437371455" lon="11.314466110023874"><ele>223.0</ele><time>2026-04-03T09:35:24.003Z</time></trkpt><trkpt lat="43.589542174601846" lon="11.31449738727352"><ele>223.5</ele><time>2026-04-03T09:35:25.003Z</time></trkpt><trkpt lat="43.58939718275234" lon="11.314524040468546"><ele>224.0</ele><time>2026-04-03T09:35:26.003Z</time></trkpt><trkpt lat="43.589262418927724" lon="11.314546047234328"><ele>224.5</ele><time>2026-04-03T09:35:27.003Z</time></trkpt><trkpt lat="43.58913934784035" lon="11.31457036304404"><ele>225.0</ele><time>2026-04-03T09:35:28.004Z</time></trkpt><trkpt lat="43.58902242282223" lon="11.314596621743686"><ele>225.0</ele><time>2026-04-03T09:35:29.004Z</time></trkpt><trkpt lat="43.58890381311698" lon="11.314633796111744"><ele>225.0</ele><time>2026-04-03T09:35:30.004Z</time></trkpt><trkpt lat="43.588772468122215" lon="11.314672232003785"><ele>225.0</ele><time>2026-04-03T09:35:31.004Z</time></trkpt><trkpt lat="43.58861845419094" lon="11.314684753248367"><ele>225.0</ele><time>2026-04-03T09:35:32.004Z</time></trkpt><trkpt lat="43.58842098360589" lon="11.3147075849189"><ele>225.66666666666669</ele><time>2026-04-03T09:35:33.004Z</time></trkpt><trkpt lat="43.588208736952495" lon="11.314746483119643"><ele>226.33333333333334</ele><time>2026-04-03T09:35:34.004Z</time></trkpt><trkpt lat="43.588009653064" lon="11.314777787897137"><ele>227.0</ele><time>2026-04-03T09:35:35.004Z</time></trkpt><trkpt lat="43.58780906779799" lon="11.31481377040771"><ele>227.0</ele><time>2026-04-03T09:35:36.004Z</time></trkpt><trkpt lat="43.58761644821302" lon="11.31484864388313"><ele>227.0</ele><time>2026-04-03T09:35:37.004Z</time></trkpt><trkpt lat="43.58744410093609" lon="11.314876304699567"><ele>227.0</ele><time>2026-04-03T09:35:38.004Z</time></trkpt><trkpt lat="43.587280900333354" lon="11.31491703142663"><ele>227.0</ele><time>2026-04-03T09:35:39.004Z</time></trkpt><trkpt lat="43.58712340839649" lon="11.314951048510528"><ele>227.0</ele><time>2026-04-03T09:35:40.004Z</time></trkpt><trkpt lat="43.58696526218682" lon="11.314985970810726"><ele>227.0</ele><time>2026-04-03T09:35:41.004Z</time></trkpt><trkpt lat="43.586803265149925" lon="11.315036534154476"><ele>227.33333333333334</ele><time>2026-04-03T09:35:42.004Z</time></trkpt><trkpt lat="43.58664116358504" lon="11.315074937975272"><ele>227.66666666666669</ele><time>2026-04-03T09:35:43.004Z</time></trkpt><trkpt lat="43.58647066652969" lon="11.315054482058878"><ele>228.0</ele><time>2026-04-03T09:35:44.004Z</time></trkpt><trkpt lat="43.58629050862783" lon="11.315089208813305"><ele>228.0</ele><time>2026-04-03T09:35:45.004Z</time></trkpt><trkpt lat="43.5861023511744" lon="11.31512451870324"><ele>228.0</ele><time>2026-04-03T09:35:46.004Z</time></trkpt><trkpt lat="43.5859210318526" lon="11.315164082691826"><ele>228.0</ele><time>2026-04-03T09:35:47.004Z</time></trkpt><trkpt lat="43.58573958178983" lon="11.315206255441208"><ele>228.0</ele><time>2026-04-03T09:35:48.004Z</time></trkpt><trkpt lat="43.58555398396468" lon="11.315253467140291"><ele>228.0</ele><time>2026-04-03T09:35:49.004Z</time></trkpt><trkpt lat="43.58536031890906" lon="11.31529510760441"><ele>228.0</ele><time>2026-04-03T09:35:50.004Z</time></trkpt><trkpt lat="43.585168370158165" lon="11.315334717530531"><ele>228.66666666666669</ele><time>2026-04-03T09:35:51.004Z</time></trkpt><trkpt lat="43.5849836613451" lon="11.315363317584321"><ele>229.33333333333334</ele><time>2026-04-03T09:35:52.004Z</time></trkpt><trkpt lat="43.58484387407232" lon="11.3153962129447"><ele>230.0</ele><time>2026-04-03T09:35:53.004Z</time></trkpt><trkpt lat="43.58470403481029" lon="11.315450595326709"><ele>230.0</ele><time>2026-04-03T09:35:54.004Z</time></trkpt><trkpt lat="43.584568989751524" lon="11.315515805828825"><ele>230.0</ele><time>2026-04-03T09:35:55.004Z</time></trkpt><trkpt lat="43.584443181913365" lon="11.315570340744967"><ele>230.0</ele><time>2026-04-03T09:35:56.004Z</time></trkpt><trkpt lat="43.58434785602799" lon="11.31560838615364"><ele>230.0</ele><time>2026-04-03T09:35:57.004Z</time></trkpt><trkpt lat="43.584280954965955" lon="11.315632903471451"><ele>230.0</ele><time>2026-04-03T09:35:58.004Z</time></trkpt><trkpt lat="43.58414928781923" lon="11.315732385999098"><ele>230.2</ele><time>2026-04-03T09:36:00.004Z</time></trkpt><trkpt lat="43.58406532832655" lon="11.315825785642053"><ele>230.4</ele><time>2026-04-03T09:36:01.004Z</time></trkpt><trkpt lat="43.58401497792091" lon="11.315913299025514"><ele>230.60000000000002</ele><time>2026-04-03T09:36:02.004Z</time></trkpt><trkpt lat="43.58397883991399" lon="11.31601245163697"><ele>230.8</ele><time>2026-04-03T09:36:03.004Z</time></trkpt><trkpt lat="43.5839399201605" lon="11.316117553766357"><ele>231.0</ele><time>2026-04-03T09:36:04.004Z</time></trkpt><trkpt lat="43.58389079545987" lon="11.316248789835385"><ele>231.0</ele><time>2026-04-03T09:36:05.004Z</time></trkpt><trkpt lat="43.58383426121634" lon="11.316387682040478"><ele>231.00000000000003</ele><time>2026-04-03T09:36:06.004Z</time></trkpt><trkpt lat="43.58377199376235" lon="11.316505351320146"><ele>231.00000000000003</ele><time>2026-04-03T09:36:07.004Z</time></trkpt><trkpt lat="43.58370836384572" lon="11.316620236839462"><ele>231.0</ele><time>2026-04-03T09:36:08.004Z</time></trkpt><trkpt lat="43.583656625226524" lon="11.316740067304627"><ele>231.0</ele><time>2026-04-03T09:36:09.004Z</time></trkpt><trkpt lat="43.58360453634749" lon="11.316869042825026"><ele>231.75</ele><time>2026-04-03T09:36:10.004Z</time></trkpt><trkpt lat="43.58354810670255" lon="11.317007445692767"><ele>232.5</ele><time>2026-04-03T09:36:11.004Z</time></trkpt><trkpt lat="43.5834829240186" lon="11.317142591932827"><ele>233.25</ele><time>2026-04-03T09:36:12.004Z</time></trkpt><trkpt lat="43.58340995619121" lon="11.317272814953746"><ele>234.0</ele><time>2026-04-03T09:36:13.004Z</time></trkpt><trkpt lat="43.58333382102187" lon="11.317403506347771"><ele>234.0</ele><time>2026-04-03T09:36:14.004Z</time></trkpt><trkpt lat="43.58321112507475" lon="11.317496234230344"><ele>234.0</ele><time>2026-04-03T09:36:15.004Z</time></trkpt><trkpt lat="43.58306060989893" lon="11.317620422326979"><ele>234.0</ele><time>2026-04-03T09:36:16.004Z</time></trkpt><trkpt lat="43.58290846692214" lon="11.31770851679748"><ele>234.5</ele><time>2026-04-03T09:36:17.004Z</time></trkpt><trkpt lat="43.58277852645368" lon="11.317775854034878"><ele>235.0</ele><time>2026-04-03T09:36:18.004Z</time></trkpt><trkpt lat="43.58262778957848" lon="11.317809692995047"><ele>235.5</ele><time>2026-04-03T09:36:19.004Z</time></trkpt><trkpt lat="43.58249162087524" lon="11.317861858555052"><ele>236.0</ele><time>2026-04-03T09:36:20.004Z</time></trkpt><trkpt lat="43.58235789681901" lon="11.31791427863496"><ele>236.0</ele><time>2026-04-03T09:36:21.004Z</time></trkpt><trkpt lat="43.58221061000677" lon="11.31796818134104"><ele>236.0</ele><time>2026-04-03T09:36:22.004Z</time></trkpt><trkpt lat="43.58206146431964" lon="11.317984794469076"><ele>236.0</ele><time>2026-04-03T09:36:23.004Z</time></trkpt><trkpt lat="43.581913487789585" lon="11.317944831800785"><ele>236.75</ele><time>2026-04-03T09:36:24.005Z</time></trkpt><trkpt lat="43.5817537828703" lon="11.317900151567432"><ele>237.5</ele><time>2026-04-03T09:36:25.005Z</time></trkpt><trkpt lat="43.581611041621706" lon="11.317866787988732"><ele>238.25</ele><time>2026-04-03T09:36:26.005Z</time></trkpt><trkpt lat="43.581492828548654" lon="11.317870927025853"><ele>239.0</ele><time>2026-04-03T09:36:27.005Z</time></trkpt><trkpt lat="43.58136245031177" lon="11.31788964607757"><ele>239.0</ele><time>2026-04-03T09:36:28.005Z</time></trkpt><trkpt lat="43.581223150107874" lon="11.317900626660297"><ele>239.0</ele><time>2026-04-03T09:36:29.005Z</time></trkpt><trkpt lat="43.581083261677406" lon="11.31791244195855"><ele>239.0</ele><time>2026-04-03T09:36:30.005Z</time></trkpt><trkpt lat="43.58095635510928" lon="11.317886150851901"><ele>239.0</ele><time>2026-04-03T09:36:31.005Z</time></trkpt><trkpt lat="43.580875396871356" lon="11.31780104226238"><ele>238.33333333333334</ele><time>2026-04-03T09:36:32.005Z</time></trkpt><trkpt lat="43.58078056638156" lon="11.317727551772125"><ele>237.66666666666669</ele><time>2026-04-03T09:36:33.005Z</time></trkpt><trkpt lat="43.580627651797116" lon="11.317609048122836"><ele>237.0</ele><time>2026-04-03T09:36:34.005Z</time></trkpt><trkpt lat="43.58047707085008" lon="11.317488845410702"><ele>236.66666666666669</ele><time>2026-04-03T09:36:35.005Z</time></trkpt><trkpt lat="43.58034306300715" lon="11.317366893740385"><ele>236.33333333333334</ele><time>2026-04-03T09:36:36.005Z</time></trkpt><trkpt lat="43.580236223606875" lon="11.31723364481748"><ele>236.0</ele><time>2026-04-03T09:36:37.005Z</time></trkpt><trkpt lat="43.58012591562574" lon="11.317100928396078"><ele>237.75</ele><time>2026-04-03T09:36:38.005Z</time></trkpt><trkpt lat="43.57998233701188" lon="11.317004616697425"><ele>239.5</ele><time>2026-04-03T09:36:39.005Z</time></trkpt><trkpt lat="43.57986332330799" lon="11.316926516657215"><ele>241.25</ele><time>2026-04-03T09:36:40.005Z</time></trkpt><trkpt lat="43.57972992169339" lon="11.316861934040025"><ele>243.0</ele><time>2026-04-03T09:36:41.005Z</time></trkpt><trkpt lat="43.57954323146721" lon="11.3168191551697"><ele>241.66666666666669</ele><time>2026-04-03T09:36:42.005Z</time></trkpt><trkpt lat="43.579356192408646" lon="11.316770840581345"><ele>240.33333333333334</ele><time>2026-04-03T09:36:43.005Z</time></trkpt><trkpt lat="43.57916401561351" lon="11.316696674025044"><ele>239.0</ele><time>2026-04-03T09:36:44.005Z</time></trkpt><trkpt lat="43.57897925762169" lon="11.31662601663642"><ele>239.0</ele><time>2026-04-03T09:36:45.005Z</time></trkpt><trkpt lat="43.57883244361802" lon="11.316542178950558"><ele>239.0</ele><time>2026-04-03T09:36:46.003Z</time></trkpt><trkpt lat="43.57869383620547" lon="11.316492161246456"><ele>239.0</ele><time>2026-04-03T09:36:47.003Z</time></trkpt><trkpt lat="43.57853108757207" lon="11.316497791787354"><ele>239.33333333333334</ele><time>2026-04-03T09:36:48.003Z</time></trkpt><trkpt lat="43.57838100526926" lon="11.316541505585546"><ele>239.66666666666669</ele><time>2026-04-03T09:36:49.003Z</time></trkpt><trkpt lat="43.57822475416698" lon="11.316573345149298"><ele>240.0</ele><time>2026-04-03T09:36:50.003Z</time></trkpt><trkpt lat="43.57804975080602" lon="11.316620277884347"><ele>240.0</ele><time>2026-04-03T09:36:51.003Z</time></trkpt><trkpt lat="43.57786601314012" lon="11.316672968188023"><ele>240.0</ele><time>2026-04-03T09:36:52.003Z</time></trkpt><trkpt lat="43.57767836960051" lon="11.316733672724126"><ele>240.0</ele><time>2026-04-03T09:36:53.003Z</time></trkpt><trkpt lat="43.57748008685176" lon="11.316818415288077"><ele>241.33333333333331</ele><time>2026-04-03T09:36:54.003Z</time></trkpt><trkpt lat="43.57729938305209" lon="11.316883741665997"><ele>242.66666666666666</ele><time>2026-04-03T09:36:55.003Z</time></trkpt><trkpt lat="43.57712078797471" lon="11.316954228667587"><ele>244.0</ele><time>2026-04-03T09:36:56.003Z</time></trkpt><trkpt lat="43.57694481082509" lon="11.317034566588225"><ele>242.66666666666666</ele><time>2026-04-03T09:36:57.003Z</time></trkpt><trkpt lat="43.576759165272854" lon="11.317136058170455"><ele>241.33333333333331</ele><time>2026-04-03T09:36:58.003Z</time></trkpt><trkpt lat="43.57657914895993" lon="11.31723879426613"><ele>240.0</ele><time>2026-04-03T09:36:59.003Z</time></trkpt><trkpt lat="43.57639873427032" lon="11.317340598395175"><ele>240.0</ele><time>2026-04-03T09:37:00.003Z</time></trkpt><trkpt lat="43.576244308861796" lon="11.317404612376487"><ele>240.0</ele><time>2026-04-03T09:37:01.003Z</time></trkpt><trkpt lat="43.57612274436347" lon="11.317464768930982"><ele>240.0</ele><time>2026-04-03T09:37:02.003Z</time></trkpt><trkpt lat="43.576024260602935" lon="11.317514747824161"><ele>240.0</ele><time>2026-04-03T09:37:03.003Z</time></trkpt><trkpt lat="43.57593514560162" lon="11.317561171696829"><ele>240.8</ele><time>2026-04-03T09:37:04.003Z</time></trkpt><trkpt lat="43.57586015433676" lon="11.317588170499493"><ele>241.6</ele><time>2026-04-03T09:37:05.003Z</time></trkpt><trkpt lat="43.575774229842004" lon="11.317629271896687"><ele>242.39999999999998</ele><time>2026-04-03T09:37:07.003Z</time></trkpt><trkpt lat="43.57566545690065" lon="11.317705779039104"><ele>243.2</ele><time>2026-04-03T09:37:09.004Z</time></trkpt><trkpt lat="43.575562154374595" lon="11.317768817440827"><ele>244.0</ele><time>2026-04-03T09:37:10.004Z</time></trkpt><trkpt lat="43.57542931572789" lon="11.317828279661557"><ele>248.66666666666666</ele><time>2026-04-03T09:37:11.004Z</time></trkpt><trkpt lat="43.575284398567064" lon="11.317886129354806"><ele>253.33333333333331</ele><time>2026-04-03T09:37:12.004Z</time></trkpt><trkpt lat="43.57512103813204" lon="11.317951541733914"><ele>258.0</ele><time>2026-04-03T09:37:13.004Z</time></trkpt><trkpt lat="43.574949453011634" lon="11.318016177518768"><ele>258.0</ele><time>2026-04-03T09:37:14.004Z</time></trkpt><trkpt lat="43.57477416840798" lon="11.318095719818302"><ele>258.0</ele><time>2026-04-03T09:37:15.004Z</time></trkpt><trkpt lat="43.574590998798136" lon="11.318184087572687"><ele>258.0</ele><time>2026-04-03T09:37:16.004Z</time></trkpt><trkpt lat="43.574388743191605" lon="11.318297755693639"><ele>258.0</ele><time>2026-04-03T09:37:17.004Z</time></trkpt><trkpt lat="43.57418137945685" lon="11.318413973710022"><ele>258.0</ele><time>2026-04-03T09:37:18.004Z</time></trkpt><trkpt lat="43.57397824061238" lon="11.318533786820973"><ele>258.0</ele><time>2026-04-03T09:37:19.004Z</time></trkpt><trkpt lat="43.57377841493288" lon="11.318658379003496"><ele>255.0</ele><time>2026-04-03T09:37:20.004Z</time></trkpt><trkpt lat="43.573570281944654" lon="11.318760491955244"><ele>252.0</ele><time>2026-04-03T09:37:21.004Z</time></trkpt><trkpt lat="43.57336823679938" lon="11.318868125697422"><ele>249.0</ele><time>2026-04-03T09:37:22.004Z</time></trkpt><trkpt lat="43.57317635844675" lon="11.318952957081228"><ele>249.0</ele><time>2026-04-03T09:37:23.004Z</time></trkpt><trkpt lat="43.572981644624946" lon="11.319050412889904"><ele>249.0</ele><time>2026-04-03T09:37:24.004Z</time></trkpt><trkpt lat="43.572777799818745" lon="11.319148545272599"><ele>249.0</ele><time>2026-04-03T09:37:25.004Z</time></trkpt><trkpt lat="43.57257723633184" lon="11.319241930014424"><ele>252.0</ele><time>2026-04-03T09:37:26.004Z</time></trkpt><trkpt lat="43.572378338799396" lon="11.319334657372908"><ele>255.0</ele><time>2026-04-03T09:37:27.004Z</time></trkpt><trkpt lat="43.57217437783161" lon="11.319447452307271"><ele>258.0</ele><time>2026-04-03T09:37:28.004Z</time></trkpt><trkpt lat="43.571965163711845" lon="11.319566839935643"><ele>254.0</ele><time>2026-04-03T09:37:29.004Z</time></trkpt><trkpt lat="43.57174260086324" lon="11.319680668331989"><ele>250.0</ele><time>2026-04-03T09:37:30.004Z</time></trkpt><trkpt lat="43.57149942004224" lon="11.319788387156406"><ele>250.0</ele><time>2026-04-03T09:37:31.004Z</time></trkpt><trkpt lat="43.57127030343152" lon="11.319901762385184"><ele>250.0</ele><time>2026-04-03T09:37:32.004Z</time></trkpt><trkpt lat="43.5710615447469" lon="11.320005044827916"><ele>253.0</ele><time>2026-04-03T09:37:33.004Z</time></trkpt><trkpt lat="43.570866912705085" lon="11.320100943351804"><ele>256.0</ele><time>2026-04-03T09:37:34.004Z</time></trkpt><trkpt lat="43.57067308321442" lon="11.320193490900483"><ele>259.0</ele><time>2026-04-03T09:37:35.004Z</time></trkpt><trkpt lat="43.570487360749524" lon="11.320273149129473"><ele>260.0</ele><time>2026-04-03T09:37:36.004Z</time></trkpt><trkpt lat="43.57029993466894" lon="11.320332272666244"><ele>261.0</ele><time>2026-04-03T09:37:37.004Z</time></trkpt><trkpt lat="43.57009995416162" lon="11.320385031789545"><ele>262.0</ele><time>2026-04-03T09:37:38.004Z</time></trkpt><trkpt lat="43.56989660575819" lon="11.320438003405963"><ele>262.0</ele><time>2026-04-03T09:37:39.004Z</time></trkpt><trkpt lat="43.56969119337597" lon="11.320489115542868"><ele>262.0</ele><time>2026-04-03T09:37:40.004Z</time></trkpt><trkpt lat="43.56952861115702" lon="11.320540705433917"><ele>262.0</ele><time>2026-04-03T09:37:41.004Z</time></trkpt><trkpt lat="43.56939653802612" lon="11.320616237751294"><ele>263.25</ele><time>2026-04-03T09:37:42.004Z</time></trkpt><trkpt lat="43.56928151234938" lon="11.320703757539874"><ele>264.5</ele><time>2026-04-03T09:37:43.004Z</time></trkpt><trkpt lat="43.5692024855615" lon="11.320819464646549"><ele>265.75</ele><time>2026-04-03T09:37:44.004Z</time></trkpt><trkpt lat="43.5691448603119" lon="11.320942126216083"><ele>267.0</ele><time>2026-04-03T09:37:45.004Z</time></trkpt><trkpt lat="43.56913400136154" lon="11.321136242697545"><ele>267.0</ele><time>2026-04-03T09:37:46.004Z</time></trkpt><trkpt lat="43.56912404867613" lon="11.321367194562232"><ele>267.0</ele><time>2026-04-03T09:37:47.004Z</time></trkpt><trkpt lat="43.56906933430635" lon="11.321628846727902"><ele>267.0</ele><time>2026-04-03T09:37:48.004Z</time></trkpt><trkpt lat="43.56901691216487" lon="11.32184608990502"><ele>265.6666666666667</ele><time>2026-04-03T09:37:49.004Z</time></trkpt><trkpt lat="43.56893131167661" lon="11.322055401752898"><ele>264.33333333333337</ele><time>2026-04-03T09:37:50.004Z</time></trkpt><trkpt lat="43.568791253163276" lon="11.322273074269704"><ele>263.0</ele><time>2026-04-03T09:37:51.004Z</time></trkpt><trkpt lat="43.568697550294246" lon="11.322503672603474"><ele>268.33333333333337</ele><time>2026-04-03T09:37:52.004Z</time></trkpt><trkpt lat="43.568554715566556" lon="11.32263497297786"><ele>273.6666666666667</ele><time>2026-04-03T09:37:53.004Z</time></trkpt><trkpt lat="43.56839724002742" lon="11.322723683756559"><ele>279.0</ele><time>2026-04-03T09:37:54.004Z</time></trkpt><trkpt lat="43.56819308749739" lon="11.322774808319535"><ele>279.0</ele><time>2026-04-03T09:37:55.004Z</time></trkpt><trkpt lat="43.56793774078256" lon="11.322661385639242"><ele>279.0</ele><time>2026-04-03T09:37:56.004Z</time></trkpt><trkpt lat="43.567701297866144" lon="11.322709380241951"><ele>281.3333333333333</ele><time>2026-04-03T09:37:57.004Z</time></trkpt><trkpt lat="43.56747492976148" lon="11.322749014938028"><ele>283.66666666666663</ele><time>2026-04-03T09:37:58.004Z</time></trkpt><trkpt lat="43.567282710520864" lon="11.322729288023812"><ele>286.0</ele><time>2026-04-03T09:37:59.004Z</time></trkpt><trkpt lat="43.56713999130322" lon="11.322625841763996"><ele>284.0</ele><time>2026-04-03T09:38:00.004Z</time></trkpt><trkpt lat="43.56692483443589" lon="11.322471748197032"><ele>282.0</ele><time>2026-04-03T09:38:01.004Z</time></trkpt><trkpt lat="43.566710744984526" lon="11.32237477696487"><ele>282.0</ele><time>2026-04-03T09:38:02.004Z</time></trkpt><trkpt lat="43.566477988628776" lon="11.322320147547682"><ele>282.0</ele><time>2026-04-03T09:38:03.004Z</time></trkpt><trkpt lat="43.56624954395372" lon="11.322309638546363"><ele>283.0</ele><time>2026-04-03T09:38:04.004Z</time></trkpt><trkpt lat="43.56604024694847" lon="11.322369133453202"><ele>284.0</ele><time>2026-04-03T09:38:05.005Z</time></trkpt><trkpt lat="43.56582975523656" lon="11.322444362117484"><ele>285.0</ele><time>2026-04-03T09:38:06.005Z</time></trkpt><trkpt lat="43.565596189538105" lon="11.322512717253858"><ele>285.0</ele><time>2026-04-03T09:38:07.005Z</time></trkpt><trkpt lat="43.5653748003315" lon="11.322532886207526"><ele>285.0</ele><time>2026-04-03T09:38:08.005Z</time></trkpt><trkpt lat="43.565167461827315" lon="11.322582612130793"><ele>285.0</ele><time>2026-04-03T09:38:09.005Z</time></trkpt><trkpt lat="43.56495857071914" lon="11.322536336425564"><ele>288.3333333333333</ele><time>2026-04-03T09:38:10.005Z</time></trkpt><trkpt lat="43.56478557831804" lon="11.322720554257426"><ele>291.66666666666663</ele><time>2026-04-03T09:38:11.005Z</time></trkpt><trkpt lat="43.56459368462798" lon="11.322866620848226"><ele>295.0</ele><time>2026-04-03T09:38:12.005Z</time></trkpt><trkpt lat="43.56440540343623" lon="11.323021364588852"><ele>295.3333333333333</ele><time>2026-04-03T09:38:13.005Z</time></trkpt><trkpt lat="43.56421242511789" lon="11.323170623105614"><ele>295.6666666666667</ele><time>2026-04-03T09:38:14.005Z</time></trkpt><trkpt lat="43.56399773195105" lon="11.323131108225589"><ele>296.0</ele><time>2026-04-03T09:38:15.005Z</time></trkpt><trkpt lat="43.56376571881885" lon="11.323194721859426"><ele>301.5</ele><time>2026-04-03T09:38:16.005Z</time></trkpt><trkpt lat="43.56357022943314" lon="11.323310898368373"><ele>307.0</ele><time>2026-04-03T09:38:17.005Z</time></trkpt><trkpt lat="43.56334291533007" lon="11.323450289670262"><ele>307.0</ele><time>2026-04-03T09:38:18.005Z</time></trkpt><trkpt lat="43.56311387740047" lon="11.323641227476818"><ele>307.0</ele><time>2026-04-03T09:38:19.005Z</time></trkpt><trkpt lat="43.56291754477427" lon="11.323764038126743"><ele>305.66666666666663</ele><time>2026-04-03T09:38:20.005Z</time></trkpt><trkpt lat="43.5627296062224" lon="11.323797123919187"><ele>304.3333333333333</ele><time>2026-04-03T09:38:21.005Z</time></trkpt><trkpt lat="43.56247190775016" lon="11.323838173344205"><ele>303.0</ele><time>2026-04-03T09:38:22.005Z</time></trkpt><trkpt lat="43.56223477877727" lon="11.32396415867237"><ele>309.5</ele><time>2026-04-03T09:38:23.005Z</time></trkpt><trkpt lat="43.56200867701414" lon="11.32411209672963"><ele>316.0</ele><time>2026-04-03T09:38:24.005Z</time></trkpt><trkpt lat="43.56176196092655" lon="11.324266289037702"><ele>316.0</ele><time>2026-04-03T09:38:25.005Z</time></trkpt><trkpt lat="43.56150755553873" lon="11.324317037073142"><ele>316.0</ele><time>2026-04-03T09:38:26.005Z</time></trkpt><trkpt lat="43.56125930365393" lon="11.324371949465682"><ele>319.0</ele><time>2026-04-03T09:38:27.005Z</time></trkpt><trkpt lat="43.561021290088355" lon="11.324358797878737"><ele>322.0</ele><time>2026-04-03T09:38:28.005Z</time></trkpt><trkpt lat="43.560804833345365" lon="11.32430591417198"><ele>322.0</ele><time>2026-04-03T09:38:29.005Z</time></trkpt><trkpt lat="43.560623577030675" lon="11.3242384956585"><ele>322.0</ele><time>2026-04-03T09:38:30.005Z</time></trkpt><trkpt lat="43.56047851400842" lon="11.324157105312283"><ele>322.0</ele><time>2026-04-03T09:38:31.005Z</time></trkpt><trkpt lat="43.56031797113276" lon="11.324045509793478"><ele>324.0</ele><time>2026-04-03T09:38:32.005Z</time></trkpt><trkpt lat="43.56016044196362" lon="11.323903332186879"><ele>326.0</ele><time>2026-04-03T09:38:33.005Z</time></trkpt><trkpt lat="43.55998540652039" lon="11.32372244585317"><ele>328.0</ele><time>2026-04-03T09:38:34.005Z</time></trkpt><trkpt lat="43.55982395904704" lon="11.323553686758547"><ele>328.0</ele><time>2026-04-03T09:38:35.005Z</time></trkpt><trkpt lat="43.55969070519218" lon="11.32341636506865"><ele>328.0</ele><time>2026-04-03T09:38:36.005Z</time></trkpt><trkpt lat="43.5595782673085" lon="11.323283073801054"><ele>328.0</ele><time>2026-04-03T09:38:37.005Z</time></trkpt><trkpt lat="43.55948846377466" lon="11.32311559688664"><ele>329.66666666666663</ele><time>2026-04-03T09:38:38.005Z</time></trkpt><trkpt lat="43.55942879159558" lon="11.322913770043563"><ele>331.3333333333333</ele><time>2026-04-03T09:38:39.005Z</time></trkpt><trkpt lat="43.55936374664936" lon="11.322708445340872"><ele>333.0</ele><time>2026-04-03T09:38:40.005Z</time></trkpt><trkpt lat="43.55929161002759" lon="11.322552687052298"><ele>333.0</ele><time>2026-04-03T09:38:41.005Z</time></trkpt><trkpt lat="43.55918585981086" lon="11.322456017101613"><ele>333.0</ele><time>2026-04-03T09:38:42.005Z</time></trkpt><trkpt lat="43.55906897513966" lon="11.322367841801377"><ele>333.0</ele><time>2026-04-03T09:38:43.005Z</time></trkpt><trkpt lat="43.558911585167984" lon="11.322346541709187"><ele>333.0</ele><time>2026-04-03T09:38:44.005Z</time></trkpt><trkpt lat="43.55878288645363" lon="11.322373041576798"><ele>334.6666666666667</ele><time>2026-04-03T09:38:45.005Z</time></trkpt><trkpt lat="43.55861657111606" lon="11.322445353012156"><ele>336.33333333333337</ele><time>2026-04-03T09:38:46.005Z</time></trkpt><trkpt lat="43.55837671455951" lon="11.322533375133835"><ele>338.0</ele><time>2026-04-03T09:38:47.005Z</time></trkpt><trkpt lat="43.55810950713349" lon="11.322587377199163"><ele>343.5</ele><time>2026-04-03T09:38:48.005Z</time></trkpt><trkpt lat="43.55782766839051" lon="11.322682841303362"><ele>349.0</ele><time>2026-04-03T09:38:49.005Z</time></trkpt><trkpt lat="43.55757709351878" lon="11.322791584174464"><ele>349.0</ele><time>2026-04-03T09:38:50.005Z</time></trkpt><trkpt lat="43.557377580246" lon="11.322879640957703"><ele>349.0</ele><time>2026-04-03T09:38:51.005Z</time></trkpt><trkpt lat="43.5572003472443" lon="11.323009168072426"><ele>349.0</ele><time>2026-04-03T09:38:52.003Z</time></trkpt><trkpt lat="43.557028969030966" lon="11.323249991890473"><ele>348.5</ele><time>2026-04-03T09:38:53.003Z</time></trkpt><trkpt lat="43.55682541020417" lon="11.323473228409119"><ele>348.0</ele><time>2026-04-03T09:38:54.003Z</time></trkpt><trkpt lat="43.55658099429104" lon="11.323705519441223"><ele>350.0</ele><time>2026-04-03T09:38:55.003Z</time></trkpt><trkpt lat="43.55632783799549" lon="11.323948530963955"><ele>352.0</ele><time>2026-04-03T09:38:56.004Z</time></trkpt><trkpt lat="43.55605918242887" lon="11.324164965440163"><ele>352.0</ele><time>2026-04-03T09:38:57.004Z</time></trkpt><trkpt lat="43.55583424507154" lon="11.32436514796516"><ele>352.0</ele><time>2026-04-03T09:38:58.003Z</time></trkpt><trkpt lat="43.55565374752824" lon="11.32455445094193"><ele>352.0</ele><time>2026-04-03T09:38:59.003Z</time></trkpt><trkpt lat="43.555493600508036" lon="11.324686006734833"><ele>352.0</ele><time>2026-04-03T09:39:00.003Z</time></trkpt><trkpt lat="43.555333965305515" lon="11.32478011222632"><ele>352.0</ele><time>2026-04-03T09:39:01.003Z</time></trkpt><trkpt lat="43.55517504935322" lon="11.324801532969706"><ele>351.66666666666663</ele><time>2026-04-03T09:39:02.003Z</time></trkpt><trkpt lat="43.55500977715138" lon="11.324731182518093"><ele>351.3333333333333</ele><time>2026-04-03T09:39:03.003Z</time></trkpt><trkpt lat="43.55479188512708" lon="11.324647066816864"><ele>351.0</ele><time>2026-04-03T09:39:04.003Z</time></trkpt><trkpt lat="43.554613873661125" lon="11.324596155079975"><ele>355.6666666666667</ele><time>2026-04-03T09:39:05.003Z</time></trkpt><trkpt lat="43.55446590464772" lon="11.324605939127574"><ele>360.33333333333337</ele><time>2026-04-03T09:39:06.003Z</time></trkpt><trkpt lat="43.55432730575588" lon="11.324716756149895"><ele>365.0</ele><time>2026-04-03T09:39:07.003Z</time></trkpt><trkpt lat="43.554173032402055" lon="11.32490292636862"><ele>365.0</ele><time>2026-04-03T09:39:08.003Z</time></trkpt><trkpt lat="43.55401309195803" lon="11.325077448251312"><ele>365.0</ele><time>2026-04-03T09:39:09.003Z</time></trkpt><trkpt lat="43.553839515898" lon="11.325263812313967"><ele>365.0</ele><time>2026-04-03T09:39:10.003Z</time></trkpt><trkpt lat="43.55369059060284" lon="11.32538793717702"><ele>365.5</ele><time>2026-04-03T09:39:11.003Z</time></trkpt><trkpt lat="43.55354658206542" lon="11.32547810630305"><ele>366.0</ele><time>2026-04-03T09:39:12.003Z</time></trkpt><trkpt lat="43.55341052850312" lon="11.325455959303682"><ele>366.5</ele><time>2026-04-03T09:39:13.003Z</time></trkpt><trkpt lat="43.55330894545321" lon="11.325350911135283"><ele>367.0</ele><time>2026-04-03T09:39:14.003Z</time></trkpt><trkpt lat="43.55325136627232" lon="11.325165458458526"><ele>367.0</ele><time>2026-04-03T09:39:15.003Z</time></trkpt><trkpt lat="43.55320440544415" lon="11.324910249246948"><ele>367.0</ele><time>2026-04-03T09:39:16.003Z</time></trkpt><trkpt lat="43.553168156703485" lon="11.324683753378924"><ele>367.0</ele><time>2026-04-03T09:39:17.003Z</time></trkpt><trkpt lat="43.55312450373871" lon="11.324434446137337"><ele>370.3333333333333</ele><time>2026-04-03T09:39:18.004Z</time></trkpt><trkpt lat="43.55304411094726" lon="11.324227757580095"><ele>373.6666666666667</ele><time>2026-04-03T09:39:19.004Z</time></trkpt><trkpt lat="43.55293414255681" lon="11.324098304828127"><ele>377.0</ele><time>2026-04-03T09:39:20.004Z</time></trkpt><trkpt lat="43.552809102995845" lon="11.324006422100606"><ele>377.0</ele><time>2026-04-03T09:39:21.004Z</time></trkpt><trkpt lat="43.55260943407445" lon="11.32399297350199"><ele>377.0</ele><time>2026-04-03T09:39:22.004Z</time></trkpt><trkpt lat="43.552400958402224" lon="11.32401339305261"><ele>377.0</ele><time>2026-04-03T09:39:23.004Z</time></trkpt><trkpt lat="43.55214546957447" lon="11.32403647206286"><ele>378.0</ele><time>2026-04-03T09:39:24.004Z</time></trkpt><trkpt lat="43.55189562758843" lon="11.324107285592842"><ele>379.0</ele><time>2026-04-03T09:39:25.004Z</time></trkpt><trkpt lat="43.55168272548025" lon="11.324115320875755"><ele>379.0</ele><time>2026-04-03T09:39:26.004Z</time></trkpt><trkpt lat="43.55146210620277" lon="11.324097419937516"><ele>379.0</ele><time>2026-04-03T09:39:27.004Z</time></trkpt><trkpt lat="43.551215511431856" lon="11.324004332036731"><ele>377.0</ele><time>2026-04-03T09:39:28.004Z</time></trkpt><trkpt lat="43.55097379341775" lon="11.323901734583202"><ele>375.0</ele><time>2026-04-03T09:39:29.004Z</time></trkpt><trkpt lat="43.550758890443156" lon="11.32379810876081"><ele>377.6666666666667</ele><time>2026-04-03T09:39:30.004Z</time></trkpt><trkpt lat="43.55057759896424" lon="11.323699375625116"><ele>380.33333333333337</ele><time>2026-04-03T09:39:31.004Z</time></trkpt><trkpt lat="43.550437401077886" lon="11.323517719716682"><ele>383.0</ele><time>2026-04-03T09:39:32.004Z</time></trkpt><trkpt lat="43.550292012904514" lon="11.323289427427763"><ele>383.0</ele><time>2026-04-03T09:39:33.004Z</time></trkpt><trkpt lat="43.55013842350246" lon="11.323104297604415"><ele>383.0</ele><time>2026-04-03T09:39:34.004Z</time></trkpt><trkpt lat="43.5499876539043" lon="11.322935210430405"><ele>383.0</ele><time>2026-04-03T09:39:35.004Z</time></trkpt><trkpt lat="43.549802913046925" lon="11.322830963250498"><ele>387.0</ele><time>2026-04-03T09:39:36.004Z</time></trkpt><trkpt lat="43.54958685182744" lon="11.322799557107162"><ele>391.0</ele><time>2026-04-03T09:39:37.004Z</time></trkpt><trkpt lat="43.54937484666176" lon="11.322879885457388"><ele>395.0</ele><time>2026-04-03T09:39:38.004Z</time></trkpt><trkpt lat="43.54916381043651" lon="11.322932025070209"><ele>395.5</ele><time>2026-04-03T09:39:39.004Z</time></trkpt><trkpt lat="43.54889569739085" lon="11.32302645125547"><ele>396.0</ele><time>2026-04-03T09:39:40.004Z</time></trkpt><trkpt lat="43.548594720216315" lon="11.323133213429278"><ele>392.5</ele><time>2026-04-03T09:39:41.004Z</time></trkpt><trkpt lat="43.54829572247833" lon="11.323225443416298"><ele>389.0</ele><time>2026-04-03T09:39:42.004Z</time></trkpt><trkpt lat="43.54797843204119" lon="11.323313833526822"><ele>392.0</ele><time>2026-04-03T09:39:43.004Z</time></trkpt><trkpt lat="43.54765566370766" lon="11.323377727445717"><ele>395.0</ele><time>2026-04-03T09:39:44.004Z</time></trkpt><trkpt lat="43.54731746800971" lon="11.323442613535915"><ele>399.0</ele><time>2026-04-03T09:39:45.004Z</time></trkpt><trkpt lat="43.54701481922639" lon="11.323511318800215"><ele>403.0</ele><time>2026-04-03T09:39:46.004Z</time></trkpt><trkpt lat="43.54677900959714" lon="11.323577781683449"><ele>403.0</ele><time>2026-04-03T09:39:47.004Z</time></trkpt><trkpt lat="43.54659085700482" lon="11.323598041748221"><ele>403.0</ele><time>2026-04-03T09:39:48.004Z</time></trkpt><trkpt lat="43.54644896465037" lon="11.323632129769658"><ele>403.0</ele><time>2026-04-03T09:39:49.004Z</time></trkpt><trkpt lat="43.54631235904754" lon="11.323728379703496"><ele>403.0</ele><time>2026-04-03T09:39:50.004Z</time></trkpt><trkpt lat="43.54622128618062" lon="11.323889048252186"><ele>403.0</ele><time>2026-04-03T09:39:51.004Z</time></trkpt><trkpt lat="43.54612257487256" lon="11.324095692634778"><ele>403.0</ele><time>2026-04-03T09:39:52.004Z</time></trkpt><trkpt lat="43.54603046342718" lon="11.3243772122877"><ele>402.0</ele><time>2026-04-03T09:39:53.004Z</time></trkpt><trkpt lat="43.54595902718413" lon="11.324723019596494"><ele>401.0</ele><time>2026-04-03T09:39:54.004Z</time></trkpt><trkpt lat="43.5458849993587" lon="11.325081697916719"><ele>403.0</ele><time>2026-04-03T09:39:55.004Z</time></trkpt><trkpt lat="43.545788717707666" lon="11.325443747501533"><ele>405.0</ele><time>2026-04-03T09:39:56.004Z</time></trkpt><trkpt lat="43.5456875522614" lon="11.325770635179099"><ele>405.66666666666663</ele><time>2026-04-03T09:39:57.004Z</time></trkpt><trkpt lat="43.5456011757423" lon="11.326048848120452"><ele>406.3333333333333</ele><time>2026-04-03T09:39:58.004Z</time></trkpt><trkpt lat="43.54546233393196" lon="11.326296501447324"><ele>407.0</ele><time>2026-04-03T09:39:59.004Z</time></trkpt><trkpt lat="43.54531208424109" lon="11.326550593412879"><ele>412.0</ele><time>2026-04-03T09:40:00.004Z</time></trkpt><trkpt lat="43.54494666865992" lon="11.327112666510004"><ele>412.0</ele><time>2026-04-03T09:40:03.004Z</time></trkpt><trkpt lat="43.544801792454706" lon="11.32716880268887"><ele>412.0</ele><time>2026-04-03T09:40:04.004Z</time></trkpt><trkpt lat="43.54467679923453" lon="11.32716040958701"><ele>412.0</ele><time>2026-04-03T09:40:05.004Z</time></trkpt><trkpt lat="43.544538907976786" lon="11.327087654946256"><ele>412.0</ele><time>2026-04-03T09:40:06.004Z</time></trkpt><trkpt lat="43.54443951341249" lon="11.326949072240785"><ele>414.6666666666667</ele><time>2026-04-03T09:40:07.004Z</time></trkpt><trkpt lat="43.5444030813594" lon="11.326785642730009"><ele>417.33333333333337</ele><time>2026-04-03T09:40:08.004Z</time></trkpt><trkpt lat="43.54436649870905" lon="11.326548043326845"><ele>420.0</ele><time>2026-04-03T09:40:09.004Z</time></trkpt><trkpt lat="43.54431832156605" lon="11.3262220315823"><ele>420.0</ele><time>2026-04-03T09:40:10.004Z</time></trkpt><trkpt lat="43.544254630219164" lon="11.325869895944155"><ele>420.0</ele><time>2026-04-03T09:40:11.004Z</time></trkpt><trkpt lat="43.54419412707027" lon="11.325492987064724"><ele>421.0</ele><time>2026-04-03T09:40:12.004Z</time></trkpt><trkpt lat="43.54417600907911" lon="11.32512730128724"><ele>422.0</ele><time>2026-04-03T09:40:13.004Z</time></trkpt><trkpt lat="43.5441702341511" lon="11.324831056770497"><ele>424.3333333333333</ele><time>2026-04-03T09:40:14.005Z</time></trkpt><trkpt lat="43.54420153796751" lon="11.324615899168013"><ele>426.66666666666663</ele><time>2026-04-03T09:40:15.005Z</time></trkpt><trkpt lat="43.54428060441614" lon="11.324476118471098"><ele>429.0</ele><time>2026-04-03T09:40:16.005Z</time></trkpt><trkpt lat="43.54441930930252" lon="11.324299830654011"><ele>429.0</ele><time>2026-04-03T09:40:17.005Z</time></trkpt><trkpt lat="43.54454035067879" lon="11.324092986914263"><ele>429.0</ele><time>2026-04-03T09:40:18.005Z</time></trkpt><trkpt lat="43.54460343958847" lon="11.323925780578461"><ele>429.0</ele><time>2026-04-03T09:40:19.005Z</time></trkpt><trkpt lat="43.54462653606552" lon="11.32372350187441"><ele>431.0</ele><time>2026-04-03T09:40:20.005Z</time></trkpt><trkpt lat="43.544650335479254" lon="11.323506289266804"><ele>433.0</ele><time>2026-04-03T09:40:21.005Z</time></trkpt><trkpt lat="43.54460525418931" lon="11.323248061808039"><ele>435.0</ele><time>2026-04-03T09:40:22.005Z</time></trkpt><trkpt lat="43.54453629467923" lon="11.322987759158265"><ele>435.0</ele><time>2026-04-03T09:40:23.005Z</time></trkpt><trkpt lat="43.54441008814915" lon="11.322692014035683"><ele>435.0</ele><time>2026-04-03T09:40:24.005Z</time></trkpt><trkpt lat="43.54426993873265" lon="11.32237965211056"><ele>436.0</ele><time>2026-04-03T09:40:25.005Z</time></trkpt><trkpt lat="43.54415512735754" lon="11.322091691932616"><ele>437.0</ele><time>2026-04-03T09:40:26.005Z</time></trkpt><trkpt lat="43.54408064377118" lon="11.32189293421391"><ele>438.0</ele><time>2026-04-03T09:40:27.005Z</time></trkpt><trkpt lat="43.5440570508896" lon="11.321748208169824"><ele>438.0</ele><time>2026-04-03T09:40:28.005Z</time></trkpt><trkpt lat="43.54406480201467" lon="11.321608261846022"><ele>438.0</ele><time>2026-04-03T09:40:29.005Z</time></trkpt><trkpt lat="43.544108484518695" lon="11.321491002113207"><ele>438.0</ele><time>2026-04-03T09:40:30.005Z</time></trkpt><trkpt lat="43.54419189923406" lon="11.321400782228206"><ele>438.0</ele><time>2026-04-03T09:40:31.005Z</time></trkpt><trkpt lat="43.544343930253454" lon="11.32135264182407"><ele>442.0</ele><time>2026-04-03T09:40:32.005Z</time></trkpt><trkpt lat="43.54451633259865" lon="11.321358303011614"><ele>446.0</ele><time>2026-04-03T09:40:33.005Z</time></trkpt><trkpt lat="43.544726926519054" lon="11.321349202251913"><ele>450.0</ele><time>2026-04-03T09:40:34.004Z</time></trkpt><trkpt lat="43.544939441708735" lon="11.32133626231558"><ele>450.66666666666663</ele><time>2026-04-03T09:40:35.004Z</time></trkpt><trkpt lat="43.54514161909561" lon="11.321329213104777"><ele>451.3333333333333</ele><time>2026-04-03T09:40:36.003Z</time></trkpt><trkpt lat="43.54536500432722" lon="11.321320901594504"><ele>452.0</ele><time>2026-04-03T09:40:37.003Z</time></trkpt><trkpt lat="43.5455886096236" lon="11.321311227537464"><ele>453.3333333333333</ele><time>2026-04-03T09:40:38.002Z</time></trkpt><trkpt lat="43.54582219247889" lon="11.321311135331587"><ele>454.66666666666663</ele><time>2026-04-03T09:40:39.002Z</time></trkpt><trkpt lat="43.546018644668294" lon="11.321300502471066"><ele>456.0</ele><time>2026-04-03T09:40:40.002Z</time></trkpt><trkpt lat="43.54616625220848" lon="11.321295032536838"><ele>456.1666666666667</ele><time>2026-04-03T09:40:41.001Z</time></trkpt><trkpt lat="43.54629467053372" lon="11.321300261058305"><ele>456.33333333333337</ele><time>2026-04-03T09:40:42.001Z</time></trkpt><trkpt lat="43.54638968883572" lon="11.321304042560916"><ele>456.5</ele><time>2026-04-03T09:40:43Z</time></trkpt><trkpt lat="43.54645682242597" lon="11.321295276758242"><ele>456.6666666666667</ele><time>2026-04-03T09:40:44Z</time></trkpt><trkpt lat="43.54652068998177" lon="11.321263807696253"><ele>456.83333333333337</ele><time>2026-04-03T09:40:47.999Z</time></trkpt><trkpt lat="43.546448062151384" lon="11.32129962919944"><ele>457.0</ele><time>2026-04-03T09:41:07.995Z</time></trkpt><trkpt lat="43.546361440719714" lon="11.321304668271283"><ele>456.75</ele><time>2026-04-03T09:41:10.994Z</time></trkpt><trkpt lat="43.5462020048575" lon="11.321263242151614"><ele>456.5</ele><time>2026-04-03T09:44:57.995Z</time></trkpt><trkpt lat="43.54610366809215" lon="11.321240675868816"><ele>456.25</ele><time>2026-04-03T09:44:58.995Z</time></trkpt><trkpt lat="43.54595388430323" lon="11.321256296896143"><ele>456.0</ele><time>2026-04-03T09:44:59.995Z</time></trkpt><trkpt lat="43.54576592540632" lon="11.321259806645235"><ele>456.0</ele><time>2026-04-03T09:45:00.995Z</time></trkpt><trkpt lat="43.545578787297124" lon="11.321267161180419"><ele>456.0</ele><time>2026-04-03T09:45:01.995Z</time></trkpt><trkpt lat="43.54536649690852" lon="11.321275760201452"><ele>456.0</ele><time>2026-04-03T09:45:02.995Z</time></trkpt><trkpt lat="43.545128546314885" lon="11.32128604316356"><ele>454.0</ele><time>2026-04-03T09:45:03.995Z</time></trkpt><trkpt lat="43.54488911782972" lon="11.321296389992687"><ele>452.0</ele><time>2026-04-03T09:45:04.995Z</time></trkpt><trkpt lat="43.54465737435713" lon="11.32130640471343"><ele>451.5</ele><time>2026-04-03T09:45:05.995Z</time></trkpt><trkpt lat="43.54446359673668" lon="11.321352595164077"><ele>451.0</ele><time>2026-04-03T09:45:06.995Z</time></trkpt><trkpt lat="43.54430398480226" lon="11.321368032169651"><ele>450.5</ele><time>2026-04-03T09:45:07.995Z</time></trkpt><trkpt lat="43.54421894824426" lon="11.321356572040422"><ele>450.0</ele><time>2026-04-03T09:45:08.995Z</time></trkpt><trkpt lat="43.5441402403576" lon="11.321397943597901"><ele>447.0</ele><time>2026-04-03T09:45:09.993Z</time></trkpt><trkpt lat="43.544073381876466" lon="11.321528997942186"><ele>444.0</ele><time>2026-04-03T09:45:10.994Z</time></trkpt><trkpt lat="43.54402751292738" lon="11.321669044820004"><ele>441.0</ele><time>2026-04-03T09:45:11.994Z</time></trkpt><trkpt lat="43.54400821864765" lon="11.3218232604315"><ele>438.0</ele><time>2026-04-03T09:45:12.994Z</time></trkpt><trkpt lat="43.54402267932525" lon="11.322022348580893"><ele>436.5</ele><time>2026-04-03T09:45:13.994Z</time></trkpt><trkpt lat="43.54410061549235" lon="11.32229870070602"><ele>435.0</ele><time>2026-04-03T09:45:14.994Z</time></trkpt><trkpt lat="43.54427307800693" lon="11.322653700859298"><ele>435.0</ele><time>2026-04-03T09:45:15.994Z</time></trkpt><trkpt lat="43.544410544624064" lon="11.32296121779967"><ele>435.0</ele><time>2026-04-03T09:45:16.993Z</time></trkpt><trkpt lat="43.54449838652423" lon="11.323195163145463"><ele>429.33333333333337</ele><time>2026-04-03T09:45:17.993Z</time></trkpt><trkpt lat="43.544560666082745" lon="11.323408959178094"><ele>423.6666666666667</ele><time>2026-04-03T09:45:18.994Z</time></trkpt><trkpt lat="43.54460159184064" lon="11.323629672495992"><ele>418.0</ele><time>2026-04-03T09:45:19.994Z</time></trkpt><trkpt lat="43.54457726505023" lon="11.323859156322838"><ele>421.6666666666667</ele><time>2026-04-03T09:45:20.994Z</time></trkpt><trkpt lat="43.54452591634647" lon="11.32404937808056"><ele>425.33333333333337</ele><time>2026-04-03T09:45:21.994Z</time></trkpt><trkpt lat="43.54442815972734" lon="11.32422364260164"><ele>429.0</ele><time>2026-04-03T09:45:22.994Z</time></trkpt><trkpt lat="43.5442857075721" lon="11.324393470072893"><ele>429.0</ele><time>2026-04-03T09:45:23.994Z</time></trkpt><trkpt lat="43.544171709482626" lon="11.324613993093129"><ele>429.0</ele><time>2026-04-03T09:45:24.994Z</time></trkpt><trkpt lat="43.54411980814573" lon="11.324833090051419"><ele>429.0</ele><time>2026-04-03T09:45:25.994Z</time></trkpt><trkpt lat="43.54410295699339" lon="11.325102165326102"><ele>425.5</ele><time>2026-04-03T09:45:26.994Z</time></trkpt><trkpt lat="43.54413195994158" lon="11.325415303815884"><ele>422.0</ele><time>2026-04-03T09:45:27.994Z</time></trkpt><trkpt lat="43.544187438914605" lon="11.325787003585564"><ele>421.0</ele><time>2026-04-03T09:45:28.994Z</time></trkpt><trkpt lat="43.5442495360343" lon="11.326148335171924"><ele>420.0</ele><time>2026-04-03T09:45:29.994Z</time></trkpt><trkpt lat="43.544317904839545" lon="11.326474400435497"><ele>421.33333333333337</ele><time>2026-04-03T09:45:30.994Z</time></trkpt><trkpt lat="43.54437393739996" lon="11.326729166275316"><ele>422.6666666666667</ele><time>2026-04-03T09:45:31.994Z</time></trkpt><trkpt lat="43.544397449187514" lon="11.326925396816643"><ele>424.0</ele><time>2026-04-03T09:45:32.994Z</time></trkpt><trkpt lat="43.54444439712228" lon="11.327091590425825"><ele>424.0</ele><time>2026-04-03T09:45:33.994Z</time></trkpt><trkpt lat="43.54452619444517" lon="11.327222558105206"><ele>424.0</ele><time>2026-04-03T09:45:34.994Z</time></trkpt><trkpt lat="43.54465258919013" lon="11.32730053455813"><ele>424.0</ele><time>2026-04-03T09:45:35.994Z</time></trkpt><trkpt lat="43.54479836760857" lon="11.327285828711613"><ele>424.0</ele><time>2026-04-03T09:45:36.994Z</time></trkpt><trkpt lat="43.54494254021605" lon="11.327220806949919"><ele>420.0</ele><time>2026-04-03T09:45:37.994Z</time></trkpt><trkpt lat="43.545093720143406" lon="11.32708470248497"><ele>416.0</ele><time>2026-04-03T09:45:38.994Z</time></trkpt><trkpt lat="43.54523953390975" lon="11.32689028957661"><ele>412.0</ele><time>2026-04-03T09:45:39.994Z</time></trkpt><trkpt lat="43.545370291778774" lon="11.326635621335129"><ele>410.33333333333337</ele><time>2026-04-03T09:45:40.994Z</time></trkpt><trkpt lat="43.545493602117546" lon="11.326380914836792"><ele>408.66666666666663</ele><time>2026-04-03T09:45:41.994Z</time></trkpt><trkpt lat="43.545600399539055" lon="11.326118926616838"><ele>407.0</ele><time>2026-04-03T09:45:42.994Z</time></trkpt><trkpt lat="43.54570969440795" lon="11.325853129617082"><ele>406.0</ele><time>2026-04-03T09:45:43.994Z</time></trkpt><trkpt lat="43.54581258487296" lon="11.325561051596198"><ele>405.0</ele><time>2026-04-03T09:45:44.994Z</time></trkpt><trkpt lat="43.545907969772045" lon="11.325222123564087"><ele>405.0</ele><time>2026-04-03T09:45:45.994Z</time></trkpt><trkpt lat="43.54600436844302" lon="11.324858532555965"><ele>405.0</ele><time>2026-04-03T09:45:46.994Z</time></trkpt><trkpt lat="43.54610324956883" lon="11.324517326499254"><ele>404.33333333333337</ele><time>2026-04-03T09:45:47.994Z</time></trkpt><trkpt lat="43.54619351287553" lon="11.324229708257203"><ele>403.6666666666667</ele><time>2026-04-03T09:45:48.994Z</time></trkpt><trkpt lat="43.54626180228965" lon="11.324005212116152"><ele>403.0</ele><time>2026-04-03T09:45:49.994Z</time></trkpt><trkpt lat="43.54631943406438" lon="11.32384117429843"><ele>403.0</ele><time>2026-04-03T09:45:50.994Z</time></trkpt><trkpt lat="43.54642842122712" lon="11.323723863711605"><ele>403.0</ele><time>2026-04-03T09:45:51.994Z</time></trkpt><trkpt lat="43.54657978065445" lon="11.32365969944881"><ele>403.0</ele><time>2026-04-03T09:45:52.994Z</time></trkpt><trkpt lat="43.54677105776362" lon="11.323620976588577"><ele>403.0</ele><time>2026-04-03T09:45:53.994Z</time></trkpt><trkpt lat="43.54701981787588" lon="11.323561592240232"><ele>403.0</ele><time>2026-04-03T09:45:54.994Z</time></trkpt><trkpt lat="43.54731899833618" lon="11.323532193688179"><ele>399.0</ele><time>2026-04-03T09:45:55.994Z</time></trkpt><trkpt lat="43.54759526610909" lon="11.323476916738588"><ele>395.0</ele><time>2026-04-03T09:45:56.994Z</time></trkpt><trkpt lat="43.547885547056616" lon="11.323406924700821"><ele>392.0</ele><time>2026-04-03T09:45:57.994Z</time></trkpt><trkpt lat="43.548188093645216" lon="11.323338108560193"><ele>389.0</ele><time>2026-04-03T09:45:58.994Z</time></trkpt><trkpt lat="43.54849910900357" lon="11.32325612334405"><ele>385.5</ele><time>2026-04-03T09:45:59.994Z</time></trkpt><trkpt lat="43.548801321272556" lon="11.323176948661212"><ele>382.0</ele><time>2026-04-03T09:46:00.994Z</time></trkpt><trkpt lat="43.549082145807624" lon="11.323093919152411"><ele>389.0</ele><time>2026-04-03T09:46:01.994Z</time></trkpt><trkpt lat="43.549323158309036" lon="11.323026312348901"><ele>396.0</ele><time>2026-04-03T09:46:02.994Z</time></trkpt><trkpt lat="43.549522800045914" lon="11.322962305620635"><ele>395.66666666666663</ele><time>2026-04-03T09:46:03.994Z</time></trkpt><trkpt lat="43.549694875323915" lon="11.322922692399104"><ele>395.3333333333333</ele><time>2026-04-03T09:46:04.994Z</time></trkpt><trkpt lat="43.5498626064599" lon="11.322944779375494"><ele>395.0</ele><time>2026-04-03T09:46:05.994Z</time></trkpt><trkpt lat="43.55002325128068" lon="11.323026298885365"><ele>395.0</ele><time>2026-04-03T09:46:06.994Z</time></trkpt><trkpt lat="43.550187155972736" lon="11.323159672696047"><ele>395.0</ele><time>2026-04-03T09:46:07.994Z</time></trkpt><trkpt lat="43.550327701779494" lon="11.323341089498559"><ele>395.0</ele><time>2026-04-03T09:46:08.994Z</time></trkpt><trkpt lat="43.550486697034934" lon="11.323549346156184"><ele>395.0</ele><time>2026-04-03T09:46:09.994Z</time></trkpt><trkpt lat="43.55064621262504" lon="11.323735360849726"><ele>395.0</ele><time>2026-04-03T09:46:10.994Z</time></trkpt><trkpt lat="43.55080975725463" lon="11.323837048233719"><ele>395.0</ele><time>2026-04-03T09:46:11.994Z</time></trkpt><trkpt lat="43.55096566723958" lon="11.323968976413587"><ele>389.66666666666663</ele><time>2026-04-03T09:46:12.994Z</time></trkpt><trkpt lat="43.55114921460293" lon="11.32408913224533"><ele>384.3333333333333</ele><time>2026-04-03T09:46:13.994Z</time></trkpt><trkpt lat="43.551374577621715" lon="11.324173037064464"><ele>379.0</ele><time>2026-04-03T09:46:14.994Z</time></trkpt><trkpt lat="43.55159469805485" lon="11.324236135239689"><ele>379.0</ele><time>2026-04-03T09:46:15.994Z</time></trkpt><trkpt lat="43.551783486817165" lon="11.324294856099254"><ele>379.0</ele><time>2026-04-03T09:46:16.994Z</time></trkpt><trkpt lat="43.552004533097985" lon="11.324297725529735"><ele>379.0</ele><time>2026-04-03T09:46:17.994Z</time></trkpt><trkpt lat="43.55224509859809" lon="11.32427662017825"><ele>378.0</ele><time>2026-04-03T09:46:18.994Z</time></trkpt><trkpt lat="43.55249975090942" lon="11.324241706638942"><ele>377.0</ele><time>2026-04-03T09:46:19.994Z</time></trkpt><trkpt lat="43.55270706803955" lon="11.324211655179347"><ele>378.33333333333337</ele><time>2026-04-03T09:46:20.994Z</time></trkpt><trkpt lat="43.552896834484535" lon="11.32420197087271"><ele>379.6666666666667</ele><time>2026-04-03T09:46:21.994Z</time></trkpt><trkpt lat="43.55306143086361" lon="11.32423309656495"><ele>381.0</ele><time>2026-04-03T09:46:22.994Z</time></trkpt><trkpt lat="43.553166659935926" lon="11.324366179627567"><ele>381.0</ele><time>2026-04-03T09:46:23.994Z</time></trkpt><trkpt lat="43.55323150510677" lon="11.324513290372558"><ele>381.0</ele><time>2026-04-03T09:46:24.994Z</time></trkpt><trkpt lat="43.553264068819175" lon="11.324723360928077"><ele>381.0</ele><time>2026-04-03T09:46:25.994Z</time></trkpt><trkpt lat="43.553295204980145" lon="11.324948224017861"><ele>381.0</ele><time>2026-04-03T09:46:26.994Z</time></trkpt><trkpt lat="43.553375185801336" lon="11.325270787277596"><ele>377.5</ele><time>2026-04-03T09:46:27.994Z</time></trkpt><trkpt lat="43.55345027830267" lon="11.32538977968451"><ele>374.0</ele><time>2026-04-03T09:46:28.994Z</time></trkpt><trkpt lat="43.55354089116011" lon="11.325464099491617"><ele>370.5</ele><time>2026-04-03T09:46:29.994Z</time></trkpt><trkpt lat="43.55365359678695" lon="11.32546906508193"><ele>367.0</ele><time>2026-04-03T09:46:30.994Z</time></trkpt><trkpt lat="43.55378612660758" lon="11.32542783758434"><ele>366.3333333333333</ele><time>2026-04-03T09:46:31.994Z</time></trkpt><trkpt lat="43.553940861658894" lon="11.325318960343777"><ele>365.6666666666667</ele><time>2026-04-03T09:46:32.994Z</time></trkpt><trkpt lat="43.554083433105546" lon="11.325193620555234"><ele>365.0</ele><time>2026-04-03T09:46:33.994Z</time></trkpt><trkpt lat="43.55424338716959" lon="11.325020327508327"><ele>365.0</ele><time>2026-04-03T09:46:34.994Z</time></trkpt><trkpt lat="43.55439567096583" lon="11.324817134851454"><ele>365.0</ele><time>2026-04-03T09:46:35.994Z</time></trkpt><trkpt lat="43.55454878996994" lon="11.324657014243828"><ele>365.0</ele><time>2026-04-03T09:46:36.994Z</time></trkpt><trkpt lat="43.55467825213203" lon="11.324556290653945"><ele>365.0</ele><time>2026-04-03T09:46:37.994Z</time></trkpt><trkpt lat="43.55482250816828" lon="11.324560394732408"><ele>365.0</ele><time>2026-04-03T09:46:38.994Z</time></trkpt><trkpt lat="43.55505378638292" lon="11.324659980329386"><ele>365.0</ele><time>2026-04-03T09:46:39.995Z</time></trkpt><trkpt lat="43.555246809944805" lon="11.324708094062261"><ele>361.75</ele><time>2026-04-03T09:46:40.995Z</time></trkpt><trkpt lat="43.55540298420593" lon="11.324714866168968"><ele>358.5</ele><time>2026-04-03T09:46:41.995Z</time></trkpt><trkpt lat="43.55554263742584" lon="11.324710091402341"><ele>355.25</ele><time>2026-04-03T09:46:42.995Z</time></trkpt><trkpt lat="43.55568123030881" lon="11.324636824640233"><ele>352.0</ele><time>2026-04-03T09:46:43.995Z</time></trkpt><trkpt lat="43.55586305233231" lon="11.3244820953413"><ele>352.0</ele><time>2026-04-03T09:46:44.995Z</time></trkpt><trkpt lat="43.55608871143166" lon="11.324235287444116"><ele>352.0</ele><time>2026-04-03T09:46:45.995Z</time></trkpt><trkpt lat="43.55633881934519" lon="11.324021510814802"><ele>350.0</ele><time>2026-04-03T09:46:46.995Z</time></trkpt><trkpt lat="43.55659065922536" lon="11.323802078750507"><ele>348.0</ele><time>2026-04-03T09:46:47.995Z</time></trkpt><trkpt lat="43.55685863332001" lon="11.323571486598356"><ele>340.5</ele><time>2026-04-03T09:46:48.995Z</time></trkpt><trkpt lat="43.557096665026506" lon="11.323346500354564"><ele>333.0</ele><time>2026-04-03T09:46:49.995Z</time></trkpt><trkpt lat="43.55727306282344" lon="11.323154253898691"><ele>338.3333333333333</ele><time>2026-04-03T09:46:50.995Z</time></trkpt><trkpt lat="43.55739051898214" lon="11.322995652938708"><ele>343.66666666666663</ele><time>2026-04-03T09:46:51.995Z</time></trkpt><trkpt lat="43.557537972772856" lon="11.322880832952318"><ele>349.0</ele><time>2026-04-03T09:46:52.995Z</time></trkpt><trkpt lat="43.55774050025876" lon="11.322811914253771"><ele>343.5</ele><time>2026-04-03T09:46:53.995Z</time></trkpt><trkpt lat="43.55797783990636" lon="11.32273478754818"><ele>338.0</ele><time>2026-04-03T09:46:54.995Z</time></trkpt><trkpt lat="43.55825032441696" lon="11.32264624010338"><ele>338.0</ele><time>2026-04-03T09:46:55.995Z</time></trkpt><trkpt lat="43.55851236970303" lon="11.322547274296083"><ele>338.0</ele><time>2026-04-03T09:46:56.995Z</time></trkpt><trkpt lat="43.55874517972078" lon="11.322464133540278"><ele>336.33333333333337</ele><time>2026-04-03T09:46:57.995Z</time></trkpt><trkpt lat="43.55893736971084" lon="11.322427674835417"><ele>334.6666666666667</ele><time>2026-04-03T09:46:58.995Z</time></trkpt><trkpt lat="43.559062471397226" lon="11.322425974307354"><ele>333.0</ele><time>2026-04-03T09:46:59.995Z</time></trkpt><trkpt lat="43.55919024812453" lon="11.322487674480383"><ele>333.0</ele><time>2026-04-03T09:47:00.995Z</time></trkpt><trkpt lat="43.55930150102306" lon="11.322591541722119"><ele>333.0</ele><time>2026-04-03T09:47:01.995Z</time></trkpt><trkpt lat="43.55936921580831" lon="11.322729626574036"><ele>333.0</ele><time>2026-04-03T09:47:02.995Z</time></trkpt><trkpt lat="43.5593842377328" lon="11.32288445740749"><ele>333.0</ele><time>2026-04-03T09:47:03.995Z</time></trkpt><trkpt lat="43.55945545807307" lon="11.323107572619998"><ele>331.3333333333333</ele><time>2026-04-03T09:47:04.995Z</time></trkpt><trkpt lat="43.559575081436094" lon="11.323343593005628"><ele>329.66666666666663</ele><time>2026-04-03T09:47:05.995Z</time></trkpt><trkpt lat="43.559731842191496" lon="11.323487701395782"><ele>328.0</ele><time>2026-04-03T09:47:06.995Z</time></trkpt><trkpt lat="43.55990846211349" lon="11.323699535371906"><ele>319.5</ele><time>2026-04-03T09:47:07.995Z</time></trkpt><trkpt lat="43.56010331708291" lon="11.323903214631034"><ele>311.0</ele><time>2026-04-03T09:47:08.995Z</time></trkpt><trkpt lat="43.560307493105654" lon="11.324089479548341"><ele>314.6666666666667</ele><time>2026-04-03T09:47:09.995Z</time></trkpt><trkpt lat="43.56051438562374" lon="11.324211782917207"><ele>318.3333333333333</ele><time>2026-04-03T09:47:10.995Z</time></trkpt><trkpt lat="43.56071176816696" lon="11.324350616524708"><ele>322.0</ele><time>2026-04-03T09:47:11.995Z</time></trkpt><trkpt lat="43.56091601523787" lon="11.324452488190085"><ele>322.0</ele><time>2026-04-03T09:47:12.995Z</time></trkpt><trkpt lat="43.56112964841906" lon="11.32451717037078"><ele>322.0</ele><time>2026-04-03T09:47:13.995Z</time></trkpt><trkpt lat="43.56134833350325" lon="11.324508329374112"><ele>322.0</ele><time>2026-04-03T09:47:14.995Z</time></trkpt><trkpt lat="43.56158977805194" lon="11.324423044402787"><ele>319.0</ele><time>2026-04-03T09:47:15.993Z</time></trkpt><trkpt lat="43.561829751867286" lon="11.324354836250679"><ele>316.0</ele><time>2026-04-03T09:47:16.993Z</time></trkpt><trkpt lat="43.562065530052585" lon="11.324255642384015"><ele>309.5</ele><time>2026-04-03T09:47:17.993Z</time></trkpt><trkpt lat="43.56227150787939" lon="11.32407997409077"><ele>303.0</ele><time>2026-04-03T09:47:18.994Z</time></trkpt><trkpt lat="43.56247843240604" lon="11.323951015499407"><ele>304.3333333333333</ele><time>2026-04-03T09:47:19.994Z</time></trkpt><trkpt lat="43.56265091528584" lon="11.323856069186485"><ele>305.66666666666663</ele><time>2026-04-03T09:47:20.994Z</time></trkpt><trkpt lat="43.56282486182055" lon="11.323827215165574"><ele>307.0</ele><time>2026-04-03T09:47:21.993Z</time></trkpt><trkpt lat="43.56301320549051" lon="11.323780660029104"><ele>307.0</ele><time>2026-04-03T09:47:22.994Z</time></trkpt><trkpt lat="43.563173722213214" lon="11.323698380472907"><ele>307.0</ele><time>2026-04-03T09:47:23.994Z</time></trkpt><trkpt lat="43.56330984706569" lon="11.323577978973383"><ele>307.0</ele><time>2026-04-03T09:47:24.993Z</time></trkpt><trkpt lat="43.56344734128725" lon="11.323471941685796"><ele>307.0</ele><time>2026-04-03T09:47:25.994Z</time></trkpt><trkpt lat="43.56359716923629" lon="11.323355076318109"><ele>307.0</ele><time>2026-04-03T09:47:26.994Z</time></trkpt><trkpt lat="43.56375130114847" lon="11.323280146318748"><ele>307.0</ele><time>2026-04-03T09:47:27.994Z</time></trkpt><trkpt lat="43.56391756396298" lon="11.32322072902385"><ele>303.3333333333333</ele><time>2026-04-03T09:47:28.993Z</time></trkpt><trkpt lat="43.564092087433735" lon="11.323194036585175"><ele>299.6666666666667</ele><time>2026-04-03T09:47:29.993Z</time></trkpt><trkpt lat="43.56425245885547" lon="11.32318973293579"><ele>296.0</ele><time>2026-04-03T09:47:30.993Z</time></trkpt><trkpt lat="43.56440686335577" lon="11.323150331191739"><ele>295.6666666666667</ele><time>2026-04-03T09:47:31.993Z</time></trkpt><trkpt lat="43.56454547849963" lon="11.323091669733932"><ele>295.3333333333333</ele><time>2026-04-03T09:47:32.993Z</time></trkpt><trkpt lat="43.56468856201149" lon="11.322982735086622"><ele>295.0</ele><time>2026-04-03T09:47:33.993Z</time></trkpt><trkpt lat="43.56480177078645" lon="11.322864090925533"><ele>295.0</ele><time>2026-04-03T09:47:34.993Z</time></trkpt><trkpt lat="43.56492953057605" lon="11.3227407900169"><ele>295.0</ele><time>2026-04-03T09:47:35.993Z</time></trkpt><trkpt lat="43.56507577409961" lon="11.322647955782449"><ele>295.0</ele><time>2026-04-03T09:47:36.993Z</time></trkpt><trkpt lat="43.565235064967055" lon="11.32258678849378"><ele>291.66666666666663</ele><time>2026-04-03T09:47:37.993Z</time></trkpt><trkpt lat="43.56540931718536" lon="11.322574423795691"><ele>288.3333333333333</ele><time>2026-04-03T09:47:38.993Z</time></trkpt><trkpt lat="43.56563028247092" lon="11.322538867498114"><ele>285.0</ele><time>2026-04-03T09:47:39.994Z</time></trkpt><trkpt lat="43.5658788403808" lon="11.322474263400867"><ele>285.0</ele><time>2026-04-03T09:47:40.994Z</time></trkpt><trkpt lat="43.566114566485766" lon="11.322377158772955"><ele>285.0</ele><time>2026-04-03T09:47:41.994Z</time></trkpt><trkpt lat="43.56634902502056" lon="11.322343033929124"><ele>284.0</ele><time>2026-04-03T09:47:42.994Z</time></trkpt><trkpt lat="43.56656460135094" lon="11.322382222860218"><ele>283.0</ele><time>2026-04-03T09:47:43.994Z</time></trkpt><trkpt lat="43.56678513494883" lon="11.322445861113922"><ele>282.0</ele><time>2026-04-03T09:47:44.994Z</time></trkpt><trkpt lat="43.566992068232636" lon="11.322569065397367"><ele>283.3333333333333</ele><time>2026-04-03T09:47:45.994Z</time></trkpt><trkpt lat="43.56717860474814" lon="11.322703814708833"><ele>284.66666666666663</ele><time>2026-04-03T09:47:46.994Z</time></trkpt><trkpt lat="43.56736612397721" lon="11.322789418586467"><ele>286.0</ele><time>2026-04-03T09:47:47.994Z</time></trkpt><trkpt lat="43.56756104188972" lon="11.322793017483436"><ele>286.0</ele><time>2026-04-03T09:47:48.994Z</time></trkpt><trkpt lat="43.56774580991651" lon="11.322812672254532"><ele>286.0</ele><time>2026-04-03T09:47:49.994Z</time></trkpt><trkpt lat="43.56796246819949" lon="11.322781968281827"><ele>286.0</ele><time>2026-04-03T09:47:50.994Z</time></trkpt><trkpt lat="43.56817291486997" lon="11.322732937428206"><ele>283.66666666666663</ele><time>2026-04-03T09:47:51.994Z</time></trkpt><trkpt lat="43.568372005139" lon="11.322702744793034"><ele>281.3333333333333</ele><time>2026-04-03T09:47:52.994Z</time></trkpt><trkpt lat="43.56853593515929" lon="11.322667267399554"><ele>279.0</ele><time>2026-04-03T09:47:53.994Z</time></trkpt><trkpt lat="43.56868759295642" lon="11.32260427303144"><ele>273.6666666666667</ele><time>2026-04-03T09:47:54.994Z</time></trkpt><trkpt lat="43.56880956043165" lon="11.322450803189872"><ele>268.33333333333337</ele><time>2026-04-03T09:47:55.994Z</time></trkpt><trkpt lat="43.5689380850985" lon="11.322235413749523"><ele>263.0</ele><time>2026-04-03T09:47:56.994Z</time></trkpt><trkpt lat="43.56906284620254" lon="11.322033244411669"><ele>263.0</ele><time>2026-04-03T09:47:57.994Z</time></trkpt><trkpt lat="43.56918102730447" lon="11.32183308956863"><ele>263.0</ele><time>2026-04-03T09:47:58.994Z</time></trkpt><trkpt lat="43.56923760199786" lon="11.321599425395577"><ele>263.0</ele><time>2026-04-03T09:47:59.994Z</time></trkpt><trkpt lat="43.56927779455709" lon="11.321357898753998"><ele>264.33333333333337</ele><time>2026-04-03T09:48:00.994Z</time></trkpt><trkpt lat="43.56930506243332" lon="11.321085201590304"><ele>265.6666666666667</ele><time>2026-04-03T09:48:01.994Z</time></trkpt><trkpt lat="43.5693341459066" lon="11.320867640091896"><ele>267.0</ele><time>2026-04-03T09:48:02.994Z</time></trkpt><trkpt lat="43.56937497484802" lon="11.320710795692436"><ele>267.0</ele><time>2026-04-03T09:48:03.994Z</time></trkpt><trkpt lat="43.569472464454265" lon="11.320602090953551"><ele>267.0</ele><time>2026-04-03T09:48:04.994Z</time></trkpt><trkpt lat="43.569623674180534" lon="11.320553332734308"><ele>267.0</ele><time>2026-04-03T09:48:05.994Z</time></trkpt><trkpt lat="43.56981103562372" lon="11.320488113386899"><ele>265.3333333333333</ele><time>2026-04-03T09:48:06.994Z</time></trkpt><trkpt lat="43.56998470175189" lon="11.320458078002536"><ele>263.66666666666663</ele><time>2026-04-03T09:48:07.994Z</time></trkpt><trkpt lat="43.57016436539928" lon="11.320421085970006"><ele>262.0</ele><time>2026-04-03T09:48:08.994Z</time></trkpt><trkpt lat="43.57036205811526" lon="11.320388496711738"><ele>261.0</ele><time>2026-04-03T09:48:09.994Z</time></trkpt><trkpt lat="43.57054782539317" lon="11.320337213484011"><ele>260.0</ele><time>2026-04-03T09:48:10.994Z</time></trkpt><trkpt lat="43.57074235767826" lon="11.320272933391603"><ele>259.0</ele><time>2026-04-03T09:48:11.994Z</time></trkpt><trkpt lat="43.570927988810965" lon="11.320165964849906"><ele>259.0</ele><time>2026-04-03T09:48:12.994Z</time></trkpt><trkpt lat="43.571123323059446" lon="11.32006676034153"><ele>259.0</ele><time>2026-04-03T09:48:13.994Z</time></trkpt><trkpt lat="43.571310968309874" lon="11.3199639337044"><ele>259.0</ele><time>2026-04-03T09:48:14.994Z</time></trkpt><trkpt lat="43.57149753389619" lon="11.319876109635242"><ele>261.66666666666663</ele><time>2026-04-03T09:48:15.994Z</time></trkpt><trkpt lat="43.57166572184017" lon="11.319786501808242"><ele>264.3333333333333</ele><time>2026-04-03T09:48:16.994Z</time></trkpt><trkpt lat="43.57183806737884" lon="11.319699778874618"><ele>267.0</ele><time>2026-04-03T09:48:17.994Z</time></trkpt><trkpt lat="43.57201236262981" lon="11.319609181583353"><ele>264.0</ele><time>2026-04-03T09:48:18.994Z</time></trkpt><trkpt lat="43.572185705553956" lon="11.31951591282682"><ele>261.0</ele><time>2026-04-03T09:48:19.994Z</time></trkpt><trkpt lat="43.57236480720276" lon="11.319429013379313"><ele>258.0</ele><time>2026-04-03T09:48:20.994Z</time></trkpt><trkpt lat="43.57253982081929" lon="11.319339578293642"><ele>258.0</ele><time>2026-04-03T09:48:21.994Z</time></trkpt><trkpt lat="43.572720865152505" lon="11.319255091912604"><ele>258.0</ele><time>2026-04-03T09:48:22.994Z</time></trkpt><trkpt lat="43.57290202988929" lon="11.319167833270402"><ele>258.0</ele><time>2026-04-03T09:48:23.994Z</time></trkpt><trkpt lat="43.5730813611615" lon="11.31908129785842"><ele>255.0</ele><time>2026-04-03T09:48:24.994Z</time></trkpt><trkpt lat="43.57326422253071" lon="11.318995803738757"><ele>252.0</ele><time>2026-04-03T09:48:25.994Z</time></trkpt><trkpt lat="43.57345299916603" lon="11.318909951582938"><ele>249.0</ele><time>2026-04-03T09:48:26.994Z</time></trkpt><trkpt lat="43.5736410428192" lon="11.318812806414124"><ele>252.0</ele><time>2026-04-03T09:48:27.994Z</time></trkpt><trkpt lat="43.5738360934298" lon="11.318716949363067"><ele>255.0</ele><time>2026-04-03T09:48:28.994Z</time></trkpt><trkpt lat="43.57403753789619" lon="11.318624166578093"><ele>258.0</ele><time>2026-04-03T09:48:29.994Z</time></trkpt><trkpt lat="43.5742303156588" lon="11.318529427371995"><ele>258.0</ele><time>2026-04-03T09:48:30.994Z</time></trkpt><trkpt lat="43.57443029046476" lon="11.318424556207814"><ele>258.0</ele><time>2026-04-03T09:48:31.994Z</time></trkpt><trkpt lat="43.57463224803169" lon="11.318321973767945"><ele>258.0</ele><time>2026-04-03T09:48:32.994Z</time></trkpt><trkpt lat="43.57483259858965" lon="11.318230302050189"><ele>258.0</ele><time>2026-04-03T09:48:33.994Z</time></trkpt><trkpt lat="43.575030665650715" lon="11.318126610765272"><ele>258.0</ele><time>2026-04-03T09:48:34.994Z</time></trkpt><trkpt lat="43.57522895403163" lon="11.318021158248955"><ele>258.0</ele><time>2026-04-03T09:48:35.994Z</time></trkpt><trkpt lat="43.57540301471751" lon="11.317925995641811"><ele>253.33333333333331</ele><time>2026-04-03T09:48:36.994Z</time></trkpt><trkpt lat="43.57557808577394" lon="11.31784864509676"><ele>248.66666666666666</ele><time>2026-04-03T09:48:37.994Z</time></trkpt><trkpt lat="43.575757582286926" lon="11.317754205853399"><ele>244.0</ele><time>2026-04-03T09:48:38.994Z</time></trkpt><trkpt lat="43.57594686740548" lon="11.317646979096631"><ele>244.0</ele><time>2026-04-03T09:48:39.994Z</time></trkpt><trkpt lat="43.57615423239695" lon="11.31753258385067"><ele>244.0</ele><time>2026-04-03T09:48:40.994Z</time></trkpt><trkpt lat="43.576371448588574" lon="11.317418513828617"><ele>242.0</ele><time>2026-04-03T09:48:41.994Z</time></trkpt><trkpt lat="43.57659767636354" lon="11.31729196261941"><ele>240.0</ele><time>2026-04-03T09:48:42.994Z</time></trkpt><trkpt lat="43.57680968902493" lon="11.317185736548003"><ele>241.33333333333331</ele><time>2026-04-03T09:48:43.994Z</time></trkpt><trkpt lat="43.57700754411211" lon="11.31709651069888"><ele>242.66666666666666</ele><time>2026-04-03T09:48:44.994Z</time></trkpt><trkpt lat="43.57717825189721" lon="11.31701974456191"><ele>244.0</ele><time>2026-04-03T09:48:45.994Z</time></trkpt><trkpt lat="43.57732393412353" lon="11.316956322521381"><ele>244.0</ele><time>2026-04-03T09:48:46.994Z</time></trkpt><trkpt lat="43.57744651100293" lon="11.316907771258546"><ele>243.99999999999997</ele><time>2026-04-03T09:48:47.994Z</time></trkpt><trkpt lat="43.577545195520216" lon="11.316870587777741"><ele>243.99999999999997</ele><time>2026-04-03T09:48:48.994Z</time></trkpt><trkpt lat="43.57764382956205" lon="11.316839744055068"><ele>244.0</ele><time>2026-04-03T09:48:49.994Z</time></trkpt><trkpt lat="43.57775541065411" lon="11.316810654009872"><ele>244.0</ele><time>2026-04-03T09:48:50.994Z</time></trkpt><trkpt lat="43.57786786189926" lon="11.31677472019978"><ele>243.0</ele><time>2026-04-03T09:48:51.994Z</time></trkpt><trkpt lat="43.57800663957361" lon="11.316735045049816"><ele>242.0</ele><time>2026-04-03T09:48:52.994Z</time></trkpt><trkpt lat="43.5781386210478" lon="11.316686291562137"><ele>241.0</ele><time>2026-04-03T09:48:53.994Z</time></trkpt><trkpt lat="43.578270854797715" lon="11.316634041261814"><ele>240.0</ele><time>2026-04-03T09:48:54.994Z</time></trkpt><trkpt lat="43.57843403046435" lon="11.31660034043231"><ele>240.0</ele><time>2026-04-03T09:48:55.994Z</time></trkpt><trkpt lat="43.57860010406546" lon="11.316583783525793"><ele>240.0</ele><time>2026-04-03T09:48:56.994Z</time></trkpt><trkpt lat="43.578783306753046" lon="11.316635899931788"><ele>240.0</ele><time>2026-04-03T09:48:57.994Z</time></trkpt><trkpt lat="43.578966540157936" lon="11.316699777369802"><ele>239.66666666666669</ele><time>2026-04-03T09:48:58.995Z</time></trkpt><trkpt lat="43.57915509430096" lon="11.31676459814638"><ele>239.33333333333334</ele><time>2026-04-03T09:48:59.995Z</time></trkpt><trkpt lat="43.57936133452755" lon="11.316849084230505"><ele>239.0</ele><time>2026-04-03T09:49:00.995Z</time></trkpt><trkpt lat="43.579559302804654" lon="11.316930801415017"><ele>240.33333333333334</ele><time>2026-04-03T09:49:01.995Z</time></trkpt><trkpt lat="43.57972895749513" lon="11.316992974649112"><ele>241.66666666666669</ele><time>2026-04-03T09:49:02.995Z</time></trkpt><trkpt lat="43.57986127486802" lon="11.31707377785868"><ele>243.0</ele><time>2026-04-03T09:49:03.995Z</time></trkpt><trkpt lat="43.579990541661275" lon="11.31711405841732"><ele>243.0</ele><time>2026-04-03T09:49:04.995Z</time></trkpt><trkpt lat="43.58011305020871" lon="11.31718164065951"><ele>243.0</ele><time>2026-04-03T09:49:05.995Z</time></trkpt><trkpt lat="43.58022035278146" lon="11.317285352769389"><ele>243.0</ele><time>2026-04-03T09:49:06.995Z</time></trkpt><trkpt lat="43.58033580787304" lon="11.317395120688184"><ele>243.0</ele><time>2026-04-03T09:49:07.995Z</time></trkpt><trkpt lat="43.580470017303924" lon="11.317529604624752"><ele>241.5</ele><time>2026-04-03T09:49:08.995Z</time></trkpt><trkpt lat="43.58061400601898" lon="11.31762953241731"><ele>240.0</ele><time>2026-04-03T09:49:09.995Z</time></trkpt><trkpt lat="43.58073778815901" lon="11.317746978731789"><ele>238.5</ele><time>2026-04-03T09:49:10.995Z</time></trkpt><trkpt lat="43.58085793232948" lon="11.317840086457553"><ele>237.0</ele><time>2026-04-03T09:49:11.995Z</time></trkpt><trkpt lat="43.58097061084509" lon="11.3179274996561"><ele>237.0</ele><time>2026-04-03T09:49:12.995Z</time></trkpt><trkpt lat="43.58109814073547" lon="11.317922677414105"><ele>237.0</ele><time>2026-04-03T09:49:13.995Z</time></trkpt><trkpt lat="43.581221141352614" lon="11.317916135017834"><ele>237.0</ele><time>2026-04-03T09:49:14.995Z</time></trkpt><trkpt lat="43.581339735265466" lon="11.317929391468892"><ele>237.0</ele><time>2026-04-03T09:49:15.995Z</time></trkpt><trkpt lat="43.5814502083209" lon="11.317959451425633"><ele>237.39999999999998</ele><time>2026-04-03T09:49:16.995Z</time></trkpt><trkpt lat="43.58153358945131" lon="11.317945728079188"><ele>237.79999999999998</ele><time>2026-04-03T09:49:17.995Z</time></trkpt><trkpt lat="43.581620050536806" lon="11.317891370941542"><ele>238.2</ele><time>2026-04-03T09:49:19.995Z</time></trkpt><trkpt lat="43.581647741822096" lon="11.317720081628819"><ele>238.6</ele><time>2026-04-03T09:49:21.993Z</time></trkpt><trkpt lat="43.58167303122129" lon="11.317611525634955"><ele>239.0</ele><time>2026-04-03T09:49:23.993Z</time></trkpt><trkpt lat="43.58167357042152" lon="11.317503224938436"><ele>239.0</ele><time>2026-04-03T09:49:27.992Z</time></trkpt><trkpt lat="43.5816958348046" lon="11.317414600469638"><ele>238.99999999999997</ele><time>2026-04-03T09:49:42.993Z</time></trkpt><trkpt lat="43.581597292426224" lon="11.317308862950211"><ele>238.99999999999997</ele><time>2026-04-03T09:58:52.992Z</time></trkpt><trkpt lat="43.58148622740541" lon="11.317323029884383"><ele>239.0</ele><time>2026-04-03T09:58:54.992Z</time></trkpt><trkpt lat="43.58137549485844" lon="11.317350630393781"><ele>239.0</ele><time>2026-04-03T09:58:56.992Z</time></trkpt><trkpt lat="43.58130935669285" lon="11.317375705348741"><ele>239.0</ele><time>2026-04-03T09:58:57.992Z</time></trkpt><trkpt lat="43.581233349730994" lon="11.317402126732791"><ele>238.99999999999997</ele><time>2026-04-03T09:58:58.992Z</time></trkpt><trkpt lat="43.58113352484242" lon="11.317399155875746"><ele>238.99999999999997</ele><time>2026-04-03T09:58:59.992Z</time></trkpt><trkpt lat="43.58104276189286" lon="11.317336945522639"><ele>239.0</ele><time>2026-04-03T09:59:00.992Z</time></trkpt><trkpt lat="43.58096258210009" lon="11.317296200957944"><ele>239.0</ele><time>2026-04-03T09:59:01.993Z</time></trkpt><trkpt lat="43.58085334208705" lon="11.31728062967112"><ele>238.6</ele><time>2026-04-03T09:59:02.993Z</time></trkpt><trkpt lat="43.580751948129134" lon="11.317259157112394"><ele>238.2</ele><time>2026-04-03T09:59:03.993Z</time></trkpt><trkpt lat="43.58064658300176" lon="11.317235261238364"><ele>237.79999999999998</ele><time>2026-04-03T09:59:04.993Z</time></trkpt><trkpt lat="43.580531403099705" lon="11.31720753111885"><ele>237.39999999999998</ele><time>2026-04-03T09:59:05.993Z</time></trkpt><trkpt lat="43.58042820530788" lon="11.31718301246457"><ele>237.0</ele><time>2026-04-03T09:59:06.993Z</time></trkpt><trkpt lat="43.58033916171528" lon="11.31716562492027"><ele>237.0</ele><time>2026-04-03T09:59:07.993Z</time></trkpt><trkpt lat="43.58025159224808" lon="11.317145986495"><ele>237.0</ele><time>2026-04-03T09:59:09.993Z</time></trkpt><trkpt lat="43.580255803076234" lon="11.317346452642184"><ele>237.0</ele><time>2026-04-03T09:59:22.993Z</time></trkpt><trkpt lat="43.58037760282832" lon="11.317456496325468"><ele>237.0</ele><time>2026-04-03T09:59:23.993Z</time></trkpt><trkpt lat="43.58052143361464" lon="11.317608847231238"><ele>237.0</ele><time>2026-04-03T09:59:24.993Z</time></trkpt><trkpt lat="43.580707075145476" lon="11.317751315523017"><ele>237.0</ele><time>2026-04-03T09:59:25.993Z</time></trkpt><trkpt lat="43.580867303381126" lon="11.317852493330799"><ele>237.0</ele><time>2026-04-03T09:59:26.993Z</time></trkpt><trkpt lat="43.5809886204754" lon="11.317915493780534"><ele>237.0</ele><time>2026-04-03T09:59:27.993Z</time></trkpt><trkpt lat="43.58111523895593" lon="11.317966528149785"><ele>237.0</ele><time>2026-04-03T09:59:28.993Z</time></trkpt><trkpt lat="43.581248968132556" lon="11.317956493275704"><ele>237.0</ele><time>2026-04-03T09:59:29.993Z</time></trkpt><trkpt lat="43.581356177779554" lon="11.31792279157195"><ele>237.0</ele><time>2026-04-03T09:59:30.993Z</time></trkpt><trkpt lat="43.58144523732167" lon="11.317883776435405"><ele>237.39999999999998</ele><time>2026-04-03T09:59:31.993Z</time></trkpt><trkpt lat="43.58152593548392" lon="11.317852261118613"><ele>237.79999999999998</ele><time>2026-04-03T09:59:32.993Z</time></trkpt><trkpt lat="43.58160895765549" lon="11.317853425627483"><ele>238.2</ele><time>2026-04-03T09:59:33.993Z</time></trkpt><trkpt lat="43.58169783110496" lon="11.31792842680597"><ele>238.6</ele><time>2026-04-03T09:59:34.993Z</time></trkpt><trkpt lat="43.581799323309205" lon="11.31796030425157"><ele>239.0</ele><time>2026-04-03T09:59:35.993Z</time></trkpt><trkpt lat="43.58190490528448" lon="11.317989190373789"><ele>239.0</ele><time>2026-04-03T09:59:36.993Z</time></trkpt><trkpt lat="43.58200715227856" lon="11.318015957729303"><ele>238.99999999999997</ele><time>2026-04-03T09:59:37.993Z</time></trkpt><trkpt lat="43.58211163315464" lon="11.318030603878574"><ele>238.99999999999997</ele><time>2026-04-03T09:59:38.993Z</time></trkpt><trkpt lat="43.58221239738333" lon="11.31801634856874"><ele>239.0</ele><time>2026-04-03T09:59:39.993Z</time></trkpt><trkpt lat="43.582294482840716" lon="11.317985778050383"><ele>239.0</ele><time>2026-04-03T09:59:40.993Z</time></trkpt><trkpt lat="43.58237469455308" lon="11.317955023893946"><ele>238.50000000000003</ele><time>2026-04-03T09:59:41.993Z</time></trkpt><trkpt lat="43.582447398900236" lon="11.317927373914287"><ele>238.0</ele><time>2026-04-03T09:59:42.993Z</time></trkpt><trkpt lat="43.58252943526787" lon="11.31789537476442"><ele>237.5</ele><time>2026-04-03T09:59:43.993Z</time></trkpt><trkpt lat="43.58263612138875" lon="11.31785376034055"><ele>237.0</ele><time>2026-04-03T09:59:44.993Z</time></trkpt><trkpt lat="43.58272203989252" lon="11.317821139494527"><ele>236.50000000000003</ele><time>2026-04-03T09:59:45.993Z</time></trkpt><trkpt lat="43.582797716223304" lon="11.317783551969947"><ele>236.0</ele><time>2026-04-03T09:59:47.993Z</time></trkpt><trkpt lat="43.5828802138868" lon="11.317763235940577"><ele>235.5</ele><time>2026-04-03T09:59:49.993Z</time></trkpt><trkpt lat="43.582943592798074" lon="11.317739384687933"><ele>235.0</ele><time>2026-04-03T09:59:50.993Z</time></trkpt><trkpt lat="43.58305576664668" lon="11.317676586676495"><ele>234.5</ele><time>2026-04-03T09:59:51.993Z</time></trkpt><trkpt lat="43.58317764942169" lon="11.317553131812732"><ele>234.0</ele><time>2026-04-03T09:59:52.993Z</time></trkpt><trkpt lat="43.58331306346579" lon="11.317456499042262"><ele>234.0</ele><time>2026-04-03T09:59:53.993Z</time></trkpt><trkpt lat="43.58342865588404" lon="11.317331725218574"><ele>234.0</ele><time>2026-04-03T09:59:54.993Z</time></trkpt><trkpt lat="43.58353319573863" lon="11.317158470214462"><ele>234.0</ele><time>2026-04-03T09:59:55.993Z</time></trkpt><trkpt lat="43.58361926288994" lon="11.316982590803711"><ele>233.0</ele><time>2026-04-03T09:59:56.993Z</time></trkpt><trkpt lat="43.583705392034325" lon="11.316787157059986"><ele>232.0</ele><time>2026-04-03T09:59:57.993Z</time></trkpt><trkpt lat="43.583793281386804" lon="11.31658582966749"><ele>231.0</ele><time>2026-04-03T09:59:58.993Z</time></trkpt><trkpt lat="43.583881913867195" lon="11.31638279976039"><ele>231.0</ele><time>2026-04-03T09:59:59.993Z</time></trkpt><trkpt lat="43.5839670019506" lon="11.316187889463935"><ele>231.0</ele><time>2026-04-03T10:00:00.993Z</time></trkpt><trkpt lat="43.58404584695402" lon="11.316007279688026"><ele>231.0</ele><time>2026-04-03T10:00:01.993Z</time></trkpt><trkpt lat="43.58412955346542" lon="11.31584029155277"><ele>231.0</ele><time>2026-04-03T10:00:02.993Z</time></trkpt><trkpt lat="43.584239869132595" lon="11.315716857358433"><ele>231.0</ele><time>2026-04-03T10:00:03.993Z</time></trkpt><trkpt lat="43.58438533152745" lon="11.315645459191126"><ele>231.0</ele><time>2026-04-03T10:00:04.993Z</time></trkpt><trkpt lat="43.58454661748307" lon="11.315574459609229"><ele>230.66666666666669</ele><time>2026-04-03T10:00:05.991Z</time></trkpt><trkpt lat="43.58471658234665" lon="11.315504987590755"><ele>230.33333333333334</ele><time>2026-04-03T10:00:06.99Z</time></trkpt><trkpt lat="43.58487418303856" lon="11.315420249829067"><ele>230.0</ele><time>2026-04-03T10:00:07.99Z</time></trkpt><trkpt lat="43.58503195793479" lon="11.315408096178578"><ele>230.0</ele><time>2026-04-03T10:00:08.99Z</time></trkpt><trkpt lat="43.585189355161226" lon="11.315378739979348"><ele>230.0</ele><time>2026-04-03T10:00:09.99Z</time></trkpt><trkpt lat="43.58534496136454" lon="11.315327391538606"><ele>230.0</ele><time>2026-04-03T10:00:10.99Z</time></trkpt><trkpt lat="43.585494422376875" lon="11.315305961771754"><ele>229.5</ele><time>2026-04-03T10:00:11.99Z</time></trkpt><trkpt lat="43.58563880704603" lon="11.315278275306252"><ele>229.0</ele><time>2026-04-03T10:00:12.991Z</time></trkpt><trkpt lat="43.58578480142167" lon="11.3152636771417"><ele>228.5</ele><time>2026-04-03T10:00:13.991Z</time></trkpt><trkpt lat="43.58590984960681" lon="11.31524355546372"><ele>228.0</ele><time>2026-04-03T10:00:14.991Z</time></trkpt><trkpt lat="43.586013377930115" lon="11.315215901959549"><ele>228.0</ele><time>2026-04-03T10:00:15.99Z</time></trkpt><trkpt lat="43.586087995698776" lon="11.315204808398654"><ele>228.0</ele><time>2026-04-03T10:00:16.99Z</time></trkpt><trkpt lat="43.586184260948194" lon="11.315188715646645"><ele>228.0</ele><time>2026-04-03T10:00:56.991Z</time></trkpt><trkpt lat="43.5862760754323" lon="11.315171162743395"><ele>228.0</ele><time>2026-04-03T10:00:57.991Z</time></trkpt><trkpt lat="43.58638523147672" lon="11.315150325693581"><ele>228.0</ele><time>2026-04-03T10:00:58.991Z</time></trkpt><trkpt lat="43.58652385755914" lon="11.315123853720547"><ele>228.0</ele><time>2026-04-03T10:00:59.991Z</time></trkpt><trkpt lat="43.586671922198235" lon="11.315095579371473"><ele>228.0</ele><time>2026-04-03T10:01:00.991Z</time></trkpt><trkpt lat="43.5868389827435" lon="11.315063677589793"><ele>228.0</ele><time>2026-04-03T10:01:01.991Z</time></trkpt><trkpt lat="43.58701101841828" lon="11.315030873608633"><ele>227.66666666666669</ele><time>2026-04-03T10:01:02.991Z</time></trkpt><trkpt lat="43.587192133506406" lon="11.314997223806069"><ele>227.33333333333334</ele><time>2026-04-03T10:01:03.991Z</time></trkpt><trkpt lat="43.58737716556622" lon="11.314962846268825"><ele>227.0</ele><time>2026-04-03T10:01:04.991Z</time></trkpt><trkpt lat="43.58754993323381" lon="11.314930747353095"><ele>227.0</ele><time>2026-04-03T10:01:05.991Z</time></trkpt><trkpt lat="43.58770583199781" lon="11.314901782558833"><ele>227.0</ele><time>2026-04-03T10:01:06.991Z</time></trkpt><trkpt lat="43.58784284316225" lon="11.31485347491137"><ele>227.0</ele><time>2026-04-03T10:01:07.991Z</time></trkpt><trkpt lat="43.587975499874034" lon="11.314855369985183"><ele>227.0</ele><time>2026-04-03T10:01:08.991Z</time></trkpt><trkpt lat="43.58812160047416" lon="11.314835415301717"><ele>227.0</ele><time>2026-04-03T10:01:09.991Z</time></trkpt><trkpt lat="43.58827734008703" lon="11.314817051482622"><ele>227.0</ele><time>2026-04-03T10:01:10.991Z</time></trkpt><trkpt lat="43.58844348496432" lon="11.31479626019256"><ele>227.0</ele><time>2026-04-03T10:01:11.991Z</time></trkpt><trkpt lat="43.58861160738767" lon="11.314774635797495"><ele>226.66666666666669</ele><time>2026-04-03T10:01:12.991Z</time></trkpt><trkpt lat="43.58878822092648" lon="11.314743721386236"><ele>226.33333333333331</ele><time>2026-04-03T10:01:13.991Z</time></trkpt><trkpt lat="43.58897423797666" lon="11.314703670302222"><ele>226.0</ele><time>2026-04-03T10:01:14.991Z</time></trkpt><trkpt lat="43.58915799838444" lon="11.314662660148533"><ele>225.66666666666666</ele><time>2026-04-03T10:01:15.991Z</time></trkpt><trkpt lat="43.589338525192915" lon="11.31463454600493"><ele>225.33333333333331</ele><time>2026-04-03T10:01:16.991Z</time></trkpt><trkpt lat="43.58952436377595" lon="11.314595126710826"><ele>225.0</ele><time>2026-04-03T10:01:17.991Z</time></trkpt><trkpt lat="43.5897085765703" lon="11.31456732150169"><ele>224.33333333333331</ele><time>2026-04-03T10:01:18.991Z</time></trkpt><trkpt lat="43.5899040223129" lon="11.314533032335898"><ele>223.66666666666666</ele><time>2026-04-03T10:01:19.991Z</time></trkpt><trkpt lat="43.59011118478709" lon="11.314477525354919"><ele>223.0</ele><time>2026-04-03T10:01:20.991Z</time></trkpt><trkpt lat="43.59031111952804" lon="11.31443977897234"><ele>222.66666666666666</ele><time>2026-04-03T10:01:21.991Z</time></trkpt><trkpt lat="43.59051282717796" lon="11.314415243469519"><ele>222.33333333333331</ele><time>2026-04-03T10:01:22.991Z</time></trkpt><trkpt lat="43.590707768654354" lon="11.31444944747738"><ele>222.0</ele><time>2026-04-03T10:01:23.991Z</time></trkpt><trkpt lat="43.59089717387493" lon="11.314495781707752"><ele>222.0</ele><time>2026-04-03T10:01:24.991Z</time></trkpt><trkpt lat="43.59107810691864" lon="11.314560302519498"><ele>222.0</ele><time>2026-04-03T10:01:25.992Z</time></trkpt><trkpt lat="43.591266658866566" lon="11.314638905911618"><ele>222.0</ele><time>2026-04-03T10:01:26.992Z</time></trkpt><trkpt lat="43.59144119092492" lon="11.314740746525617"><ele>222.0</ele><time>2026-04-03T10:01:27.992Z</time></trkpt><trkpt lat="43.59160553156302" lon="11.314844285743986"><ele>222.0</ele><time>2026-04-03T10:01:28.992Z</time></trkpt><trkpt lat="43.591732033127954" lon="11.314926631130403"><ele>222.0</ele><time>2026-04-03T10:01:29.992Z</time></trkpt><trkpt lat="43.59183486581889" lon="11.314998830563658"><ele>222.0</ele><time>2026-04-03T10:01:30.992Z</time></trkpt><trkpt lat="43.59192695557475" lon="11.315065801394708"><ele>221.8</ele><time>2026-04-03T10:01:31.992Z</time></trkpt><trkpt lat="43.5920134360036" lon="11.315133337114618"><ele>221.6</ele><time>2026-04-03T10:01:32.992Z</time></trkpt><trkpt lat="43.59207901729413" lon="11.315234026115421"><ele>221.40000000000003</ele><time>2026-04-03T10:01:33.992Z</time></trkpt><trkpt lat="43.59215546221722" lon="11.315291951288915"><ele>221.20000000000002</ele><time>2026-04-03T10:01:34.992Z</time></trkpt><trkpt lat="43.59226609681087" lon="11.315317705960977"><ele>221.0</ele><time>2026-04-03T10:01:35.992Z</time></trkpt><trkpt lat="43.592379926658374" lon="11.31539589275276"><ele>221.0</ele><time>2026-04-03T10:01:36.992Z</time></trkpt><trkpt lat="43.59251580340625" lon="11.315494945798727"><ele>221.0</ele><time>2026-04-03T10:01:37.992Z</time></trkpt><trkpt lat="43.59267120926746" lon="11.31554446907384"><ele>221.0</ele><time>2026-04-03T10:01:38.992Z</time></trkpt><trkpt lat="43.59281127469027" lon="11.315623578305635"><ele>222.0</ele><time>2026-04-03T10:01:39.992Z</time></trkpt><trkpt lat="43.59296574178707" lon="11.31569553414323"><ele>223.0</ele><time>2026-04-03T10:01:40.992Z</time></trkpt><trkpt lat="43.59312628974836" lon="11.315768432483546"><ele>224.0</ele><time>2026-04-03T10:01:41.992Z</time></trkpt><trkpt lat="43.59329268685448" lon="11.315845780520071"><ele>224.0</ele><time>2026-04-03T10:01:42.992Z</time></trkpt><trkpt lat="43.5934638419359" lon="11.315934941787143"><ele>224.0</ele><time>2026-04-03T10:01:43.992Z</time></trkpt><trkpt lat="43.59362375164896" lon="11.31604372958996"><ele>224.0</ele><time>2026-04-03T10:01:44.992Z</time></trkpt><trkpt lat="43.5937900606093" lon="11.316156043657221"><ele>222.66666666666669</ele><time>2026-04-03T10:01:45.992Z</time></trkpt><trkpt lat="43.593962344888226" lon="11.316271945775716"><ele>221.33333333333331</ele><time>2026-04-03T10:01:46.992Z</time></trkpt><trkpt lat="43.59413446781102" lon="11.316392661709031"><ele>220.0</ele><time>2026-04-03T10:01:47.992Z</time></trkpt><trkpt lat="43.594298474045296" lon="11.31651201227451"><ele>220.66666666666666</ele><time>2026-04-03T10:01:48.992Z</time></trkpt><trkpt lat="43.59445809669629" lon="11.316621505188452"><ele>221.33333333333331</ele><time>2026-04-03T10:01:49.992Z</time></trkpt><trkpt lat="43.59461930842389" lon="11.316699863330102"><ele>222.0</ele><time>2026-04-03T10:01:50.992Z</time></trkpt><trkpt lat="43.5947963355808" lon="11.316754588895353"><ele>222.0</ele><time>2026-04-03T10:01:51.992Z</time></trkpt><trkpt lat="43.59499910417656" lon="11.316759991344025"><ele>222.0</ele><time>2026-04-03T10:01:52.992Z</time></trkpt><trkpt lat="43.595218150079916" lon="11.316722073945062"><ele>222.0</ele><time>2026-04-03T10:01:53.992Z</time></trkpt><trkpt lat="43.59542585876566" lon="11.316686686808058"><ele>220.66666666666669</ele><time>2026-04-03T10:01:54.992Z</time></trkpt><trkpt lat="43.59563418709813" lon="11.316731981747"><ele>219.33333333333334</ele><time>2026-04-03T10:01:55.992Z</time></trkpt><trkpt lat="43.59584205176623" lon="11.31680086085971"><ele>218.0</ele><time>2026-04-03T10:01:56.992Z</time></trkpt><trkpt lat="43.59603655754791" lon="11.316876613704734"><ele>218.0</ele><time>2026-04-03T10:01:57.992Z</time></trkpt><trkpt lat="43.59621061450422" lon="11.31693936008059"><ele>218.0</ele><time>2026-04-03T10:01:58.992Z</time></trkpt><trkpt lat="43.596372936616206" lon="11.316980333726109"><ele>218.0</ele><time>2026-04-03T10:01:59.992Z</time></trkpt><trkpt lat="43.59654283768929" lon="11.316990706640704"><ele>218.0</ele><time>2026-04-03T10:02:00.992Z</time></trkpt><trkpt lat="43.59671668545587" lon="11.3169811568376"><ele>218.0</ele><time>2026-04-03T10:02:01.992Z</time></trkpt><trkpt lat="43.59689326231539" lon="11.316938013015742"><ele>218.0</ele><time>2026-04-03T10:02:02.992Z</time></trkpt><trkpt lat="43.59706073123038" lon="11.316855085773346"><ele>218.66666666666669</ele><time>2026-04-03T10:02:03.992Z</time></trkpt><trkpt lat="43.597238636892364" lon="11.316735138550428"><ele>219.33333333333331</ele><time>2026-04-03T10:02:04.992Z</time></trkpt><trkpt lat="43.59741447565016" lon="11.316597225592297"><ele>220.0</ele><time>2026-04-03T10:02:05.992Z</time></trkpt><trkpt lat="43.59759541592505" lon="11.316465973916683"><ele>220.0</ele><time>2026-04-03T10:02:06.992Z</time></trkpt><trkpt lat="43.597767101160755" lon="11.316350850828671"><ele>220.0</ele><time>2026-04-03T10:02:07.992Z</time></trkpt><trkpt lat="43.59792175680579" lon="11.316218979471458"><ele>220.0</ele><time>2026-04-03T10:02:08.992Z</time></trkpt><trkpt lat="43.598050429700194" lon="11.316059508350012"><ele>220.0</ele><time>2026-04-03T10:02:09.992Z</time></trkpt><trkpt lat="43.59816799600367" lon="11.315859359074633"><ele>220.0</ele><time>2026-04-03T10:02:10.992Z</time></trkpt><trkpt lat="43.59827675893217" lon="11.315634745202097"><ele>220.0</ele><time>2026-04-03T10:02:11.989Z</time></trkpt><trkpt lat="43.598389598670146" lon="11.315418900609636"><ele>219.0</ele><time>2026-04-03T10:02:12.988Z</time></trkpt><trkpt lat="43.59850780967219" lon="11.315186296150017"><ele>218.0</ele><time>2026-04-03T10:02:13.988Z</time></trkpt><trkpt lat="43.59862944138606" lon="11.314956805140255"><ele>217.0</ele><time>2026-04-03T10:02:14.989Z</time></trkpt><trkpt lat="43.59875505983549" lon="11.314724137028987"><ele>217.0</ele><time>2026-04-03T10:02:15.989Z</time></trkpt><trkpt lat="43.59890494704405" lon="11.314517860579711"><ele>217.0</ele><time>2026-04-03T10:02:16.989Z</time></trkpt><trkpt lat="43.59902840438104" lon="11.31428369725914"><ele>217.0</ele><time>2026-04-03T10:02:17.989Z</time></trkpt><trkpt lat="43.59915297294298" lon="11.31406008384893"><ele>216.66666666666666</ele><time>2026-04-03T10:02:18.989Z</time></trkpt><trkpt lat="43.59928053438303" lon="11.31382916706232"><ele>216.33333333333331</ele><time>2026-04-03T10:02:19.989Z</time></trkpt><trkpt lat="43.59941135313633" lon="11.313582825626382"><ele>216.0</ele><time>2026-04-03T10:02:20.989Z</time></trkpt><trkpt lat="43.59954472345033" lon="11.313329968251209"><ele>216.0</ele><time>2026-04-03T10:02:21.988Z</time></trkpt><trkpt lat="43.599681872663844" lon="11.313083522559257"><ele>216.0</ele><time>2026-04-03T10:02:22.988Z</time></trkpt><trkpt lat="43.5998082628111" lon="11.312849460899622"><ele>216.0</ele><time>2026-04-03T10:02:23.988Z</time></trkpt><trkpt lat="43.59992714958028" lon="11.312630782296488"><ele>215.0</ele><time>2026-04-03T10:02:24.989Z</time></trkpt><trkpt lat="43.600041762482455" lon="11.312427685377108"><ele>214.0</ele><time>2026-04-03T10:02:25.989Z</time></trkpt><trkpt lat="43.60014298501227" lon="11.31224210265139"><ele>213.0</ele><time>2026-04-03T10:02:26.989Z</time></trkpt><trkpt lat="43.60024025329684" lon="11.312055479442472"><ele>215.33333333333331</ele><time>2026-04-03T10:02:27.989Z</time></trkpt><trkpt lat="43.600338727842264" lon="11.311870180702215"><ele>217.66666666666666</ele><time>2026-04-03T10:02:28.989Z</time></trkpt><trkpt lat="43.600438260349705" lon="11.311677925949724"><ele>220.0</ele><time>2026-04-03T10:02:29.989Z</time></trkpt><trkpt lat="43.60053625775886" lon="11.311487839063526"><ele>218.33333333333331</ele><time>2026-04-03T10:02:30.989Z</time></trkpt><trkpt lat="43.60063450178429" lon="11.311303600584834"><ele>216.66666666666669</ele><time>2026-04-03T10:02:31.989Z</time></trkpt><trkpt lat="43.600743367142236" lon="11.311122522708217"><ele>215.0</ele><time>2026-04-03T10:02:32.989Z</time></trkpt><trkpt lat="43.6008637135465" lon="11.31095364270925"><ele>215.0</ele><time>2026-04-03T10:02:33.989Z</time></trkpt><trkpt lat="43.60100366400595" lon="11.310820449470397"><ele>215.0</ele><time>2026-04-03T10:02:34.989Z</time></trkpt><trkpt lat="43.60116473087597" lon="11.310723894755176"><ele>215.0</ele><time>2026-04-03T10:02:35.989Z</time></trkpt><trkpt lat="43.6013270191735" lon="11.310628399520528"><ele>214.0</ele><time>2026-04-03T10:02:36.989Z</time></trkpt><trkpt lat="43.601488848436404" lon="11.310521354687703"><ele>213.0</ele><time>2026-04-03T10:02:37.989Z</time></trkpt><trkpt lat="43.60167309306352" lon="11.310429924042538"><ele>212.0</ele><time>2026-04-03T10:02:38.989Z</time></trkpt><trkpt lat="43.60185745372118" lon="11.310321360149173"><ele>212.66666666666669</ele><time>2026-04-03T10:02:39.989Z</time></trkpt><trkpt lat="43.60203743957357" lon="11.310217681974343"><ele>213.33333333333331</ele><time>2026-04-03T10:02:40.989Z</time></trkpt><trkpt lat="43.60223873680131" lon="11.310111248463494"><ele>214.0</ele><time>2026-04-03T10:02:41.989Z</time></trkpt><trkpt lat="43.60243496234418" lon="11.309982860590502"><ele>214.0</ele><time>2026-04-03T10:02:42.989Z</time></trkpt><trkpt lat="43.60264961088423" lon="11.30989287792723"><ele>214.0</ele><time>2026-04-03T10:02:43.989Z</time></trkpt><trkpt lat="43.60285138516794" lon="11.30979079331481"><ele>214.0</ele><time>2026-04-03T10:02:44.989Z</time></trkpt><trkpt lat="43.603057423467526" lon="11.309670454277276"><ele>213.66666666666666</ele><time>2026-04-03T10:02:45.989Z</time></trkpt><trkpt lat="43.60325277047251" lon="11.309556837030867"><ele>213.33333333333331</ele><time>2026-04-03T10:02:46.989Z</time></trkpt><trkpt lat="43.603429780851584" lon="11.309462367902348"><ele>213.0</ele><time>2026-04-03T10:02:47.989Z</time></trkpt><trkpt lat="43.60359592998103" lon="11.309375085512363"><ele>214.0</ele><time>2026-04-03T10:02:48.989Z</time></trkpt><trkpt lat="43.603738160624474" lon="11.309278168206616"><ele>215.0</ele><time>2026-04-03T10:02:49.989Z</time></trkpt><trkpt lat="43.603858406218905" lon="11.309160871318202"><ele>216.0</ele><time>2026-04-03T10:02:50.989Z</time></trkpt><trkpt lat="43.6039641191292" lon="11.3090164795769"><ele>216.0</ele><time>2026-04-03T10:02:51.989Z</time></trkpt><trkpt lat="43.60405213999369" lon="11.308865700084995"><ele>216.0</ele><time>2026-04-03T10:02:52.989Z</time></trkpt><trkpt lat="43.604106865617055" lon="11.308670049514486"><ele>216.0</ele><time>2026-04-03T10:02:53.989Z</time></trkpt><trkpt lat="43.60415421639819" lon="11.308457620236043"><ele>216.0</ele><time>2026-04-03T10:02:54.989Z</time></trkpt><trkpt lat="43.60417881804687" lon="11.308228246633512"><ele>216.0</ele><time>2026-04-03T10:02:55.989Z</time></trkpt><trkpt lat="43.60418604790594" lon="11.307976449457922"><ele>216.0</ele><time>2026-04-03T10:02:56.989Z</time></trkpt><trkpt lat="43.604186254621496" lon="11.307728523574765"><ele>215.33333333333331</ele><time>2026-04-03T10:02:57.989Z</time></trkpt><trkpt lat="43.6041840377344" lon="11.307488969073127"><ele>214.66666666666666</ele><time>2026-04-03T10:02:58.989Z</time></trkpt><trkpt lat="43.604189405158245" lon="11.307257265203994"><ele>214.0</ele><time>2026-04-03T10:02:59.989Z</time></trkpt><trkpt lat="43.60420224966264" lon="11.307036220977652"><ele>214.25</ele><time>2026-04-03T10:03:00.989Z</time></trkpt><trkpt lat="43.60425129696397" lon="11.306860397014038"><ele>214.5</ele><time>2026-04-03T10:03:01.989Z</time></trkpt><trkpt lat="43.604329036795356" lon="11.30669481275545"><ele>214.75</ele><time>2026-04-03T10:03:02.989Z</time></trkpt><trkpt lat="43.604439516533716" lon="11.306548861752335"><ele>215.0</ele><time>2026-04-03T10:03:03.989Z</time></trkpt><trkpt lat="43.60457206173324" lon="11.306419034693068"><ele>212.66666666666669</ele><time>2026-04-03T10:03:04.989Z</time></trkpt><trkpt lat="43.604726588738146" lon="11.306288189283196"><ele>210.33333333333331</ele><time>2026-04-03T10:03:05.989Z</time></trkpt><trkpt lat="43.604879518560764" lon="11.306152717394701"><ele>208.0</ele><time>2026-04-03T10:03:06.989Z</time></trkpt><trkpt lat="43.605046755880174" lon="11.306063264259576"><ele>208.0</ele><time>2026-04-03T10:03:07.989Z</time></trkpt><trkpt lat="43.6051828128102" lon="11.305930402842824"><ele>208.0</ele><time>2026-04-03T10:03:08.989Z</time></trkpt><trkpt lat="43.60531397131613" lon="11.305833827256999"><ele>208.0</ele><time>2026-04-03T10:03:09.989Z</time></trkpt><trkpt lat="43.605437617499675" lon="11.305735533743476"><ele>208.0</ele><time>2026-04-03T10:03:10.989Z</time></trkpt><trkpt lat="43.6055486696175" lon="11.305642538224085"><ele>208.0</ele><time>2026-04-03T10:03:11.989Z</time></trkpt><trkpt lat="43.60565748047222" lon="11.305547875040501"><ele>208.0</ele><time>2026-04-03T10:03:12.989Z</time></trkpt><trkpt lat="43.60575735019773" lon="11.305458449157472"><ele>208.0</ele><time>2026-04-03T10:03:13.989Z</time></trkpt><trkpt lat="43.605860474622695" lon="11.305379222023662"><ele>208.0</ele><time>2026-04-03T10:03:14.989Z</time></trkpt><trkpt lat="43.60596127198746" lon="11.305284189846402"><ele>208.0</ele><time>2026-04-03T10:03:15.989Z</time></trkpt><trkpt lat="43.60606489837747" lon="11.305183945080133"><ele>208.0</ele><time>2026-04-03T10:03:16.989Z</time></trkpt><trkpt lat="43.60617389519316" lon="11.305084174547522"><ele>208.0</ele><time>2026-04-03T10:03:17.989Z</time></trkpt><trkpt lat="43.60630077283062" lon="11.30501184080379"><ele>208.33333333333331</ele><time>2026-04-03T10:03:18.989Z</time></trkpt><trkpt lat="43.6064291057621" lon="11.304910022657934"><ele>208.66666666666669</ele><time>2026-04-03T10:03:19.989Z</time></trkpt><trkpt lat="43.60655966049105" lon="11.304798264472138"><ele>209.0</ele><time>2026-04-03T10:03:20.989Z</time></trkpt><trkpt lat="43.60668149799168" lon="11.304673511150352"><ele>209.0</ele><time>2026-04-03T10:03:21.989Z</time></trkpt><trkpt lat="43.606807638788645" lon="11.304527579961096"><ele>209.0</ele><time>2026-04-03T10:03:22.989Z</time></trkpt><trkpt lat="43.6069201416749" lon="11.304361262964553"><ele>209.0</ele><time>2026-04-03T10:03:23.989Z</time></trkpt><trkpt lat="43.607026241786386" lon="11.304156593186999"><ele>209.0</ele><time>2026-04-03T10:03:24.989Z</time></trkpt><trkpt lat="43.6071246945927" lon="11.303950138542298"><ele>209.0</ele><time>2026-04-03T10:03:25.989Z</time></trkpt><trkpt lat="43.60721987845887" lon="11.303735589964024"><ele>209.0</ele><time>2026-04-03T10:03:26.989Z</time></trkpt><trkpt lat="43.607326506156156" lon="11.30353295967457"><ele>209.0</ele><time>2026-04-03T10:03:27.989Z</time></trkpt><trkpt lat="43.60742944901981" lon="11.303333512529814"><ele>209.0</ele><time>2026-04-03T10:03:28.989Z</time></trkpt><trkpt lat="43.60753167990387" lon="11.303135641549598"><ele>209.0</ele><time>2026-04-03T10:03:29.989Z</time></trkpt><trkpt lat="43.6076338928834" lon="11.302957300312737"><ele>208.0</ele><time>2026-04-03T10:03:30.989Z</time></trkpt><trkpt lat="43.60773598160988" lon="11.302776195808088"><ele>207.0</ele><time>2026-04-03T10:03:31.989Z</time></trkpt><trkpt lat="43.60782552432774" lon="11.302588933217685"><ele>206.0</ele><time>2026-04-03T10:03:32.989Z</time></trkpt><trkpt lat="43.607887887398135" lon="11.302378701562526"><ele>208.66666666666669</ele><time>2026-04-03T10:03:33.989Z</time></trkpt><trkpt lat="43.607916303355026" lon="11.302159130071356"><ele>211.33333333333331</ele><time>2026-04-03T10:03:34.989Z</time></trkpt><trkpt lat="43.607927328058956" lon="11.301918823734198"><ele>214.0</ele><time>2026-04-03T10:03:35.99Z</time></trkpt><trkpt lat="43.60795214825947" lon="11.301671911944794"><ele>214.0</ele><time>2026-04-03T10:03:36.99Z</time></trkpt><trkpt lat="43.60799890269645" lon="11.301437807170881"><ele>214.0</ele><time>2026-04-03T10:03:37.99Z</time></trkpt><trkpt lat="43.60806804835557" lon="11.301197701107661"><ele>214.0</ele><time>2026-04-03T10:03:38.99Z</time></trkpt><trkpt lat="43.608142002849114" lon="11.30095772262487"><ele>212.0</ele><time>2026-04-03T10:03:39.99Z</time></trkpt><trkpt lat="43.60822763775894" lon="11.300736936033234"><ele>210.0</ele><time>2026-04-03T10:03:40.99Z</time></trkpt><trkpt lat="43.60833535325928" lon="11.300524283811521"><ele>208.0</ele><time>2026-04-03T10:03:41.99Z</time></trkpt><trkpt lat="43.60844737360738" lon="11.300327768577226"><ele>207.33333333333331</ele><time>2026-04-03T10:03:42.99Z</time></trkpt><trkpt lat="43.60854675737761" lon="11.300136461496656"><ele>206.66666666666669</ele><time>2026-04-03T10:03:43.99Z</time></trkpt><trkpt lat="43.6086570074415" lon="11.299968568245754"><ele>206.0</ele><time>2026-04-03T10:03:44.99Z</time></trkpt><trkpt lat="43.60875869368078" lon="11.299812785667573"><ele>206.0</ele><time>2026-04-03T10:03:45.99Z</time></trkpt><trkpt lat="43.60885087057903" lon="11.299714200288424"><ele>206.0</ele><time>2026-04-03T10:03:46.99Z</time></trkpt><trkpt lat="43.60895139250332" lon="11.299686231095377"><ele>206.0</ele><time>2026-04-03T10:03:47.99Z</time></trkpt><trkpt lat="43.60909731255092" lon="11.299740608863019"><ele>206.0</ele><time>2026-04-03T10:03:48.99Z</time></trkpt><trkpt lat="43.60926720681101" lon="11.299831402778153"><ele>206.0</ele><time>2026-04-03T10:03:49.99Z</time></trkpt><trkpt lat="43.60944030252994" lon="11.299917896768243"><ele>206.0</ele><time>2026-04-03T10:03:50.99Z</time></trkpt><trkpt lat="43.60961160045004" lon="11.299965637327858"><ele>206.0</ele><time>2026-04-03T10:03:51.99Z</time></trkpt><trkpt lat="43.609786558141266" lon="11.299967290638351"><ele>207.66666666666669</ele><time>2026-04-03T10:03:52.99Z</time></trkpt><trkpt lat="43.609971265757174" lon="11.299928491256486"><ele>209.33333333333331</ele><time>2026-04-03T10:03:53.99Z</time></trkpt><trkpt lat="43.61016953854356" lon="11.299816862325102"><ele>211.0</ele><time>2026-04-03T10:03:54.99Z</time></trkpt><trkpt lat="43.61036800939587" lon="11.299697229001275"><ele>214.66666666666666</ele><time>2026-04-03T10:03:55.99Z</time></trkpt><trkpt lat="43.61055719223612" lon="11.299574041249741"><ele>218.33333333333331</ele><time>2026-04-03T10:03:56.99Z</time></trkpt><trkpt lat="43.61071648189909" lon="11.299474081081648"><ele>222.0</ele><time>2026-04-03T10:03:57.99Z</time></trkpt><trkpt lat="43.61086996764594" lon="11.299421758840555"><ele>222.0</ele><time>2026-04-03T10:03:58.99Z</time></trkpt><trkpt lat="43.611002357081766" lon="11.299449354718831"><ele>222.0</ele><time>2026-04-03T10:03:59.99Z</time></trkpt><trkpt lat="43.61113923113851" lon="11.299532493718138"><ele>222.0</ele><time>2026-04-03T10:04:00.99Z</time></trkpt><trkpt lat="43.61124915932398" lon="11.299606429271739"><ele>222.0</ele><time>2026-04-03T10:04:01.99Z</time></trkpt><trkpt lat="43.61138322126489" lon="11.29959439469461"><ele>223.66666666666669</ele><time>2026-04-03T10:04:02.99Z</time></trkpt><trkpt lat="43.6115647033295" lon="11.299532761703963"><ele>225.33333333333334</ele><time>2026-04-03T10:04:03.99Z</time></trkpt><trkpt lat="43.611719770308696" lon="11.299405672164033"><ele>227.0</ele><time>2026-04-03T10:04:04.99Z</time></trkpt><trkpt lat="43.61186927445873" lon="11.299338492526852"><ele>227.66666666666669</ele><time>2026-04-03T10:04:05.99Z</time></trkpt><trkpt lat="43.612002948868074" lon="11.299335875825516"><ele>228.33333333333331</ele><time>2026-04-03T10:04:06.99Z</time></trkpt><trkpt lat="43.612167742548635" lon="11.299377677352433"><ele>229.0</ele><time>2026-04-03T10:04:07.99Z</time></trkpt><trkpt lat="43.61235053029249" lon="11.29948929830237"><ele>229.0</ele><time>2026-04-03T10:04:08.99Z</time></trkpt><trkpt lat="43.612568406142294" lon="11.299609991648037"><ele>229.0</ele><time>2026-04-03T10:04:09.99Z</time></trkpt><trkpt lat="43.612804452564305" lon="11.299700892712915"><ele>228.5</ele><time>2026-04-03T10:04:10.99Z</time></trkpt><trkpt lat="43.6130225357523" lon="11.299816489411773"><ele>228.0</ele><time>2026-04-03T10:04:11.99Z</time></trkpt><trkpt lat="43.61324614374973" lon="11.299938492813334"><ele>228.0</ele><time>2026-04-03T10:04:12.99Z</time></trkpt><trkpt lat="43.61347117672383" lon="11.300047694198145"><ele>228.0</ele><time>2026-04-03T10:04:13.99Z</time></trkpt><trkpt lat="43.61367598085079" lon="11.30014885330062"><ele>231.33333333333331</ele><time>2026-04-03T10:04:14.99Z</time></trkpt><trkpt lat="43.6138675095091" lon="11.30023824555174"><ele>234.66666666666666</ele><time>2026-04-03T10:04:15.99Z</time></trkpt><trkpt lat="43.61401109943056" lon="11.30030964598128"><ele>238.0</ele><time>2026-04-03T10:04:16.99Z</time></trkpt><trkpt lat="43.61412603886131" lon="11.300353975297945"><ele>238.0</ele><time>2026-04-03T10:04:17.988Z</time></trkpt><trkpt lat="43.61423246317003" lon="11.300351134353562"><ele>238.0</ele><time>2026-04-03T10:04:18.988Z</time></trkpt><trkpt lat="43.61432159727006" lon="11.300287901520097"><ele>238.0</ele><time>2026-04-03T10:04:19.988Z</time></trkpt><trkpt lat="43.614385256773396" lon="11.300172463255452"><ele>238.0</ele><time>2026-04-03T10:04:20.988Z</time></trkpt><trkpt lat="43.61436880232178" lon="11.2999779052246"><ele>238.0</ele><time>2026-04-03T10:04:21.988Z</time></trkpt><trkpt lat="43.61426919272005" lon="11.299849475517938"><ele>238.0</ele><time>2026-04-03T10:04:22.988Z</time></trkpt><trkpt lat="43.614139626442395" lon="11.299742928416357"><ele>238.0</ele><time>2026-04-03T10:04:23.988Z</time></trkpt><trkpt lat="43.613993161490164" lon="11.299642784591091"><ele>238.66666666666666</ele><time>2026-04-03T10:04:24.987Z</time></trkpt><trkpt lat="43.61384469088269" lon="11.299522769592672"><ele>239.33333333333331</ele><time>2026-04-03T10:04:25.988Z</time></trkpt><trkpt lat="43.613702162299425" lon="11.299410639190924"><ele>240.0</ele><time>2026-04-03T10:04:26.988Z</time></trkpt><trkpt lat="43.61358327561574" lon="11.299263558144155"><ele>240.0</ele><time>2026-04-03T10:04:27.988Z</time></trkpt><trkpt lat="43.61347393808114" lon="11.29908941919493"><ele>240.0</ele><time>2026-04-03T10:04:28.988Z</time></trkpt><trkpt lat="43.61336595412285" lon="11.298899886865808"><ele>240.0</ele><time>2026-04-03T10:04:29.988Z</time></trkpt><trkpt lat="43.61326127492089" lon="11.298701091507503"><ele>240.5</ele><time>2026-04-03T10:04:30.988Z</time></trkpt><trkpt lat="43.61316412150345" lon="11.298527844938464"><ele>241.0</ele><time>2026-04-03T10:04:31.988Z</time></trkpt><trkpt lat="43.61308886260752" lon="11.298389366165186"><ele>241.5</ele><time>2026-04-03T10:04:32.988Z</time></trkpt><trkpt lat="43.61305677349929" lon="11.298233061112777"><ele>242.0</ele><time>2026-04-03T10:04:33.988Z</time></trkpt><trkpt lat="43.61306644291837" lon="11.298063483125732"><ele>242.0</ele><time>2026-04-03T10:04:34.988Z</time></trkpt><trkpt lat="43.61311166315582" lon="11.29794721562416"><ele>242.0</ele><time>2026-04-03T10:04:35.988Z</time></trkpt><trkpt lat="43.613188690200424" lon="11.297847752528225"><ele>242.0</ele><time>2026-04-03T10:04:36.988Z</time></trkpt><trkpt lat="43.613279680762716" lon="11.297794072471909"><ele>242.0</ele><time>2026-04-03T10:04:37.988Z</time></trkpt><trkpt lat="43.61337704468429" lon="11.297782897859244"><ele>242.0</ele><time>2026-04-03T10:04:38.988Z</time></trkpt><trkpt lat="43.61347472633436" lon="11.297816020697306"><ele>242.0</ele><time>2026-04-03T10:04:39.988Z</time></trkpt><trkpt lat="43.61356312342698" lon="11.297903565646484"><ele>242.0</ele><time>2026-04-03T10:04:40.988Z</time></trkpt><trkpt lat="43.613640634179" lon="11.298010985340149"><ele>242.0</ele><time>2026-04-03T10:04:41.988Z</time></trkpt><trkpt lat="43.61384856459103" lon="11.297955226464158"><ele>242.0</ele><time>2026-04-03T10:04:43.988Z</time></trkpt><trkpt lat="43.61394781485342" lon="11.297911496459646"><ele>240.0</ele><time>2026-04-03T10:04:44.988Z</time></trkpt><trkpt lat="43.61408707858704" lon="11.29791052762807"><ele>238.0</ele><time>2026-04-03T10:04:45.988Z</time></trkpt><trkpt lat="43.61424333684284" lon="11.297879116128335"><ele>236.0</ele><time>2026-04-03T10:04:46.988Z</time></trkpt><trkpt lat="43.6144045884612" lon="11.297836466573289"><ele>235.66666666666669</ele><time>2026-04-03T10:04:47.988Z</time></trkpt><trkpt lat="43.61457776888912" lon="11.297781920419231"><ele>235.33333333333331</ele><time>2026-04-03T10:04:48.988Z</time></trkpt><trkpt lat="43.614752951910596" lon="11.297714940378558"><ele>235.0</ele><time>2026-04-03T10:04:49.988Z</time></trkpt><trkpt lat="43.61493004281879" lon="11.297644228079898"><ele>235.0</ele><time>2026-04-03T10:04:50.988Z</time></trkpt><trkpt lat="43.61510587015001" lon="11.297575432247656"><ele>235.0</ele><time>2026-04-03T10:04:51.988Z</time></trkpt><trkpt lat="43.61527757465181" lon="11.297509543174415"><ele>235.0</ele><time>2026-04-03T10:04:52.988Z</time></trkpt><trkpt lat="43.615439402838255" lon="11.297447444032445"><ele>235.0</ele><time>2026-04-03T10:04:53.988Z</time></trkpt><trkpt lat="43.615590620215976" lon="11.297387730759766"><ele>235.0</ele><time>2026-04-03T10:04:54.988Z</time></trkpt><trkpt lat="43.61573433933388" lon="11.297326792274182"><ele>235.0</ele><time>2026-04-03T10:04:55.988Z</time></trkpt><trkpt lat="43.615894079546585" lon="11.29723196570698"><ele>234.33333333333331</ele><time>2026-04-03T10:04:56.988Z</time></trkpt><trkpt lat="43.61605112003735" lon="11.297084080353974"><ele>233.66666666666669</ele><time>2026-04-03T10:04:57.988Z</time></trkpt><trkpt lat="43.6161853743539" lon="11.296919406979361"><ele>233.0</ele><time>2026-04-03T10:04:58.988Z</time></trkpt><trkpt lat="43.616317033082645" lon="11.29674434294402"><ele>233.0</ele><time>2026-04-03T10:04:59.988Z</time></trkpt><trkpt lat="43.616441408144226" lon="11.296581371078826"><ele>233.0</ele><time>2026-04-03T10:05:00.988Z</time></trkpt><trkpt lat="43.61655620968618" lon="11.296432486117904"><ele>233.0</ele><time>2026-04-03T10:05:01.988Z</time></trkpt><trkpt lat="43.616663766898995" lon="11.296295728912844"><ele>229.75</ele><time>2026-04-03T10:05:02.988Z</time></trkpt><trkpt lat="43.616767079543685" lon="11.296215129875684"><ele>226.5</ele><time>2026-04-03T10:05:03.988Z</time></trkpt><trkpt lat="43.61688785036164" lon="11.296154251800798"><ele>223.25</ele><time>2026-04-03T10:05:04.988Z</time></trkpt><trkpt lat="43.617038419236806" lon="11.296109917121884"><ele>220.0</ele><time>2026-04-03T10:05:05.988Z</time></trkpt><trkpt lat="43.61721318607504" lon="11.296068810427975"><ele>220.0</ele><time>2026-04-03T10:05:06.988Z</time></trkpt><trkpt lat="43.617406391349576" lon="11.29604806310073"><ele>220.0</ele><time>2026-04-03T10:05:07.988Z</time></trkpt><trkpt lat="43.61758320788809" lon="11.296022315374593"><ele>220.0</ele><time>2026-04-03T10:05:08.988Z</time></trkpt><trkpt lat="43.61774025530532" lon="11.295998600548055"><ele>218.0</ele><time>2026-04-03T10:05:09.988Z</time></trkpt><trkpt lat="43.61788209585221" lon="11.296010646716338"><ele>216.0</ele><time>2026-04-03T10:05:10.988Z</time></trkpt><trkpt lat="43.61803191059026" lon="11.296006399171565"><ele>214.0</ele><time>2026-04-03T10:05:11.988Z</time></trkpt><trkpt lat="43.61818117083729" lon="11.296077475395807"><ele>214.0</ele><time>2026-04-03T10:05:12.988Z</time></trkpt><trkpt lat="43.61833591264494" lon="11.296204950087082"><ele>214.0</ele><time>2026-04-03T10:05:13.988Z</time></trkpt><trkpt lat="43.618499567751876" lon="11.296346497727313"><ele>214.0</ele><time>2026-04-03T10:05:14.988Z</time></trkpt><trkpt lat="43.618658326429774" lon="11.296486216195207"><ele>215.0</ele><time>2026-04-03T10:05:15.988Z</time></trkpt><trkpt lat="43.61884522131366" lon="11.296559190902531"><ele>216.0</ele><time>2026-04-03T10:05:16.988Z</time></trkpt><trkpt lat="43.61902619858131" lon="11.296600298641344"><ele>217.0</ele><time>2026-04-03T10:05:17.988Z</time></trkpt><trkpt lat="43.61920404669226" lon="11.296623496357107"><ele>217.0</ele><time>2026-04-03T10:05:18.988Z</time></trkpt><trkpt lat="43.6193529942875" lon="11.29665539535073"><ele>217.0</ele><time>2026-04-03T10:05:19.988Z</time></trkpt><trkpt lat="43.61948323412856" lon="11.296735076565044"><ele>217.0</ele><time>2026-04-03T10:05:20.988Z</time></trkpt><trkpt lat="43.61957845174857" lon="11.296890593794323"><ele>217.0</ele><time>2026-04-03T10:05:21.988Z</time></trkpt><trkpt lat="43.619638827026336" lon="11.297070875609842"><ele>215.25</ele><time>2026-04-03T10:05:22.988Z</time></trkpt><trkpt lat="43.619682321967176" lon="11.297217649258759"><ele>213.5</ele><time>2026-04-03T10:05:23.988Z</time></trkpt><trkpt lat="43.619780112982" lon="11.297338230808576"><ele>211.75</ele><time>2026-04-03T10:05:24.988Z</time></trkpt><trkpt lat="43.619895275325604" lon="11.297388920291354"><ele>210.0</ele><time>2026-04-03T10:05:25.988Z</time></trkpt><trkpt lat="43.61999230180758" lon="11.297457202950572"><ele>210.0</ele><time>2026-04-03T10:05:26.988Z</time></trkpt><trkpt lat="43.62011100177698" lon="11.29743338481701"><ele>210.0</ele><time>2026-04-03T10:05:27.988Z</time></trkpt><trkpt lat="43.62022551237522" lon="11.297369922155175"><ele>210.0</ele><time>2026-04-03T10:05:28.988Z</time></trkpt><trkpt lat="43.6203220738564" lon="11.297258447867783"><ele>210.0</ele><time>2026-04-03T10:05:29.988Z</time></trkpt><trkpt lat="43.620386095438874" lon="11.297112743818673"><ele>209.0</ele><time>2026-04-03T10:05:30.988Z</time></trkpt><trkpt lat="43.62034837279232" lon="11.296899160108348"><ele>208.0</ele><time>2026-04-03T10:05:31.988Z</time></trkpt><trkpt lat="43.620296587709774" lon="11.296697117567499"><ele>207.0</ele><time>2026-04-03T10:05:32.988Z</time></trkpt><trkpt lat="43.62026849157048" lon="11.296477100457452"><ele>205.66666666666669</ele><time>2026-04-03T10:05:33.989Z</time></trkpt><trkpt lat="43.62023880554646" lon="11.296241658135965"><ele>204.33333333333334</ele><time>2026-04-03T10:05:34.989Z</time></trkpt><trkpt lat="43.62019927168967" lon="11.296008124177865"><ele>203.0</ele><time>2026-04-03T10:05:35.989Z</time></trkpt><trkpt lat="43.620126285234555" lon="11.295764804707527"><ele>202.33333333333334</ele><time>2026-04-03T10:05:36.989Z</time></trkpt><trkpt lat="43.62002440786217" lon="11.295535967408453"><ele>201.66666666666669</ele><time>2026-04-03T10:05:37.989Z</time></trkpt><trkpt lat="43.6199618952169" lon="11.29530675622868"><ele>201.0</ele><time>2026-04-03T10:05:38.989Z</time></trkpt><trkpt lat="43.61991683443024" lon="11.295113057487"><ele>201.0</ele><time>2026-04-03T10:05:39.989Z</time></trkpt><trkpt lat="43.61985228567307" lon="11.29496260362408"><ele>201.0</ele><time>2026-04-03T10:05:40.989Z</time></trkpt><trkpt lat="43.61975396767948" lon="11.294838276424157"><ele>201.0</ele><time>2026-04-03T10:05:41.989Z</time></trkpt><trkpt lat="43.61961566664061" lon="11.29472890947742"><ele>201.0</ele><time>2026-04-03T10:05:42.989Z</time></trkpt><trkpt lat="43.619455039999394" lon="11.294616305621087"><ele>198.66666666666669</ele><time>2026-04-03T10:05:43.989Z</time></trkpt><trkpt lat="43.61930612708472" lon="11.29448588935184"><ele>196.33333333333334</ele><time>2026-04-03T10:05:44.989Z</time></trkpt><trkpt lat="43.61918010427079" lon="11.294314445961081"><ele>194.0</ele><time>2026-04-03T10:05:45.989Z</time></trkpt><trkpt lat="43.619080489472125" lon="11.294093980888489"><ele>194.33333333333334</ele><time>2026-04-03T10:05:46.989Z</time></trkpt><trkpt lat="43.618989378273255" lon="11.293859492574848"><ele>194.66666666666669</ele><time>2026-04-03T10:05:47.989Z</time></trkpt><trkpt lat="43.61888935467309" lon="11.293605742959185"><ele>195.0</ele><time>2026-04-03T10:05:48.989Z</time></trkpt><trkpt lat="43.618784415714295" lon="11.293339523470827"><ele>195.0</ele><time>2026-04-03T10:05:49.989Z</time></trkpt><trkpt lat="43.61868866612385" lon="11.293093803118104"><ele>195.0</ele><time>2026-04-03T10:05:50.989Z</time></trkpt><trkpt lat="43.618604719480025" lon="11.292857844414279"><ele>195.0</ele><time>2026-04-03T10:05:51.989Z</time></trkpt><trkpt lat="43.61854959434314" lon="11.292614340947958"><ele>192.33333333333334</ele><time>2026-04-03T10:05:52.989Z</time></trkpt><trkpt lat="43.61854396271102" lon="11.29236931592337"><ele>189.66666666666669</ele><time>2026-04-03T10:05:53.989Z</time></trkpt><trkpt lat="43.618554200163686" lon="11.292135779379842"><ele>187.0</ele><time>2026-04-03T10:05:54.989Z</time></trkpt><trkpt lat="43.61859035028453" lon="11.291899023547272"><ele>186.0</ele><time>2026-04-03T10:05:55.989Z</time></trkpt><trkpt lat="43.61863839382545" lon="11.291637478262647"><ele>185.0</ele><time>2026-04-03T10:05:56.989Z</time></trkpt><trkpt lat="43.61869879652176" lon="11.29135381004115"><ele>184.0</ele><time>2026-04-03T10:05:57.989Z</time></trkpt><trkpt lat="43.61876715738802" lon="11.291045181052963"><ele>186.5</ele><time>2026-04-03T10:05:58.989Z</time></trkpt><trkpt lat="43.61883418465934" lon="11.290749429261908"><ele>189.0</ele><time>2026-04-03T10:05:59.989Z</time></trkpt><trkpt lat="43.61890372842299" lon="11.290444021232904"><ele>189.0</ele><time>2026-04-03T10:06:00.989Z</time></trkpt><trkpt lat="43.6189736381876" lon="11.290125992720524"><ele>189.0</ele><time>2026-04-03T10:06:01.989Z</time></trkpt><trkpt lat="43.61902945666982" lon="11.289807312887751"><ele>187.66666666666666</ele><time>2026-04-03T10:06:02.989Z</time></trkpt><trkpt lat="43.619076336394194" lon="11.289499616535375"><ele>186.33333333333331</ele><time>2026-04-03T10:06:03.989Z</time></trkpt><trkpt lat="43.61912454373664" lon="11.289212931689944"><ele>185.0</ele><time>2026-04-03T10:06:04.989Z</time></trkpt><trkpt lat="43.619182013150954" lon="11.288931229471803"><ele>183.0</ele><time>2026-04-03T10:06:05.989Z</time></trkpt><trkpt lat="43.61927407247616" lon="11.288661213577177"><ele>181.0</ele><time>2026-04-03T10:06:06.989Z</time></trkpt><trkpt lat="43.619362946771325" lon="11.288389130510367"><ele>179.0</ele><time>2026-04-03T10:06:07.989Z</time></trkpt><trkpt lat="43.61946313357505" lon="11.288117801772444"><ele>181.0</ele><time>2026-04-03T10:06:08.989Z</time></trkpt><trkpt lat="43.61957575469178" lon="11.287856889441109"><ele>183.0</ele><time>2026-04-03T10:06:09.989Z</time></trkpt><trkpt lat="43.619697348773336" lon="11.287598625120225"><ele>185.0</ele><time>2026-04-03T10:06:10.989Z</time></trkpt><trkpt lat="43.61981931650931" lon="11.287350469244542"><ele>182.0</ele><time>2026-04-03T10:06:11.989Z</time></trkpt><trkpt lat="43.61995090728561" lon="11.287091658520339"><ele>179.0</ele><time>2026-04-03T10:06:12.989Z</time></trkpt><trkpt lat="43.62007845756889" lon="11.28685541272838"><ele>176.0</ele><time>2026-04-03T10:06:13.989Z</time></trkpt><trkpt lat="43.620203609519024" lon="11.286644900000534"><ele>174.66666666666666</ele><time>2026-04-03T10:06:14.989Z</time></trkpt><trkpt lat="43.62033138389207" lon="11.28646876014948"><ele>173.33333333333334</ele><time>2026-04-03T10:06:15.989Z</time></trkpt><trkpt lat="43.62045919646908" lon="11.28632590852988"><ele>172.0</ele><time>2026-04-03T10:06:16.989Z</time></trkpt><trkpt lat="43.62060834050951" lon="11.28626838570716"><ele>172.0</ele><time>2026-04-03T10:06:17.989Z</time></trkpt><trkpt lat="43.62075480444468" lon="11.286236617335524"><ele>172.0</ele><time>2026-04-03T10:06:18.989Z</time></trkpt><trkpt lat="43.62092196003262" lon="11.286225971430307"><ele>172.0</ele><time>2026-04-03T10:06:19.989Z</time></trkpt><trkpt lat="43.62112281015113" lon="11.286208925929346"><ele>171.66666666666669</ele><time>2026-04-03T10:06:20.989Z</time></trkpt><trkpt lat="43.62130948835136" lon="11.286177182520774"><ele>171.33333333333334</ele><time>2026-04-03T10:06:21.989Z</time></trkpt><trkpt lat="43.62148269893888" lon="11.286140355957263"><ele>171.0</ele><time>2026-04-03T10:06:22.989Z</time></trkpt><trkpt lat="43.621652197150325" lon="11.286135899670267"><ele>171.0</ele><time>2026-04-03T10:06:23.986Z</time></trkpt><trkpt lat="43.621791738364415" lon="11.286122966118436"><ele>171.0</ele><time>2026-04-03T10:06:24.987Z</time></trkpt><trkpt lat="43.6219023083461" lon="11.286114851744683"><ele>171.0</ele><time>2026-04-03T10:06:25.987Z</time></trkpt><trkpt lat="43.62202666208175" lon="11.286079603497125"><ele>171.0</ele><time>2026-04-03T10:06:26.987Z</time></trkpt><trkpt lat="43.62215808887297" lon="11.286022385429654"><ele>172.66666666666666</ele><time>2026-04-03T10:06:27.986Z</time></trkpt><trkpt lat="43.622288791675885" lon="11.285941178286603"><ele>174.33333333333331</ele><time>2026-04-03T10:06:28.986Z</time></trkpt><trkpt lat="43.62242078883781" lon="11.285828501319298"><ele>176.0</ele><time>2026-04-03T10:06:29.986Z</time></trkpt><trkpt lat="43.62255610660617" lon="11.285679595601943"><ele>175.66666666666666</ele><time>2026-04-03T10:06:30.987Z</time></trkpt><trkpt lat="43.62269593647211" lon="11.285533942366227"><ele>175.33333333333334</ele><time>2026-04-03T10:06:31.987Z</time></trkpt><trkpt lat="43.6228343792501" lon="11.285366189742248"><ele>175.0</ele><time>2026-04-03T10:06:32.987Z</time></trkpt><trkpt lat="43.6229701147747" lon="11.285196629614315"><ele>175.0</ele><time>2026-04-03T10:06:33.987Z</time></trkpt><trkpt lat="43.62310445965234" lon="11.28504153133555"><ele>175.0</ele><time>2026-04-03T10:06:34.987Z</time></trkpt><trkpt lat="43.623233899966195" lon="11.284910977267788"><ele>175.0</ele><time>2026-04-03T10:06:35.987Z</time></trkpt><trkpt lat="43.62336546193014" lon="11.284802426587403"><ele>174.25</ele><time>2026-04-03T10:06:36.987Z</time></trkpt><trkpt lat="43.62350095524771" lon="11.284702124302232"><ele>173.5</ele><time>2026-04-03T10:06:37.987Z</time></trkpt><trkpt lat="43.623633575289006" lon="11.28462542506336"><ele>172.75</ele><time>2026-04-03T10:06:38.987Z</time></trkpt><trkpt lat="43.6237713095618" lon="11.284563790173191"><ele>172.0</ele><time>2026-04-03T10:06:39.987Z</time></trkpt><trkpt lat="43.62390000809147" lon="11.284489873841862"><ele>172.0</ele><time>2026-04-03T10:06:40.987Z</time></trkpt><trkpt lat="43.62401593164458" lon="11.284385459214022"><ele>172.0</ele><time>2026-04-03T10:06:41.987Z</time></trkpt><trkpt lat="43.624114684727154" lon="11.284249482608512"><ele>172.0</ele><time>2026-04-03T10:06:42.987Z</time></trkpt><trkpt lat="43.62420239612435" lon="11.284070870914269"><ele>172.0</ele><time>2026-04-03T10:06:43.987Z</time></trkpt><trkpt lat="43.62428353682289" lon="11.283875836078812"><ele>171.33333333333334</ele><time>2026-04-03T10:06:44.987Z</time></trkpt><trkpt lat="43.624365796686476" lon="11.283679981434334"><ele>170.66666666666666</ele><time>2026-04-03T10:06:45.987Z</time></trkpt><trkpt lat="43.62444675388298" lon="11.283490025479981"><ele>170.0</ele><time>2026-04-03T10:06:46.987Z</time></trkpt><trkpt lat="43.62452583145891" lon="11.283297950401362"><ele>170.0</ele><time>2026-04-03T10:06:47.987Z</time></trkpt><trkpt lat="43.62460384932453" lon="11.283120317646269"><ele>170.0</ele><time>2026-04-03T10:06:48.987Z</time></trkpt><trkpt lat="43.62467530977736" lon="11.28294838800756"><ele>170.0</ele><time>2026-04-03T10:06:49.987Z</time></trkpt><trkpt lat="43.62474102055798" lon="11.282775511185303"><ele>170.0</ele><time>2026-04-03T10:06:50.987Z</time></trkpt><trkpt lat="43.62481003548523" lon="11.282606590839558"><ele>169.0</ele><time>2026-04-03T10:06:51.987Z</time></trkpt><trkpt lat="43.6248896392235" lon="11.282434623976611"><ele>168.0</ele><time>2026-04-03T10:06:52.987Z</time></trkpt><trkpt lat="43.62496736668406" lon="11.282263299856508"><ele>167.0</ele><time>2026-04-03T10:06:53.987Z</time></trkpt><trkpt lat="43.625037683187216" lon="11.282111560386028"><ele>166.0</ele><time>2026-04-03T10:06:54.987Z</time></trkpt><trkpt lat="43.62509361925831" lon="11.28198465098471"><ele>165.8</ele><time>2026-04-03T10:06:55.987Z</time></trkpt><trkpt lat="43.62514594712631" lon="11.281874777114968"><ele>165.60000000000002</ele><time>2026-04-03T10:06:56.987Z</time></trkpt><trkpt lat="43.62519428717885" lon="11.281759126471192"><ele>165.4</ele><time>2026-04-03T10:06:57.987Z</time></trkpt><trkpt lat="43.625241938631895" lon="11.28163798767645"><ele>165.2</ele><time>2026-04-03T10:06:58.987Z</time></trkpt><trkpt lat="43.62529587898554" lon="11.281508294009505"><ele>165.0</ele><time>2026-04-03T10:06:59.987Z</time></trkpt><trkpt lat="43.62535833849221" lon="11.28136180748653"><ele>165.0</ele><time>2026-04-03T10:07:00.987Z</time></trkpt><trkpt lat="43.625423863827024" lon="11.281197867758664"><ele>165.0</ele><time>2026-04-03T10:07:01.987Z</time></trkpt><trkpt lat="43.62550037802804" lon="11.281009801793356"><ele>165.0</ele><time>2026-04-03T10:07:02.987Z</time></trkpt><trkpt lat="43.6255832438089" lon="11.280822692484046"><ele>165.0</ele><time>2026-04-03T10:07:03.987Z</time></trkpt><trkpt lat="43.62566368750144" lon="11.28062927759118"><ele>165.0</ele><time>2026-04-03T10:07:04.987Z</time></trkpt><trkpt lat="43.625752359772285" lon="11.280432305669748"><ele>165.0</ele><time>2026-04-03T10:07:05.987Z</time></trkpt><trkpt lat="43.62583587936157" lon="11.28023142419979"><ele>164.66666666666666</ele><time>2026-04-03T10:07:06.987Z</time></trkpt><trkpt lat="43.62592456559618" lon="11.280024132704476"><ele>164.33333333333331</ele><time>2026-04-03T10:07:07.987Z</time></trkpt><trkpt lat="43.62601530273603" lon="11.279820344844222"><ele>164.0</ele><time>2026-04-03T10:07:08.987Z</time></trkpt><trkpt lat="43.62610757635793" lon="11.279615548271236"><ele>165.0</ele><time>2026-04-03T10:07:09.987Z</time></trkpt><trkpt lat="43.62621283834068" lon="11.27940492769385"><ele>166.0</ele><time>2026-04-03T10:07:10.987Z</time></trkpt><trkpt lat="43.62632731897486" lon="11.279202886510095"><ele>167.0</ele><time>2026-04-03T10:07:11.987Z</time></trkpt><trkpt lat="43.62644586469967" lon="11.279013103158228"><ele>165.33333333333331</ele><time>2026-04-03T10:07:12.987Z</time></trkpt><trkpt lat="43.62659208481144" lon="11.278833042333725"><ele>163.66666666666666</ele><time>2026-04-03T10:07:13.987Z</time></trkpt><trkpt lat="43.62673104474493" lon="11.27863736939105"><ele>162.0</ele><time>2026-04-03T10:07:14.987Z</time></trkpt><trkpt lat="43.62687200222922" lon="11.278439335773683"><ele>162.0</ele><time>2026-04-03T10:07:15.987Z</time></trkpt><trkpt lat="43.627012963281885" lon="11.278231495085635"><ele>162.0</ele><time>2026-04-03T10:07:16.987Z</time></trkpt><trkpt lat="43.6271656414701" lon="11.27804932793124"><ele>162.0</ele><time>2026-04-03T10:07:17.987Z</time></trkpt><trkpt lat="43.62732607669073" lon="11.277878348332314"><ele>162.0</ele><time>2026-04-03T10:07:18.987Z</time></trkpt><trkpt lat="43.62749460703333" lon="11.27772108407741"><ele>162.0</ele><time>2026-04-03T10:07:19.987Z</time></trkpt><trkpt lat="43.62767405185461" lon="11.277572246570774"><ele>162.0</ele><time>2026-04-03T10:07:20.987Z</time></trkpt><trkpt lat="43.6278543047574" lon="11.277430336427098"><ele>162.0</ele><time>2026-04-03T10:07:21.987Z</time></trkpt><trkpt lat="43.62805105296448" lon="11.277309779896461"><ele>162.0</ele><time>2026-04-03T10:07:22.987Z</time></trkpt><trkpt lat="43.62824629555488" lon="11.277193531191058"><ele>162.0</ele><time>2026-04-03T10:07:23.987Z</time></trkpt><trkpt lat="43.628442753344515" lon="11.277086458728288"><ele>162.0</ele><time>2026-04-03T10:07:24.987Z</time></trkpt><trkpt lat="43.62863621040728" lon="11.276989982670369"><ele>162.0</ele><time>2026-04-03T10:07:25.987Z</time></trkpt><trkpt lat="43.62882678326537" lon="11.276892593403346"><ele>162.0</ele><time>2026-04-03T10:07:26.987Z</time></trkpt><trkpt lat="43.62900734943462" lon="11.276788412657165"><ele>161.66666666666666</ele><time>2026-04-03T10:07:27.987Z</time></trkpt><trkpt lat="43.629181083665785" lon="11.276674569278915"><ele>161.33333333333331</ele><time>2026-04-03T10:07:28.987Z</time></trkpt><trkpt lat="43.62935174088249" lon="11.276523277519285"><ele>161.0</ele><time>2026-04-03T10:07:29.987Z</time></trkpt><trkpt lat="43.629520981302434" lon="11.276341256082917"><ele>161.0</ele><time>2026-04-03T10:07:30.987Z</time></trkpt><trkpt lat="43.62967581129373" lon="11.2761438251237"><ele>161.0</ele><time>2026-04-03T10:07:31.987Z</time></trkpt><trkpt lat="43.629836606174095" lon="11.275958042227996"><ele>161.0</ele><time>2026-04-03T10:07:32.987Z</time></trkpt><trkpt lat="43.63001327280718" lon="11.275778753036818"><ele>161.0</ele><time>2026-04-03T10:07:33.987Z</time></trkpt><trkpt lat="43.63019648376877" lon="11.275611961109801"><ele>161.0</ele><time>2026-04-03T10:07:34.987Z</time></trkpt><trkpt lat="43.6303807861913" lon="11.275460763829"><ele>161.0</ele><time>2026-04-03T10:07:35.987Z</time></trkpt><trkpt lat="43.63057962252052" lon="11.275331307580936"><ele>159.0</ele><time>2026-04-03T10:07:36.987Z</time></trkpt><trkpt lat="43.630769638312096" lon="11.275172222882315"><ele>157.0</ele><time>2026-04-03T10:07:37.987Z</time></trkpt><trkpt lat="43.630976024667" lon="11.275038674474082"><ele>157.0</ele><time>2026-04-03T10:07:38.987Z</time></trkpt><trkpt lat="43.63119523350933" lon="11.274967869985947"><ele>157.0</ele><time>2026-04-03T10:07:39.987Z</time></trkpt><trkpt lat="43.63141415670564" lon="11.274904422756007"><ele>157.0</ele><time>2026-04-03T10:07:40.987Z</time></trkpt><trkpt lat="43.63163785890023" lon="11.274841915252397"><ele>157.0</ele><time>2026-04-03T10:07:41.987Z</time></trkpt><trkpt lat="43.63185049983084" lon="11.274782498534952"><ele>157.0</ele><time>2026-04-03T10:07:42.987Z</time></trkpt><trkpt lat="43.63203107536252" lon="11.274732041625441"><ele>157.0</ele><time>2026-04-03T10:07:43.987Z</time></trkpt><trkpt lat="43.632204469327036" lon="11.274663250199827"><ele>156.5</ele><time>2026-04-03T10:07:44.987Z</time></trkpt><trkpt lat="43.63233756869277" lon="11.274550120376336"><ele>156.0</ele><time>2026-04-03T10:07:45.987Z</time></trkpt><trkpt lat="43.6324240628968" lon="11.274430537605816"><ele>155.5</ele><time>2026-04-03T10:07:46.988Z</time></trkpt><trkpt lat="43.63246426109261" lon="11.274252369312316"><ele>155.0</ele><time>2026-04-03T10:07:47.988Z</time></trkpt><trkpt lat="43.63247288251537" lon="11.274043919412868"><ele>154.5</ele><time>2026-04-03T10:07:48.988Z</time></trkpt><trkpt lat="43.63244945509856" lon="11.273862072636527"><ele>154.0</ele><time>2026-04-03T10:07:49.988Z</time></trkpt><trkpt lat="43.63237567767258" lon="11.27369062022303"><ele>153.5</ele><time>2026-04-03T10:07:50.988Z</time></trkpt><trkpt lat="43.63225997198221" lon="11.27354456939651"><ele>153.0</ele><time>2026-04-03T10:07:51.988Z</time></trkpt><trkpt lat="43.63215900033923" lon="11.273396697453284"><ele>153.0</ele><time>2026-04-03T10:07:52.988Z</time></trkpt><trkpt lat="43.63207200958983" lon="11.273270473764882"><ele>153.0</ele><time>2026-04-03T10:07:53.988Z</time></trkpt><trkpt lat="43.63199986104283" lon="11.273121212217982"><ele>153.0</ele><time>2026-04-03T10:07:54.988Z</time></trkpt><trkpt lat="43.631956757111354" lon="11.272962692542253"><ele>153.0</ele><time>2026-04-03T10:07:55.988Z</time></trkpt><trkpt lat="43.63196916545866" lon="11.27279732101547"><ele>153.5</ele><time>2026-04-03T10:07:56.988Z</time></trkpt><trkpt lat="43.631982480069766" lon="11.27266690350196"><ele>154.0</ele><time>2026-04-03T10:07:57.988Z</time></trkpt><trkpt lat="43.632035227722355" lon="11.272543143925361"><ele>154.5</ele><time>2026-04-03T10:07:58.988Z</time></trkpt><trkpt lat="43.63208866514179" lon="11.272385900500714"><ele>155.0</ele><time>2026-04-03T10:07:59.988Z</time></trkpt><trkpt lat="43.632182096172656" lon="11.272271533789178"><ele>155.0</ele><time>2026-04-03T10:08:00.988Z</time></trkpt><trkpt lat="43.63226903267751" lon="11.272133277387763"><ele>155.0</ele><time>2026-04-03T10:08:01.988Z</time></trkpt><trkpt lat="43.63237035380877" lon="11.271985462964453"><ele>155.0</ele><time>2026-04-03T10:08:02.988Z</time></trkpt><trkpt lat="43.63249790028167" lon="11.27181027378741"><ele>155.0</ele><time>2026-04-03T10:08:03.988Z</time></trkpt><trkpt lat="43.63264245192197" lon="11.271616338484614"><ele>155.0</ele><time>2026-04-03T10:08:04.988Z</time></trkpt><trkpt lat="43.63278353637253" lon="11.27142261269339"><ele>155.0</ele><time>2026-04-03T10:08:05.988Z</time></trkpt><trkpt lat="43.632916570151544" lon="11.271243014625867"><ele>154.66666666666666</ele><time>2026-04-03T10:08:06.988Z</time></trkpt><trkpt lat="43.6330264437463" lon="11.271041265960669"><ele>154.33333333333334</ele><time>2026-04-03T10:08:07.988Z</time></trkpt><trkpt lat="43.63315907480554" lon="11.270853832771484"><ele>154.0</ele><time>2026-04-03T10:08:08.988Z</time></trkpt><trkpt lat="43.63329808640526" lon="11.2706722702386"><ele>153.66666666666669</ele><time>2026-04-03T10:08:09.987Z</time></trkpt><trkpt lat="43.63342792640247" lon="11.27049797155889"><ele>153.33333333333334</ele><time>2026-04-03T10:08:10.986Z</time></trkpt><trkpt lat="43.63358483735437" lon="11.270330456223357"><ele>153.0</ele><time>2026-04-03T10:08:11.985Z</time></trkpt><trkpt lat="43.633719936393824" lon="11.270142709714863"><ele>153.0</ele><time>2026-04-03T10:08:12.984Z</time></trkpt><trkpt lat="43.63384663958578" lon="11.26997136773275"><ele>153.0</ele><time>2026-04-03T10:08:13.982Z</time></trkpt><trkpt lat="43.6339769011858" lon="11.269835772846063"><ele>153.0</ele><time>2026-04-03T10:08:14.981Z</time></trkpt><trkpt lat="43.63413602219092" lon="11.269748318784204"><ele>153.33333333333334</ele><time>2026-04-03T10:08:15.981Z</time></trkpt><trkpt lat="43.63430815722702" lon="11.269694413815497"><ele>153.66666666666669</ele><time>2026-04-03T10:08:16.98Z</time></trkpt><trkpt lat="43.63450142916369" lon="11.269632274068892"><ele>154.0</ele><time>2026-04-03T10:08:17.979Z</time></trkpt><trkpt lat="43.634685868287995" lon="11.269546729621647"><ele>154.0</ele><time>2026-04-03T10:08:18.978Z</time></trkpt><trkpt lat="43.634866121122094" lon="11.269420784230249"><ele>154.0</ele><time>2026-04-03T10:08:19.977Z</time></trkpt><trkpt lat="43.63502673437971" lon="11.269258733490013"><ele>154.0</ele><time>2026-04-03T10:08:20.977Z</time></trkpt><trkpt lat="43.6351920947565" lon="11.269097854740005"><ele>153.0</ele><time>2026-04-03T10:08:21.976Z</time></trkpt><trkpt lat="43.63533833985073" lon="11.268911820892324"><ele>152.0</ele><time>2026-04-03T10:08:22.976Z</time></trkpt><trkpt lat="43.63544737118635" lon="11.268702146031957"><ele>151.0</ele><time>2026-04-03T10:08:23.975Z</time></trkpt><trkpt lat="43.63551860000674" lon="11.268462567282423"><ele>151.0</ele><time>2026-04-03T10:08:24.975Z</time></trkpt><trkpt lat="43.635586944646754" lon="11.268205280874136"><ele>151.0</ele><time>2026-04-03T10:08:25.974Z</time></trkpt><trkpt lat="43.63563253375164" lon="11.26793432654271"><ele>151.0</ele><time>2026-04-03T10:08:26.974Z</time></trkpt><trkpt lat="43.63566622603338" lon="11.267662664651482"><ele>151.66666666666669</ele><time>2026-04-03T10:08:27.973Z</time></trkpt><trkpt lat="43.63569745929139" lon="11.267387326728498"><ele>152.33333333333334</ele><time>2026-04-03T10:08:28.973Z</time></trkpt><trkpt lat="43.6357482456607" lon="11.267122886215839"><ele>153.0</ele><time>2026-04-03T10:08:29.97Z</time></trkpt><trkpt lat="43.63581450688817" lon="11.26689979579161"><ele>152.66666666666666</ele><time>2026-04-03T10:08:30.969Z</time></trkpt><trkpt lat="43.63590800892555" lon="11.266715835782326"><ele>152.33333333333331</ele><time>2026-04-03T10:08:31.969Z</time></trkpt><trkpt lat="43.63602882678966" lon="11.266574023907058"><ele>152.0</ele><time>2026-04-03T10:08:32.969Z</time></trkpt><trkpt lat="43.63618222986438" lon="11.266460577946923"><ele>153.66666666666666</ele><time>2026-04-03T10:08:33.969Z</time></trkpt><trkpt lat="43.63634619393947" lon="11.266381432116852"><ele>155.33333333333334</ele><time>2026-04-03T10:08:34.969Z</time></trkpt><trkpt lat="43.63654710986448" lon="11.266287214101055"><ele>157.0</ele><time>2026-04-03T10:08:35.968Z</time></trkpt><trkpt lat="43.63673710815669" lon="11.266198944550407"><ele>157.0</ele><time>2026-04-03T10:08:36.968Z</time></trkpt><trkpt lat="43.63692918629699" lon="11.266111406630337"><ele>157.0</ele><time>2026-04-03T10:08:37.968Z</time></trkpt><trkpt lat="43.63711766840454" lon="11.266024309416824"><ele>157.0</ele><time>2026-04-03T10:08:38.968Z</time></trkpt><trkpt lat="43.63730480775059" lon="11.265916399999233"><ele>156.33333333333334</ele><time>2026-04-03T10:08:39.967Z</time></trkpt><trkpt lat="43.63751196927081" lon="11.265869891601488"><ele>155.66666666666666</ele><time>2026-04-03T10:08:40.967Z</time></trkpt><trkpt lat="43.637715151887335" lon="11.265790021971885"><ele>155.0</ele><time>2026-04-03T10:08:41.966Z</time></trkpt><trkpt lat="43.6379183708101" lon="11.265689133353643"><ele>155.0</ele><time>2026-04-03T10:08:42.966Z</time></trkpt><trkpt lat="43.63810420533712" lon="11.265580671584914"><ele>155.0</ele><time>2026-04-03T10:08:43.966Z</time></trkpt><trkpt lat="43.63829516750028" lon="11.265468257923253"><ele>155.0</ele><time>2026-04-03T10:08:44.966Z</time></trkpt><trkpt lat="43.6384991635377" lon="11.265359751798302"><ele>154.0</ele><time>2026-04-03T10:08:45.966Z</time></trkpt><trkpt lat="43.63870299193865" lon="11.265252951826938"><ele>153.0</ele><time>2026-04-03T10:08:46.966Z</time></trkpt><trkpt lat="43.63890252749714" lon="11.265168296585557"><ele>152.0</ele><time>2026-04-03T10:08:47.966Z</time></trkpt><trkpt lat="43.63910156669113" lon="11.26506367519529"><ele>152.0</ele><time>2026-04-03T10:08:48.966Z</time></trkpt><trkpt lat="43.639299272400386" lon="11.264954421134478"><ele>152.0</ele><time>2026-04-03T10:08:49.965Z</time></trkpt><trkpt lat="43.63949416446448" lon="11.264845476421483"><ele>152.0</ele><time>2026-04-03T10:08:50.965Z</time></trkpt><trkpt lat="43.639679024518124" lon="11.264745402897855"><ele>152.66666666666666</ele><time>2026-04-03T10:08:51.965Z</time></trkpt><trkpt lat="43.639878246921036" lon="11.26463005912391"><ele>153.33333333333334</ele><time>2026-04-03T10:08:52.965Z</time></trkpt><trkpt lat="43.64008120459193" lon="11.264530822229197"><ele>154.0</ele><time>2026-04-03T10:08:53.965Z</time></trkpt><trkpt lat="43.6402743247132" lon="11.264429081404026"><ele>152.66666666666669</ele><time>2026-04-03T10:08:54.965Z</time></trkpt><trkpt lat="43.640461463722865" lon="11.26432669116522"><ele>151.33333333333334</ele><time>2026-04-03T10:08:55.965Z</time></trkpt><trkpt lat="43.64064445645927" lon="11.264233320875542"><ele>150.0</ele><time>2026-04-03T10:08:56.965Z</time></trkpt><trkpt lat="43.64083290177397" lon="11.264147876989757"><ele>150.0</ele><time>2026-04-03T10:08:57.965Z</time></trkpt><trkpt lat="43.641008332663674" lon="11.264159926393816"><ele>150.0</ele><time>2026-04-03T10:08:58.965Z</time></trkpt><trkpt lat="43.64117385335335" lon="11.264186121466805"><ele>150.0</ele><time>2026-04-03T10:08:59.965Z</time></trkpt><trkpt lat="43.64135612497764" lon="11.264233333931129"><ele>150.66666666666666</ele><time>2026-04-03T10:09:00.965Z</time></trkpt><trkpt lat="43.6415329283749" lon="11.26429742901678"><ele>151.33333333333331</ele><time>2026-04-03T10:09:01.965Z</time></trkpt><trkpt lat="43.6417078123213" lon="11.264401259131072"><ele>152.0</ele><time>2026-04-03T10:09:02.965Z</time></trkpt><trkpt lat="43.64186905257162" lon="11.264540350417706"><ele>151.66666666666666</ele><time>2026-04-03T10:09:03.965Z</time></trkpt><trkpt lat="43.64204785918198" lon="11.26469792720153"><ele>151.33333333333334</ele><time>2026-04-03T10:09:04.965Z</time></trkpt><trkpt lat="43.64223350903129" lon="11.264862807316412"><ele>151.0</ele><time>2026-04-03T10:09:05.965Z</time></trkpt><trkpt lat="43.64241533077786" lon="11.265023409310922"><ele>151.0</ele><time>2026-04-03T10:09:06.964Z</time></trkpt><trkpt lat="43.642596878738665" lon="11.265182986036777"><ele>151.0</ele><time>2026-04-03T10:09:07.964Z</time></trkpt><trkpt lat="43.642773650886674" lon="11.265336348036989"><ele>151.0</ele><time>2026-04-03T10:09:08.964Z</time></trkpt><trkpt lat="43.64296259472557" lon="11.265474954011273"><ele>150.0</ele><time>2026-04-03T10:09:09.964Z</time></trkpt><trkpt lat="43.643140506956144" lon="11.265632649589891"><ele>149.0</ele><time>2026-04-03T10:09:10.964Z</time></trkpt><trkpt lat="43.64332483871119" lon="11.265778352108812"><ele>148.0</ele><time>2026-04-03T10:09:11.964Z</time></trkpt><trkpt lat="43.64352099495132" lon="11.265894298152354"><ele>147.66666666666669</ele><time>2026-04-03T10:09:12.964Z</time></trkpt><trkpt lat="43.64371744990102" lon="11.265983882936888"><ele>147.33333333333334</ele><time>2026-04-03T10:09:13.964Z</time></trkpt><trkpt lat="43.64392101503003" lon="11.266023182765467"><ele>147.0</ele><time>2026-04-03T10:09:14.964Z</time></trkpt><trkpt lat="43.64412637453905" lon="11.266008385288897"><ele>147.0</ele><time>2026-04-03T10:09:15.964Z</time></trkpt><trkpt lat="43.64432815204721" lon="11.265929471667018"><ele>147.0</ele><time>2026-04-03T10:09:16.964Z</time></trkpt><trkpt lat="43.644507891817405" lon="11.2657990260326"><ele>147.0</ele><time>2026-04-03T10:09:17.964Z</time></trkpt><trkpt lat="43.644685970821264" lon="11.265677027366001"><ele>146.33333333333334</ele><time>2026-04-03T10:09:18.964Z</time></trkpt><trkpt lat="43.64486512032567" lon="11.26555507516517"><ele>145.66666666666669</ele><time>2026-04-03T10:09:19.964Z</time></trkpt><trkpt lat="43.64504407177739" lon="11.265438684621637"><ele>145.0</ele><time>2026-04-03T10:09:20.964Z</time></trkpt><trkpt lat="43.64522738838823" lon="11.265318367428874"><ele>145.66666666666669</ele><time>2026-04-03T10:09:21.964Z</time></trkpt><trkpt lat="43.64540894258499" lon="11.265205785227135"><ele>146.33333333333334</ele><time>2026-04-03T10:09:22.964Z</time></trkpt><trkpt lat="43.64559696851583" lon="11.26510320285816"><ele>147.0</ele><time>2026-04-03T10:09:23.964Z</time></trkpt><trkpt lat="43.64578514816461" lon="11.26499004018978"><ele>147.0</ele><time>2026-04-03T10:09:24.964Z</time></trkpt><trkpt lat="43.645975587423514" lon="11.264874837786135"><ele>147.0</ele><time>2026-04-03T10:09:25.964Z</time></trkpt><trkpt lat="43.64617176242756" lon="11.26475546202417"><ele>147.0</ele><time>2026-04-03T10:09:26.964Z</time></trkpt><trkpt lat="43.64637843065335" lon="11.264659172621856"><ele>146.0</ele><time>2026-04-03T10:09:27.964Z</time></trkpt><trkpt lat="43.64656564797073" lon="11.264528475412712"><ele>145.0</ele><time>2026-04-03T10:09:28.964Z</time></trkpt><trkpt lat="43.64674360868925" lon="11.264421258035894"><ele>144.0</ele><time>2026-04-03T10:09:29.964Z</time></trkpt><trkpt lat="43.64690426809093" lon="11.264325832348682"><ele>145.0</ele><time>2026-04-03T10:09:30.964Z</time></trkpt><trkpt lat="43.647057426506635" lon="11.264234441886417"><ele>146.0</ele><time>2026-04-03T10:09:31.964Z</time></trkpt><trkpt lat="43.64720768293106" lon="11.264141492922843"><ele>147.0</ele><time>2026-04-03T10:09:32.964Z</time></trkpt><trkpt lat="43.64734776820489" lon="11.264048641561251"><ele>145.0</ele><time>2026-04-03T10:09:33.964Z</time></trkpt><trkpt lat="43.647487293959315" lon="11.263945914084841"><ele>143.0</ele><time>2026-04-03T10:09:34.964Z</time></trkpt><trkpt lat="43.647622021886306" lon="11.263842252904157"><ele>141.0</ele><time>2026-04-03T10:09:35.964Z</time></trkpt><trkpt lat="43.64775259688339" lon="11.263718921640189"><ele>141.66666666666666</ele><time>2026-04-03T10:09:36.964Z</time></trkpt><trkpt lat="43.647876140926314" lon="11.263581375169409"><ele>142.33333333333331</ele><time>2026-04-03T10:09:37.964Z</time></trkpt><trkpt lat="43.6479889198331" lon="11.26341932177278"><ele>143.0</ele><time>2026-04-03T10:09:38.964Z</time></trkpt><trkpt lat="43.64808880830219" lon="11.263248037573382"><ele>142.33333333333331</ele><time>2026-04-03T10:09:39.964Z</time></trkpt><trkpt lat="43.64817390217074" lon="11.263060562730466"><ele>141.66666666666666</ele><time>2026-04-03T10:09:40.964Z</time></trkpt><trkpt lat="43.64824780057799" lon="11.262860041540627"><ele>141.0</ele><time>2026-04-03T10:09:41.964Z</time></trkpt><trkpt lat="43.64829634971784" lon="11.262643839322699"><ele>141.0</ele><time>2026-04-03T10:09:42.964Z</time></trkpt><trkpt lat="43.64833497637354" lon="11.262417126212295"><ele>141.0</ele><time>2026-04-03T10:09:43.964Z</time></trkpt><trkpt lat="43.64835683738593" lon="11.26218365989579"><ele>141.0</ele><time>2026-04-03T10:09:44.964Z</time></trkpt><trkpt lat="43.6483602012568" lon="11.261943096632846"><ele>141.33333333333334</ele><time>2026-04-03T10:09:45.964Z</time></trkpt><trkpt lat="43.64834386041344" lon="11.261700990826597"><ele>141.66666666666669</ele><time>2026-04-03T10:09:46.964Z</time></trkpt><trkpt lat="43.6483198602547" lon="11.261459597377833"><ele>142.0</ele><time>2026-04-03T10:09:47.964Z</time></trkpt><trkpt lat="43.64829956316118" lon="11.261203243379699"><ele>142.0</ele><time>2026-04-03T10:09:48.964Z</time></trkpt><trkpt lat="43.64827223054102" lon="11.260964987904552"><ele>142.0</ele><time>2026-04-03T10:09:49.964Z</time></trkpt><trkpt lat="43.64824450785278" lon="11.260746978275511"><ele>142.0</ele><time>2026-04-03T10:09:50.964Z</time></trkpt><trkpt lat="43.648226403757434" lon="11.260546073419494"><ele>141.79999999999998</ele><time>2026-04-03T10:09:51.964Z</time></trkpt><trkpt lat="43.648222776177874" lon="11.260381833502247"><ele>141.6</ele><time>2026-04-03T10:09:52.964Z</time></trkpt><trkpt lat="43.64822321727958" lon="11.260224225419758"><ele>141.39999999999998</ele><time>2026-04-03T10:09:53.964Z</time></trkpt><trkpt lat="43.64824446417179" lon="11.260090248780749"><ele>141.2</ele><time>2026-04-03T10:09:54.964Z</time></trkpt><trkpt lat="43.6482606838438" lon="11.259959572124075"><ele>141.0</ele><time>2026-04-03T10:09:55.964Z</time></trkpt><trkpt lat="43.64832714219229" lon="11.259862202844117"><ele>140.8</ele><time>2026-04-03T10:09:56.964Z</time></trkpt><trkpt lat="43.64839057443794" lon="11.259755057759849"><ele>140.6</ele><time>2026-04-03T10:09:57.964Z</time></trkpt><trkpt lat="43.648472654769215" lon="11.259692470839697"><ele>140.4</ele><time>2026-04-03T10:09:58.964Z</time></trkpt><trkpt lat="43.64856341048397" lon="11.25962445568421"><ele>140.2</ele><time>2026-04-03T10:09:59.964Z</time></trkpt><trkpt lat="43.648672273883875" lon="11.25956849481494"><ele>140.0</ele><time>2026-04-03T10:10:00.964Z</time></trkpt><trkpt lat="43.64878500733765" lon="11.259554863501709"><ele>139.75</ele><time>2026-04-03T10:10:01.964Z</time></trkpt><trkpt lat="43.64891083865491" lon="11.259562343083221"><ele>139.5</ele><time>2026-04-03T10:10:02.964Z</time></trkpt><trkpt lat="43.649048208030756" lon="11.259578734835605"><ele>139.25</ele><time>2026-04-03T10:10:03.964Z</time></trkpt><trkpt lat="43.64920020021122" lon="11.259574676741828"><ele>139.0</ele><time>2026-04-03T10:10:04.964Z</time></trkpt><trkpt lat="43.649343393372504" lon="11.25960843489785"><ele>138.5</ele><time>2026-04-03T10:10:05.964Z</time></trkpt><trkpt lat="43.64956922743753" lon="11.259624593675369"><ele>138.0</ele><time>2026-04-03T10:10:06.964Z</time></trkpt><trkpt lat="43.6497930026464" lon="11.259628309675467"><ele>138.0</ele><time>2026-04-03T10:10:07.964Z</time></trkpt><trkpt lat="43.64997224454372" lon="11.25964964281754"><ele>138.0</ele><time>2026-04-03T10:10:08.964Z</time></trkpt><trkpt lat="43.65012330633172" lon="11.259607926177893"><ele>138.0</ele><time>2026-04-03T10:10:09.964Z</time></trkpt><trkpt lat="43.650273544280736" lon="11.259494908813258"><ele>137.66666666666666</ele><time>2026-04-03T10:10:10.964Z</time></trkpt><trkpt lat="43.65041306215075" lon="11.259344980314829"><ele>137.33333333333331</ele><time>2026-04-03T10:10:11.964Z</time></trkpt><trkpt lat="43.6505585059689" lon="11.259133816433367"><ele>137.0</ele><time>2026-04-03T10:10:12.964Z</time></trkpt><trkpt lat="43.65070484101655" lon="11.25893342590556"><ele>136.66666666666666</ele><time>2026-04-03T10:10:13.964Z</time></trkpt><trkpt lat="43.65085038651392" lon="11.25878335397911"><ele>136.33333333333334</ele><time>2026-04-03T10:10:14.964Z</time></trkpt><trkpt lat="43.65100909323364" lon="11.258666980187199"><ele>136.0</ele><time>2026-04-03T10:10:15.964Z</time></trkpt><trkpt lat="43.651160936822514" lon="11.258603881896645"><ele>135.5</ele><time>2026-04-03T10:10:16.964Z</time></trkpt><trkpt lat="43.651300764223336" lon="11.258607104890155"><ele>135.0</ele><time>2026-04-03T10:10:17.964Z</time></trkpt><trkpt lat="43.6514445496773" lon="11.258611684139609"><ele>134.5</ele><time>2026-04-03T10:10:18.964Z</time></trkpt><trkpt lat="43.65159013491184" lon="11.258624425246195"><ele>134.0</ele><time>2026-04-03T10:10:19.964Z</time></trkpt><trkpt lat="43.651733044401276" lon="11.258638570456451"><ele>134.0</ele><time>2026-04-03T10:10:20.964Z</time></trkpt><trkpt lat="43.65189675612014" lon="11.258652617891068"><ele>134.0</ele><time>2026-04-03T10:10:21.964Z</time></trkpt><trkpt lat="43.6520546758751" lon="11.25866607217266"><ele>134.0</ele><time>2026-04-03T10:10:22.964Z</time></trkpt><trkpt lat="43.65219577559622" lon="11.25867801019416"><ele>134.0</ele><time>2026-04-03T10:10:23.964Z</time></trkpt><trkpt lat="43.65232277911395" lon="11.258688755561089"><ele>134.0</ele><time>2026-04-03T10:10:24.964Z</time></trkpt><trkpt lat="43.65244561062347" lon="11.258699147946544"><ele>134.0</ele><time>2026-04-03T10:10:25.964Z</time></trkpt><trkpt lat="43.65262470686757" lon="11.258708412257299"><ele>134.0</ele><time>2026-04-03T10:10:26.964Z</time></trkpt><trkpt lat="43.652782658349665" lon="11.258724566909635"><ele>134.2</ele><time>2026-04-03T10:10:27.964Z</time></trkpt><trkpt lat="43.65288822412887" lon="11.25875356203875"><ele>134.4</ele><time>2026-04-03T10:10:28.964Z</time></trkpt><trkpt lat="43.65299529564651" lon="11.258767442100835"><ele>134.6</ele><time>2026-04-03T10:10:29.964Z</time></trkpt><trkpt lat="43.653095268150985" lon="11.258772093771256"><ele>134.8</ele><time>2026-04-03T10:10:30.964Z</time></trkpt><trkpt lat="43.65319907662314" lon="11.258761648059513"><ele>135.0</ele><time>2026-04-03T10:10:31.964Z</time></trkpt><trkpt lat="43.653324364145014" lon="11.258739786594617"><ele>135.0</ele><time>2026-04-03T10:10:32.964Z</time></trkpt><trkpt lat="43.6534579665559" lon="11.258704885248013"><ele>135.0</ele><time>2026-04-03T10:10:33.964Z</time></trkpt><trkpt lat="43.653590900828306" lon="11.258646056080405"><ele>135.0</ele><time>2026-04-03T10:10:34.964Z</time></trkpt><trkpt lat="43.65372010461679" lon="11.258579850598053"><ele>135.0</ele><time>2026-04-03T10:10:35.962Z</time></trkpt><trkpt lat="43.65386634514172" lon="11.258497653320461"><ele>136.0</ele><time>2026-04-03T10:10:36.963Z</time></trkpt><trkpt lat="43.65400778532906" lon="11.258431341221852"><ele>137.0</ele><time>2026-04-03T10:10:37.963Z</time></trkpt><trkpt lat="43.65415034194264" lon="11.258375765248562"><ele>138.0</ele><time>2026-04-03T10:10:38.963Z</time></trkpt><trkpt lat="43.65429559337269" lon="11.258305579331862"><ele>138.0</ele><time>2026-04-03T10:10:39.963Z</time></trkpt><trkpt lat="43.654439246171016" lon="11.258271624789495"><ele>138.0</ele><time>2026-04-03T10:10:40.963Z</time></trkpt><trkpt lat="43.654583384486685" lon="11.258258294586124"><ele>138.0</ele><time>2026-04-03T10:10:41.963Z</time></trkpt><trkpt lat="43.65472095848541" lon="11.258271027049666"><ele>138.0</ele><time>2026-04-03T10:10:42.963Z</time></trkpt><trkpt lat="43.65485679537036" lon="11.25827637847429"><ele>138.0</ele><time>2026-04-03T10:10:43.963Z</time></trkpt><trkpt lat="43.654988280269066" lon="11.258248939699909"><ele>138.0</ele><time>2026-04-03T10:10:44.963Z</time></trkpt><trkpt lat="43.65511716511758" lon="11.258172835738899"><ele>138.0</ele><time>2026-04-03T10:10:45.963Z</time></trkpt><trkpt lat="43.65523867022846" lon="11.258058836115213"><ele>138.0</ele><time>2026-04-03T10:10:46.963Z</time></trkpt><trkpt lat="43.65537065405878" lon="11.257957672790598"><ele>136.33333333333334</ele><time>2026-04-03T10:10:47.962Z</time></trkpt><trkpt lat="43.65553015508712" lon="11.257913194642978"><ele>134.66666666666669</ele><time>2026-04-03T10:10:48.962Z</time></trkpt><trkpt lat="43.65569931377286" lon="11.257944735033576"><ele>133.0</ele><time>2026-04-03T10:10:49.962Z</time></trkpt><trkpt lat="43.65588434410325" lon="11.257972182955914"><ele>133.0</ele><time>2026-04-03T10:10:50.962Z</time></trkpt><trkpt lat="43.656077631642624" lon="11.257994149522208"><ele>133.0</ele><time>2026-04-03T10:10:51.962Z</time></trkpt><trkpt lat="43.656258244780894" lon="11.258026311892188"><ele>133.0</ele><time>2026-04-03T10:10:52.962Z</time></trkpt><trkpt lat="43.656431687725856" lon="11.258062102455721"><ele>134.33333333333334</ele><time>2026-04-03T10:10:53.962Z</time></trkpt><trkpt lat="43.6565985363674" lon="11.258143381112188"><ele>135.66666666666666</ele><time>2026-04-03T10:10:54.962Z</time></trkpt><trkpt lat="43.65676851719672" lon="11.258239751538873"><ele>137.0</ele><time>2026-04-03T10:10:55.962Z</time></trkpt><trkpt lat="43.6569295670416" lon="11.25832444948322"><ele>135.0</ele><time>2026-04-03T10:10:56.962Z</time></trkpt><trkpt lat="43.657087776906565" lon="11.258335121309967"><ele>133.0</ele><time>2026-04-03T10:10:57.962Z</time></trkpt><trkpt lat="43.657242142129924" lon="11.258351862329995"><ele>131.0</ele><time>2026-04-03T10:10:58.962Z</time></trkpt><trkpt lat="43.657405377743615" lon="11.258335129711522"><ele>131.0</ele><time>2026-04-03T10:10:59.962Z</time></trkpt><trkpt lat="43.65757367243483" lon="11.258279741685879"><ele>131.0</ele><time>2026-04-03T10:11:00.962Z</time></trkpt><trkpt lat="43.65773680781929" lon="11.258205293712617"><ele>131.0</ele><time>2026-04-03T10:11:01.962Z</time></trkpt><trkpt lat="43.657891608614264" lon="11.258128683127223"><ele>131.25</ele><time>2026-04-03T10:11:02.962Z</time></trkpt><trkpt lat="43.65802359351329" lon="11.258050071371104"><ele>131.5</ele><time>2026-04-03T10:11:03.962Z</time></trkpt><trkpt lat="43.658133270650474" lon="11.257976664242529"><ele>131.75</ele><time>2026-04-03T10:11:04.962Z</time></trkpt><trkpt lat="43.658228379302685" lon="11.257887689219872"><ele>132.0</ele><time>2026-04-03T10:11:05.962Z</time></trkpt><trkpt lat="43.65832519432582" lon="11.25776514083809"><ele>132.0</ele><time>2026-04-03T10:11:06.962Z</time></trkpt><trkpt lat="43.65841652831418" lon="11.257621674720921"><ele>132.0</ele><time>2026-04-03T10:11:07.962Z</time></trkpt><trkpt lat="43.65852809151" lon="11.257478348831457"><ele>132.0</ele><time>2026-04-03T10:11:08.962Z</time></trkpt><trkpt lat="43.65865013446066" lon="11.257363132964365"><ele>132.0</ele><time>2026-04-03T10:11:09.962Z</time></trkpt><trkpt lat="43.6587608444806" lon="11.25723380006193"><ele>132.2</ele><time>2026-04-03T10:11:10.962Z</time></trkpt><trkpt lat="43.65884758596207" lon="11.25710149581444"><ele>132.39999999999998</ele><time>2026-04-03T10:11:11.963Z</time></trkpt><trkpt lat="43.6589213786019" lon="11.256961903012671"><ele>132.60000000000002</ele><time>2026-04-03T10:11:12.963Z</time></trkpt><trkpt lat="43.65897406092009" lon="11.256855764463108"><ele>132.8</ele><time>2026-04-03T10:11:13.963Z</time></trkpt><trkpt lat="43.65900654932758" lon="11.256727246502948"><ele>133.0</ele><time>2026-04-03T10:11:14.963Z</time></trkpt><trkpt lat="43.6590555106633" lon="11.256579410128259"><ele>134.0</ele><time>2026-04-03T10:11:15.963Z</time></trkpt><trkpt lat="43.659119678363176" lon="11.256404188529396"><ele>135.0</ele><time>2026-04-03T10:11:16.963Z</time></trkpt><trkpt lat="43.659187119708605" lon="11.256208459853724"><ele>136.0</ele><time>2026-04-03T10:11:17.963Z</time></trkpt><trkpt lat="43.659142786928804" lon="11.255928890936449"><ele>136.0</ele><time>2026-04-03T10:11:18.963Z</time></trkpt><trkpt lat="43.659141972748756" lon="11.25567386939787"><ele>136.0</ele><time>2026-04-03T10:11:19.963Z</time></trkpt><trkpt lat="43.65911391113632" lon="11.255396821859183"><ele>136.0</ele><time>2026-04-03T10:11:20.963Z</time></trkpt><trkpt lat="43.65908064039136" lon="11.255136624313486"><ele>135.66666666666669</ele><time>2026-04-03T10:11:21.963Z</time></trkpt><trkpt lat="43.65905667548271" lon="11.25485664062465"><ele>135.33333333333334</ele><time>2026-04-03T10:11:22.963Z</time></trkpt><trkpt lat="43.659035575672966" lon="11.254586466282971"><ele>135.0</ele><time>2026-04-03T10:11:23.963Z</time></trkpt><trkpt lat="43.65901481653005" lon="11.254323115242052"><ele>134.0</ele><time>2026-04-03T10:11:24.963Z</time></trkpt><trkpt lat="43.658990069659076" lon="11.254055142757169"><ele>133.0</ele><time>2026-04-03T10:11:25.963Z</time></trkpt><trkpt lat="43.65896868252361" lon="11.25379765832285"><ele>132.0</ele><time>2026-04-03T10:11:26.963Z</time></trkpt><trkpt lat="43.65895158898037" lon="11.25354229292549"><ele>132.0</ele><time>2026-04-03T10:11:27.963Z</time></trkpt><trkpt lat="43.65893472344431" lon="11.253302595885751"><ele>132.0</ele><time>2026-04-03T10:11:28.963Z</time></trkpt><trkpt lat="43.65891888908058" lon="11.253071050610968"><ele>132.0</ele><time>2026-04-03T10:11:29.963Z</time></trkpt><trkpt lat="43.65889702506019" lon="11.252837566665082"><ele>132.33333333333334</ele><time>2026-04-03T10:11:30.963Z</time></trkpt><trkpt lat="43.65887375362424" lon="11.252598781741893"><ele>132.66666666666669</ele><time>2026-04-03T10:11:31.963Z</time></trkpt><trkpt lat="43.658857172207206" lon="11.252382059891408"><ele>133.0</ele><time>2026-04-03T10:11:32.963Z</time></trkpt><trkpt lat="43.658846055200335" lon="11.25216690044748"><ele>133.0</ele><time>2026-04-03T10:11:33.963Z</time></trkpt><trkpt lat="43.658834868961485" lon="11.251965192621789"><ele>133.0</ele><time>2026-04-03T10:11:34.963Z</time></trkpt><trkpt lat="43.658821596604774" lon="11.251778290496759"><ele>133.0</ele><time>2026-04-03T10:11:35.963Z</time></trkpt><trkpt lat="43.6588135148256" lon="11.251593288053035"><ele>133.0</ele><time>2026-04-03T10:11:36.963Z</time></trkpt><trkpt lat="43.65879491431402" lon="11.251422185055663"><ele>132.75</ele><time>2026-04-03T10:11:37.963Z</time></trkpt><trkpt lat="43.658785379912146" lon="11.251259422849369"><ele>132.5</ele><time>2026-04-03T10:11:38.963Z</time></trkpt><trkpt lat="43.65877416425602" lon="11.251083426004922"><ele>132.25</ele><time>2026-04-03T10:11:39.963Z</time></trkpt><trkpt lat="43.65876434461283" lon="11.2508853043038"><ele>132.0</ele><time>2026-04-03T10:11:40.963Z</time></trkpt><trkpt lat="43.65874274250367" lon="11.250652855342418"><ele>131.66666666666666</ele><time>2026-04-03T10:11:41.963Z</time></trkpt><trkpt lat="43.65872180617905" lon="11.250397194971322"><ele>131.33333333333331</ele><time>2026-04-03T10:11:42.963Z</time></trkpt><trkpt lat="43.658700954092176" lon="11.250116639622572"><ele>131.0</ele><time>2026-04-03T10:11:43.963Z</time></trkpt><trkpt lat="43.65869760707923" lon="11.249822098267346"><ele>131.0</ele><time>2026-04-03T10:11:44.963Z</time></trkpt><trkpt lat="43.658706719719945" lon="11.24951015065995"><ele>131.0</ele><time>2026-04-03T10:11:45.963Z</time></trkpt><trkpt lat="43.65871985433394" lon="11.249179668916991"><ele>132.5</ele><time>2026-04-03T10:11:46.963Z</time></trkpt><trkpt lat="43.65873810460114" lon="11.248836139980867"><ele>134.0</ele><time>2026-04-03T10:11:47.963Z</time></trkpt><trkpt lat="43.65875457019748" lon="11.248491704638656"><ele>134.0</ele><time>2026-04-03T10:11:48.963Z</time></trkpt><trkpt lat="43.65877793641654" lon="11.248151485802147"><ele>134.0</ele><time>2026-04-03T10:11:49.963Z</time></trkpt><trkpt lat="43.65879987091826" lon="11.247806586418545"><ele>132.5</ele><time>2026-04-03T10:11:50.963Z</time></trkpt><trkpt lat="43.658819238184286" lon="11.247449421438331"><ele>131.0</ele><time>2026-04-03T10:11:51.963Z</time></trkpt><trkpt lat="43.658835488425225" lon="11.247079209051167"><ele>131.0</ele><time>2026-04-03T10:11:52.963Z</time></trkpt><trkpt lat="43.658851312942794" lon="11.246681417131141"><ele>131.0</ele><time>2026-04-03T10:11:53.963Z</time></trkpt><trkpt lat="43.65887630470498" lon="11.246284945274438"><ele>131.5</ele><time>2026-04-03T10:11:54.963Z</time></trkpt><trkpt lat="43.65890346828959" lon="11.245915107442594"><ele>132.0</ele><time>2026-04-03T10:11:55.963Z</time></trkpt><trkpt lat="43.658918392301956" lon="11.245570620200171"><ele>132.33333333333334</ele><time>2026-04-03T10:11:56.963Z</time></trkpt><trkpt lat="43.658924922079095" lon="11.245258412365017"><ele>132.66666666666669</ele><time>2026-04-03T10:11:57.963Z</time></trkpt><trkpt lat="43.658916885755126" lon="11.244956726859899"><ele>133.0</ele><time>2026-04-03T10:11:58.963Z</time></trkpt><trkpt lat="43.65887081176533" lon="11.244657645226011"><ele>133.0</ele><time>2026-04-03T10:11:59.963Z</time></trkpt><trkpt lat="43.65877630305443" lon="11.244348753513545"><ele>133.0</ele><time>2026-04-03T10:12:00.963Z</time></trkpt><trkpt lat="43.65865616079305" lon="11.244043980334517"><ele>130.66666666666669</ele><time>2026-04-03T10:12:01.963Z</time></trkpt><trkpt lat="43.65854384649354" lon="11.243784410568207"><ele>128.33333333333334</ele><time>2026-04-03T10:12:02.963Z</time></trkpt><trkpt lat="43.658453700599594" lon="11.24355082498718"><ele>126.0</ele><time>2026-04-03T10:12:03.963Z</time></trkpt><trkpt lat="43.658384313542705" lon="11.243338644874889"><ele>126.0</ele><time>2026-04-03T10:12:04.963Z</time></trkpt><trkpt lat="43.65832488753041" lon="11.243136324961545"><ele>126.0</ele><time>2026-04-03T10:12:05.963Z</time></trkpt><trkpt lat="43.65827098322319" lon="11.242930864648686"><ele>126.0</ele><time>2026-04-03T10:12:06.963Z</time></trkpt><trkpt lat="43.658235268665635" lon="11.242747572535347"><ele>126.25</ele><time>2026-04-03T10:12:07.963Z</time></trkpt><trkpt lat="43.658213696577306" lon="11.242555319822188"><ele>126.5</ele><time>2026-04-03T10:12:08.963Z</time></trkpt><trkpt lat="43.658219113402104" lon="11.242362918566988"><ele>126.75</ele><time>2026-04-03T10:12:09.963Z</time></trkpt><trkpt lat="43.65823821869586" lon="11.24216985290731"><ele>127.0</ele><time>2026-04-03T10:12:10.963Z</time></trkpt><trkpt lat="43.658277647747106" lon="11.241986249013307"><ele>126.5</ele><time>2026-04-03T10:12:11.963Z</time></trkpt><trkpt lat="43.65834149184391" lon="11.241820144068479"><ele>126.0</ele><time>2026-04-03T10:12:12.963Z</time></trkpt><trkpt lat="43.65841486103611" lon="11.241671295737516"><ele>125.5</ele><time>2026-04-03T10:12:13.963Z</time></trkpt><trkpt lat="43.658513157979776" lon="11.241524670266665"><ele>125.0</ele><time>2026-04-03T10:12:14.963Z</time></trkpt><trkpt lat="43.658635981843176" lon="11.241395693129478"><ele>124.25</ele><time>2026-04-03T10:12:15.963Z</time></trkpt><trkpt lat="43.658765321006186" lon="11.241275737860265"><ele>123.5</ele><time>2026-04-03T10:12:16.963Z</time></trkpt><trkpt lat="43.65889627420836" lon="11.241184199313611"><ele>122.75</ele><time>2026-04-03T10:12:17.963Z</time></trkpt><trkpt lat="43.65901911503502" lon="11.241115095677898"><ele>122.0</ele><time>2026-04-03T10:12:18.963Z</time></trkpt><trkpt lat="43.65915300884026" lon="11.24106957956941"><ele>122.0</ele><time>2026-04-03T10:12:19.963Z</time></trkpt><trkpt lat="43.65929329910336" lon="11.241017470945701"><ele>122.0</ele><time>2026-04-03T10:12:20.963Z</time></trkpt><trkpt lat="43.65944106820659" lon="11.240965674786283"><ele>122.0</ele><time>2026-04-03T10:12:21.963Z</time></trkpt><trkpt lat="43.659587704548734" lon="11.240917823657751"><ele>122.0</ele><time>2026-04-03T10:12:22.963Z</time></trkpt><trkpt lat="43.65973605526265" lon="11.240878566026572"><ele>123.0</ele><time>2026-04-03T10:12:23.963Z</time></trkpt><trkpt lat="43.6598921731863" lon="11.240846144002345"><ele>124.0</ele><time>2026-04-03T10:12:24.963Z</time></trkpt><trkpt lat="43.660041848087445" lon="11.24079680760369"><ele>125.0</ele><time>2026-04-03T10:12:25.963Z</time></trkpt><trkpt lat="43.66020258413385" lon="11.240747268471003"><ele>124.33333333333333</ele><time>2026-04-03T10:12:26.963Z</time></trkpt><trkpt lat="43.660381413631775" lon="11.240685031133147"><ele>123.66666666666666</ele><time>2026-04-03T10:12:27.963Z</time></trkpt><trkpt lat="43.660579967955215" lon="11.240646767883192"><ele>123.0</ele><time>2026-04-03T10:12:28.963Z</time></trkpt><trkpt lat="43.660796163398714" lon="11.24060129588879"><ele>123.0</ele><time>2026-04-03T10:12:29.963Z</time></trkpt><trkpt lat="43.6610412796751" lon="11.24053832490083"><ele>123.0</ele><time>2026-04-03T10:12:30.963Z</time></trkpt><trkpt lat="43.66131202488413" lon="11.240456678935365"><ele>122.5</ele><time>2026-04-03T10:12:31.963Z</time></trkpt><trkpt lat="43.661590674901674" lon="11.24038209634683"><ele>122.0</ele><time>2026-04-03T10:12:32.963Z</time></trkpt><trkpt lat="43.66185586444041" lon="11.240310291419235"><ele>124.0</ele><time>2026-04-03T10:12:33.963Z</time></trkpt><trkpt lat="43.66212467343637" lon="11.240252310016736"><ele>126.0</ele><time>2026-04-03T10:12:34.963Z</time></trkpt><trkpt lat="43.66238490211948" lon="11.240200338254184"><ele>126.0</ele><time>2026-04-03T10:12:35.963Z</time></trkpt><trkpt lat="43.66264752275409" lon="11.240180067518873"><ele>126.0</ele><time>2026-04-03T10:12:36.963Z</time></trkpt><trkpt lat="43.66290007505767" lon="11.240171710887067"><ele>125.0</ele><time>2026-04-03T10:12:37.963Z</time></trkpt><trkpt lat="43.66315436980085" lon="11.240183730222512"><ele>124.0</ele><time>2026-04-03T10:12:38.963Z</time></trkpt><trkpt lat="43.66338543322489" lon="11.240262845705885"><ele>124.0</ele><time>2026-04-03T10:12:39.963Z</time></trkpt><trkpt lat="43.66359748427929" lon="11.240366877009228"><ele>124.0</ele><time>2026-04-03T10:12:40.963Z</time></trkpt><trkpt lat="43.66377620650596" lon="11.240488588379723"><ele>124.0</ele><time>2026-04-03T10:12:41.961Z</time></trkpt><trkpt lat="43.66392842442328" lon="11.24058372369029"><ele>124.66666666666667</ele><time>2026-04-03T10:12:42.961Z</time></trkpt><trkpt lat="43.664077107491316" lon="11.240641512735216"><ele>125.33333333333334</ele><time>2026-04-03T10:12:43.961Z</time></trkpt><trkpt lat="43.6642340445761" lon="11.24065084168061"><ele>126.0</ele><time>2026-04-03T10:12:44.961Z</time></trkpt><trkpt lat="43.66438582311153" lon="11.24058967153908"><ele>127.33333333333334</ele><time>2026-04-03T10:12:45.961Z</time></trkpt><trkpt lat="43.66453046817991" lon="11.240460002845463"><ele>128.66666666666669</ele><time>2026-04-03T10:12:46.961Z</time></trkpt><trkpt lat="43.6646631052122" lon="11.24027062893062"><ele>130.0</ele><time>2026-04-03T10:12:47.961Z</time></trkpt><trkpt lat="43.664755206901496" lon="11.240013165932446"><ele>128.33333333333334</ele><time>2026-04-03T10:12:48.961Z</time></trkpt><trkpt lat="43.664822692893964" lon="11.239722564276903"><ele>126.66666666666666</ele><time>2026-04-03T10:12:49.961Z</time></trkpt><trkpt lat="43.664881452953786" lon="11.239426308547724"><ele>125.0</ele><time>2026-04-03T10:12:50.961Z</time></trkpt><trkpt lat="43.6649519969994" lon="11.239153553676978"><ele>123.66666666666666</ele><time>2026-04-03T10:12:51.961Z</time></trkpt><trkpt lat="43.66502865166418" lon="11.238873380690505"><ele>122.33333333333334</ele><time>2026-04-03T10:12:52.961Z</time></trkpt><trkpt lat="43.66511084072392" lon="11.238591069087416"><ele>121.0</ele><time>2026-04-03T10:12:53.96Z</time></trkpt><trkpt lat="43.665188930107625" lon="11.238290763437352"><ele>120.5</ele><time>2026-04-03T10:12:54.961Z</time></trkpt><trkpt lat="43.66526971317697" lon="11.237972423221809"><ele>120.0</ele><time>2026-04-03T10:12:55.961Z</time></trkpt><trkpt lat="43.66535280553011" lon="11.23764824652139"><ele>126.5</ele><time>2026-04-03T10:12:56.961Z</time></trkpt><trkpt lat="43.66543734204722" lon="11.237317225135879"><ele>133.0</ele><time>2026-04-03T10:12:57.961Z</time></trkpt><trkpt lat="43.66552086416915" lon="11.236978123190209"><ele>133.0</ele><time>2026-04-03T10:12:58.961Z</time></trkpt><trkpt lat="43.665607640670046" lon="11.23662653599792"><ele>133.0</ele><time>2026-04-03T10:12:59.961Z</time></trkpt><trkpt lat="43.665700083943065" lon="11.236260538016062"><ele>131.0</ele><time>2026-04-03T10:13:00.961Z</time></trkpt><trkpt lat="43.66579776139527" lon="11.235886644549353"><ele>129.0</ele><time>2026-04-03T10:13:01.961Z</time></trkpt><trkpt lat="43.6658980849116" lon="11.235507114538708"><ele>125.5</ele><time>2026-04-03T10:13:02.961Z</time></trkpt><trkpt lat="43.66599858587219" lon="11.235119223521428"><ele>122.0</ele><time>2026-04-03T10:13:03.961Z</time></trkpt><trkpt lat="43.66610428156474" lon="11.234737076281784"><ele>128.5</ele><time>2026-04-03T10:13:04.961Z</time></trkpt><trkpt lat="43.66620178531661" lon="11.234382114209595"><ele>135.0</ele><time>2026-04-03T10:13:05.961Z</time></trkpt><trkpt lat="43.66629586568197" lon="11.234049928136216"><ele>131.5</ele><time>2026-04-03T10:13:06.961Z</time></trkpt><trkpt lat="43.66638359174367" lon="11.233733515784238"><ele>128.0</ele><time>2026-04-03T10:13:07.961Z</time></trkpt><trkpt lat="43.666476067680165" lon="11.233425786482124"><ele>125.0</ele><time>2026-04-03T10:13:08.961Z</time></trkpt><trkpt lat="43.66648752946743" lon="11.233090995906899"><ele>122.0</ele><time>2026-04-03T10:13:09.961Z</time></trkpt><trkpt lat="43.66648237071814" lon="11.23272677594982"><ele>122.0</ele><time>2026-04-03T10:13:10.961Z</time></trkpt><trkpt lat="43.66647985690187" lon="11.232335197025801"><ele>122.0</ele><time>2026-04-03T10:13:11.961Z</time></trkpt><trkpt lat="43.66646914514073" lon="11.231915052668782"><ele>124.0</ele><time>2026-04-03T10:13:12.961Z</time></trkpt><trkpt lat="43.66645885574479" lon="11.231501024574767"><ele>126.0</ele><time>2026-04-03T10:13:13.961Z</time></trkpt><trkpt lat="43.66644813152131" lon="11.2311014759042"><ele>128.0</ele><time>2026-04-03T10:13:14.961Z</time></trkpt><trkpt lat="43.66643902714788" lon="11.230705386366848"><ele>130.0</ele><time>2026-04-03T10:13:15.961Z</time></trkpt><trkpt lat="43.66642845063057" lon="11.230327354578943"><ele>130.0</ele><time>2026-04-03T10:13:16.961Z</time></trkpt><trkpt lat="43.666406783427334" lon="11.229942634302201"><ele>130.0</ele><time>2026-04-03T10:13:17.961Z</time></trkpt><trkpt lat="43.66640615036816" lon="11.229567494958568"><ele>128.0</ele><time>2026-04-03T10:13:18.961Z</time></trkpt><trkpt lat="43.666402572611425" lon="11.229218954809607"><ele>126.0</ele><time>2026-04-03T10:13:19.961Z</time></trkpt><trkpt lat="43.66640224267944" lon="11.22888572733478"><ele>125.0</ele><time>2026-04-03T10:13:20.961Z</time></trkpt><trkpt lat="43.66642305166671" lon="11.228559261310867"><ele>124.0</ele><time>2026-04-03T10:13:21.961Z</time></trkpt><trkpt lat="43.66646710613785" lon="11.228247754423613"><ele>123.5</ele><time>2026-04-03T10:13:22.961Z</time></trkpt><trkpt lat="43.66653589031049" lon="11.227931528031917"><ele>123.0</ele><time>2026-04-03T10:13:23.961Z</time></trkpt><trkpt lat="43.66661941269839" lon="11.22761091898684"><ele>123.0</ele><time>2026-04-03T10:13:24.961Z</time></trkpt><trkpt lat="43.66670892011879" lon="11.227312670011472"><ele>123.0</ele><time>2026-04-03T10:13:25.961Z</time></trkpt><trkpt lat="43.666789553554736" lon="11.227032269148594"><ele>121.66666666666666</ele><time>2026-04-03T10:13:26.961Z</time></trkpt><trkpt lat="43.6668566574486" lon="11.226787739231227"><ele>120.33333333333333</ele><time>2026-04-03T10:13:27.961Z</time></trkpt><trkpt lat="43.666884790114565" lon="11.22654890550808"><ele>119.0</ele><time>2026-04-03T10:13:28.961Z</time></trkpt><trkpt lat="43.66687732331726" lon="11.226296075268438"><ele>119.0</ele><time>2026-04-03T10:13:29.961Z</time></trkpt><trkpt lat="43.66683101053836" lon="11.226048532640933"><ele>119.0</ele><time>2026-04-03T10:13:30.961Z</time></trkpt><trkpt lat="43.666776688518695" lon="11.225783142093121"><ele>119.0</ele><time>2026-04-03T10:13:31.961Z</time></trkpt><trkpt lat="43.666754156563606" lon="11.225437506657899"><ele>119.0</ele><time>2026-04-03T10:13:32.961Z</time></trkpt><trkpt lat="43.666715770820645" lon="11.225062810771789"><ele>119.0</ele><time>2026-04-03T10:13:33.961Z</time></trkpt><trkpt lat="43.66667964665989" lon="11.224701026532635"><ele>119.0</ele><time>2026-04-03T10:13:34.961Z</time></trkpt><trkpt lat="43.66664447907875" lon="11.224333589205644"><ele>119.0</ele><time>2026-04-03T10:13:35.961Z</time></trkpt><trkpt lat="43.666611134842775" lon="11.223980128337114"><ele>119.0</ele><time>2026-04-03T10:13:36.961Z</time></trkpt><trkpt lat="43.666576088272166" lon="11.223622537530238"><ele>119.0</ele><time>2026-04-03T10:13:37.961Z</time></trkpt><trkpt lat="43.66654235286701" lon="11.223276614141614"><ele>118.5</ele><time>2026-04-03T10:13:38.961Z</time></trkpt><trkpt lat="43.66650783048505" lon="11.22292272451603"><ele>118.0</ele><time>2026-04-03T10:13:39.961Z</time></trkpt><trkpt lat="43.66647497901348" lon="11.2225963425683"><ele>118.0</ele><time>2026-04-03T10:13:40.961Z</time></trkpt><trkpt lat="43.6664424148335" lon="11.222280395407958"><ele>118.0</ele><time>2026-04-03T10:13:41.961Z</time></trkpt><trkpt lat="43.666417405368385" lon="11.22197632891276"><ele>118.0</ele><time>2026-04-03T10:13:42.961Z</time></trkpt><trkpt lat="43.66640525621802" lon="11.221693473376366"><ele>118.0</ele><time>2026-04-03T10:13:43.961Z</time></trkpt><trkpt lat="43.66642789920584" lon="11.221408647302525"><ele>118.0</ele><time>2026-04-03T10:13:44.961Z</time></trkpt><trkpt lat="43.6664833052415" lon="11.221150763210598"><ele>118.33333333333334</ele><time>2026-04-03T10:13:45.961Z</time></trkpt><trkpt lat="43.66655061298566" lon="11.22087286413124"><ele>118.66666666666666</ele><time>2026-04-03T10:13:46.961Z</time></trkpt><trkpt lat="43.66662134582104" lon="11.220580823600553"><ele>119.0</ele><time>2026-04-03T10:13:47.961Z</time></trkpt><trkpt lat="43.666674474389374" lon="11.220299640319041"><ele>118.0</ele><time>2026-04-03T10:13:48.961Z</time></trkpt><trkpt lat="43.66672301805651" lon="11.21999614648553"><ele>117.0</ele><time>2026-04-03T10:13:49.961Z</time></trkpt><trkpt lat="43.66674292894753" lon="11.219672894580166"><ele>116.5</ele><time>2026-04-03T10:13:50.961Z</time></trkpt><trkpt lat="43.66676439313009" lon="11.219329303046527"><ele>116.0</ele><time>2026-04-03T10:13:51.961Z</time></trkpt><trkpt lat="43.66676112890023" lon="11.218984837524083"><ele>116.0</ele><time>2026-04-03T10:13:52.961Z</time></trkpt><trkpt lat="43.666766648488675" lon="11.218666303003973"><ele>116.0</ele><time>2026-04-03T10:13:53.961Z</time></trkpt><trkpt lat="43.66678134923659" lon="11.218369447329732"><ele>116.0</ele><time>2026-04-03T10:13:54.961Z</time></trkpt><trkpt lat="43.66679767912046" lon="11.218111947870364"><ele>114.66666666666666</ele><time>2026-04-03T10:13:55.961Z</time></trkpt><trkpt lat="43.66681503950782" lon="11.217881672477143"><ele>113.33333333333334</ele><time>2026-04-03T10:13:56.961Z</time></trkpt><trkpt lat="43.666836546247644" lon="11.217670523575666"><ele>112.0</ele><time>2026-04-03T10:13:57.961Z</time></trkpt><trkpt lat="43.666854519839816" lon="11.21745762982126"><ele>112.33333333333334</ele><time>2026-04-03T10:13:58.961Z</time></trkpt><trkpt lat="43.666875814678015" lon="11.217233996648494"><ele>112.66666666666666</ele><time>2026-04-03T10:13:59.961Z</time></trkpt><trkpt lat="43.666909069839484" lon="11.21699095530737"><ele>113.0</ele><time>2026-04-03T10:14:00.961Z</time></trkpt><trkpt lat="43.66697646003925" lon="11.21677377095299"><ele>113.66666666666666</ele><time>2026-04-03T10:14:01.961Z</time></trkpt><trkpt lat="43.667073805536454" lon="11.216549249721355"><ele>114.33333333333334</ele><time>2026-04-03T10:14:02.961Z</time></trkpt><trkpt lat="43.66718628412671" lon="11.216327727725105"><ele>115.0</ele><time>2026-04-03T10:14:03.961Z</time></trkpt><trkpt lat="43.667305263185156" lon="11.216112528293792"><ele>115.0</ele><time>2026-04-03T10:14:04.961Z</time></trkpt><trkpt lat="43.667427730393435" lon="11.215904758289104"><ele>115.0</ele><time>2026-04-03T10:14:05.961Z</time></trkpt><trkpt lat="43.66754965880435" lon="11.215702642721366"><ele>115.0</ele><time>2026-04-03T10:14:06.961Z</time></trkpt><trkpt lat="43.66764999619065" lon="11.215505951619729"><ele>114.33333333333334</ele><time>2026-04-03T10:14:07.961Z</time></trkpt><trkpt lat="43.667755125208366" lon="11.215328364103955"><ele>113.66666666666666</ele><time>2026-04-03T10:14:08.961Z</time></trkpt><trkpt lat="43.66785489046137" lon="11.21517276587342"><ele>113.0</ele><time>2026-04-03T10:14:09.961Z</time></trkpt><trkpt lat="43.66796741118341" lon="11.215031395705143"><ele>113.0</ele><time>2026-04-03T10:14:10.961Z</time></trkpt><trkpt lat="43.6680942100502" lon="11.214933021639595"><ele>113.0</ele><time>2026-04-03T10:14:11.961Z</time></trkpt><trkpt lat="43.668225192721295" lon="11.214858992793392"><ele>113.0</ele><time>2026-04-03T10:14:12.961Z</time></trkpt><trkpt lat="43.6683683338567" lon="11.214820734501842"><ele>113.0</ele><time>2026-04-03T10:14:13.961Z</time></trkpt><trkpt lat="43.66851756372214" lon="11.21478688767752"><ele>113.0</ele><time>2026-04-03T10:14:14.961Z</time></trkpt><trkpt lat="43.66868080421786" lon="11.21475027177901"><ele>113.0</ele><time>2026-04-03T10:14:15.961Z</time></trkpt><trkpt lat="43.668862510127205" lon="11.214710780251327"><ele>113.0</ele><time>2026-04-03T10:14:16.961Z</time></trkpt><trkpt lat="43.66905630556666" lon="11.21467878842098"><ele>113.0</ele><time>2026-04-03T10:14:17.961Z</time></trkpt><trkpt lat="43.66926513209764" lon="11.214640670971306"><ele>113.0</ele><time>2026-04-03T10:14:18.961Z</time></trkpt><trkpt lat="43.66949099016384" lon="11.214583366248538"><ele>113.0</ele><time>2026-04-03T10:14:19.961Z</time></trkpt><trkpt lat="43.66971428213392" lon="11.214525057679543"><ele>111.0</ele><time>2026-04-03T10:14:20.961Z</time></trkpt><trkpt lat="43.669946084988084" lon="11.214458834471985"><ele>109.0</ele><time>2026-04-03T10:14:21.961Z</time></trkpt><trkpt lat="43.670189686310025" lon="11.214395227259123"><ele>109.5</ele><time>2026-04-03T10:14:22.961Z</time></trkpt><trkpt lat="43.670419308677474" lon="11.214340439345092"><ele>110.0</ele><time>2026-04-03T10:14:23.961Z</time></trkpt><trkpt lat="43.67065329534989" lon="11.214289355380208"><ele>110.0</ele><time>2026-04-03T10:14:24.961Z</time></trkpt><trkpt lat="43.670904241743024" lon="11.214237217775368"><ele>110.0</ele><time>2026-04-03T10:14:25.961Z</time></trkpt><trkpt lat="43.671143493025276" lon="11.2141968145871"><ele>112.0</ele><time>2026-04-03T10:14:26.961Z</time></trkpt><trkpt lat="43.67138354660214" lon="11.214139351168072"><ele>114.0</ele><time>2026-04-03T10:14:27.961Z</time></trkpt><trkpt lat="43.67161302342827" lon="11.214096708836678"><ele>114.0</ele><time>2026-04-03T10:14:28.961Z</time></trkpt><trkpt lat="43.67183567570295" lon="11.214032114718005"><ele>114.0</ele><time>2026-04-03T10:14:29.961Z</time></trkpt><trkpt lat="43.67202820259626" lon="11.213976958427915"><ele>114.0</ele><time>2026-04-03T10:14:30.961Z</time></trkpt><trkpt lat="43.672218253837755" lon="11.213966321151434"><ele>112.33333333333334</ele><time>2026-04-03T10:14:31.961Z</time></trkpt><trkpt lat="43.672406423783976" lon="11.214003606114945"><ele>110.66666666666667</ele><time>2026-04-03T10:14:32.961Z</time></trkpt><trkpt lat="43.67257993616247" lon="11.214069882212426"><ele>109.0</ele><time>2026-04-03T10:14:33.961Z</time></trkpt><trkpt lat="43.67277052069695" lon="11.214197485815701"><ele>107.66666666666667</ele><time>2026-04-03T10:14:34.961Z</time></trkpt><trkpt lat="43.67295759729312" lon="11.214352122127144"><ele>106.33333333333334</ele><time>2026-04-03T10:14:35.961Z</time></trkpt><trkpt lat="43.673108911424364" lon="11.214505081821269"><ele>105.0</ele><time>2026-04-03T10:14:36.961Z</time></trkpt><trkpt lat="43.673211006630765" lon="11.214711326484375"><ele>105.66666666666666</ele><time>2026-04-03T10:14:37.961Z</time></trkpt><trkpt lat="43.673309867264706" lon="11.214952284238285"><ele>106.33333333333333</ele><time>2026-04-03T10:14:38.961Z</time></trkpt><trkpt lat="43.673426371713575" lon="11.215197202044344"><ele>107.0</ele><time>2026-04-03T10:14:39.961Z</time></trkpt><trkpt lat="43.67358447897346" lon="11.215433472776716"><ele>106.33333333333333</ele><time>2026-04-03T10:14:40.961Z</time></trkpt><trkpt lat="43.673761457703385" lon="11.215624379136925"><ele>105.66666666666666</ele><time>2026-04-03T10:14:41.961Z</time></trkpt><trkpt lat="43.67394832934407" lon="11.215771638443917"><ele>105.0</ele><time>2026-04-03T10:14:42.961Z</time></trkpt><trkpt lat="43.6741307464407" lon="11.215889349906815"><ele>105.0</ele><time>2026-04-03T10:14:43.961Z</time></trkpt><trkpt lat="43.67432959227091" lon="11.215971739262663"><ele>105.0</ele><time>2026-04-03T10:14:44.961Z</time></trkpt><trkpt lat="43.674523177633546" lon="11.21601106312663"><ele>105.0</ele><time>2026-04-03T10:14:45.961Z</time></trkpt><trkpt lat="43.6747003860919" lon="11.216022094346657"><ele>106.33333333333334</ele><time>2026-04-03T10:14:46.961Z</time></trkpt><trkpt lat="43.67484539976722" lon="11.215977032806755"><ele>107.66666666666667</ele><time>2026-04-03T10:14:47.959Z</time></trkpt><trkpt lat="43.67499800103056" lon="11.215892612289206"><ele>109.0</ele><time>2026-04-03T10:14:48.959Z</time></trkpt><trkpt lat="43.67515727258165" lon="11.215802295281604"><ele>108.33333333333334</ele><time>2026-04-03T10:14:49.959Z</time></trkpt><trkpt lat="43.675311575626225" lon="11.215696782124423"><ele>107.66666666666666</ele><time>2026-04-03T10:14:50.959Z</time></trkpt><trkpt lat="43.67544904730764" lon="11.215565717557887"><ele>107.0</ele><time>2026-04-03T10:14:51.959Z</time></trkpt><trkpt lat="43.67557915106972" lon="11.21543660071301"><ele>107.0</ele><time>2026-04-03T10:14:52.959Z</time></trkpt><trkpt lat="43.67568631759426" lon="11.215310590323144"><ele>107.0</ele><time>2026-04-03T10:14:53.96Z</time></trkpt><trkpt lat="43.67577856461589" lon="11.215195021984002"><ele>107.0</ele><time>2026-04-03T10:14:54.959Z</time></trkpt><trkpt lat="43.67586558347021" lon="11.215079918129243"><ele>107.0</ele><time>2026-04-03T10:14:55.959Z</time></trkpt><trkpt lat="43.67594043503948" lon="11.214945609415947"><ele>106.25</ele><time>2026-04-03T10:14:56.959Z</time></trkpt><trkpt lat="43.676010123357514" lon="11.214795989617095"><ele>105.5</ele><time>2026-04-03T10:14:57.959Z</time></trkpt><trkpt lat="43.676059878494726" lon="11.214628816431567"><ele>104.75</ele><time>2026-04-03T10:14:58.959Z</time></trkpt><trkpt lat="43.676104368075286" lon="11.214458318810067"><ele>104.0</ele><time>2026-04-03T10:14:59.959Z</time></trkpt><trkpt lat="43.67614619730709" lon="11.214284966892425"><ele>105.6</ele><time>2026-04-03T10:15:00.959Z</time></trkpt><trkpt lat="43.676180143360355" lon="11.21412213859556"><ele>107.2</ele><time>2026-04-03T10:15:01.959Z</time></trkpt><trkpt lat="43.67620287803164" lon="11.213973005548878"><ele>108.79999999999998</ele><time>2026-04-03T10:15:02.959Z</time></trkpt><trkpt lat="43.67621163576054" lon="11.21383714861045"><ele>110.39999999999999</ele><time>2026-04-03T10:15:03.959Z</time></trkpt><trkpt lat="43.67621829185365" lon="11.213711645610886"><ele>112.0</ele><time>2026-04-03T10:15:04.959Z</time></trkpt><trkpt lat="43.67622166975284" lon="11.21361018705054"><ele>112.0</ele><time>2026-04-03T10:15:05.959Z</time></trkpt><trkpt lat="43.6762253875105" lon="11.213518740791253"><ele>111.99999999999999</ele><time>2026-04-03T10:15:06.959Z</time></trkpt><trkpt lat="43.67622985751448" lon="11.213418189403209"><ele>111.99999999999999</ele><time>2026-04-03T10:15:07.959Z</time></trkpt><trkpt lat="43.6762271114568" lon="11.21327876912096"><ele>112.0</ele><time>2026-04-03T10:15:08.959Z</time></trkpt><trkpt lat="43.67620360193102" lon="11.213134067150493"><ele>112.0</ele><time>2026-04-03T10:15:09.959Z</time></trkpt><trkpt lat="43.67622305369739" lon="11.212980342811786"><ele>111.8</ele><time>2026-04-03T10:15:10.959Z</time></trkpt><trkpt lat="43.67622204438655" lon="11.21282299260377"><ele>111.6</ele><time>2026-04-03T10:15:11.959Z</time></trkpt><trkpt lat="43.676231856916246" lon="11.212676327406184"><ele>111.39999999999999</ele><time>2026-04-03T10:15:12.959Z</time></trkpt><trkpt lat="43.676233823388465" lon="11.21255367121568"><ele>111.19999999999999</ele><time>2026-04-03T10:15:13.959Z</time></trkpt><trkpt lat="43.676234390136095" lon="11.212437090518998"><ele>111.0</ele><time>2026-04-03T10:15:14.959Z</time></trkpt><trkpt lat="43.676233210588705" lon="11.21234852969146"><ele>111.6</ele><time>2026-04-03T10:15:15.959Z</time></trkpt><trkpt lat="43.676235392368106" lon="11.212236240373239"><ele>112.19999999999999</ele><time>2026-04-03T10:15:17.959Z</time></trkpt><trkpt lat="43.67624477921622" lon="11.212133546659796"><ele>112.80000000000001</ele><time>2026-04-03T10:15:21.959Z</time></trkpt><trkpt lat="43.676230649472764" lon="11.211940558649886"><ele>113.4</ele><time>2026-04-03T10:15:23.959Z</time></trkpt><trkpt lat="43.67623631713165" lon="11.211792439744453"><ele>114.0</ele><time>2026-04-03T10:15:24.959Z</time></trkpt><trkpt lat="43.6762445041857" lon="11.211616795223517"><ele>114.33333333333334</ele><time>2026-04-03T10:15:25.959Z</time></trkpt><trkpt lat="43.67626163138452" lon="11.211416792302863"><ele>114.66666666666667</ele><time>2026-04-03T10:15:26.959Z</time></trkpt><trkpt lat="43.67628607974059" lon="11.211219862215797"><ele>115.0</ele><time>2026-04-03T10:15:27.959Z</time></trkpt><trkpt lat="43.67632017566811" lon="11.21100315849274"><ele>115.0</ele><time>2026-04-03T10:15:28.959Z</time></trkpt><trkpt lat="43.676373999258324" lon="11.210799158305779"><ele>115.0</ele><time>2026-04-03T10:15:29.959Z</time></trkpt><trkpt lat="43.67644821160832" lon="11.210607808165978"><ele>115.0</ele><time>2026-04-03T10:15:30.959Z</time></trkpt><trkpt lat="43.67653286116774" lon="11.210418811513785"><ele>111.33333333333334</ele><time>2026-04-03T10:15:31.959Z</time></trkpt><trkpt lat="43.676634624064306" lon="11.210239296281015"><ele>107.66666666666666</ele><time>2026-04-03T10:15:32.959Z</time></trkpt><trkpt lat="43.67675723300711" lon="11.210071077699137"><ele>104.0</ele><time>2026-04-03T10:15:33.959Z</time></trkpt><trkpt lat="43.67689891257239" lon="11.209920805390182"><ele>102.66666666666666</ele><time>2026-04-03T10:15:34.959Z</time></trkpt><trkpt lat="43.677057456226585" lon="11.2097853041883"><ele>101.33333333333334</ele><time>2026-04-03T10:15:35.959Z</time></trkpt><trkpt lat="43.67723454990861" lon="11.209669314117203"><ele>100.0</ele><time>2026-04-03T10:15:36.959Z</time></trkpt><trkpt lat="43.67741363677527" lon="11.209586955162631"><ele>100.0</ele><time>2026-04-03T10:15:37.959Z</time></trkpt><trkpt lat="43.67758997528147" lon="11.209516549184377"><ele>100.0</ele><time>2026-04-03T10:15:38.959Z</time></trkpt><trkpt lat="43.6777788554302" lon="11.209476738426954"><ele>100.0</ele><time>2026-04-03T10:15:39.959Z</time></trkpt><trkpt lat="43.67796891822975" lon="11.209467785721388"><ele>99.0</ele><time>2026-04-03T10:15:40.959Z</time></trkpt><trkpt lat="43.67816693124771" lon="11.20950073787857"><ele>98.0</ele><time>2026-04-03T10:15:41.959Z</time></trkpt><trkpt lat="43.67836216351783" lon="11.209584457514882"><ele>97.0</ele><time>2026-04-03T10:15:42.959Z</time></trkpt><trkpt lat="43.67855245586795" lon="11.20971901412228"><ele>97.0</ele><time>2026-04-03T10:15:43.959Z</time></trkpt><trkpt lat="43.678734043240745" lon="11.209900936984612"><ele>97.0</ele><time>2026-04-03T10:15:44.959Z</time></trkpt><trkpt lat="43.678914041947856" lon="11.210097088810207"><ele>97.0</ele><time>2026-04-03T10:15:45.959Z</time></trkpt><trkpt lat="43.679093327635385" lon="11.210305981358067"><ele>97.0</ele><time>2026-04-03T10:15:46.959Z</time></trkpt><trkpt lat="43.679254074825145" lon="11.210541818342207"><ele>96.5</ele><time>2026-04-03T10:15:47.959Z</time></trkpt><trkpt lat="43.679440019893015" lon="11.210760206789857"><ele>96.0</ele><time>2026-04-03T10:15:48.959Z</time></trkpt><trkpt lat="43.67963424644956" lon="11.210974718536967"><ele>96.0</ele><time>2026-04-03T10:15:49.959Z</time></trkpt><trkpt lat="43.67983018662599" lon="11.21118114162398"><ele>96.0</ele><time>2026-04-03T10:15:50.959Z</time></trkpt><trkpt lat="43.68002337322285" lon="11.211383122743175"><ele>96.0</ele><time>2026-04-03T10:15:51.959Z</time></trkpt><trkpt lat="43.68020992929227" lon="11.211581336802265"><ele>96.0</ele><time>2026-04-03T10:15:52.959Z</time></trkpt><trkpt lat="43.680394431743004" lon="11.211766905227735"><ele>96.0</ele><time>2026-04-03T10:15:53.959Z</time></trkpt><trkpt lat="43.68056597010371" lon="11.211956200509148"><ele>96.0</ele><time>2026-04-03T10:15:54.959Z</time></trkpt><trkpt lat="43.68073732231476" lon="11.212142868311021"><ele>96.0</ele><time>2026-04-03T10:15:55.959Z</time></trkpt><trkpt lat="43.680905364346714" lon="11.212320788722794"><ele>96.66666666666666</ele><time>2026-04-03T10:15:56.959Z</time></trkpt><trkpt lat="43.681078146493235" lon="11.212489904623988"><ele>97.33333333333333</ele><time>2026-04-03T10:15:57.959Z</time></trkpt><trkpt lat="43.68124332111867" lon="11.212634569666562"><ele>98.0</ele><time>2026-04-03T10:15:58.959Z</time></trkpt><trkpt lat="43.68140693256637" lon="11.212705823218695"><ele>98.0</ele><time>2026-04-03T10:15:59.959Z</time></trkpt><trkpt lat="43.681606139696726" lon="11.21275477030742"><ele>98.0</ele><time>2026-04-03T10:16:00.959Z</time></trkpt><trkpt lat="43.68181468717611" lon="11.212775599967793"><ele>98.0</ele><time>2026-04-03T10:16:01.959Z</time></trkpt><trkpt lat="43.68200710169367" lon="11.212810361540688"><ele>97.66666666666666</ele><time>2026-04-03T10:16:02.959Z</time></trkpt><trkpt lat="43.6821950718047" lon="11.212863115967192"><ele>97.33333333333334</ele><time>2026-04-03T10:16:03.959Z</time></trkpt><trkpt lat="43.6823819289906" lon="11.212907733671495"><ele>97.0</ele><time>2026-04-03T10:16:04.959Z</time></trkpt><trkpt lat="43.68255518638486" lon="11.21293067256038"><ele>97.0</ele><time>2026-04-03T10:16:05.959Z</time></trkpt><trkpt lat="43.6827239495256" lon="11.212921995926328"><ele>97.0</ele><time>2026-04-03T10:16:06.959Z</time></trkpt><trkpt lat="43.68287822244517" lon="11.212872366669755"><ele>97.0</ele><time>2026-04-03T10:16:07.959Z</time></trkpt><trkpt lat="43.68301674673801" lon="11.212776569505351"><ele>97.0</ele><time>2026-04-03T10:16:08.959Z</time></trkpt><trkpt lat="43.68313407025923" lon="11.21267605170608"><ele>97.0</ele><time>2026-04-03T10:16:09.959Z</time></trkpt><trkpt lat="43.68322735994737" lon="11.212597348248515"><ele>97.0</ele><time>2026-04-03T10:16:10.959Z</time></trkpt><trkpt lat="43.683313838053095" lon="11.212523732067787"><ele>97.0</ele><time>2026-04-03T10:16:11.959Z</time></trkpt><trkpt lat="43.68341001075649" lon="11.212463202825637"><ele>97.0</ele><time>2026-04-03T10:16:12.959Z</time></trkpt><trkpt lat="43.6835051082767" lon="11.21240991183642"><ele>97.0</ele><time>2026-04-03T10:16:13.959Z</time></trkpt><trkpt lat="43.683611287506984" lon="11.212353612554514"><ele>97.0</ele><time>2026-04-03T10:16:14.959Z</time></trkpt><trkpt lat="43.683734645135196" lon="11.212306779477109"><ele>97.0</ele><time>2026-04-03T10:16:15.959Z</time></trkpt><trkpt lat="43.68386288044124" lon="11.212260722521407"><ele>102.0</ele><time>2026-04-03T10:16:16.959Z</time></trkpt><trkpt lat="43.68399758592196" lon="11.21222464603366"><ele>107.0</ele><time>2026-04-03T10:16:17.959Z</time></trkpt><trkpt lat="43.68414658817779" lon="11.21216873208186"><ele>112.0</ele><time>2026-04-03T10:16:18.959Z</time></trkpt><trkpt lat="43.68431250249211" lon="11.212147091572488"><ele>112.0</ele><time>2026-04-03T10:16:19.959Z</time></trkpt><trkpt lat="43.68449673656111" lon="11.212101033045757"><ele>112.0</ele><time>2026-04-03T10:16:20.959Z</time></trkpt><trkpt lat="43.68468408707404" lon="11.212054195416385"><ele>112.0</ele><time>2026-04-03T10:16:21.959Z</time></trkpt><trkpt lat="43.68487750560982" lon="11.212005169782891"><ele>112.0</ele><time>2026-04-03T10:16:22.959Z</time></trkpt><trkpt lat="43.685082995011385" lon="11.211952763093116"><ele>112.0</ele><time>2026-04-03T10:16:23.959Z</time></trkpt><trkpt lat="43.685295155454504" lon="11.211898655063262"><ele>112.0</ele><time>2026-04-03T10:16:24.959Z</time></trkpt><trkpt lat="43.68550420349476" lon="11.2118453407892"><ele>110.33333333333334</ele><time>2026-04-03T10:16:25.959Z</time></trkpt><trkpt lat="43.68571987755003" lon="11.21179033844754"><ele>108.66666666666666</ele><time>2026-04-03T10:16:26.959Z</time></trkpt><trkpt lat="43.68594097674296" lon="11.211735237903337"><ele>107.0</ele><time>2026-04-03T10:16:27.959Z</time></trkpt><trkpt lat="43.686174184828054" lon="11.211693389580473"><ele>105.5</ele><time>2026-04-03T10:16:28.959Z</time></trkpt><trkpt lat="43.68640740773496" lon="11.211669565129878"><ele>104.0</ele><time>2026-04-03T10:16:29.959Z</time></trkpt><trkpt lat="43.686641338922364" lon="11.211652553049893"><ele>104.0</ele><time>2026-04-03T10:16:30.959Z</time></trkpt><trkpt lat="43.686878579344814" lon="11.211637995293179"><ele>104.0</ele><time>2026-04-03T10:16:31.959Z</time></trkpt><trkpt lat="43.687122664213554" lon="11.211621505240613"><ele>103.0</ele><time>2026-04-03T10:16:32.959Z</time></trkpt><trkpt lat="43.68736040125412" lon="11.211605557690367"><ele>102.0</ele><time>2026-04-03T10:16:33.959Z</time></trkpt><trkpt lat="43.68760715077372" lon="11.211589417758354"><ele>101.5</ele><time>2026-04-03T10:16:34.959Z</time></trkpt><trkpt lat="43.6878511465632" lon="11.211574813335135"><ele>101.0</ele><time>2026-04-03T10:16:35.959Z</time></trkpt><trkpt lat="43.688099004420295" lon="11.211563101034612"><ele>101.0</ele><time>2026-04-03T10:16:36.959Z</time></trkpt><trkpt lat="43.68833455548336" lon="11.211490780281336"><ele>101.0</ele><time>2026-04-03T10:16:37.959Z</time></trkpt><trkpt lat="43.688578268016286" lon="11.211492203859661"><ele>97.0</ele><time>2026-04-03T10:16:38.959Z</time></trkpt><trkpt lat="43.688823472100616" lon="11.211500949288038"><ele>93.0</ele><time>2026-04-03T10:16:39.959Z</time></trkpt><trkpt lat="43.6890675940872" lon="11.211518346677348"><ele>93.0</ele><time>2026-04-03T10:16:40.96Z</time></trkpt><trkpt lat="43.689304722072855" lon="11.211638928478896"><ele>93.0</ele><time>2026-04-03T10:16:41.96Z</time></trkpt><trkpt lat="43.689543139848" lon="11.211714995494516"><ele>92.5</ele><time>2026-04-03T10:16:42.96Z</time></trkpt><trkpt lat="43.68976564577571" lon="11.211801843940679"><ele>92.0</ele><time>2026-04-03T10:16:43.96Z</time></trkpt><trkpt lat="43.689990080727846" lon="11.211897106694595"><ele>92.0</ele><time>2026-04-03T10:16:44.96Z</time></trkpt><trkpt lat="43.690224475565095" lon="11.211997540208678"><ele>92.0</ele><time>2026-04-03T10:16:45.96Z</time></trkpt><trkpt lat="43.690453748721495" lon="11.212097672928017"><ele>92.5</ele><time>2026-04-03T10:16:46.96Z</time></trkpt><trkpt lat="43.69068504702117" lon="11.21219856759326"><ele>93.0</ele><time>2026-04-03T10:16:47.96Z</time></trkpt><trkpt lat="43.69091900528057" lon="11.212300499426439"><ele>92.5</ele><time>2026-04-03T10:16:48.96Z</time></trkpt><trkpt lat="43.69114597167443" lon="11.212399384820657"><ele>92.0</ele><time>2026-04-03T10:16:49.96Z</time></trkpt><trkpt lat="43.69137524612279" lon="11.212499593560992"><ele>92.0</ele><time>2026-04-03T10:16:50.96Z</time></trkpt><trkpt lat="43.691595054389126" lon="11.212596058414178"><ele>92.0</ele><time>2026-04-03T10:16:51.96Z</time></trkpt><trkpt lat="43.691811282878774" lon="11.212670042658493"><ele>91.66666666666667</ele><time>2026-04-03T10:16:52.96Z</time></trkpt><trkpt lat="43.69202026005145" lon="11.21275169071235"><ele>91.33333333333333</ele><time>2026-04-03T10:16:53.957Z</time></trkpt><trkpt lat="43.69221579369186" lon="11.212809638950906"><ele>91.0</ele><time>2026-04-03T10:16:54.958Z</time></trkpt><trkpt lat="43.6924250084079" lon="11.21284034449803"><ele>91.0</ele><time>2026-04-03T10:16:55.958Z</time></trkpt><trkpt lat="43.692634505857924" lon="11.212804087238363"><ele>91.0</ele><time>2026-04-03T10:16:56.958Z</time></trkpt><trkpt lat="43.692844973216395" lon="11.21273873765376"><ele>91.0</ele><time>2026-04-03T10:16:57.958Z</time></trkpt><trkpt lat="43.69306030851167" lon="11.212641882882311"><ele>94.0</ele><time>2026-04-03T10:16:58.958Z</time></trkpt><trkpt lat="43.69327705961894" lon="11.212509874150033"><ele>97.0</ele><time>2026-04-03T10:16:59.958Z</time></trkpt><trkpt lat="43.693498787812636" lon="11.212391114865724"><ele>92.5</ele><time>2026-04-03T10:17:00.958Z</time></trkpt><trkpt lat="43.693727861456765" lon="11.212259096789085"><ele>88.0</ele><time>2026-04-03T10:17:01.958Z</time></trkpt><trkpt lat="43.69395202659288" lon="11.212132903129511"><ele>88.0</ele><time>2026-04-03T10:17:02.958Z</time></trkpt><trkpt lat="43.69417138128199" lon="11.212012383406737"><ele>88.0</ele><time>2026-04-03T10:17:03.958Z</time></trkpt><trkpt lat="43.69439014013204" lon="11.211895165799053"><ele>90.0</ele><time>2026-04-03T10:17:04.958Z</time></trkpt><trkpt lat="43.69461030193571" lon="11.211779203584479"><ele>92.0</ele><time>2026-04-03T10:17:05.958Z</time></trkpt><trkpt lat="43.69483227637536" lon="11.211665014105895"><ele>92.0</ele><time>2026-04-03T10:17:06.958Z</time></trkpt><trkpt lat="43.695048058495075" lon="11.211554011786287"><ele>92.0</ele><time>2026-04-03T10:17:07.958Z</time></trkpt><trkpt lat="43.695249821244545" lon="11.211461994758434"><ele>92.0</ele><time>2026-04-03T10:17:08.958Z</time></trkpt><trkpt lat="43.695449797354044" lon="11.211389884098603"><ele>91.33333333333334</ele><time>2026-04-03T10:17:09.958Z</time></trkpt><trkpt lat="43.695653247796365" lon="11.211329906222995"><ele>90.66666666666667</ele><time>2026-04-03T10:17:10.958Z</time></trkpt><trkpt lat="43.69585565256563" lon="11.211280771670795"><ele>90.0</ele><time>2026-04-03T10:17:11.958Z</time></trkpt><trkpt lat="43.6960719472826" lon="11.211251600904967"><ele>90.0</ele><time>2026-04-03T10:17:12.958Z</time></trkpt><trkpt lat="43.69629231146325" lon="11.211233443060163"><ele>90.0</ele><time>2026-04-03T10:17:13.958Z</time></trkpt><trkpt lat="43.6965174019833" lon="11.211215116289472"><ele>90.0</ele><time>2026-04-03T10:17:14.958Z</time></trkpt><trkpt lat="43.6967336392729" lon="11.211213917402455"><ele>88.0</ele><time>2026-04-03T10:17:15.958Z</time></trkpt><trkpt lat="43.69695056451163" lon="11.211226148722067"><ele>86.0</ele><time>2026-04-03T10:17:16.958Z</time></trkpt><trkpt lat="43.69717658554424" lon="11.211254428758854"><ele>84.0</ele><time>2026-04-03T10:17:17.958Z</time></trkpt><trkpt lat="43.69740094867667" lon="11.211291518213644"><ele>84.0</ele><time>2026-04-03T10:17:18.958Z</time></trkpt><trkpt lat="43.69762382193922" lon="11.2113415740099"><ele>84.0</ele><time>2026-04-03T10:17:19.958Z</time></trkpt><trkpt lat="43.69783574697728" lon="11.211409569291192"><ele>84.0</ele><time>2026-04-03T10:17:20.958Z</time></trkpt><trkpt lat="43.698058411142156" lon="11.211496427465189"><ele>86.5</ele><time>2026-04-03T10:17:21.958Z</time></trkpt><trkpt lat="43.698292451921134" lon="11.211585017431362"><ele>89.0</ele><time>2026-04-03T10:17:22.958Z</time></trkpt><trkpt lat="43.698515392690084" lon="11.211664117298769"><ele>88.0</ele><time>2026-04-03T10:17:23.958Z</time></trkpt><trkpt lat="43.69873341680727" lon="11.211745352055347"><ele>87.0</ele><time>2026-04-03T10:17:24.958Z</time></trkpt><trkpt lat="43.6989500947215" lon="11.211826562896496"><ele>87.0</ele><time>2026-04-03T10:17:25.958Z</time></trkpt><trkpt lat="43.6991659756409" lon="11.211884471263064"><ele>87.0</ele><time>2026-04-03T10:17:26.958Z</time></trkpt><trkpt lat="43.699353096254704" lon="11.211988615459841"><ele>87.0</ele><time>2026-04-03T10:17:27.958Z</time></trkpt><trkpt lat="43.69954576366099" lon="11.212090593596699"><ele>88.0</ele><time>2026-04-03T10:17:28.958Z</time></trkpt><trkpt lat="43.69972006418195" lon="11.212239913947558"><ele>89.0</ele><time>2026-04-03T10:17:29.958Z</time></trkpt><trkpt lat="43.69987897236001" lon="11.212422352220603"><ele>90.0</ele><time>2026-04-03T10:17:30.958Z</time></trkpt><trkpt lat="43.70001829467818" lon="11.21263406925926"><ele>88.66666666666667</ele><time>2026-04-03T10:17:31.958Z</time></trkpt><trkpt lat="43.700142730890086" lon="11.21287828264468"><ele>87.33333333333334</ele><time>2026-04-03T10:17:32.958Z</time></trkpt><trkpt lat="43.70024526112981" lon="11.213138327929627"><ele>86.0</ele><time>2026-04-03T10:17:33.958Z</time></trkpt><trkpt lat="43.70032057008202" lon="11.213418647564545"><ele>86.0</ele><time>2026-04-03T10:17:34.958Z</time></trkpt><trkpt lat="43.700381165098435" lon="11.213701243940804"><ele>86.0</ele><time>2026-04-03T10:17:35.958Z</time></trkpt><trkpt lat="43.70044554761285" lon="11.213960056813272"><ele>86.0</ele><time>2026-04-03T10:17:36.958Z</time></trkpt><trkpt lat="43.700528482292576" lon="11.214248693227825"><ele>86.0</ele><time>2026-04-03T10:17:37.958Z</time></trkpt><trkpt lat="43.700621762739075" lon="11.214512836749648"><ele>86.0</ele><time>2026-04-03T10:17:38.958Z</time></trkpt><trkpt lat="43.700756731063834" lon="11.214725908330742"><ele>86.0</ele><time>2026-04-03T10:17:39.958Z</time></trkpt><trkpt lat="43.700898577486846" lon="11.214917717685752"><ele>86.33333333333334</ele><time>2026-04-03T10:17:40.958Z</time></trkpt><trkpt lat="43.701054418921565" lon="11.215072319185758"><ele>86.66666666666667</ele><time>2026-04-03T10:17:41.958Z</time></trkpt><trkpt lat="43.70122581987425" lon="11.215193871811245"><ele>87.0</ele><time>2026-04-03T10:17:42.958Z</time></trkpt><trkpt lat="43.70140829143734" lon="11.215296199570616"><ele>87.0</ele><time>2026-04-03T10:17:43.958Z</time></trkpt><trkpt lat="43.70158359367007" lon="11.215386819399681"><ele>87.0</ele><time>2026-04-03T10:17:44.958Z</time></trkpt><trkpt lat="43.70179985038994" lon="11.215381518419356"><ele>87.0</ele><time>2026-04-03T10:17:45.958Z</time></trkpt><trkpt lat="43.70201522649102" lon="11.215351337257996"><ele>87.33333333333333</ele><time>2026-04-03T10:17:46.958Z</time></trkpt><trkpt lat="43.70223459936357" lon="11.215289535866813"><ele>87.66666666666666</ele><time>2026-04-03T10:17:47.958Z</time></trkpt><trkpt lat="43.702427372157416" lon="11.215208753606609"><ele>88.0</ele><time>2026-04-03T10:17:48.958Z</time></trkpt><trkpt lat="43.70260288134563" lon="11.215105563863993"><ele>92.0</ele><time>2026-04-03T10:17:49.958Z</time></trkpt><trkpt lat="43.70278517867317" lon="11.214974421818745"><ele>96.0</ele><time>2026-04-03T10:17:50.958Z</time></trkpt><trkpt lat="43.702941852700974" lon="11.214812736485928"><ele>100.0</ele><time>2026-04-03T10:17:51.958Z</time></trkpt><trkpt lat="43.70307841730139" lon="11.21465276890673"><ele>100.5</ele><time>2026-04-03T10:17:52.958Z</time></trkpt><trkpt lat="43.70318946742039" lon="11.214489562050183"><ele>101.0</ele><time>2026-04-03T10:17:53.958Z</time></trkpt><trkpt lat="43.70326957865955" lon="11.21431991269664"><ele>101.5</ele><time>2026-04-03T10:17:54.958Z</time></trkpt><trkpt lat="43.70333625344193" lon="11.214152633084563"><ele>102.0</ele><time>2026-04-03T10:17:55.958Z</time></trkpt><trkpt lat="43.70339557772352" lon="11.213976028889247"><ele>100.33333333333334</ele><time>2026-04-03T10:17:56.958Z</time></trkpt><trkpt lat="43.70344537096278" lon="11.213777834977563"><ele>98.66666666666667</ele><time>2026-04-03T10:17:57.958Z</time></trkpt><trkpt lat="43.703483126929" lon="11.213568400873871"><ele>97.0</ele><time>2026-04-03T10:17:58.958Z</time></trkpt><trkpt lat="43.7035104520565" lon="11.213372159327225"><ele>97.0</ele><time>2026-04-03T10:17:59.958Z</time></trkpt><trkpt lat="43.70352236461607" lon="11.213203371583232"><ele>97.0</ele><time>2026-04-03T10:18:00.958Z</time></trkpt><trkpt lat="43.70353711160963" lon="11.213105275706864"><ele>97.0</ele><time>2026-04-03T10:18:01.958Z</time></trkpt><trkpt lat="43.703497864076596" lon="11.213021612483743"><ele>97.0</ele><time>2026-04-03T10:18:05.958Z</time></trkpt><trkpt lat="43.70336511432253" lon="11.213000394539186"><ele>97.0</ele><time>2026-04-03T10:18:07.958Z</time></trkpt><trkpt lat="43.70323904697481" lon="11.213002558792182"><ele>96.5</ele><time>2026-04-03T10:18:08.958Z</time></trkpt><trkpt lat="43.703095434629354" lon="11.21300404194497"><ele>96.0</ele><time>2026-04-03T10:18:09.958Z</time></trkpt><trkpt lat="43.70297398357414" lon="11.212979943728076"><ele>95.5</ele><time>2026-04-03T10:18:10.958Z</time></trkpt><trkpt lat="43.702858713647956" lon="11.21292418614222"><ele>95.0</ele><time>2026-04-03T10:18:11.958Z</time></trkpt><trkpt lat="43.702749866674026" lon="11.212917215142635"><ele>97.2</ele><time>2026-04-03T10:18:12.958Z</time></trkpt><trkpt lat="43.702644747353155" lon="11.212909081942076"><ele>99.4</ele><time>2026-04-03T10:18:13.958Z</time></trkpt><trkpt lat="43.702567611720156" lon="11.212864637688222"><ele>101.6</ele><time>2026-04-03T10:18:14.958Z</time></trkpt><trkpt lat="43.70253247652092" lon="11.212761766820197"><ele>103.8</ele><time>2026-04-03T10:18:15.958Z</time></trkpt><trkpt lat="43.70253226315089" lon="11.212641256101607"><ele>106.0</ele><time>2026-04-03T10:18:16.958Z</time></trkpt><trkpt lat="43.70254632289739" lon="11.21250316749767"><ele>106.0</ele><time>2026-04-03T10:18:17.958Z</time></trkpt><trkpt lat="43.7025729164467" lon="11.212344609114087"><ele>106.0</ele><time>2026-04-03T10:18:18.958Z</time></trkpt><trkpt lat="43.70258009073749" lon="11.212169688812672"><ele>106.0</ele><time>2026-04-03T10:18:19.958Z</time></trkpt><trkpt lat="43.70259129436236" lon="11.2119511576569"><ele>106.0</ele><time>2026-04-03T10:18:20.958Z</time></trkpt><trkpt lat="43.70266171158034" lon="11.211710651044253"><ele>104.0</ele><time>2026-04-03T10:18:21.958Z</time></trkpt><trkpt lat="43.70272447619974" lon="11.211443423318197"><ele>102.0</ele><time>2026-04-03T10:18:22.958Z</time></trkpt><trkpt lat="43.702792663974115" lon="11.211165540222078"><ele>100.0</ele><time>2026-04-03T10:18:23.958Z</time></trkpt><trkpt lat="43.702861261488664" lon="11.210889007386806"><ele>99.33333333333334</ele><time>2026-04-03T10:18:24.958Z</time></trkpt><trkpt lat="43.70290764973844" lon="11.21064784044699"><ele>98.66666666666666</ele><time>2026-04-03T10:18:25.958Z</time></trkpt><trkpt lat="43.702908135215154" lon="11.210462448369142"><ele>98.0</ele><time>2026-04-03T10:18:26.958Z</time></trkpt><trkpt lat="43.70291613027934" lon="11.21026632101547"><ele>98.0</ele><time>2026-04-03T10:18:27.958Z</time></trkpt><trkpt lat="43.70290186367406" lon="11.210058690447537"><ele>98.0</ele><time>2026-04-03T10:18:28.958Z</time></trkpt><trkpt lat="43.702850422915546" lon="11.20982845512626"><ele>98.0</ele><time>2026-04-03T10:18:29.958Z</time></trkpt><trkpt lat="43.702732327279115" lon="11.209586686058177"><ele>105.66666666666666</ele><time>2026-04-03T10:18:30.958Z</time></trkpt><trkpt lat="43.70263362065583" lon="11.20938706397157"><ele>113.33333333333334</ele><time>2026-04-03T10:18:31.958Z</time></trkpt><trkpt lat="43.702589542267575" lon="11.209194794758806"><ele>121.0</ele><time>2026-04-03T10:18:32.958Z</time></trkpt><trkpt lat="43.70255638024477" lon="11.209011407400798"><ele>118.0</ele><time>2026-04-03T10:18:33.958Z</time></trkpt><trkpt lat="43.702514204362195" lon="11.208862330174798"><ele>115.0</ele><time>2026-04-03T10:18:34.958Z</time></trkpt><trkpt lat="43.70238790470806" lon="11.208748014488231"><ele>112.0</ele><time>2026-04-03T10:18:35.958Z</time></trkpt><trkpt lat="43.70222348640937" lon="11.20868369799689"><ele>109.0</ele><time>2026-04-03T10:18:36.958Z</time></trkpt><trkpt lat="43.70206625555578" lon="11.208688891722216"><ele>115.33333333333334</ele><time>2026-04-03T10:18:37.958Z</time></trkpt><trkpt lat="43.70189651658034" lon="11.208750135394759"><ele>121.66666666666666</ele><time>2026-04-03T10:18:38.958Z</time></trkpt><trkpt lat="43.7017021450721" lon="11.20884993091557"><ele>128.0</ele><time>2026-04-03T10:18:39.958Z</time></trkpt><trkpt lat="43.701535768952326" lon="11.208915332481096"><ele>128.0</ele><time>2026-04-03T10:18:40.958Z</time></trkpt><trkpt lat="43.70140006063172" lon="11.208904705367926"><ele>128.0</ele><time>2026-04-03T10:18:41.958Z</time></trkpt><trkpt lat="43.70128805025071" lon="11.208838777063349"><ele>128.0</ele><time>2026-04-03T10:18:42.958Z</time></trkpt><trkpt lat="43.70117918827987" lon="11.20871291451877"><ele>128.0</ele><time>2026-04-03T10:18:43.958Z</time></trkpt><trkpt lat="43.70111814397893" lon="11.208502880366726"><ele>136.0</ele><time>2026-04-03T10:18:44.958Z</time></trkpt><trkpt lat="43.70102829548526" lon="11.2082440054865"><ele>144.0</ele><time>2026-04-03T10:18:45.958Z</time></trkpt><trkpt lat="43.700926454086336" lon="11.20798292530081"><ele>152.0</ele><time>2026-04-03T10:18:46.958Z</time></trkpt><trkpt lat="43.70080731261364" lon="11.207762885455084"><ele>152.0</ele><time>2026-04-03T10:18:47.958Z</time></trkpt><trkpt lat="43.700708595021425" lon="11.207592212030873"><ele>152.0</ele><time>2026-04-03T10:18:48.958Z</time></trkpt><trkpt lat="43.700675789956" lon="11.207360423896919"><ele>152.0</ele><time>2026-04-03T10:18:49.958Z</time></trkpt><trkpt lat="43.700628794708535" lon="11.207092051500776"><ele>150.0</ele><time>2026-04-03T10:18:50.958Z</time></trkpt><trkpt lat="43.700573590935214" lon="11.206802474534735"><ele>148.0</ele><time>2026-04-03T10:18:51.958Z</time></trkpt><trkpt lat="43.70049767017275" lon="11.20653284810826"><ele>146.0</ele><time>2026-04-03T10:18:52.958Z</time></trkpt><trkpt lat="43.70040206189539" lon="11.206292622915633"><ele>145.66666666666666</ele><time>2026-04-03T10:18:53.958Z</time></trkpt><trkpt lat="43.70029687648176" lon="11.206099787394875"><ele>145.33333333333334</ele><time>2026-04-03T10:18:54.958Z</time></trkpt><trkpt lat="43.700167941171976" lon="11.205973937690029"><ele>145.0</ele><time>2026-04-03T10:18:55.958Z</time></trkpt><trkpt lat="43.70005745105313" lon="11.205839451437726"><ele>148.66666666666669</ele><time>2026-04-03T10:18:56.958Z</time></trkpt><trkpt lat="43.699907018818415" lon="11.205724104422947"><ele>152.33333333333334</ele><time>2026-04-03T10:18:57.958Z</time></trkpt><trkpt lat="43.69975576031744" lon="11.205582475274708"><ele>156.0</ele><time>2026-04-03T10:18:58.958Z</time></trkpt><trkpt lat="43.699665214587284" lon="11.205382388619737"><ele>156.0</ele><time>2026-04-03T10:18:59.956Z</time></trkpt><trkpt lat="43.699578835498954" lon="11.205167949343311"><ele>156.0</ele><time>2026-04-03T10:19:00.956Z</time></trkpt><trkpt lat="43.69949601825492" lon="11.204899439118764"><ele>156.0</ele><time>2026-04-03T10:19:01.956Z</time></trkpt><trkpt lat="43.699434470954635" lon="11.204639891435917"><ele>159.66666666666666</ele><time>2026-04-03T10:19:02.956Z</time></trkpt><trkpt lat="43.699365687355865" lon="11.20436360760508"><ele>163.33333333333331</ele><time>2026-04-03T10:19:03.956Z</time></trkpt><trkpt lat="43.69929931817018" lon="11.204083650539184"><ele>167.0</ele><time>2026-04-03T10:19:04.956Z</time></trkpt><trkpt lat="43.69920385057408" lon="11.203842521197732"><ele>167.0</ele><time>2026-04-03T10:19:05.956Z</time></trkpt><trkpt lat="43.69908742733914" lon="11.203673388388209"><ele>167.0</ele><time>2026-04-03T10:19:06.956Z</time></trkpt><trkpt lat="43.69898121645134" lon="11.203510908019302"><ele>167.0</ele><time>2026-04-03T10:19:07.956Z</time></trkpt><trkpt lat="43.69881124571452" lon="11.203406969876234"><ele>167.0</ele><time>2026-04-03T10:19:08.956Z</time></trkpt><trkpt lat="43.69863812228982" lon="11.203301170671905"><ele>167.0</ele><time>2026-04-03T10:19:09.956Z</time></trkpt><trkpt lat="43.698410509859436" lon="11.203241530072711"><ele>167.0</ele><time>2026-04-03T10:19:10.956Z</time></trkpt><trkpt lat="43.698189711056166" lon="11.203141699914466"><ele>168.5</ele><time>2026-04-03T10:19:11.956Z</time></trkpt><trkpt lat="43.69795991575897" lon="11.203006356212724"><ele>170.0</ele><time>2026-04-03T10:19:12.956Z</time></trkpt><trkpt lat="43.697740770263174" lon="11.202891481267779"><ele>178.5</ele><time>2026-04-03T10:19:13.956Z</time></trkpt><trkpt lat="43.69751382823507" lon="11.20283265999921"><ele>187.0</ele><time>2026-04-03T10:19:14.956Z</time></trkpt><trkpt lat="43.69729655430561" lon="11.20276484936958"><ele>187.0</ele><time>2026-04-03T10:19:15.956Z</time></trkpt><trkpt lat="43.69708148490054" lon="11.202704603173501"><ele>187.0</ele><time>2026-04-03T10:19:16.956Z</time></trkpt><trkpt lat="43.696880491254575" lon="11.202653304567558"><ele>187.0</ele><time>2026-04-03T10:19:17.956Z</time></trkpt><trkpt lat="43.69670187366875" lon="11.202621589902302"><ele>190.33333333333334</ele><time>2026-04-03T10:19:18.956Z</time></trkpt><trkpt lat="43.69652380721784" lon="11.202629987397884"><ele>193.66666666666669</ele><time>2026-04-03T10:19:19.956Z</time></trkpt><trkpt lat="43.6963444455055" lon="11.202649113596571"><ele>197.0</ele><time>2026-04-03T10:19:20.956Z</time></trkpt><trkpt lat="43.69614570013099" lon="11.202669761216779"><ele>198.0</ele><time>2026-04-03T10:19:21.956Z</time></trkpt><trkpt lat="43.695933687406765" lon="11.20266082120259"><ele>199.0</ele><time>2026-04-03T10:19:22.956Z</time></trkpt><trkpt lat="43.695719869331455" lon="11.202649688527321"><ele>200.0</ele><time>2026-04-03T10:19:23.956Z</time></trkpt><trkpt lat="43.6955184674179" lon="11.202627022549114"><ele>200.0</ele><time>2026-04-03T10:19:24.956Z</time></trkpt><trkpt lat="43.69533141960469" lon="11.202587910643846"><ele>200.0</ele><time>2026-04-03T10:19:25.956Z</time></trkpt><trkpt lat="43.69514589843212" lon="11.20252572635127"><ele>200.0</ele><time>2026-04-03T10:19:26.956Z</time></trkpt><trkpt lat="43.69495154701414" lon="11.20247045628086"><ele>200.0</ele><time>2026-04-03T10:19:27.956Z</time></trkpt><trkpt lat="43.69474893537629" lon="11.20244389995599"><ele>200.0</ele><time>2026-04-03T10:19:28.956Z</time></trkpt><trkpt lat="43.694532798934176" lon="11.202398755142806"><ele>200.0</ele><time>2026-04-03T10:19:29.956Z</time></trkpt><trkpt lat="43.694286925944944" lon="11.2023531371303"><ele>198.5</ele><time>2026-04-03T10:19:30.956Z</time></trkpt><trkpt lat="43.69403341409898" lon="11.202296111470824"><ele>197.0</ele><time>2026-04-03T10:19:31.956Z</time></trkpt><trkpt lat="43.6937724298245" lon="11.202247801243109"><ele>194.5</ele><time>2026-04-03T10:19:32.956Z</time></trkpt><trkpt lat="43.69353287737557" lon="11.202206959202012"><ele>192.0</ele><time>2026-04-03T10:19:33.956Z</time></trkpt><trkpt lat="43.693300849921286" lon="11.202192646203134"><ele>192.0</ele><time>2026-04-03T10:19:34.956Z</time></trkpt><trkpt lat="43.69308395870222" lon="11.202184855973401"><ele>192.0</ele><time>2026-04-03T10:19:35.956Z</time></trkpt><trkpt lat="43.69288380300388" lon="11.202158080249776"><ele>192.0</ele><time>2026-04-03T10:19:36.956Z</time></trkpt><trkpt lat="43.69270387163422" lon="11.202120066454547"><ele>191.0</ele><time>2026-04-03T10:19:37.956Z</time></trkpt><trkpt lat="43.69254465942212" lon="11.202059371904737"><ele>190.0</ele><time>2026-04-03T10:19:38.957Z</time></trkpt><trkpt lat="43.69240982197557" lon="11.201968476495868"><ele>189.0</ele><time>2026-04-03T10:19:39.957Z</time></trkpt><trkpt lat="43.692240533531724" lon="11.201836787657708"><ele>189.0</ele><time>2026-04-03T10:19:40.957Z</time></trkpt><trkpt lat="43.69208040751256" lon="11.20171090784127"><ele>189.0</ele><time>2026-04-03T10:19:41.957Z</time></trkpt><trkpt lat="43.69193435542796" lon="11.201608921054973"><ele>189.0</ele><time>2026-04-03T10:19:42.957Z</time></trkpt><trkpt lat="43.69177468701369" lon="11.201584324030827"><ele>189.66666666666666</ele><time>2026-04-03T10:19:43.957Z</time></trkpt><trkpt lat="43.69162198638534" lon="11.201592201689962"><ele>190.33333333333331</ele><time>2026-04-03T10:19:44.957Z</time></trkpt><trkpt lat="43.69145569729037" lon="11.20166424771409"><ele>191.0</ele><time>2026-04-03T10:19:45.957Z</time></trkpt><trkpt lat="43.69126966865891" lon="11.201756723501015"><ele>190.66666666666666</ele><time>2026-04-03T10:19:46.957Z</time></trkpt><trkpt lat="43.691078113229615" lon="11.201876742987274"><ele>190.33333333333334</ele><time>2026-04-03T10:19:47.957Z</time></trkpt><trkpt lat="43.690870236104736" lon="11.202035804385664"><ele>190.0</ele><time>2026-04-03T10:19:48.957Z</time></trkpt><trkpt lat="43.69066216753828" lon="11.202180698348528"><ele>190.0</ele><time>2026-04-03T10:19:49.957Z</time></trkpt><trkpt lat="43.6904790752594" lon="11.202280352580962"><ele>190.0</ele><time>2026-04-03T10:19:50.957Z</time></trkpt><trkpt lat="43.69029870014952" lon="11.202333489236082"><ele>190.0</ele><time>2026-04-03T10:19:51.957Z</time></trkpt><trkpt lat="43.69009736703887" lon="11.20236449053193"><ele>195.0</ele><time>2026-04-03T10:19:52.957Z</time></trkpt><trkpt lat="43.68986635860475" lon="11.202396811037856"><ele>200.0</ele><time>2026-04-03T10:19:53.957Z</time></trkpt><trkpt lat="43.68961896425365" lon="11.202438240434937"><ele>203.0</ele><time>2026-04-03T10:19:54.957Z</time></trkpt><trkpt lat="43.6893618272157" lon="11.202412285725998"><ele>206.0</ele><time>2026-04-03T10:19:55.957Z</time></trkpt><trkpt lat="43.68909442099224" lon="11.202384898822382"><ele>206.0</ele><time>2026-04-03T10:19:56.957Z</time></trkpt><trkpt lat="43.6888289012214" lon="11.20235366591975"><ele>206.0</ele><time>2026-04-03T10:19:57.957Z</time></trkpt><trkpt lat="43.688587075476775" lon="11.202325220167035"><ele>205.33333333333334</ele><time>2026-04-03T10:19:58.957Z</time></trkpt><trkpt lat="43.6883736502294" lon="11.202306904390838"><ele>204.66666666666669</ele><time>2026-04-03T10:19:59.957Z</time></trkpt><trkpt lat="43.688181681986514" lon="11.202282457470556"><ele>204.0</ele><time>2026-04-03T10:20:00.957Z</time></trkpt><trkpt lat="43.688001759925406" lon="11.202273434775803"><ele>204.0</ele><time>2026-04-03T10:20:01.957Z</time></trkpt><trkpt lat="43.68783544961883" lon="11.202235282680865"><ele>204.0</ele><time>2026-04-03T10:20:02.957Z</time></trkpt><trkpt lat="43.68767168028463" lon="11.202212788591691"><ele>204.0</ele><time>2026-04-03T10:20:03.957Z</time></trkpt><trkpt lat="43.68751700395835" lon="11.202180655296265"><ele>206.33333333333331</ele><time>2026-04-03T10:20:04.957Z</time></trkpt><trkpt lat="43.687374157642274" lon="11.202114693917387"><ele>208.66666666666666</ele><time>2026-04-03T10:20:05.957Z</time></trkpt><trkpt lat="43.68722179960422" lon="11.202036250774531"><ele>211.0</ele><time>2026-04-03T10:20:06.957Z</time></trkpt><trkpt lat="43.68705160408845" lon="11.201953308127383"><ele>213.66666666666666</ele><time>2026-04-03T10:20:07.957Z</time></trkpt><trkpt lat="43.686883913803506" lon="11.201871586498845"><ele>216.33333333333331</ele><time>2026-04-03T10:20:08.957Z</time></trkpt><trkpt lat="43.68672486275602" lon="11.201814896187576"><ele>219.0</ele><time>2026-04-03T10:20:09.957Z</time></trkpt><trkpt lat="43.68659671859373" lon="11.201722586946685"><ele>219.0</ele><time>2026-04-03T10:20:10.957Z</time></trkpt><trkpt lat="43.686477699690236" lon="11.201583150997783"><ele>219.0</ele><time>2026-04-03T10:20:11.957Z</time></trkpt><trkpt lat="43.68635172722746" lon="11.201406260526687"><ele>219.0</ele><time>2026-04-03T10:20:12.957Z</time></trkpt><trkpt lat="43.686220621949104" lon="11.201203980862902"><ele>218.0</ele><time>2026-04-03T10:20:13.957Z</time></trkpt><trkpt lat="43.686106717156086" lon="11.201003690547545"><ele>217.0</ele><time>2026-04-03T10:20:14.957Z</time></trkpt><trkpt lat="43.68600036244305" lon="11.20079630156408"><ele>216.0</ele><time>2026-04-03T10:20:15.957Z</time></trkpt><trkpt lat="43.68589849717514" lon="11.20060031178289"><ele>223.0</ele><time>2026-04-03T10:20:16.957Z</time></trkpt><trkpt lat="43.68580289893428" lon="11.200424546472224"><ele>230.0</ele><time>2026-04-03T10:20:17.957Z</time></trkpt><trkpt lat="43.68566310892873" lon="11.200257261270119"><ele>237.0</ele><time>2026-04-03T10:20:18.957Z</time></trkpt><trkpt lat="43.685513850434056" lon="11.200105976725906"><ele>237.0</ele><time>2026-04-03T10:20:19.957Z</time></trkpt><trkpt lat="43.68535542167773" lon="11.199950049086922"><ele>237.0</ele><time>2026-04-03T10:20:20.957Z</time></trkpt><trkpt lat="43.68521627161459" lon="11.199788905040661"><ele>237.0</ele><time>2026-04-03T10:20:21.957Z</time></trkpt><trkpt lat="43.685093243484005" lon="11.199617254580888"><ele>240.0</ele><time>2026-04-03T10:20:22.957Z</time></trkpt><trkpt lat="43.68497220215357" lon="11.199436169693188"><ele>243.0</ele><time>2026-04-03T10:20:23.957Z</time></trkpt><trkpt lat="43.68485760387962" lon="11.19924401191565"><ele>246.0</ele><time>2026-04-03T10:20:24.957Z</time></trkpt><trkpt lat="43.684753063130444" lon="11.199059587389335"><ele>245.75</ele><time>2026-04-03T10:20:25.957Z</time></trkpt><trkpt lat="43.68465283879147" lon="11.198902047059933"><ele>245.5</ele><time>2026-04-03T10:20:26.957Z</time></trkpt><trkpt lat="43.68454486909747" lon="11.198774836676687"><ele>245.25</ele><time>2026-04-03T10:20:27.957Z</time></trkpt><trkpt lat="43.68444849995443" lon="11.19862872438662"><ele>245.0</ele><time>2026-04-03T10:20:28.957Z</time></trkpt><trkpt lat="43.68434260718313" lon="11.198492651525928"><ele>247.33333333333334</ele><time>2026-04-03T10:20:29.957Z</time></trkpt><trkpt lat="43.68421988658762" lon="11.19836995171353"><ele>249.66666666666669</ele><time>2026-04-03T10:20:30.957Z</time></trkpt><trkpt lat="43.6840782313804" lon="11.198255385403137"><ele>252.0</ele><time>2026-04-03T10:20:31.957Z</time></trkpt><trkpt lat="43.6839311770989" lon="11.198172820566013"><ele>252.75</ele><time>2026-04-03T10:20:32.957Z</time></trkpt><trkpt lat="43.68380428677067" lon="11.198088361552161"><ele>253.5</ele><time>2026-04-03T10:20:33.957Z</time></trkpt><trkpt lat="43.683689606896834" lon="11.198006792646014"><ele>254.25</ele><time>2026-04-03T10:20:34.957Z</time></trkpt><trkpt lat="43.68357780697455" lon="11.197941685422773"><ele>255.0</ele><time>2026-04-03T10:20:35.957Z</time></trkpt><trkpt lat="43.68346616789636" lon="11.197864647271"><ele>255.0</ele><time>2026-04-03T10:20:36.957Z</time></trkpt><trkpt lat="43.6833552419616" lon="11.19779895408987"><ele>255.0</ele><time>2026-04-03T10:20:37.957Z</time></trkpt><trkpt lat="43.68324089304963" lon="11.1977483816797"><ele>255.0</ele><time>2026-04-03T10:20:38.957Z</time></trkpt><trkpt lat="43.683123489906734" lon="11.197702079283122"><ele>255.0</ele><time>2026-04-03T10:20:39.957Z</time></trkpt><trkpt lat="43.683012939817" lon="11.19767455531163"><ele>255.0</ele><time>2026-04-03T10:20:40.957Z</time></trkpt><trkpt lat="43.68292059765315" lon="11.19763535508457"><ele>255.0</ele><time>2026-04-03T10:20:41.957Z</time></trkpt><trkpt lat="43.68284751316882" lon="11.197572016129184"><ele>255.0</ele><time>2026-04-03T10:20:42.957Z</time></trkpt><trkpt lat="43.68278306396322" lon="11.19750556696596"><ele>255.0</ele><time>2026-04-03T10:20:43.957Z</time></trkpt><trkpt lat="43.68270762231858" lon="11.197431574013212"><ele>255.0</ele><time>2026-04-03T10:20:44.957Z</time></trkpt><trkpt lat="43.68262205653851" lon="11.197346541770099"><ele>256.0</ele><time>2026-04-03T10:20:45.957Z</time></trkpt><trkpt lat="43.68253972491918" lon="11.197239527907595"><ele>257.0</ele><time>2026-04-03T10:20:46.957Z</time></trkpt><trkpt lat="43.68245071170879" lon="11.197151788092032"><ele>258.0</ele><time>2026-04-03T10:20:47.957Z</time></trkpt><trkpt lat="43.68238451408614" lon="11.197029729071518"><ele>259.0</ele><time>2026-04-03T10:20:48.957Z</time></trkpt><trkpt lat="43.68230892938538" lon="11.196916743548213"><ele>260.0</ele><time>2026-04-03T10:20:49.957Z</time></trkpt><trkpt lat="43.68223553915856" lon="11.196793512493146"><ele>260.0</ele><time>2026-04-03T10:20:50.957Z</time></trkpt><trkpt lat="43.682157723788386" lon="11.196651911929298"><ele>260.0</ele><time>2026-04-03T10:20:51.957Z</time></trkpt><trkpt lat="43.68207671720427" lon="11.196485819203222"><ele>260.0</ele><time>2026-04-03T10:20:52.957Z</time></trkpt><trkpt lat="43.68198293255653" lon="11.19628991510195"><ele>260.0</ele><time>2026-04-03T10:20:53.957Z</time></trkpt><trkpt lat="43.68187043024801" lon="11.196107202900073"><ele>260.33333333333337</ele><time>2026-04-03T10:20:54.957Z</time></trkpt><trkpt lat="43.68177344825507" lon="11.19590616428499"><ele>260.6666666666667</ele><time>2026-04-03T10:20:55.957Z</time></trkpt><trkpt lat="43.68167211887425" lon="11.19569896149279"><ele>261.0</ele><time>2026-04-03T10:20:56.957Z</time></trkpt><trkpt lat="43.68156213574673" lon="11.195486459375232"><ele>261.0</ele><time>2026-04-03T10:20:57.957Z</time></trkpt><trkpt lat="43.68144628539218" lon="11.195260001521909"><ele>261.0</ele><time>2026-04-03T10:20:58.957Z</time></trkpt><trkpt lat="43.68134928076209" lon="11.195011864461815"><ele>261.0</ele><time>2026-04-03T10:20:59.957Z</time></trkpt><trkpt lat="43.681263710385686" lon="11.194755462209109"><ele>262.0</ele><time>2026-04-03T10:21:00.957Z</time></trkpt><trkpt lat="43.681184511522645" lon="11.194512260870573"><ele>263.0</ele><time>2026-04-03T10:21:01.957Z</time></trkpt><trkpt lat="43.68110480763843" lon="11.194297424281093"><ele>264.0</ele><time>2026-04-03T10:21:02.957Z</time></trkpt><trkpt lat="43.681035479033085" lon="11.1941256706454"><ele>264.8</ele><time>2026-04-03T10:21:03.957Z</time></trkpt><trkpt lat="43.68097130396437" lon="11.193982895596823"><ele>265.59999999999997</ele><time>2026-04-03T10:21:04.957Z</time></trkpt><trkpt lat="43.68092040357305" lon="11.193858074772612"><ele>266.4</ele><time>2026-04-03T10:21:05.954Z</time></trkpt><trkpt lat="43.68087984092951" lon="11.193757263980567"><ele>267.2</ele><time>2026-04-03T10:21:06.955Z</time></trkpt><trkpt lat="43.68086373608874" lon="11.193667970610912"><ele>268.0</ele><time>2026-04-03T10:21:07.955Z</time></trkpt><trkpt lat="43.6810358914479" lon="11.19356200668589"><ele>268.0</ele><time>2026-04-03T10:21:10.955Z</time></trkpt><trkpt lat="43.68114229103285" lon="11.19350779578023"><ele>268.0</ele><time>2026-04-03T10:21:11.955Z</time></trkpt><trkpt lat="43.68125783459112" lon="11.19344801682338"><ele>268.0</ele><time>2026-04-03T10:21:12.954Z</time></trkpt><trkpt lat="43.681381498720825" lon="11.193394149500126"><ele>268.0</ele><time>2026-04-03T10:21:13.954Z</time></trkpt><trkpt lat="43.68151892423878" lon="11.193332905186889"><ele>268.0</ele><time>2026-04-03T10:21:14.955Z</time></trkpt><trkpt lat="43.6816586718967" lon="11.193258369316931"><ele>268.0</ele><time>2026-04-03T10:21:15.954Z</time></trkpt><trkpt lat="43.681802910011136" lon="11.193178093148806"><ele>268.0</ele><time>2026-04-03T10:21:16.954Z</time></trkpt><trkpt lat="43.6819377974776" lon="11.1931099983298"><ele>268.0</ele><time>2026-04-03T10:21:17.955Z</time></trkpt><trkpt lat="43.682070577356214" lon="11.193049627667632"><ele>269.0</ele><time>2026-04-03T10:21:18.954Z</time></trkpt><trkpt lat="43.682208515722834" lon="11.1930148739456"><ele>270.0</ele><time>2026-04-03T10:21:19.954Z</time></trkpt><trkpt lat="43.682358675233495" lon="11.193003612300247"><ele>271.0</ele><time>2026-04-03T10:21:20.955Z</time></trkpt><trkpt lat="43.68251283370105" lon="11.193000488644376"><ele>272.0</ele><time>2026-04-03T10:21:21.955Z</time></trkpt><trkpt lat="43.68267157345425" lon="11.192980870261486"><ele>271.0</ele><time>2026-04-03T10:21:22.955Z</time></trkpt><trkpt lat="43.68283713727927" lon="11.192940460292878"><ele>270.0</ele><time>2026-04-03T10:21:23.955Z</time></trkpt><trkpt lat="43.683027445547864" lon="11.192877675841915"><ele>269.0</ele><time>2026-04-03T10:21:24.955Z</time></trkpt><trkpt lat="43.68321128035041" lon="11.19280967733657"><ele>269.0</ele><time>2026-04-03T10:21:25.955Z</time></trkpt><trkpt lat="43.68338828728801" lon="11.192738467576307"><ele>269.0</ele><time>2026-04-03T10:21:26.955Z</time></trkpt><trkpt lat="43.68356353591592" lon="11.192670236362153"><ele>269.0</ele><time>2026-04-03T10:21:27.955Z</time></trkpt><trkpt lat="43.683748348780995" lon="11.192605033948833"><ele>266.6666666666667</ele><time>2026-04-03T10:21:28.955Z</time></trkpt><trkpt lat="43.68393907572499" lon="11.192548277293245"><ele>264.3333333333333</ele><time>2026-04-03T10:21:29.955Z</time></trkpt><trkpt lat="43.68412806512836" lon="11.192484652393327"><ele>262.0</ele><time>2026-04-03T10:21:30.955Z</time></trkpt><trkpt lat="43.68430303209781" lon="11.192410862795422"><ele>260.66666666666663</ele><time>2026-04-03T10:21:31.955Z</time></trkpt><trkpt lat="43.6844720569182" lon="11.192353858109081"><ele>259.3333333333333</ele><time>2026-04-03T10:21:32.955Z</time></trkpt><trkpt lat="43.68464203155799" lon="11.192300640091602"><ele>258.0</ele><time>2026-04-03T10:21:33.955Z</time></trkpt><trkpt lat="43.68480654966168" lon="11.192229529220898"><ele>258.0</ele><time>2026-04-03T10:21:34.955Z</time></trkpt><trkpt lat="43.68497895435193" lon="11.19214605332885"><ele>258.0</ele><time>2026-04-03T10:21:35.955Z</time></trkpt><trkpt lat="43.68514754259007" lon="11.192056087134018"><ele>258.0</ele><time>2026-04-03T10:21:36.955Z</time></trkpt><trkpt lat="43.68532109675939" lon="11.191968599675574"><ele>259.3333333333333</ele><time>2026-04-03T10:21:37.955Z</time></trkpt><trkpt lat="43.685507281878095" lon="11.191893213711051"><ele>260.66666666666663</ele><time>2026-04-03T10:21:38.955Z</time></trkpt><trkpt lat="43.685673688012926" lon="11.191830317518379"><ele>262.0</ele><time>2026-04-03T10:21:39.955Z</time></trkpt><trkpt lat="43.68582779472654" lon="11.191778369819234"><ele>262.0</ele><time>2026-04-03T10:21:40.955Z</time></trkpt><trkpt lat="43.685970181606585" lon="11.191715425644485"><ele>262.0</ele><time>2026-04-03T10:21:41.955Z</time></trkpt><trkpt lat="43.68610952055506" lon="11.191629534772698"><ele>262.0</ele><time>2026-04-03T10:21:42.955Z</time></trkpt><trkpt lat="43.68621916866808" lon="11.191524250498995"><ele>262.0</ele><time>2026-04-03T10:21:43.955Z</time></trkpt><trkpt lat="43.6862914219663" lon="11.191419244551545"><ele>261.8</ele><time>2026-04-03T10:21:44.955Z</time></trkpt><trkpt lat="43.686356306908166" lon="11.191288371379068"><ele>261.6</ele><time>2026-04-03T10:21:45.955Z</time></trkpt><trkpt lat="43.68640138629333" lon="11.191151993040886"><ele>261.40000000000003</ele><time>2026-04-03T10:21:46.955Z</time></trkpt><trkpt lat="43.686422814960586" lon="11.191005394153239"><ele>261.2</ele><time>2026-04-03T10:21:47.955Z</time></trkpt><trkpt lat="43.68642150011758" lon="11.190853945676809"><ele>261.0</ele><time>2026-04-03T10:21:48.955Z</time></trkpt><trkpt lat="43.68641193694848" lon="11.190689500664003"><ele>261.3333333333333</ele><time>2026-04-03T10:21:49.955Z</time></trkpt><trkpt lat="43.68639321975336" lon="11.190501156229534"><ele>261.66666666666663</ele><time>2026-04-03T10:21:50.955Z</time></trkpt><trkpt lat="43.68637265623457" lon="11.190289429289667"><ele>262.0</ele><time>2026-04-03T10:21:51.955Z</time></trkpt><trkpt lat="43.686365113577715" lon="11.1900602461101"><ele>262.66666666666663</ele><time>2026-04-03T10:21:52.955Z</time></trkpt><trkpt lat="43.686326670288736" lon="11.189837392404652"><ele>263.3333333333333</ele><time>2026-04-03T10:21:53.955Z</time></trkpt><trkpt lat="43.686317335434026" lon="11.189619015225691"><ele>264.0</ele><time>2026-04-03T10:21:54.955Z</time></trkpt><trkpt lat="43.686303767277984" lon="11.189399016959076"><ele>264.0</ele><time>2026-04-03T10:21:55.955Z</time></trkpt><trkpt lat="43.68626660617093" lon="11.189185013904838"><ele>264.0</ele><time>2026-04-03T10:21:56.955Z</time></trkpt><trkpt lat="43.68625728782913" lon="11.188951605305133"><ele>264.0</ele><time>2026-04-03T10:21:57.955Z</time></trkpt><trkpt lat="43.6862310718041" lon="11.188711284532113"><ele>264.0</ele><time>2026-04-03T10:21:58.955Z</time></trkpt><trkpt lat="43.686206514737435" lon="11.188460927938731"><ele>264.0</ele><time>2026-04-03T10:21:59.955Z</time></trkpt><trkpt lat="43.68618211839009" lon="11.188199619351769"><ele>264.0</ele><time>2026-04-03T10:22:00.955Z</time></trkpt><trkpt lat="43.686160529270204" lon="11.187939274409672"><ele>264.0</ele><time>2026-04-03T10:22:01.955Z</time></trkpt><trkpt lat="43.6861339151912" lon="11.187691146168872"><ele>264.0</ele><time>2026-04-03T10:22:02.955Z</time></trkpt><trkpt lat="43.68610602592265" lon="11.187467535335221"><ele>264.0</ele><time>2026-04-03T10:22:03.955Z</time></trkpt><trkpt lat="43.68607374626359" lon="11.187257925523731"><ele>264.3333333333333</ele><time>2026-04-03T10:22:04.955Z</time></trkpt><trkpt lat="43.686043808225726" lon="11.187032540761106"><ele>264.66666666666663</ele><time>2026-04-03T10:22:05.955Z</time></trkpt><trkpt lat="43.68601162050897" lon="11.18680343633084"><ele>265.0</ele><time>2026-04-03T10:22:06.955Z</time></trkpt><trkpt lat="43.68597223138124" lon="11.18656841855273"><ele>265.0</ele><time>2026-04-03T10:22:07.955Z</time></trkpt><trkpt lat="43.68594363816238" lon="11.186323156920107"><ele>265.0</ele><time>2026-04-03T10:22:08.955Z</time></trkpt><trkpt lat="43.68591680706718" lon="11.18607084570009"><ele>265.0</ele><time>2026-04-03T10:22:09.955Z</time></trkpt><trkpt lat="43.68588624850677" lon="11.185842762816543"><ele>265.5</ele><time>2026-04-03T10:22:10.955Z</time></trkpt><trkpt lat="43.68585151494477" lon="11.185656460437237"><ele>266.0</ele><time>2026-04-03T10:22:11.955Z</time></trkpt><trkpt lat="43.685851156052244" lon="11.185480971875355"><ele>266.5</ele><time>2026-04-03T10:22:12.955Z</time></trkpt><trkpt lat="43.68592051073109" lon="11.185338959443296"><ele>267.0</ele><time>2026-04-03T10:22:13.955Z</time></trkpt><trkpt lat="43.68599672662656" lon="11.18517281010711"><ele>267.0</ele><time>2026-04-03T10:22:14.955Z</time></trkpt><trkpt lat="43.6860810825546" lon="11.184997827130218"><ele>267.0</ele><time>2026-04-03T10:22:15.955Z</time></trkpt><trkpt lat="43.686173935153946" lon="11.184850288471615"><ele>267.0</ele><time>2026-04-03T10:22:16.955Z</time></trkpt><trkpt lat="43.686284970189455" lon="11.184737368957913"><ele>267.0</ele><time>2026-04-03T10:22:17.955Z</time></trkpt><trkpt lat="43.68640749184963" lon="11.184695760772085"><ele>266.3333333333333</ele><time>2026-04-03T10:22:18.955Z</time></trkpt><trkpt lat="43.68655389291436" lon="11.184704169084386"><ele>265.66666666666663</ele><time>2026-04-03T10:22:19.955Z</time></trkpt><trkpt lat="43.686717744578516" lon="11.184707290387667"><ele>265.0</ele><time>2026-04-03T10:22:20.955Z</time></trkpt><trkpt lat="43.68686788079479" lon="11.184709614342113"><ele>265.5</ele><time>2026-04-03T10:22:21.955Z</time></trkpt><trkpt lat="43.6870208519705" lon="11.184703289483162"><ele>266.0</ele><time>2026-04-03T10:22:22.955Z</time></trkpt><trkpt lat="43.687177421726645" lon="11.184687682595841"><ele>266.5</ele><time>2026-04-03T10:22:23.955Z</time></trkpt><trkpt lat="43.687314973951715" lon="11.184660258107858"><ele>267.0</ele><time>2026-04-03T10:22:24.955Z</time></trkpt><trkpt lat="43.687444493706124" lon="11.184632887655415"><ele>267.0</ele><time>2026-04-03T10:22:25.955Z</time></trkpt><trkpt lat="43.68756182896543" lon="11.1845886115832"><ele>267.0</ele><time>2026-04-03T10:22:26.955Z</time></trkpt><trkpt lat="43.68767020639124" lon="11.184551850760517"><ele>267.0</ele><time>2026-04-03T10:22:27.955Z</time></trkpt><trkpt lat="43.68777430808513" lon="11.184477766530314"><ele>267.0</ele><time>2026-04-03T10:22:28.955Z</time></trkpt><trkpt lat="43.68784669330265" lon="11.184377079144138"><ele>267.0</ele><time>2026-04-03T10:22:29.955Z</time></trkpt><trkpt lat="43.687919245907786" lon="11.184250837594996"><ele>267.0</ele><time>2026-04-03T10:22:30.955Z</time></trkpt><trkpt lat="43.68798152404854" lon="11.184092351214842"><ele>267.0</ele><time>2026-04-03T10:22:31.955Z</time></trkpt><trkpt lat="43.68802181172032" lon="11.183914073108134"><ele>267.0</ele><time>2026-04-03T10:22:32.955Z</time></trkpt><trkpt lat="43.68804169147726" lon="11.183734306094001"><ele>267.75</ele><time>2026-04-03T10:22:33.955Z</time></trkpt><trkpt lat="43.688060039645144" lon="11.183546436078453"><ele>268.5</ele><time>2026-04-03T10:22:34.955Z</time></trkpt><trkpt lat="43.6880865102097" lon="11.18336432915942"><ele>269.25</ele><time>2026-04-03T10:22:35.955Z</time></trkpt><trkpt lat="43.68811779092181" lon="11.18319532892027"><ele>270.0</ele><time>2026-04-03T10:22:36.955Z</time></trkpt><trkpt lat="43.688158747020495" lon="11.183040126677872"><ele>270.0</ele><time>2026-04-03T10:22:37.955Z</time></trkpt><trkpt lat="43.68820876046594" lon="11.182884634392606"><ele>270.0</ele><time>2026-04-03T10:22:38.955Z</time></trkpt><trkpt lat="43.68828794208128" lon="11.182703894572807"><ele>270.0</ele><time>2026-04-03T10:22:39.955Z</time></trkpt><trkpt lat="43.688384031595405" lon="11.182528303644496"><ele>270.0</ele><time>2026-04-03T10:22:40.955Z</time></trkpt><trkpt lat="43.6884899237315" lon="11.182333090940569"><ele>267.0</ele><time>2026-04-03T10:22:41.955Z</time></trkpt><trkpt lat="43.68860302405918" lon="11.182130161735884"><ele>264.0</ele><time>2026-04-03T10:22:42.955Z</time></trkpt><trkpt lat="43.6887056738816" lon="11.181945985140391"><ele>261.0</ele><time>2026-04-03T10:22:43.955Z</time></trkpt><trkpt lat="43.688801332053906" lon="11.181783836033095"><ele>261.0</ele><time>2026-04-03T10:22:44.955Z</time></trkpt><trkpt lat="43.688896765445506" lon="11.181639020853853"><ele>261.0</ele><time>2026-04-03T10:22:45.955Z</time></trkpt><trkpt lat="43.689017666768045" lon="11.181527738832223"><ele>261.0</ele><time>2026-04-03T10:22:46.955Z</time></trkpt><trkpt lat="43.689167917925204" lon="11.181454583671513"><ele>261.0</ele><time>2026-04-03T10:22:47.955Z</time></trkpt><trkpt lat="43.68932240143057" lon="11.181369860782967"><ele>259.75</ele><time>2026-04-03T10:22:48.955Z</time></trkpt><trkpt lat="43.68946670742073" lon="11.18130125787489"><ele>258.5</ele><time>2026-04-03T10:22:49.955Z</time></trkpt><trkpt lat="43.68960681219536" lon="11.181259734774986"><ele>257.25</ele><time>2026-04-03T10:22:50.955Z</time></trkpt><trkpt lat="43.68971800953027" lon="11.181281130377803"><ele>256.0</ele><time>2026-04-03T10:22:51.955Z</time></trkpt><trkpt lat="43.689848438222505" lon="11.181315856813157"><ele>256.0</ele><time>2026-04-03T10:22:52.955Z</time></trkpt><trkpt lat="43.6899760701314" lon="11.181346631420348"><ele>256.0</ele><time>2026-04-03T10:22:53.955Z</time></trkpt><trkpt lat="43.69011425373814" lon="11.181385407902303"><ele>256.0</ele><time>2026-04-03T10:22:54.955Z</time></trkpt><trkpt lat="43.690268366180575" lon="11.181430463617039"><ele>256.0</ele><time>2026-04-03T10:22:55.955Z</time></trkpt><trkpt lat="43.69041039176871" lon="11.181471260926134"><ele>254.5</ele><time>2026-04-03T10:22:56.955Z</time></trkpt><trkpt lat="43.69055224490411" lon="11.181496017076507"><ele>253.0</ele><time>2026-04-03T10:22:57.955Z</time></trkpt><trkpt lat="43.69068649918491" lon="11.181504533652172"><ele>251.5</ele><time>2026-04-03T10:22:58.955Z</time></trkpt><trkpt lat="43.690803236097366" lon="11.181508872438156"><ele>250.0</ele><time>2026-04-03T10:22:59.955Z</time></trkpt><trkpt lat="43.690920613679" lon="11.181522497146487"><ele>249.5</ele><time>2026-04-03T10:23:00.955Z</time></trkpt><trkpt lat="43.69101743879368" lon="11.181566457556094"><ele>249.0</ele><time>2026-04-03T10:23:01.955Z</time></trkpt><trkpt lat="43.69110598414392" lon="11.18165388542708"><ele>248.5</ele><time>2026-04-03T10:23:02.955Z</time></trkpt><trkpt lat="43.691220270112744" lon="11.181778451299843"><ele>248.0</ele><time>2026-04-03T10:23:03.955Z</time></trkpt><trkpt lat="43.69133819295468" lon="11.18191522510819"><ele>244.66666666666669</ele><time>2026-04-03T10:23:04.955Z</time></trkpt><trkpt lat="43.69146024257748" lon="11.182047756188163"><ele>241.33333333333331</ele><time>2026-04-03T10:23:05.955Z</time></trkpt><trkpt lat="43.691597871895965" lon="11.182157542960262"><ele>238.0</ele><time>2026-04-03T10:23:06.955Z</time></trkpt><trkpt lat="43.69174045607938" lon="11.182258604444907"><ele>238.0</ele><time>2026-04-03T10:23:07.955Z</time></trkpt><trkpt lat="43.69188445767368" lon="11.182343459580776"><ele>238.0</ele><time>2026-04-03T10:23:08.955Z</time></trkpt><trkpt lat="43.69202869775769" lon="11.18242696249925"><ele>238.0</ele><time>2026-04-03T10:23:09.955Z</time></trkpt><trkpt lat="43.69218068135686" lon="11.182522194465404"><ele>239.33333333333331</ele><time>2026-04-03T10:23:10.955Z</time></trkpt><trkpt lat="43.692327791753115" lon="11.182637295392574"><ele>240.66666666666669</ele><time>2026-04-03T10:23:11.953Z</time></trkpt><trkpt lat="43.69246938401459" lon="11.182765829894912"><ele>242.0</ele><time>2026-04-03T10:23:12.953Z</time></trkpt><trkpt lat="43.69260514734744" lon="11.182931666477572"><ele>241.66666666666669</ele><time>2026-04-03T10:23:13.953Z</time></trkpt><trkpt lat="43.69277052529457" lon="11.183091101370335"><ele>241.33333333333331</ele><time>2026-04-03T10:23:14.954Z</time></trkpt><trkpt lat="43.692959145405766" lon="11.183261219689252"><ele>241.0</ele><time>2026-04-03T10:23:15.953Z</time></trkpt><trkpt lat="43.693150692418506" lon="11.183438823998978"><ele>241.0</ele><time>2026-04-03T10:23:16.953Z</time></trkpt><trkpt lat="43.69333371395867" lon="11.183635695828215"><ele>241.0</ele><time>2026-04-03T10:23:17.953Z</time></trkpt><trkpt lat="43.693486530076015" lon="11.183822371596431"><ele>241.0</ele><time>2026-04-03T10:23:18.953Z</time></trkpt><trkpt lat="43.69361779397313" lon="11.183991654685775"><ele>240.33333333333331</ele><time>2026-04-03T10:23:19.953Z</time></trkpt><trkpt lat="43.69375161188133" lon="11.184136773298953"><ele>239.66666666666669</ele><time>2026-04-03T10:23:20.953Z</time></trkpt><trkpt lat="43.693887146155916" lon="11.184253309218663"><ele>239.0</ele><time>2026-04-03T10:23:21.953Z</time></trkpt><trkpt lat="43.69402433614321" lon="11.184328501570254"><ele>239.0</ele><time>2026-04-03T10:23:22.953Z</time></trkpt><trkpt lat="43.69417110158356" lon="11.184383237703626"><ele>239.0</ele><time>2026-04-03T10:23:23.954Z</time></trkpt><trkpt lat="43.6943398793542" lon="11.184373676717215"><ele>239.0</ele><time>2026-04-03T10:23:24.953Z</time></trkpt><trkpt lat="43.69451812741745" lon="11.184322398720989"><ele>238.66666666666669</ele><time>2026-04-03T10:23:25.953Z</time></trkpt><trkpt lat="43.69470153062276" lon="11.184251902844139"><ele>238.33333333333331</ele><time>2026-04-03T10:23:26.953Z</time></trkpt><trkpt lat="43.694879566368364" lon="11.18417922357327"><ele>238.0</ele><time>2026-04-03T10:23:27.953Z</time></trkpt><trkpt lat="43.69502724052242" lon="11.184125442374974"><ele>238.0</ele><time>2026-04-03T10:23:28.953Z</time></trkpt><trkpt lat="43.69516637546282" lon="11.184081745207873"><ele>238.0</ele><time>2026-04-03T10:23:29.953Z</time></trkpt><trkpt lat="43.695297944582585" lon="11.184056120918385"><ele>238.0</ele><time>2026-04-03T10:23:30.953Z</time></trkpt><trkpt lat="43.69543339631094" lon="11.184019523246974"><ele>238.0</ele><time>2026-04-03T10:23:31.953Z</time></trkpt><trkpt lat="43.695580189056066" lon="11.184025777239093"><ele>238.75</ele><time>2026-04-03T10:23:32.953Z</time></trkpt><trkpt lat="43.69572630588395" lon="11.184028872722703"><ele>239.5</ele><time>2026-04-03T10:23:33.953Z</time></trkpt><trkpt lat="43.6958564062953" lon="11.184040073383134"><ele>240.25</ele><time>2026-04-03T10:23:34.953Z</time></trkpt><trkpt lat="43.695968580052025" lon="11.184030129673197"><ele>241.0</ele><time>2026-04-03T10:23:35.953Z</time></trkpt><trkpt lat="43.69605531648719" lon="11.184043893401078"><ele>241.16666666666666</ele><time>2026-04-03T10:23:36.953Z</time></trkpt><trkpt lat="43.69613234337962" lon="11.184052289402059"><ele>241.33333333333331</ele><time>2026-04-03T10:23:37.953Z</time></trkpt><trkpt lat="43.696204182936114" lon="11.184059624462849"><ele>241.5</ele><time>2026-04-03T10:23:38.953Z</time></trkpt><trkpt lat="43.69628939879627" lon="11.184048468935414"><ele>241.66666666666669</ele><time>2026-04-03T10:23:39.953Z</time></trkpt><trkpt lat="43.69638674435097" lon="11.18402853729461"><ele>241.83333333333334</ele><time>2026-04-03T10:23:40.954Z</time></trkpt><trkpt lat="43.69646835573019" lon="11.18401222815792"><ele>242.0</ele><time>2026-04-03T10:23:41.954Z</time></trkpt><trkpt lat="43.69654917833009" lon="11.18400620088093"><ele>241.00000000000003</ele><time>2026-04-03T10:23:42.954Z</time></trkpt><trkpt lat="43.69662530235144" lon="11.183992113858828"><ele>240.0</ele><time>2026-04-03T10:23:43.954Z</time></trkpt><trkpt lat="43.696704997693466" lon="11.183985909967475"><ele>239.0</ele><time>2026-04-03T10:23:44.954Z</time></trkpt><trkpt lat="43.696787127361496" lon="11.183980010682625"><ele>238.0</ele><time>2026-04-03T10:23:45.954Z</time></trkpt><trkpt lat="43.69686757237523" lon="11.1839764495601"><ele>237.00000000000003</ele><time>2026-04-03T10:23:46.954Z</time></trkpt><trkpt lat="43.69694723119042" lon="11.183977987199123"><ele>236.0</ele><time>2026-04-03T10:23:47.954Z</time></trkpt><trkpt lat="43.69702893736012" lon="11.183985482779178"><ele>236.33333333333334</ele><time>2026-04-03T10:23:48.954Z</time></trkpt><trkpt lat="43.69711593339081" lon="11.183996045159514"><ele>236.66666666666669</ele><time>2026-04-03T10:23:49.954Z</time></trkpt><trkpt lat="43.69720760046897" lon="11.18401092544776"><ele>237.0</ele><time>2026-04-03T10:23:50.954Z</time></trkpt><trkpt lat="43.69728745235487" lon="11.1840266755956"><ele>237.33333333333331</ele><time>2026-04-03T10:23:51.954Z</time></trkpt><trkpt lat="43.6973620530751" lon="11.184046052213366"><ele>237.66666666666666</ele><time>2026-04-03T10:23:52.954Z</time></trkpt><trkpt lat="43.69743565396007" lon="11.184065378129404"><ele>238.0</ele><time>2026-04-03T10:23:53.954Z</time></trkpt><trkpt lat="43.69751893060158" lon="11.184090299553063"><ele>237.99999999999997</ele><time>2026-04-03T10:23:54.954Z</time></trkpt><trkpt lat="43.69760276180688" lon="11.184119868691893"><ele>238.0</ele><time>2026-04-03T10:23:55.954Z</time></trkpt><trkpt lat="43.69767912212963" lon="11.184149917217315"><ele>238.0</ele><time>2026-04-03T10:23:56.954Z</time></trkpt><trkpt lat="43.69775557841143" lon="11.184181779874114"><ele>238.0</ele><time>2026-04-03T10:23:57.954Z</time></trkpt><trkpt lat="43.697826200845036" lon="11.184214899251153"><ele>237.99999999999997</ele><time>2026-04-03T10:23:58.954Z</time></trkpt><trkpt lat="43.69789996527157" lon="11.184254112681545"><ele>238.0</ele><time>2026-04-03T10:23:59.954Z</time></trkpt><trkpt lat="43.69797314909856" lon="11.184301831306229"><ele>238.16666666666666</ele><time>2026-04-03T10:24:00.954Z</time></trkpt><trkpt lat="43.698039326930044" lon="11.184354930421001"><ele>238.33333333333331</ele><time>2026-04-03T10:24:01.954Z</time></trkpt><trkpt lat="43.69812053590957" lon="11.184393713705422"><ele>238.5</ele><time>2026-04-03T10:24:02.954Z</time></trkpt><trkpt lat="43.698192256804724" lon="11.184444443937089"><ele>238.66666666666669</ele><time>2026-04-03T10:24:03.954Z</time></trkpt><trkpt lat="43.698266554760096" lon="11.18450449820073"><ele>238.83333333333334</ele><time>2026-04-03T10:24:04.954Z</time></trkpt><trkpt lat="43.6983322042145" lon="11.184575939948342"><ele>239.0</ele><time>2026-04-03T10:24:05.954Z</time></trkpt><trkpt lat="43.69838047073635" lon="11.184663872488658"><ele>239.0</ele><time>2026-04-03T10:24:06.954Z</time></trkpt><trkpt lat="43.6984396570787" lon="11.184739241398907"><ele>238.99999999999997</ele><time>2026-04-03T10:24:07.954Z</time></trkpt><trkpt lat="43.698481341445216" lon="11.184847866373664"><ele>238.99999999999997</ele><time>2026-04-03T10:24:08.954Z</time></trkpt><trkpt lat="43.698546713401214" lon="11.184925607427047"><ele>239.0</ele><time>2026-04-03T10:24:09.954Z</time></trkpt><trkpt lat="43.69859982218407" lon="11.185025805149944"><ele>239.0</ele><time>2026-04-03T10:24:10.954Z</time></trkpt><trkpt lat="43.69871499295386" lon="11.18508027905363"><ele>237.33333333333334</ele><time>2026-04-03T10:24:11.954Z</time></trkpt><trkpt lat="43.6988728194923" lon="11.185125500246773"><ele>235.66666666666669</ele><time>2026-04-03T10:24:12.954Z</time></trkpt><trkpt lat="43.699055881226634" lon="11.18514222621419"><ele>234.0</ele><time>2026-04-03T10:24:13.954Z</time></trkpt><trkpt lat="43.69924436039262" lon="11.18505533306805"><ele>234.0</ele><time>2026-04-03T10:24:14.954Z</time></trkpt><trkpt lat="43.69942001635817" lon="11.184962302622063"><ele>234.0</ele><time>2026-04-03T10:24:15.954Z</time></trkpt><trkpt lat="43.69960714063673" lon="11.184948648732986"><ele>234.0</ele><time>2026-04-03T10:24:16.954Z</time></trkpt><trkpt lat="43.69975564703243" lon="11.18492032592015"><ele>234.0</ele><time>2026-04-03T10:24:17.954Z</time></trkpt><trkpt lat="43.6999173703208" lon="11.184926824030423"><ele>234.0</ele><time>2026-04-03T10:24:18.954Z</time></trkpt><trkpt lat="43.70009488464247" lon="11.184954980644251"><ele>234.0</ele><time>2026-04-03T10:24:19.954Z</time></trkpt><trkpt lat="43.70028467640608" lon="11.18498678601025"><ele>233.66666666666669</ele><time>2026-04-03T10:24:20.954Z</time></trkpt><trkpt lat="43.70046782894984" lon="11.185029349427046"><ele>233.33333333333334</ele><time>2026-04-03T10:24:21.954Z</time></trkpt><trkpt lat="43.70064130750061" lon="11.185103187343362"><ele>233.0</ele><time>2026-04-03T10:24:22.954Z</time></trkpt><trkpt lat="43.70080927765913" lon="11.185199608028704"><ele>233.0</ele><time>2026-04-03T10:24:23.954Z</time></trkpt><trkpt lat="43.70097662176267" lon="11.185307564503818"><ele>233.0</ele><time>2026-04-03T10:24:24.954Z</time></trkpt><trkpt lat="43.7011254761615" lon="11.18541629048186"><ele>233.0</ele><time>2026-04-03T10:24:25.954Z</time></trkpt><trkpt lat="43.7012795016636" lon="11.185516669787685"><ele>233.33333333333334</ele><time>2026-04-03T10:24:26.954Z</time></trkpt><trkpt lat="43.70143072557198" lon="11.185613211774223"><ele>233.66666666666669</ele><time>2026-04-03T10:24:27.954Z</time></trkpt><trkpt lat="43.70158010410757" lon="11.185705116776711"><ele>234.0</ele><time>2026-04-03T10:24:28.954Z</time></trkpt><trkpt lat="43.701731653519296" lon="11.185801157747605"><ele>234.0</ele><time>2026-04-03T10:24:29.954Z</time></trkpt><trkpt lat="43.701877374399174" lon="11.18588049757547"><ele>234.0</ele><time>2026-04-03T10:24:30.954Z</time></trkpt><trkpt lat="43.70201464236282" lon="11.185921765521087"><ele>234.0</ele><time>2026-04-03T10:24:31.954Z</time></trkpt><trkpt lat="43.70215425838561" lon="11.185923097651395"><ele>234.0</ele><time>2026-04-03T10:24:32.954Z</time></trkpt><trkpt lat="43.702306018687324" lon="11.185907659419174"><ele>234.0</ele><time>2026-04-03T10:24:33.954Z</time></trkpt><trkpt lat="43.70247103684276" lon="11.185854765767758"><ele>234.0</ele><time>2026-04-03T10:24:34.954Z</time></trkpt><trkpt lat="43.702628985350565" lon="11.185785332412047"><ele>234.0</ele><time>2026-04-03T10:24:35.954Z</time></trkpt><trkpt lat="43.70278231281196" lon="11.185736156775295"><ele>234.0</ele><time>2026-04-03T10:24:36.954Z</time></trkpt><trkpt lat="43.70292665782353" lon="11.185709287198174"><ele>234.0</ele><time>2026-04-03T10:24:37.954Z</time></trkpt><trkpt lat="43.70306783597756" lon="11.185701970975524"><ele>234.0</ele><time>2026-04-03T10:24:38.954Z</time></trkpt><trkpt lat="43.7032152824506" lon="11.185701049476531"><ele>234.0</ele><time>2026-04-03T10:24:39.954Z</time></trkpt><trkpt lat="43.7033587447935" lon="11.185704890014899"><ele>234.0</ele><time>2026-04-03T10:24:40.954Z</time></trkpt><trkpt lat="43.7035075956651" lon="11.185712751750575"><ele>234.0</ele><time>2026-04-03T10:24:41.954Z</time></trkpt><trkpt lat="43.70364731729898" lon="11.185720392077364"><ele>234.0</ele><time>2026-04-03T10:24:42.954Z</time></trkpt><trkpt lat="43.70380367697837" lon="11.185728942198763"><ele>234.0</ele><time>2026-04-03T10:24:43.954Z</time></trkpt><trkpt lat="43.70397547650132" lon="11.185748840927667"><ele>234.0</ele><time>2026-04-03T10:24:44.954Z</time></trkpt><trkpt lat="43.704141545096256" lon="11.185749440611602"><ele>234.0</ele><time>2026-04-03T10:24:45.954Z</time></trkpt><trkpt lat="43.704282835404385" lon="11.185778469106838"><ele>234.0</ele><time>2026-04-03T10:24:46.954Z</time></trkpt><trkpt lat="43.70442855761233" lon="11.185819003862658"><ele>233.6</ele><time>2026-04-03T10:24:47.954Z</time></trkpt><trkpt lat="43.70455607778869" lon="11.185860014688492"><ele>233.2</ele><time>2026-04-03T10:24:48.954Z</time></trkpt><trkpt lat="43.704670120136505" lon="11.185897825301367"><ele>232.79999999999998</ele><time>2026-04-03T10:24:49.954Z</time></trkpt><trkpt lat="43.70478253835838" lon="11.185925617815276"><ele>232.39999999999998</ele><time>2026-04-03T10:24:50.954Z</time></trkpt><trkpt lat="43.704863187139495" lon="11.185920870213902"><ele>232.0</ele><time>2026-04-03T10:24:51.954Z</time></trkpt><trkpt lat="43.704939359082466" lon="11.185914182574736"><ele>232.0</ele><time>2026-04-03T10:24:53.954Z</time></trkpt><trkpt lat="43.70504773771597" lon="11.186012503434757"><ele>232.0</ele><time>2026-04-03T10:24:55.954Z</time></trkpt><trkpt lat="43.70514325507522" lon="11.186078702672171"><ele>232.0</ele><time>2026-04-03T10:24:56.954Z</time></trkpt><trkpt lat="43.705268956517735" lon="11.186143822328612"><ele>232.0</ele><time>2026-04-03T10:24:57.954Z</time></trkpt><trkpt lat="43.705406573097605" lon="11.186211246680097"><ele>232.66666666666666</ele><time>2026-04-03T10:24:58.954Z</time></trkpt><trkpt lat="43.7055606459888" lon="11.18627028815816"><ele>233.33333333333331</ele><time>2026-04-03T10:24:59.954Z</time></trkpt><trkpt lat="43.705718602871045" lon="11.18631289877848"><ele>234.0</ele><time>2026-04-03T10:25:00.954Z</time></trkpt><trkpt lat="43.70588834143875" lon="11.186339890099342"><ele>233.0</ele><time>2026-04-03T10:25:01.954Z</time></trkpt><trkpt lat="43.706102815322815" lon="11.186362267644649"><ele>232.0</ele><time>2026-04-03T10:25:02.954Z</time></trkpt><trkpt lat="43.70629244700668" lon="11.186389662494042"><ele>231.0</ele><time>2026-04-03T10:25:03.954Z</time></trkpt><trkpt lat="43.70645395240781" lon="11.186439945094255"><ele>229.66666666666669</ele><time>2026-04-03T10:25:04.954Z</time></trkpt><trkpt lat="43.706607199961375" lon="11.186542556534482"><ele>228.33333333333334</ele><time>2026-04-03T10:25:05.954Z</time></trkpt><trkpt lat="43.70674136432047" lon="11.186645061566098"><ele>227.0</ele><time>2026-04-03T10:25:06.954Z</time></trkpt><trkpt lat="43.706880841462805" lon="11.186753417781704"><ele>225.66666666666669</ele><time>2026-04-03T10:25:07.954Z</time></trkpt><trkpt lat="43.70703965414022" lon="11.186834180083983"><ele>224.33333333333331</ele><time>2026-04-03T10:25:08.954Z</time></trkpt><trkpt lat="43.70720142019014" lon="11.186891460771717"><ele>223.0</ele><time>2026-04-03T10:25:09.954Z</time></trkpt><trkpt lat="43.70737478713186" lon="11.186928479111042"><ele>223.0</ele><time>2026-04-03T10:25:10.954Z</time></trkpt><trkpt lat="43.707559183434064" lon="11.186956391939589"><ele>223.0</ele><time>2026-04-03T10:25:11.954Z</time></trkpt><trkpt lat="43.70774123810872" lon="11.186987771246509"><ele>223.0</ele><time>2026-04-03T10:25:12.954Z</time></trkpt><trkpt lat="43.707925273823065" lon="11.187046514416782"><ele>221.0</ele><time>2026-04-03T10:25:13.954Z</time></trkpt><trkpt lat="43.70808618408516" lon="11.187121615433608"><ele>219.0</ele><time>2026-04-03T10:25:14.954Z</time></trkpt><trkpt lat="43.708246994308006" lon="11.187170249060898"><ele>217.0</ele><time>2026-04-03T10:25:15.954Z</time></trkpt><trkpt lat="43.70839692780126" lon="11.18724347810232"><ele>217.0</ele><time>2026-04-03T10:25:16.954Z</time></trkpt><trkpt lat="43.70852495146572" lon="11.187340690062904"><ele>217.0</ele><time>2026-04-03T10:25:17.952Z</time></trkpt><trkpt lat="43.708657050378264" lon="11.187470986683305"><ele>217.0</ele><time>2026-04-03T10:25:18.952Z</time></trkpt><trkpt lat="43.70878565424412" lon="11.187591462150722"><ele>215.66666666666666</ele><time>2026-04-03T10:25:19.952Z</time></trkpt><trkpt lat="43.708926736679054" lon="11.187728415526628"><ele>214.33333333333331</ele><time>2026-04-03T10:25:20.952Z</time></trkpt><trkpt lat="43.709076916655164" lon="11.187876014144246"><ele>213.0</ele><time>2026-04-03T10:25:21.952Z</time></trkpt><trkpt lat="43.70923403539347" lon="11.188025769766696"><ele>213.0</ele><time>2026-04-03T10:25:22.952Z</time></trkpt><trkpt lat="43.70938922005642" lon="11.188169059261257"><ele>213.0</ele><time>2026-04-03T10:25:23.952Z</time></trkpt><trkpt lat="43.70954556863462" lon="11.188296107427929"><ele>213.0</ele><time>2026-04-03T10:25:24.951Z</time></trkpt><trkpt lat="43.70969669126425" lon="11.188413715830116"><ele>213.0</ele><time>2026-04-03T10:25:25.951Z</time></trkpt><trkpt lat="43.70984532836081" lon="11.188528127158042"><ele>213.0</ele><time>2026-04-03T10:25:26.951Z</time></trkpt><trkpt lat="43.71000305640877" lon="11.188646999389938"><ele>213.0</ele><time>2026-04-03T10:25:27.952Z</time></trkpt><trkpt lat="43.710169567570844" lon="11.188766893030204"><ele>213.33333333333331</ele><time>2026-04-03T10:25:28.952Z</time></trkpt><trkpt lat="43.71034861647359" lon="11.188868776673882"><ele>213.66666666666666</ele><time>2026-04-03T10:25:29.952Z</time></trkpt><trkpt lat="43.710531830467865" lon="11.188959570128596"><ele>214.0</ele><time>2026-04-03T10:25:30.952Z</time></trkpt><trkpt lat="43.71072948552564" lon="11.18903634388152"><ele>214.0</ele><time>2026-04-03T10:25:31.952Z</time></trkpt><trkpt lat="43.710945742165684" lon="11.18910280998864"><ele>214.0</ele><time>2026-04-03T10:25:32.952Z</time></trkpt><trkpt lat="43.71115553301078" lon="11.189160248308559"><ele>214.0</ele><time>2026-04-03T10:25:33.952Z</time></trkpt><trkpt lat="43.71137183147241" lon="11.189198135369784"><ele>214.66666666666666</ele><time>2026-04-03T10:25:34.952Z</time></trkpt><trkpt lat="43.711591993195405" lon="11.189185695367462"><ele>215.33333333333331</ele><time>2026-04-03T10:25:35.952Z</time></trkpt><trkpt lat="43.71176689825599" lon="11.189168627105282"><ele>216.0</ele><time>2026-04-03T10:25:36.952Z</time></trkpt><trkpt lat="43.71191707809921" lon="11.18917387336691"><ele>216.5</ele><time>2026-04-03T10:25:37.952Z</time></trkpt><trkpt lat="43.71204913367205" lon="11.189135554211978"><ele>217.0</ele><time>2026-04-03T10:25:38.952Z</time></trkpt><trkpt lat="43.71218436815429" lon="11.189128054394402"><ele>217.5</ele><time>2026-04-03T10:25:39.952Z</time></trkpt><trkpt lat="43.7123096457153" lon="11.189070528632813"><ele>218.0</ele><time>2026-04-03T10:25:40.952Z</time></trkpt><trkpt lat="43.71240474232418" lon="11.188962849529664"><ele>216.66666666666669</ele><time>2026-04-03T10:25:41.952Z</time></trkpt><trkpt lat="43.71251822957406" lon="11.188800973055605"><ele>215.33333333333331</ele><time>2026-04-03T10:25:42.952Z</time></trkpt><trkpt lat="43.71261304472242" lon="11.18856845668722"><ele>214.0</ele><time>2026-04-03T10:25:43.952Z</time></trkpt><trkpt lat="43.71267514313906" lon="11.188271500425083"><ele>213.66666666666666</ele><time>2026-04-03T10:25:44.952Z</time></trkpt><trkpt lat="43.712743406014084" lon="11.188023217394688"><ele>213.33333333333331</ele><time>2026-04-03T10:25:45.952Z</time></trkpt><trkpt lat="43.712861125305984" lon="11.187814688095239"><ele>213.0</ele><time>2026-04-03T10:25:46.952Z</time></trkpt><trkpt lat="43.71299431986588" lon="11.187661005739198"><ele>213.0</ele><time>2026-04-03T10:25:47.952Z</time></trkpt><trkpt lat="43.71314248600177" lon="11.187560980733984"><ele>213.0</ele><time>2026-04-03T10:25:48.952Z</time></trkpt><trkpt lat="43.7133097770541" lon="11.18749182027005"><ele>213.0</ele><time>2026-04-03T10:25:49.952Z</time></trkpt><trkpt lat="43.71349906680722" lon="11.187437375272708"><ele>211.66666666666669</ele><time>2026-04-03T10:25:50.952Z</time></trkpt><trkpt lat="43.71369420372056" lon="11.187393118197667"><ele>210.33333333333334</ele><time>2026-04-03T10:25:51.952Z</time></trkpt><trkpt lat="43.71391857652202" lon="11.187377331790035"><ele>209.0</ele><time>2026-04-03T10:25:52.952Z</time></trkpt><trkpt lat="43.714115149384575" lon="11.187376353328675"><ele>209.0</ele><time>2026-04-03T10:25:53.952Z</time></trkpt><trkpt lat="43.714292273976575" lon="11.187382115172069"><ele>209.0</ele><time>2026-04-03T10:25:54.952Z</time></trkpt><trkpt lat="43.71445225150499" lon="11.187426792789482"><ele>209.0</ele><time>2026-04-03T10:25:55.952Z</time></trkpt><trkpt lat="43.714619214396684" lon="11.187541246053943"><ele>201.5</ele><time>2026-04-03T10:25:56.952Z</time></trkpt><trkpt lat="43.71483131039699" lon="11.187716887756542"><ele>194.0</ele><time>2026-04-03T10:25:57.952Z</time></trkpt><trkpt lat="43.71504340244089" lon="11.187895669489174"><ele>192.5</ele><time>2026-04-03T10:25:58.952Z</time></trkpt><trkpt lat="43.71525052679521" lon="11.188064377748123"><ele>191.0</ele><time>2026-04-03T10:25:59.952Z</time></trkpt><trkpt lat="43.71543717408092" lon="11.188252635312418"><ele>191.0</ele><time>2026-04-03T10:26:00.952Z</time></trkpt><trkpt lat="43.7156050297461" lon="11.188400517762515"><ele>191.0</ele><time>2026-04-03T10:26:01.952Z</time></trkpt><trkpt lat="43.715766074991755" lon="11.188560204222957"><ele>191.0</ele><time>2026-04-03T10:26:02.952Z</time></trkpt><trkpt lat="43.715905322772464" lon="11.18877941694947"><ele>191.0</ele><time>2026-04-03T10:26:03.952Z</time></trkpt><trkpt lat="43.71604028872744" lon="11.188996315082065"><ele>191.0</ele><time>2026-04-03T10:26:04.952Z</time></trkpt><trkpt lat="43.716167086062526" lon="11.18919707363105"><ele>191.0</ele><time>2026-04-03T10:26:05.952Z</time></trkpt><trkpt lat="43.71628074435297" lon="11.189336365113087"><ele>187.0</ele><time>2026-04-03T10:26:06.952Z</time></trkpt><trkpt lat="43.716394374075556" lon="11.18946535244451"><ele>183.0</ele><time>2026-04-03T10:26:07.952Z</time></trkpt><trkpt lat="43.71643284517993" lon="11.189669369026563"><ele>179.0</ele><time>2026-04-03T10:26:08.952Z</time></trkpt><trkpt lat="43.71645129682735" lon="11.189882855601248"><ele>179.0</ele><time>2026-04-03T10:26:09.952Z</time></trkpt><trkpt lat="43.716466719325034" lon="11.190156569382891"><ele>179.0</ele><time>2026-04-03T10:26:10.952Z</time></trkpt><trkpt lat="43.71647418603362" lon="11.190428912976282"><ele>179.0</ele><time>2026-04-03T10:26:11.952Z</time></trkpt><trkpt lat="43.71645617877458" lon="11.190656652898781"><ele>179.0</ele><time>2026-04-03T10:26:12.952Z</time></trkpt><trkpt lat="43.716410225966065" lon="11.190869696332085"><ele>179.0</ele><time>2026-04-03T10:26:13.952Z</time></trkpt><trkpt lat="43.71632665166369" lon="11.191113672775545"><ele>179.0</ele><time>2026-04-03T10:26:14.952Z</time></trkpt><trkpt lat="43.71623242991064" lon="11.191363970216601"><ele>179.0</ele><time>2026-04-03T10:26:15.952Z</time></trkpt><trkpt lat="43.716186886388584" lon="11.191586107337042"><ele>179.0</ele><time>2026-04-03T10:26:16.952Z</time></trkpt><trkpt lat="43.71617608412889" lon="11.191780603049157"><ele>179.0</ele><time>2026-04-03T10:26:17.952Z</time></trkpt><trkpt lat="43.71617950618836" lon="11.191935912591948"><ele>179.0</ele><time>2026-04-03T10:26:18.952Z</time></trkpt><trkpt lat="43.716254596722656" lon="11.1920714938902"><ele>179.0</ele><time>2026-04-03T10:26:19.952Z</time></trkpt><trkpt lat="43.71635771491806" lon="11.192255729282703"><ele>179.0</ele><time>2026-04-03T10:26:20.952Z</time></trkpt><trkpt lat="43.71656070773912" lon="11.192545323051888"><ele>180.0</ele><time>2026-04-03T10:26:21.952Z</time></trkpt><trkpt lat="43.716758127464054" lon="11.192770164303068"><ele>181.0</ele><time>2026-04-03T10:26:22.952Z</time></trkpt><trkpt lat="43.71693091234337" lon="11.192988900617028"><ele>180.66666666666669</ele><time>2026-04-03T10:26:23.952Z</time></trkpt><trkpt lat="43.71709660712342" lon="11.193179955156207"><ele>180.33333333333334</ele><time>2026-04-03T10:26:24.952Z</time></trkpt><trkpt lat="43.71725238744359" lon="11.193330273014187"><ele>180.0</ele><time>2026-04-03T10:26:25.952Z</time></trkpt><trkpt lat="43.71741891957011" lon="11.193465941176228"><ele>180.0</ele><time>2026-04-03T10:26:26.952Z</time></trkpt><trkpt lat="43.71759129789516" lon="11.193608432696573"><ele>180.0</ele><time>2026-04-03T10:26:27.952Z</time></trkpt><trkpt lat="43.71776990591789" lon="11.193742354799346"><ele>180.0</ele><time>2026-04-03T10:26:28.952Z</time></trkpt><trkpt lat="43.71794013379365" lon="11.193865900283818"><ele>180.33333333333334</ele><time>2026-04-03T10:26:29.952Z</time></trkpt><trkpt lat="43.718097980232024" lon="11.193979352329151"><ele>180.66666666666669</ele><time>2026-04-03T10:26:30.952Z</time></trkpt><trkpt lat="43.7182419801589" lon="11.194071322733116"><ele>181.0</ele><time>2026-04-03T10:26:31.952Z</time></trkpt><trkpt lat="43.71836314871184" lon="11.194152997601622"><ele>181.0</ele><time>2026-04-03T10:26:32.952Z</time></trkpt><trkpt lat="43.71845838501249" lon="11.194217415840537"><ele>181.0</ele><time>2026-04-03T10:26:33.952Z</time></trkpt><trkpt lat="43.718520870964134" lon="11.194261976638998"><ele>181.0</ele><time>2026-04-03T10:26:34.952Z</time></trkpt><trkpt lat="43.71859549199854" lon="11.194395229298728"><ele>181.0</ele><time>2026-04-03T10:26:36.952Z</time></trkpt><trkpt lat="43.718598690366676" lon="11.194492544886982"><ele>181.0</ele><time>2026-04-03T10:26:37.952Z</time></trkpt><trkpt lat="43.718615850256754" lon="11.194618193879009"><ele>183.75</ele><time>2026-04-03T10:26:38.952Z</time></trkpt><trkpt lat="43.718625098062134" lon="11.194795510274837"><ele>186.5</ele><time>2026-04-03T10:26:39.952Z</time></trkpt><trkpt lat="43.71863341556547" lon="11.194976823173116"><ele>189.25</ele><time>2026-04-03T10:26:40.952Z</time></trkpt><trkpt lat="43.71864111300232" lon="11.195149649613903"><ele>192.0</ele><time>2026-04-03T10:26:41.952Z</time></trkpt><trkpt lat="43.718650712292096" lon="11.195346204563927"><ele>193.5</ele><time>2026-04-03T10:26:42.952Z</time></trkpt><trkpt lat="43.718660714461194" lon="11.195532381058591"><ele>195.0</ele><time>2026-04-03T10:26:43.952Z</time></trkpt><trkpt lat="43.71867157452289" lon="11.195716069247025"><ele>196.5</ele><time>2026-04-03T10:26:44.952Z</time></trkpt><trkpt lat="43.71869782963566" lon="11.195883228431786"><ele>198.0</ele><time>2026-04-03T10:26:45.952Z</time></trkpt><trkpt lat="43.71869205990897" lon="11.19604640239561"><ele>198.60000000000002</ele><time>2026-04-03T10:26:46.952Z</time></trkpt><trkpt lat="43.718698967443885" lon="11.196201062885457"><ele>199.20000000000002</ele><time>2026-04-03T10:26:47.952Z</time></trkpt><trkpt lat="43.718708608487674" lon="11.196342894934144"><ele>199.8</ele><time>2026-04-03T10:26:48.952Z</time></trkpt><trkpt lat="43.718719974602394" lon="11.196478958828239"><ele>200.4</ele><time>2026-04-03T10:26:49.952Z</time></trkpt><trkpt lat="43.71873600784612" lon="11.196614571136442"><ele>201.0</ele><time>2026-04-03T10:26:50.952Z</time></trkpt><trkpt lat="43.71876343974182" lon="11.196712927831767"><ele>201.8</ele><time>2026-04-03T10:26:51.952Z</time></trkpt><trkpt lat="43.718815262225746" lon="11.196822254043699"><ele>202.60000000000002</ele><time>2026-04-03T10:26:53.952Z</time></trkpt><trkpt lat="43.718837162469164" lon="11.196926349562725"><ele>203.4</ele><time>2026-04-03T10:26:55.952Z</time></trkpt><trkpt lat="43.718887603642834" lon="11.19707623369788"><ele>204.2</ele><time>2026-04-03T10:26:57.952Z</time></trkpt><trkpt lat="43.718915491262976" lon="11.197181775537327"><ele>205.0</ele><time>2026-04-03T10:26:59.952Z</time></trkpt><trkpt lat="43.71898462768929" lon="11.197299981546752"><ele>204.99999999999997</ele><time>2026-04-03T10:27:01.952Z</time></trkpt><trkpt lat="43.719054552281094" lon="11.197343341085894"><ele>205.0</ele><time>2026-04-03T10:27:05.952Z</time></trkpt><trkpt lat="43.71912436142691" lon="11.197331896978032"><ele>205.0</ele><time>2026-04-03T10:27:07.952Z</time></trkpt><trkpt lat="43.719059302626725" lon="11.197300281443727"><ele>205.0</ele><time>2026-04-03T10:30:26.939Z</time></trkpt><trkpt lat="43.71917205981351" lon="11.19735996990615"><ele>204.99999999999997</ele><time>2026-04-03T10:30:31.939Z</time></trkpt><trkpt lat="43.719235507965216" lon="11.19746918319092"><ele>205.0</ele><time>2026-04-03T10:30:32.939Z</time></trkpt><trkpt lat="43.71933388069838" lon="11.19757024967427"><ele>202.0</ele><time>2026-04-03T10:30:33.939Z</time></trkpt><trkpt lat="43.71945743521238" lon="11.19766875796263"><ele>199.0</ele><time>2026-04-03T10:30:34.939Z</time></trkpt><trkpt lat="43.719597945171046" lon="11.197827970538391"><ele>196.0</ele><time>2026-04-03T10:30:35.939Z</time></trkpt><trkpt lat="43.719743804188624" lon="11.197943057506484"><ele>196.0</ele><time>2026-04-03T10:30:36.939Z</time></trkpt><trkpt lat="43.71989864984383" lon="11.198052660971985"><ele>196.0</ele><time>2026-04-03T10:30:37.939Z</time></trkpt><trkpt lat="43.72005049752133" lon="11.198143514585144"><ele>196.0</ele><time>2026-04-03T10:30:38.939Z</time></trkpt><trkpt lat="43.72018940610661" lon="11.19824171274521"><ele>191.0</ele><time>2026-04-03T10:30:39.939Z</time></trkpt><trkpt lat="43.720320839715896" lon="11.198334550496716"><ele>186.0</ele><time>2026-04-03T10:30:40.939Z</time></trkpt><trkpt lat="43.72045807558268" lon="11.198422564293514"><ele>181.0</ele><time>2026-04-03T10:30:41.939Z</time></trkpt><trkpt lat="43.720603987231755" lon="11.198520592983908"><ele>181.0</ele><time>2026-04-03T10:30:42.939Z</time></trkpt><trkpt lat="43.720741392461655" lon="11.198620967539917"><ele>181.0</ele><time>2026-04-03T10:30:43.939Z</time></trkpt><trkpt lat="43.72087808322102" lon="11.198720135479933"><ele>181.0</ele><time>2026-04-03T10:30:44.939Z</time></trkpt><trkpt lat="43.72100835293837" lon="11.198812462217475"><ele>179.60000000000002</ele><time>2026-04-03T10:30:45.939Z</time></trkpt><trkpt lat="43.72111516444512" lon="11.198888767113248"><ele>178.2</ele><time>2026-04-03T10:30:46.939Z</time></trkpt><trkpt lat="43.72120730582118" lon="11.198953538753186"><ele>176.8</ele><time>2026-04-03T10:30:47.939Z</time></trkpt><trkpt lat="43.72126992350086" lon="11.198996728347058"><ele>175.39999999999998</ele><time>2026-04-03T10:30:48.939Z</time></trkpt><trkpt lat="43.721371700474414" lon="11.199075489899181"><ele>174.0</ele><time>2026-04-03T10:30:50.939Z</time></trkpt><trkpt lat="43.721449295388815" lon="11.199094309969803"><ele>173.33333333333334</ele><time>2026-04-03T10:30:51.939Z</time></trkpt><trkpt lat="43.72156367745582" lon="11.19919783603039"><ele>172.66666666666669</ele><time>2026-04-03T10:30:52.939Z</time></trkpt><trkpt lat="43.721767876161884" lon="11.199281800220204"><ele>172.0</ele><time>2026-04-03T10:30:53.939Z</time></trkpt><trkpt lat="43.72194204139491" lon="11.199292709450326"><ele>171.33333333333334</ele><time>2026-04-03T10:30:54.939Z</time></trkpt><trkpt lat="43.72213511794598" lon="11.199294791935845"><ele>170.66666666666666</ele><time>2026-04-03T10:30:55.939Z</time></trkpt><trkpt lat="43.72229412115337" lon="11.19928767722705"><ele>170.0</ele><time>2026-04-03T10:30:56.939Z</time></trkpt><trkpt lat="43.722444433435555" lon="11.199297689037902"><ele>170.0</ele><time>2026-04-03T10:30:57.939Z</time></trkpt><trkpt lat="43.72258001513216" lon="11.199297211747242"><ele>170.0</ele><time>2026-04-03T10:30:58.939Z</time></trkpt><trkpt lat="43.72271004237444" lon="11.199286859997116"><ele>170.0</ele><time>2026-04-03T10:30:59.939Z</time></trkpt><trkpt lat="43.72284038540729" lon="11.199259442474533"><ele>170.0</ele><time>2026-04-03T10:31:00.939Z</time></trkpt><trkpt lat="43.72295506427957" lon="11.199213850735612"><ele>171.0</ele><time>2026-04-03T10:31:01.939Z</time></trkpt><trkpt lat="43.723050980400835" lon="11.199159471259275"><ele>172.0</ele><time>2026-04-03T10:31:02.939Z</time></trkpt><trkpt lat="43.723143730255664" lon="11.199103030448613"><ele>173.0</ele><time>2026-04-03T10:31:03.939Z</time></trkpt><trkpt lat="43.72323561822517" lon="11.199049064036096"><ele>174.0</ele><time>2026-04-03T10:31:04.939Z</time></trkpt><trkpt lat="43.723348110761236" lon="11.198979639819377"><ele>175.0</ele><time>2026-04-03T10:31:05.939Z</time></trkpt><trkpt lat="43.72347846033024" lon="11.198905431081743"><ele>177.0</ele><time>2026-04-03T10:31:06.939Z</time></trkpt><trkpt lat="43.72360050360726" lon="11.19884115102014"><ele>179.0</ele><time>2026-04-03T10:31:07.939Z</time></trkpt><trkpt lat="43.72373202364875" lon="11.198815879980298"><ele>181.0</ele><time>2026-04-03T10:31:08.939Z</time></trkpt><trkpt lat="43.72385544619379" lon="11.198794597875263"><ele>183.0</ele><time>2026-04-03T10:31:09.939Z</time></trkpt><trkpt lat="43.724009380702455" lon="11.198772843453504"><ele>183.0</ele><time>2026-04-03T10:31:10.939Z</time></trkpt><trkpt lat="43.72417803659562" lon="11.19875501964094"><ele>183.0</ele><time>2026-04-03T10:31:11.939Z</time></trkpt><trkpt lat="43.724321715017815" lon="11.198748958915589"><ele>183.0</ele><time>2026-04-03T10:31:12.939Z</time></trkpt><trkpt lat="43.724436220193176" lon="11.19875978819354"><ele>183.0</ele><time>2026-04-03T10:31:13.939Z</time></trkpt><trkpt lat="43.72453853533508" lon="11.19880442180613"><ele>184.66666666666666</ele><time>2026-04-03T10:31:14.939Z</time></trkpt><trkpt lat="43.724651820209274" lon="11.19888713643368"><ele>186.33333333333331</ele><time>2026-04-03T10:31:15.939Z</time></trkpt><trkpt lat="43.724784685027146" lon="11.199077527590324"><ele>188.0</ele><time>2026-04-03T10:31:16.939Z</time></trkpt><trkpt lat="43.72498537852214" lon="11.199307365651306"><ele>185.5</ele><time>2026-04-03T10:31:17.939Z</time></trkpt><trkpt lat="43.725215923492904" lon="11.199550501726739"><ele>183.0</ele><time>2026-04-03T10:31:18.939Z</time></trkpt><trkpt lat="43.725454324959294" lon="11.199790418567146"><ele>180.5</ele><time>2026-04-03T10:31:19.939Z</time></trkpt><trkpt lat="43.725661055321936" lon="11.200022871519602"><ele>178.0</ele><time>2026-04-03T10:31:20.939Z</time></trkpt><trkpt lat="43.72582897053426" lon="11.200210498342708"><ele>178.0</ele><time>2026-04-03T10:31:21.939Z</time></trkpt><trkpt lat="43.72599107872518" lon="11.20036712835472"><ele>178.0</ele><time>2026-04-03T10:31:22.939Z</time></trkpt><trkpt lat="43.72616232107442" lon="11.200523914159314"><ele>178.0</ele><time>2026-04-03T10:31:23.939Z</time></trkpt><trkpt lat="43.726381734013536" lon="11.200639237461713"><ele>175.5</ele><time>2026-04-03T10:31:24.939Z</time></trkpt><trkpt lat="43.7266071684168" lon="11.200753621282633"><ele>173.0</ele><time>2026-04-03T10:31:25.939Z</time></trkpt><trkpt lat="43.72681188062313" lon="11.200883839233759"><ele>176.0</ele><time>2026-04-03T10:31:26.939Z</time></trkpt><trkpt lat="43.72699140039876" lon="11.201042782677845"><ele>179.0</ele><time>2026-04-03T10:31:27.939Z</time></trkpt><trkpt lat="43.727197241803005" lon="11.201223953078369"><ele>179.0</ele><time>2026-04-03T10:31:28.939Z</time></trkpt><trkpt lat="43.72739848117791" lon="11.201466212751185"><ele>179.0</ele><time>2026-04-03T10:31:29.939Z</time></trkpt><trkpt lat="43.727595315446635" lon="11.201711457288289"><ele>169.5</ele><time>2026-04-03T10:31:30.939Z</time></trkpt><trkpt lat="43.72779095261757" lon="11.201958465188667"><ele>160.0</ele><time>2026-04-03T10:31:31.939Z</time></trkpt><trkpt lat="43.72799235890488" lon="11.202201632018978"><ele>161.0</ele><time>2026-04-03T10:31:32.939Z</time></trkpt><trkpt lat="43.72818832819273" lon="11.202428576765158"><ele>162.0</ele><time>2026-04-03T10:31:33.939Z</time></trkpt><trkpt lat="43.72837354355792" lon="11.202639131224608"><ele>160.0</ele><time>2026-04-03T10:31:34.939Z</time></trkpt><trkpt lat="43.72857014364929" lon="11.202827198806395"><ele>158.0</ele><time>2026-04-03T10:31:35.938Z</time></trkpt><trkpt lat="43.72876829206793" lon="11.203009752073031"><ele>161.0</ele><time>2026-04-03T10:31:36.938Z</time></trkpt><trkpt lat="43.72896054658426" lon="11.203195271451374"><ele>164.0</ele><time>2026-04-03T10:31:37.938Z</time></trkpt><trkpt lat="43.72910071739034" lon="11.203419285438407"><ele>167.0</ele><time>2026-04-03T10:31:38.938Z</time></trkpt><trkpt lat="43.72924056578012" lon="11.203626878250143"><ele>167.0</ele><time>2026-04-03T10:31:39.937Z</time></trkpt><trkpt lat="43.72935911512214" lon="11.203804023375294"><ele>167.0</ele><time>2026-04-03T10:31:40.937Z</time></trkpt><trkpt lat="43.72946799042423" lon="11.203967027894322"><ele>167.0</ele><time>2026-04-03T10:31:41.938Z</time></trkpt><trkpt lat="43.729546340127435" lon="11.204082018775974"><ele>167.0</ele><time>2026-04-03T10:31:42.937Z</time></trkpt><trkpt lat="43.729594216860555" lon="11.204149738672234"><ele>165.33333333333331</ele><time>2026-04-03T10:31:43.937Z</time></trkpt><trkpt lat="43.72966348435626" lon="11.204240700048217"><ele>163.66666666666666</ele><time>2026-04-03T10:31:45.937Z</time></trkpt><trkpt lat="43.72986559371543" lon="11.20402209306828"><ele>162.0</ele><time>2026-04-03T10:31:46.937Z</time></trkpt><trkpt lat="43.729984911958624" lon="11.203941358556229"><ele>162.0</ele><time>2026-04-03T10:31:47.937Z</time></trkpt><trkpt lat="43.73013431149247" lon="11.203852032341885"><ele>162.0</ele><time>2026-04-03T10:31:48.937Z</time></trkpt><trkpt lat="43.73028848231176" lon="11.203779687175327"><ele>162.0</ele><time>2026-04-03T10:31:49.937Z</time></trkpt><trkpt lat="43.73043723473657" lon="11.203739571964421"><ele>161.33333333333334</ele><time>2026-04-03T10:31:50.937Z</time></trkpt><trkpt lat="43.73059691430732" lon="11.203731254386815"><ele>160.66666666666669</ele><time>2026-04-03T10:31:51.937Z</time></trkpt><trkpt lat="43.73078596870216" lon="11.203729060825173"><ele>160.0</ele><time>2026-04-03T10:31:52.937Z</time></trkpt><trkpt lat="43.73099245798509" lon="11.203725993898226"><ele>159.0</ele><time>2026-04-03T10:31:53.937Z</time></trkpt><trkpt lat="43.73121298248328" lon="11.203707381955404"><ele>158.0</ele><time>2026-04-03T10:31:54.937Z</time></trkpt><trkpt lat="43.731427078207645" lon="11.203665071551349"><ele>157.0</ele><time>2026-04-03T10:31:55.937Z</time></trkpt><trkpt lat="43.73160422039529" lon="11.203639300239736"><ele>157.0</ele><time>2026-04-03T10:31:56.937Z</time></trkpt><trkpt lat="43.73177684890979" lon="11.203638793461943"><ele>157.0</ele><time>2026-04-03T10:31:57.937Z</time></trkpt><trkpt lat="43.7319275849018" lon="11.203618530999805"><ele>157.0</ele><time>2026-04-03T10:31:58.937Z</time></trkpt><trkpt lat="43.732028420995704" lon="11.203610568614552"><ele>157.0</ele><time>2026-04-03T10:31:59.937Z</time></trkpt><trkpt lat="43.73207902244935" lon="11.203530199341968"><ele>158.0</ele><time>2026-04-03T10:32:00.937Z</time></trkpt><trkpt lat="43.73213649921427" lon="11.203434806322951"><ele>159.0</ele><time>2026-04-03T10:32:01.937Z</time></trkpt><trkpt lat="43.732147625318376" lon="11.203265079642653"><ele>160.0</ele><time>2026-04-03T10:32:02.937Z</time></trkpt><trkpt lat="43.73219291675882" lon="11.203042021093328"><ele>161.0</ele><time>2026-04-03T10:32:03.937Z</time></trkpt><trkpt lat="43.73224013104384" lon="11.202804065387285"><ele>161.0</ele><time>2026-04-03T10:32:04.937Z</time></trkpt><trkpt lat="43.73229315241432" lon="11.202532491502877"><ele>161.0</ele><time>2026-04-03T10:32:05.937Z</time></trkpt><trkpt lat="43.73234568655677" lon="11.202273782337018"><ele>161.0</ele><time>2026-04-03T10:32:06.937Z</time></trkpt><trkpt lat="43.732392396276055" lon="11.202030537976551"><ele>160.25</ele><time>2026-04-03T10:32:07.937Z</time></trkpt><trkpt lat="43.7324476967996" lon="11.20183166942624"><ele>159.5</ele><time>2026-04-03T10:32:08.937Z</time></trkpt><trkpt lat="43.73243380002175" lon="11.201647638127962"><ele>158.75</ele><time>2026-04-03T10:32:09.937Z</time></trkpt><trkpt lat="43.73242653586458" lon="11.201489523791217"><ele>158.0</ele><time>2026-04-03T10:32:10.937Z</time></trkpt><trkpt lat="43.73239980267459" lon="11.201285740013457"><ele>156.66666666666666</ele><time>2026-04-03T10:32:11.937Z</time></trkpt><trkpt lat="43.732357321902185" lon="11.201051400225372"><ele>155.33333333333334</ele><time>2026-04-03T10:32:12.937Z</time></trkpt><trkpt lat="43.73231213561989" lon="11.200832511658326"><ele>154.0</ele><time>2026-04-03T10:32:13.937Z</time></trkpt><trkpt lat="43.73225974219346" lon="11.200542981327812"><ele>149.5</ele><time>2026-04-03T10:32:14.937Z</time></trkpt><trkpt lat="43.73220533600631" lon="11.200245076846402"><ele>145.0</ele><time>2026-04-03T10:32:15.937Z</time></trkpt><trkpt lat="43.732146209877435" lon="11.199929999175282"><ele>142.0</ele><time>2026-04-03T10:32:16.937Z</time></trkpt><trkpt lat="43.73209343915174" lon="11.199638823433162"><ele>139.0</ele><time>2026-04-03T10:32:17.937Z</time></trkpt><trkpt lat="43.73204915170555" lon="11.199386682066244"><ele>136.0</ele><time>2026-04-03T10:32:18.937Z</time></trkpt><trkpt lat="43.73202667473339" lon="11.199131775357374"><ele>135.0</ele><time>2026-04-03T10:32:19.937Z</time></trkpt><trkpt lat="43.73203631305432" lon="11.198918788485932"><ele>134.0</ele><time>2026-04-03T10:32:20.937Z</time></trkpt><trkpt lat="43.73208515957642" lon="11.198727987588525"><ele>133.0</ele><time>2026-04-03T10:32:21.937Z</time></trkpt><trkpt lat="43.73216002243488" lon="11.198498103707161"><ele>133.0</ele><time>2026-04-03T10:32:22.937Z</time></trkpt><trkpt lat="43.732233679357016" lon="11.198276394073654"><ele>133.0</ele><time>2026-04-03T10:32:23.937Z</time></trkpt><trkpt lat="43.73229926013486" lon="11.198082227868158"><ele>133.0</ele><time>2026-04-03T10:32:24.937Z</time></trkpt><trkpt lat="43.7323719104906" lon="11.197892524961574"><ele>132.0</ele><time>2026-04-03T10:32:25.937Z</time></trkpt><trkpt lat="43.732473054751416" lon="11.197735815414353"><ele>131.0</ele><time>2026-04-03T10:32:26.937Z</time></trkpt><trkpt lat="43.73258832170544" lon="11.197605149731837"><ele>130.0</ele><time>2026-04-03T10:32:27.937Z</time></trkpt><trkpt lat="43.732714495040284" lon="11.197460905465094"><ele>127.33333333333334</ele><time>2026-04-03T10:32:28.937Z</time></trkpt><trkpt lat="43.732839442009016" lon="11.197310895068831"><ele>124.66666666666666</ele><time>2026-04-03T10:32:29.937Z</time></trkpt><trkpt lat="43.732933985469565" lon="11.197146047348916"><ele>122.0</ele><time>2026-04-03T10:32:30.937Z</time></trkpt><trkpt lat="43.73299805813709" lon="11.196984938765983"><ele>122.0</ele><time>2026-04-03T10:32:31.937Z</time></trkpt><trkpt lat="43.733018194568196" lon="11.196785228476015"><ele>122.0</ele><time>2026-04-03T10:32:32.938Z</time></trkpt><trkpt lat="43.732992645084586" lon="11.19659242604976"><ele>122.0</ele><time>2026-04-03T10:32:33.938Z</time></trkpt><trkpt lat="43.73295819303115" lon="11.196385796166735"><ele>122.0</ele><time>2026-04-03T10:32:34.938Z</time></trkpt><trkpt lat="43.732917439251516" lon="11.196156108250102"><ele>121.33333333333333</ele><time>2026-04-03T10:32:35.938Z</time></trkpt><trkpt lat="43.73287593401658" lon="11.195922185118505"><ele>120.66666666666666</ele><time>2026-04-03T10:32:36.938Z</time></trkpt><trkpt lat="43.732835872214324" lon="11.195694200053087"><ele>120.0</ele><time>2026-04-03T10:32:37.938Z</time></trkpt><trkpt lat="43.73280486940078" lon="11.195482677254802"><ele>120.0</ele><time>2026-04-03T10:32:38.938Z</time></trkpt><trkpt lat="43.732794728804855" lon="11.19528934612733"><ele>120.0</ele><time>2026-04-03T10:32:39.938Z</time></trkpt><trkpt lat="43.732817291187516" lon="11.195101702039974"><ele>120.0</ele><time>2026-04-03T10:32:40.938Z</time></trkpt><trkpt lat="43.732886532769534" lon="11.194939106548462"><ele>120.0</ele><time>2026-04-03T10:32:41.938Z</time></trkpt><trkpt lat="43.73295048228991" lon="11.194780361857855"><ele>123.0</ele><time>2026-04-03T10:32:42.938Z</time></trkpt><trkpt lat="43.73304537743979" lon="11.194640046004096"><ele>126.0</ele><time>2026-04-03T10:32:43.938Z</time></trkpt><trkpt lat="43.73319332540776" lon="11.194561840784504"><ele>129.0</ele><time>2026-04-03T10:32:44.938Z</time></trkpt><trkpt lat="43.73333888150576" lon="11.194472940445275"><ele>129.0</ele><time>2026-04-03T10:32:45.938Z</time></trkpt><trkpt lat="43.733485662533226" lon="11.194360494884853"><ele>129.0</ele><time>2026-04-03T10:32:46.938Z</time></trkpt><trkpt lat="43.73363887722912" lon="11.194236987882439"><ele>129.0</ele><time>2026-04-03T10:32:47.938Z</time></trkpt><trkpt lat="43.73379068872827" lon="11.194106155604757"><ele>128.33333333333334</ele><time>2026-04-03T10:32:48.938Z</time></trkpt><trkpt lat="43.733931836332246" lon="11.194001285289644"><ele>127.66666666666667</ele><time>2026-04-03T10:32:49.938Z</time></trkpt><trkpt lat="43.734082976675396" lon="11.193928499199076"><ele>127.0</ele><time>2026-04-03T10:32:50.938Z</time></trkpt><trkpt lat="43.73423297657874" lon="11.193856896349253"><ele>125.33333333333334</ele><time>2026-04-03T10:32:51.938Z</time></trkpt><trkpt lat="43.73439123781225" lon="11.193799098341543"><ele>123.66666666666666</ele><time>2026-04-03T10:32:52.938Z</time></trkpt><trkpt lat="43.73455295733759" lon="11.193741022836301"><ele>122.0</ele><time>2026-04-03T10:32:53.938Z</time></trkpt><trkpt lat="43.73472281372888" lon="11.193681993552454"><ele>122.0</ele><time>2026-04-03T10:32:54.938Z</time></trkpt><trkpt lat="43.73489918694048" lon="11.193624534345824"><ele>122.0</ele><time>2026-04-03T10:32:55.938Z</time></trkpt><trkpt lat="43.735061716624884" lon="11.193569479079772"><ele>122.0</ele><time>2026-04-03T10:32:56.938Z</time></trkpt><trkpt lat="43.735227198234846" lon="11.193513314090184"><ele>121.25</ele><time>2026-04-03T10:32:57.938Z</time></trkpt><trkpt lat="43.73537966050238" lon="11.193435830220988"><ele>120.5</ele><time>2026-04-03T10:32:58.938Z</time></trkpt><trkpt lat="43.735517083002705" lon="11.193370449637982"><ele>119.75</ele><time>2026-04-03T10:32:59.938Z</time></trkpt><trkpt lat="43.73563887546325" lon="11.193277131440016"><ele>119.0</ele><time>2026-04-03T10:33:00.938Z</time></trkpt><trkpt lat="43.73571596890615" lon="11.193137197907943"><ele>119.0</ele><time>2026-04-03T10:33:01.938Z</time></trkpt><trkpt lat="43.7357629452733" lon="11.192966016612"><ele>119.0</ele><time>2026-04-03T10:33:02.938Z</time></trkpt><trkpt lat="43.73583686114783" lon="11.192799117859233"><ele>119.0</ele><time>2026-04-03T10:33:03.938Z</time></trkpt><trkpt lat="43.73592220335079" lon="11.192680266006205"><ele>119.0</ele><time>2026-04-03T10:33:04.938Z</time></trkpt><trkpt lat="43.73602766247629" lon="11.19261100771343"><ele>117.33333333333333</ele><time>2026-04-03T10:33:05.938Z</time></trkpt><trkpt lat="43.73615474826713" lon="11.192509253264461"><ele>115.66666666666666</ele><time>2026-04-03T10:33:06.938Z</time></trkpt><trkpt lat="43.736299616562604" lon="11.192425261941528"><ele>114.0</ele><time>2026-04-03T10:33:07.938Z</time></trkpt><trkpt lat="43.736441716735236" lon="11.192354925402613"><ele>113.0</ele><time>2026-04-03T10:33:08.938Z</time></trkpt><trkpt lat="43.73657625600193" lon="11.192270869363323"><ele>112.0</ele><time>2026-04-03T10:33:09.938Z</time></trkpt><trkpt lat="43.73670685977704" lon="11.19218998303764"><ele>111.0</ele><time>2026-04-03T10:33:10.938Z</time></trkpt><trkpt lat="43.73683745672299" lon="11.192110270772421"><ele>110.0</ele><time>2026-04-03T10:33:11.938Z</time></trkpt><trkpt lat="43.73696803413621" lon="11.192030854620084"><ele>109.0</ele><time>2026-04-03T10:33:12.938Z</time></trkpt><trkpt lat="43.737101020478526" lon="11.191948364773307"><ele>108.0</ele><time>2026-04-03T10:33:13.938Z</time></trkpt><trkpt lat="43.73723196521799" lon="11.191858531344286"><ele>107.0</ele><time>2026-04-03T10:33:14.938Z</time></trkpt><trkpt lat="43.737365164263906" lon="11.191771599534311"><ele>106.0</ele><time>2026-04-03T10:33:15.938Z</time></trkpt><trkpt lat="43.737497340680314" lon="11.191678936068548"><ele>106.0</ele><time>2026-04-03T10:33:16.938Z</time></trkpt><trkpt lat="43.73763646502134" lon="11.19158044115049"><ele>106.0</ele><time>2026-04-03T10:33:17.938Z</time></trkpt><trkpt lat="43.73777963752799" lon="11.191479852752986"><ele>106.0</ele><time>2026-04-03T10:33:18.938Z</time></trkpt><trkpt lat="43.737918131759386" lon="11.191381484178379"><ele>104.33333333333334</ele><time>2026-04-03T10:33:19.938Z</time></trkpt><trkpt lat="43.73805711718143" lon="11.191274552668549"><ele>102.66666666666666</ele><time>2026-04-03T10:33:20.938Z</time></trkpt><trkpt lat="43.73819313296246" lon="11.191138906803605"><ele>101.0</ele><time>2026-04-03T10:33:21.938Z</time></trkpt><trkpt lat="43.73832332456741" lon="11.190980178495545"><ele>101.0</ele><time>2026-04-03T10:33:22.938Z</time></trkpt><trkpt lat="43.738442061649685" lon="11.190809244538073"><ele>101.0</ele><time>2026-04-03T10:33:23.938Z</time></trkpt><trkpt lat="43.73854930504545" lon="11.190641545560801"><ele>101.0</ele><time>2026-04-03T10:33:24.938Z</time></trkpt><trkpt lat="43.73865647280194" lon="11.190474647943365"><ele>99.25</ele><time>2026-04-03T10:33:25.938Z</time></trkpt><trkpt lat="43.738748713416896" lon="11.190302793872583"><ele>97.5</ele><time>2026-04-03T10:33:26.938Z</time></trkpt><trkpt lat="43.73882547710884" lon="11.190134497059647"><ele>95.75</ele><time>2026-04-03T10:33:27.938Z</time></trkpt><trkpt lat="43.73891534317289" lon="11.189966870046936"><ele>94.0</ele><time>2026-04-03T10:33:28.938Z</time></trkpt><trkpt lat="43.73901074068281" lon="11.189801187450255"><ele>92.66666666666666</ele><time>2026-04-03T10:33:29.938Z</time></trkpt><trkpt lat="43.73910798804078" lon="11.189637897491101"><ele>91.33333333333333</ele><time>2026-04-03T10:33:30.938Z</time></trkpt><trkpt lat="43.73920402323196" lon="11.189461162003457"><ele>90.0</ele><time>2026-04-03T10:33:31.938Z</time></trkpt><trkpt lat="43.73929400805248" lon="11.189287629392435"><ele>90.0</ele><time>2026-04-03T10:33:32.938Z</time></trkpt><trkpt lat="43.739376192777264" lon="11.189123553689194"><ele>90.0</ele><time>2026-04-03T10:33:33.938Z</time></trkpt><trkpt lat="43.739446359857084" lon="11.18896222230124"><ele>90.0</ele><time>2026-04-03T10:33:34.938Z</time></trkpt><trkpt lat="43.73950998482173" lon="11.188817242109945"><ele>90.0</ele><time>2026-04-03T10:33:35.938Z</time></trkpt><trkpt lat="43.73957099597969" lon="11.188686079635556"><ele>88.2</ele><time>2026-04-03T10:33:36.938Z</time></trkpt><trkpt lat="43.739613262986396" lon="11.18858695713579"><ele>86.4</ele><time>2026-04-03T10:33:37.938Z</time></trkpt><trkpt lat="43.73965570102442" lon="11.188485473310573"><ele>84.6</ele><time>2026-04-03T10:33:38.938Z</time></trkpt><trkpt lat="43.73970592786229" lon="11.188371483997566"><ele>82.8</ele><time>2026-04-03T10:33:39.938Z</time></trkpt><trkpt lat="43.739758177274226" lon="11.188244800059383"><ele>81.0</ele><time>2026-04-03T10:33:40.938Z</time></trkpt><trkpt lat="43.73981360806011" lon="11.188106528732947"><ele>81.0</ele><time>2026-04-03T10:33:41.935Z</time></trkpt><trkpt lat="43.739873814717896" lon="11.187971182479581"><ele>81.0</ele><time>2026-04-03T10:33:42.935Z</time></trkpt><trkpt lat="43.73993334540749" lon="11.187831290089388"><ele>81.0</ele><time>2026-04-03T10:33:43.935Z</time></trkpt><trkpt lat="43.73999330415322" lon="11.187691720789937"><ele>81.0</ele><time>2026-04-03T10:33:44.935Z</time></trkpt><trkpt lat="43.740060032631185" lon="11.18754349852985"><ele>81.0</ele><time>2026-04-03T10:33:45.935Z</time></trkpt><trkpt lat="43.74012469063219" lon="11.187405384679433"><ele>81.0</ele><time>2026-04-03T10:33:46.935Z</time></trkpt><trkpt lat="43.74018555444275" lon="11.187272432158295"><ele>81.0</ele><time>2026-04-03T10:33:47.935Z</time></trkpt><trkpt lat="43.7402533628423" lon="11.187133527054279"><ele>81.0</ele><time>2026-04-03T10:33:48.935Z</time></trkpt><trkpt lat="43.74030801407109" lon="11.186992488388908"><ele>78.5</ele><time>2026-04-03T10:33:49.935Z</time></trkpt><trkpt lat="43.74036638672093" lon="11.186844531481855"><ele>76.0</ele><time>2026-04-03T10:33:50.935Z</time></trkpt><trkpt lat="43.740415855863866" lon="11.186693043870179"><ele>73.5</ele><time>2026-04-03T10:33:51.934Z</time></trkpt><trkpt lat="43.740464281575775" lon="11.186542131153118"><ele>71.0</ele><time>2026-04-03T10:33:52.934Z</time></trkpt><trkpt lat="43.74051555181386" lon="11.186383834242774"><ele>70.0</ele><time>2026-04-03T10:33:53.934Z</time></trkpt><trkpt lat="43.74057767827476" lon="11.186235588135212"><ele>69.0</ele><time>2026-04-03T10:33:54.935Z</time></trkpt><trkpt lat="43.740636773232865" lon="11.186083074484612"><ele>68.0</ele><time>2026-04-03T10:33:55.935Z</time></trkpt><trkpt lat="43.74070576589701" lon="11.185938864813348"><ele>67.0</ele><time>2026-04-03T10:33:56.935Z</time></trkpt><trkpt lat="43.74080132070503" lon="11.185825935745365"><ele>67.0</ele><time>2026-04-03T10:33:57.935Z</time></trkpt><trkpt lat="43.74089270271225" lon="11.185689535670658"><ele>67.0</ele><time>2026-04-03T10:33:58.935Z</time></trkpt><trkpt lat="43.74097680583158" lon="11.185554400466998"><ele>67.0</ele><time>2026-04-03T10:33:59.935Z</time></trkpt><trkpt lat="43.74104057673738" lon="11.185412184006799"><ele>67.0</ele><time>2026-04-03T10:34:00.935Z</time></trkpt><trkpt lat="43.74111228768629" lon="11.185289750700807"><ele>65.0</ele><time>2026-04-03T10:34:01.935Z</time></trkpt><trkpt lat="43.741165425170294" lon="11.18515191487898"><ele>63.0</ele><time>2026-04-03T10:34:02.935Z</time></trkpt><trkpt lat="43.74118007352858" lon="11.185009414634546"><ele>61.0</ele><time>2026-04-03T10:34:03.935Z</time></trkpt><trkpt lat="43.74121685863538" lon="11.184871020358067"><ele>59.0</ele><time>2026-04-03T10:34:04.935Z</time></trkpt><trkpt lat="43.74122690391746" lon="11.184734073050961"><ele>57.0</ele><time>2026-04-03T10:34:05.935Z</time></trkpt><trkpt lat="43.74124372764027" lon="11.184598443307301"><ele>56.833333333333336</ele><time>2026-04-03T10:34:06.935Z</time></trkpt><trkpt lat="43.74125773461198" lon="11.184472721901253"><ele>56.66666666666667</ele><time>2026-04-03T10:34:07.935Z</time></trkpt><trkpt lat="43.741274505860204" lon="11.184349463209196"><ele>56.5</ele><time>2026-04-03T10:34:08.935Z</time></trkpt><trkpt lat="43.74128857415881" lon="11.184230724725744"><ele>56.333333333333336</ele><time>2026-04-03T10:34:09.935Z</time></trkpt><trkpt lat="43.74130608371053" lon="11.18412345776546"><ele>56.16666666666667</ele><time>2026-04-03T10:34:10.935Z</time></trkpt><trkpt lat="43.74133335665835" lon="11.18403849483532"><ele>56.0</ele><time>2026-04-03T10:34:11.935Z</time></trkpt><trkpt lat="43.741380955723564" lon="11.18397779564303"><ele>55.0</ele><time>2026-04-03T10:34:12.935Z</time></trkpt></trkseg></trk></gpx>